<?xml version="1.0" encoding="UTF-8" standalone="no" ?>
<gpx xmlns="http://www.topografix.com/GPX/1/1" xmlns:xsi="http://www.w3.org/2001/XMLSchema-instance" xsi:schemaLocation="http://www.topografix.com/GPX/1/1 http://www.topografix.com/GPX/1/1/gpx.xsd" version="1.1" creator="VisuGPX - https://www.visugpx.com">
  <metadata>
    <name>Champagnat Cyclisme sur route</name>
  </metadata>
  <trk>
    <name><![CDATA[Champagnat Cyclisme sur route_1]]></name>
    <trkseg>
      <trkpt lat="46.48262" lon="5.36826">
        <ele>266.8</ele>
        <time>2022-05-02T12:23:01Z</time>
      </trkpt>
      <trkpt lat="46.48252" lon="5.36815">
        <ele>266.2</ele>
        <time>2022-05-02T12:23:02Z</time>
      </trkpt>
      <trkpt lat="46.48231" lon="5.36797">
        <ele>265</ele>
        <time>2022-05-02T12:23:04Z</time>
      </trkpt>
      <trkpt lat="46.48209" lon="5.36779">
        <ele>263.6</ele>
        <time>2022-05-02T12:23:06Z</time>
      </trkpt>
      <trkpt lat="46.48187" lon="5.3676">
        <ele>261.8</ele>
        <time>2022-05-02T12:23:08Z</time>
      </trkpt>
      <trkpt lat="46.48176" lon="5.36751">
        <ele>260.6</ele>
        <time>2022-05-02T12:23:09Z</time>
      </trkpt>
      <trkpt lat="46.48155" lon="5.36733">
        <ele>259</ele>
        <time>2022-05-02T12:23:11Z</time>
      </trkpt>
      <trkpt lat="46.48135" lon="5.36717">
        <ele>257.6</ele>
        <time>2022-05-02T12:23:13Z</time>
      </trkpt>
      <trkpt lat="46.48126" lon="5.36711">
        <ele>257</ele>
        <time>2022-05-02T12:23:14Z</time>
      </trkpt>
      <trkpt lat="46.48118" lon="5.36706">
        <ele>256.4</ele>
        <time>2022-05-02T12:23:15Z</time>
      </trkpt>
      <trkpt lat="46.48111" lon="5.36701">
        <ele>255.8</ele>
        <time>2022-05-02T12:23:16Z</time>
      </trkpt>
      <trkpt lat="46.48109" lon="5.36693">
        <ele>255.2</ele>
        <time>2022-05-02T12:23:17Z</time>
      </trkpt>
      <trkpt lat="46.4811" lon="5.36684">
        <ele>254.2</ele>
        <time>2022-05-02T12:23:18Z</time>
      </trkpt>
      <trkpt lat="46.48113" lon="5.36676">
        <ele>253.6</ele>
        <time>2022-05-02T12:23:19Z</time>
      </trkpt>
      <trkpt lat="46.48118" lon="5.36669">
        <ele>252.8</ele>
        <time>2022-05-02T12:23:20Z</time>
      </trkpt>
      <trkpt lat="46.48124" lon="5.36663">
        <ele>252.2</ele>
        <time>2022-05-02T12:23:21Z</time>
      </trkpt>
      <trkpt lat="46.4813" lon="5.36657">
        <ele>251</ele>
        <time>2022-05-02T12:23:22Z</time>
      </trkpt>
      <trkpt lat="46.48136" lon="5.36651">
        <ele>249.8</ele>
        <time>2022-05-02T12:23:23Z</time>
      </trkpt>
      <trkpt lat="46.48155" lon="5.36631">
        <ele>248.8</ele>
        <time>2022-05-02T12:23:26Z</time>
      </trkpt>
      <trkpt lat="46.48169" lon="5.36617">
        <ele>248.4</ele>
        <time>2022-05-02T12:23:28Z</time>
      </trkpt>
      <trkpt lat="46.48184" lon="5.36607">
        <ele>248.2</ele>
        <time>2022-05-02T12:23:30Z</time>
      </trkpt>
      <trkpt lat="46.482" lon="5.36602">
        <ele>248.2</ele>
        <time>2022-05-02T12:23:32Z</time>
      </trkpt>
      <trkpt lat="46.48208" lon="5.36599">
        <ele>248.2</ele>
        <time>2022-05-02T12:23:33Z</time>
      </trkpt>
      <trkpt lat="46.4822" lon="5.36586">
        <ele>248.2</ele>
        <time>2022-05-02T12:23:35Z</time>
      </trkpt>
      <trkpt lat="46.48226" lon="5.36567">
        <ele>247.8</ele>
        <time>2022-05-02T12:23:37Z</time>
      </trkpt>
      <trkpt lat="46.4823" lon="5.36557">
        <ele>247.6</ele>
        <time>2022-05-02T12:23:38Z</time>
      </trkpt>
      <trkpt lat="46.48235" lon="5.3655">
        <ele>247.4</ele>
        <time>2022-05-02T12:23:39Z</time>
      </trkpt>
      <trkpt lat="46.48253" lon="5.3653">
        <ele>247.2</ele>
        <time>2022-05-02T12:23:42Z</time>
      </trkpt>
      <trkpt lat="46.48271" lon="5.3651">
        <ele>246.6</ele>
        <time>2022-05-02T12:23:45Z</time>
      </trkpt>
      <trkpt lat="46.48308" lon="5.36469">
        <ele>245.6</ele>
        <time>2022-05-02T12:23:51Z</time>
      </trkpt>
      <trkpt lat="46.48321" lon="5.36455">
        <ele>245.2</ele>
        <time>2022-05-02T12:23:53Z</time>
      </trkpt>
      <trkpt lat="46.48347" lon="5.36426">
        <ele>244.4</ele>
        <time>2022-05-02T12:23:57Z</time>
      </trkpt>
      <trkpt lat="46.48374" lon="5.36396">
        <ele>243.2</ele>
        <time>2022-05-02T12:24:01Z</time>
      </trkpt>
      <trkpt lat="46.48388" lon="5.36382">
        <ele>242.8</ele>
        <time>2022-05-02T12:24:03Z</time>
      </trkpt>
      <trkpt lat="46.48401" lon="5.36369">
        <ele>242</ele>
        <time>2022-05-02T12:24:05Z</time>
      </trkpt>
      <trkpt lat="46.48422" lon="5.36355">
        <ele>241.6</ele>
        <time>2022-05-02T12:24:08Z</time>
      </trkpt>
      <trkpt lat="46.48445" lon="5.36349">
        <ele>241</ele>
        <time>2022-05-02T12:24:11Z</time>
      </trkpt>
      <trkpt lat="46.48452" lon="5.36347">
        <ele>240.8</ele>
        <time>2022-05-02T12:24:12Z</time>
      </trkpt>
      <trkpt lat="46.4851" lon="5.36338">
        <ele>240.6</ele>
        <time>2022-05-02T12:24:20Z</time>
      </trkpt>
      <trkpt lat="46.48524" lon="5.36336">
        <ele>240.4</ele>
        <time>2022-05-02T12:24:22Z</time>
      </trkpt>
      <trkpt lat="46.48581" lon="5.36326">
        <ele>240.2</ele>
        <time>2022-05-02T12:24:30Z</time>
      </trkpt>
      <trkpt lat="46.48589" lon="5.36325">
        <ele>240</ele>
        <time>2022-05-02T12:24:31Z</time>
      </trkpt>
      <trkpt lat="46.48612" lon="5.3632">
        <ele>239.2</ele>
        <time>2022-05-02T12:24:34Z</time>
      </trkpt>
      <trkpt lat="46.48619" lon="5.36316">
        <ele>239</ele>
        <time>2022-05-02T12:24:35Z</time>
      </trkpt>
      <trkpt lat="46.48626" lon="5.36309">
        <ele>238.8</ele>
        <time>2022-05-02T12:24:36Z</time>
      </trkpt>
      <trkpt lat="46.48635" lon="5.36289">
        <ele>238.2</ele>
        <time>2022-05-02T12:24:38Z</time>
      </trkpt>
      <trkpt lat="46.48637" lon="5.36277">
        <ele>237.8</ele>
        <time>2022-05-02T12:24:39Z</time>
      </trkpt>
      <trkpt lat="46.4864" lon="5.3625">
        <ele>236.8</ele>
        <time>2022-05-02T12:24:41Z</time>
      </trkpt>
      <trkpt lat="46.48643" lon="5.36209">
        <ele>235.8</ele>
        <time>2022-05-02T12:24:44Z</time>
      </trkpt>
      <trkpt lat="46.48646" lon="5.36169">
        <ele>234.6</ele>
        <time>2022-05-02T12:24:47Z</time>
      </trkpt>
      <trkpt lat="46.4865" lon="5.36131">
        <ele>234</ele>
        <time>2022-05-02T12:24:50Z</time>
      </trkpt>
      <trkpt lat="46.48652" lon="5.36119">
        <ele>233.6</ele>
        <time>2022-05-02T12:24:51Z</time>
      </trkpt>
      <trkpt lat="46.48655" lon="5.36107">
        <ele>233.4</ele>
        <time>2022-05-02T12:24:52Z</time>
      </trkpt>
      <trkpt lat="46.48665" lon="5.36062">
        <ele>232.8</ele>
        <time>2022-05-02T12:24:56Z</time>
      </trkpt>
      <trkpt lat="46.48676" lon="5.36015">
        <ele>232.8</ele>
        <time>2022-05-02T12:25:01Z</time>
      </trkpt>
      <trkpt lat="46.48678" lon="5.36007">
        <ele>232.8</ele>
        <time>2022-05-02T12:25:02Z</time>
      </trkpt>
      <trkpt lat="46.48679" lon="5.35999">
        <ele>233.2</ele>
        <time>2022-05-02T12:25:03Z</time>
      </trkpt>
      <trkpt lat="46.48686" lon="5.35963">
        <ele>233.8</ele>
        <time>2022-05-02T12:25:07Z</time>
      </trkpt>
      <trkpt lat="46.48691" lon="5.35923">
        <ele>234.4</ele>
        <time>2022-05-02T12:25:11Z</time>
      </trkpt>
      <trkpt lat="46.48697" lon="5.35903">
        <ele>234.4</ele>
        <time>2022-05-02T12:25:13Z</time>
      </trkpt>
      <trkpt lat="46.48719" lon="5.35845">
        <ele>234</ele>
        <time>2022-05-02T12:25:19Z</time>
      </trkpt>
      <trkpt lat="46.48727" lon="5.35825">
        <ele>233.6</ele>
        <time>2022-05-02T12:25:21Z</time>
      </trkpt>
      <trkpt lat="46.48754" lon="5.35762">
        <ele>232.6</ele>
        <time>2022-05-02T12:25:28Z</time>
      </trkpt>
      <trkpt lat="46.48757" lon="5.35753">
        <ele>232.2</ele>
        <time>2022-05-02T12:25:29Z</time>
      </trkpt>
      <trkpt lat="46.48777" lon="5.35709">
        <ele>231.6</ele>
        <time>2022-05-02T12:25:34Z</time>
      </trkpt>
      <trkpt lat="46.48788" lon="5.35683">
        <ele>231.6</ele>
        <time>2022-05-02T12:25:37Z</time>
      </trkpt>
      <trkpt lat="46.4881" lon="5.35633">
        <ele>231.8</ele>
        <time>2022-05-02T12:25:43Z</time>
      </trkpt>
      <trkpt lat="46.48837" lon="5.35577">
        <ele>231.6</ele>
        <time>2022-05-02T12:25:50Z</time>
      </trkpt>
      <trkpt lat="46.48866" lon="5.35512">
        <ele>231.6</ele>
        <time>2022-05-02T12:25:58Z</time>
      </trkpt>
      <trkpt lat="46.4887" lon="5.35504">
        <ele>231.6</ele>
        <time>2022-05-02T12:25:59Z</time>
      </trkpt>
      <trkpt lat="46.48892" lon="5.35452">
        <ele>231.6</ele>
        <time>2022-05-02T12:26:05Z</time>
      </trkpt>
      <trkpt lat="46.48918" lon="5.35391">
        <ele>231.2</ele>
        <time>2022-05-02T12:26:12Z</time>
      </trkpt>
      <trkpt lat="46.48922" lon="5.35381">
        <ele>231</ele>
        <time>2022-05-02T12:26:13Z</time>
      </trkpt>
      <trkpt lat="46.48946" lon="5.35327">
        <ele>230.6</ele>
        <time>2022-05-02T12:26:19Z</time>
      </trkpt>
      <trkpt lat="46.48971" lon="5.35268">
        <ele>230.4</ele>
        <time>2022-05-02T12:26:26Z</time>
      </trkpt>
      <trkpt lat="46.48988" lon="5.35228">
        <ele>230.8</ele>
        <time>2022-05-02T12:26:31Z</time>
      </trkpt>
      <trkpt lat="46.48995" lon="5.35213">
        <ele>230.6</ele>
        <time>2022-05-02T12:26:33Z</time>
      </trkpt>
      <trkpt lat="46.49015" lon="5.35171">
        <ele>231.2</ele>
        <time>2022-05-02T12:26:39Z</time>
      </trkpt>
      <trkpt lat="46.49034" lon="5.35128">
        <ele>232.2</ele>
        <time>2022-05-02T12:26:45Z</time>
      </trkpt>
      <trkpt lat="46.49042" lon="5.35115">
        <ele>232.2</ele>
        <time>2022-05-02T12:26:47Z</time>
      </trkpt>
      <trkpt lat="46.49063" lon="5.35097">
        <ele>232.2</ele>
        <time>2022-05-02T12:26:51Z</time>
      </trkpt>
      <trkpt lat="46.49113" lon="5.35055">
        <ele>231.6</ele>
        <time>2022-05-02T12:27:00Z</time>
      </trkpt>
      <trkpt lat="46.49132" lon="5.35039">
        <ele>231.2</ele>
        <time>2022-05-02T12:27:03Z</time>
      </trkpt>
      <trkpt lat="46.49138" lon="5.35034">
        <ele>231</ele>
        <time>2022-05-02T12:27:04Z</time>
      </trkpt>
      <trkpt lat="46.4917" lon="5.35011">
        <ele>230.4</ele>
        <time>2022-05-02T12:27:09Z</time>
      </trkpt>
      <trkpt lat="46.49177" lon="5.35007">
        <ele>230.4</ele>
        <time>2022-05-02T12:27:10Z</time>
      </trkpt>
      <trkpt lat="46.49184" lon="5.35002">
        <ele>230.2</ele>
        <time>2022-05-02T12:27:11Z</time>
      </trkpt>
      <trkpt lat="46.49199" lon="5.34981">
        <ele>230.2</ele>
        <time>2022-05-02T12:27:14Z</time>
      </trkpt>
      <trkpt lat="46.49208" lon="5.34963">
        <ele>230.2</ele>
        <time>2022-05-02T12:27:16Z</time>
      </trkpt>
      <trkpt lat="46.49218" lon="5.34947">
        <ele>230.2</ele>
        <time>2022-05-02T12:27:18Z</time>
      </trkpt>
      <trkpt lat="46.49231" lon="5.34925">
        <ele>230</ele>
        <time>2022-05-02T12:27:21Z</time>
      </trkpt>
      <trkpt lat="46.49245" lon="5.34901">
        <ele>229.8</ele>
        <time>2022-05-02T12:27:24Z</time>
      </trkpt>
      <trkpt lat="46.4927" lon="5.34866">
        <ele>229.6</ele>
        <time>2022-05-02T12:27:29Z</time>
      </trkpt>
      <trkpt lat="46.49281" lon="5.34855">
        <ele>229.6</ele>
        <time>2022-05-02T12:27:31Z</time>
      </trkpt>
      <trkpt lat="46.49305" lon="5.3484">
        <ele>229.6</ele>
        <time>2022-05-02T12:27:35Z</time>
      </trkpt>
      <trkpt lat="46.49312" lon="5.34838">
        <ele>229.6</ele>
        <time>2022-05-02T12:27:36Z</time>
      </trkpt>
      <trkpt lat="46.49332" lon="5.34835">
        <ele>229.4</ele>
        <time>2022-05-02T12:27:39Z</time>
      </trkpt>
      <trkpt lat="46.49358" lon="5.34831">
        <ele>229.2</ele>
        <time>2022-05-02T12:27:43Z</time>
      </trkpt>
      <trkpt lat="46.4937" lon="5.34828">
        <ele>229.2</ele>
        <time>2022-05-02T12:27:45Z</time>
      </trkpt>
      <trkpt lat="46.49389" lon="5.34823">
        <ele>229.2</ele>
        <time>2022-05-02T12:27:48Z</time>
      </trkpt>
      <trkpt lat="46.49425" lon="5.34803">
        <ele>229.2</ele>
        <time>2022-05-02T12:27:54Z</time>
      </trkpt>
      <trkpt lat="46.49454" lon="5.34775">
        <ele>228.6</ele>
        <time>2022-05-02T12:27:59Z</time>
      </trkpt>
      <trkpt lat="46.49468" lon="5.3476">
        <ele>228.4</ele>
        <time>2022-05-02T12:28:01Z</time>
      </trkpt>
      <trkpt lat="46.49493" lon="5.34727">
        <ele>227</ele>
        <time>2022-05-02T12:28:05Z</time>
      </trkpt>
      <trkpt lat="46.49501" lon="5.34716">
        <ele>226.8</ele>
        <time>2022-05-02T12:28:06Z</time>
      </trkpt>
      <trkpt lat="46.49523" lon="5.34685">
        <ele>225.6</ele>
        <time>2022-05-02T12:28:09Z</time>
      </trkpt>
      <trkpt lat="46.49545" lon="5.34661">
        <ele>224.6</ele>
        <time>2022-05-02T12:28:12Z</time>
      </trkpt>
      <trkpt lat="46.49552" lon="5.34652">
        <ele>223.6</ele>
        <time>2022-05-02T12:28:13Z</time>
      </trkpt>
      <trkpt lat="46.49576" lon="5.34624">
        <ele>221.8</ele>
        <time>2022-05-02T12:28:16Z</time>
      </trkpt>
      <trkpt lat="46.49582" lon="5.34617">
        <ele>221.4</ele>
        <time>2022-05-02T12:28:17Z</time>
      </trkpt>
      <trkpt lat="46.49596" lon="5.34597">
        <ele>220.8</ele>
        <time>2022-05-02T12:28:19Z</time>
      </trkpt>
      <trkpt lat="46.49621" lon="5.34561">
        <ele>219.4</ele>
        <time>2022-05-02T12:28:23Z</time>
      </trkpt>
      <trkpt lat="46.49627" lon="5.34554">
        <ele>219.2</ele>
        <time>2022-05-02T12:28:24Z</time>
      </trkpt>
      <trkpt lat="46.49633" lon="5.34548">
        <ele>218.8</ele>
        <time>2022-05-02T12:28:25Z</time>
      </trkpt>
      <trkpt lat="46.49643" lon="5.3454">
        <ele>218</ele>
        <time>2022-05-02T12:28:27Z</time>
      </trkpt>
      <trkpt lat="46.49651" lon="5.3453">
        <ele>217.6</ele>
        <time>2022-05-02T12:28:30Z</time>
      </trkpt>
      <trkpt lat="46.49658" lon="5.34513">
        <ele>217.4</ele>
        <time>2022-05-02T12:28:33Z</time>
      </trkpt>
      <trkpt lat="46.4966" lon="5.34506">
        <ele>217.4</ele>
        <time>2022-05-02T12:28:34Z</time>
      </trkpt>
      <trkpt lat="46.49672" lon="5.34461">
        <ele>217.4</ele>
        <time>2022-05-02T12:28:40Z</time>
      </trkpt>
      <trkpt lat="46.49686" lon="5.34413">
        <ele>218.4</ele>
        <time>2022-05-02T12:28:47Z</time>
      </trkpt>
      <trkpt lat="46.49688" lon="5.34407">
        <ele>218.6</ele>
        <time>2022-05-02T12:28:48Z</time>
      </trkpt>
      <trkpt lat="46.49695" lon="5.34387">
        <ele>219.2</ele>
        <time>2022-05-02T12:28:51Z</time>
      </trkpt>
      <trkpt lat="46.49698" lon="5.34382">
        <ele>219.4</ele>
        <time>2022-05-02T12:28:52Z</time>
      </trkpt>
      <trkpt lat="46.49699" lon="5.34376">
        <ele>219.6</ele>
        <time>2022-05-02T12:28:53Z</time>
      </trkpt>
      <trkpt lat="46.49702" lon="5.34361">
        <ele>220.2</ele>
        <time>2022-05-02T12:28:55Z</time>
      </trkpt>
      <trkpt lat="46.49706" lon="5.34345">
        <ele>220.6</ele>
        <time>2022-05-02T12:28:57Z</time>
      </trkpt>
      <trkpt lat="46.49706" lon="5.34337">
        <ele>220.8</ele>
        <time>2022-05-02T12:28:58Z</time>
      </trkpt>
      <trkpt lat="46.49712" lon="5.34326">
        <ele>221.2</ele>
        <time>2022-05-02T12:29:00Z</time>
      </trkpt>
      <trkpt lat="46.49722" lon="5.343">
        <ele>222</ele>
        <time>2022-05-02T12:29:04Z</time>
      </trkpt>
      <trkpt lat="46.49739" lon="5.34266">
        <ele>222.2</ele>
        <time>2022-05-02T12:29:09Z</time>
      </trkpt>
      <trkpt lat="46.49743" lon="5.3426">
        <ele>222.2</ele>
        <time>2022-05-02T12:29:10Z</time>
      </trkpt>
      <trkpt lat="46.49751" lon="5.34248">
        <ele>221.8</ele>
        <time>2022-05-02T12:29:12Z</time>
      </trkpt>
      <trkpt lat="46.49767" lon="5.34223">
        <ele>221.6</ele>
        <time>2022-05-02T12:29:16Z</time>
      </trkpt>
      <trkpt lat="46.49776" lon="5.3421">
        <ele>221.4</ele>
        <time>2022-05-02T12:29:18Z</time>
      </trkpt>
      <trkpt lat="46.49791" lon="5.34188">
        <ele>221.6</ele>
        <time>2022-05-02T12:29:22Z</time>
      </trkpt>
      <trkpt lat="46.498" lon="5.34177">
        <ele>221.8</ele>
        <time>2022-05-02T12:29:24Z</time>
      </trkpt>
      <trkpt lat="46.49819" lon="5.34146">
        <ele>222.2</ele>
        <time>2022-05-02T12:29:29Z</time>
      </trkpt>
      <trkpt lat="46.49822" lon="5.34139">
        <ele>222.2</ele>
        <time>2022-05-02T12:29:30Z</time>
      </trkpt>
      <trkpt lat="46.49843" lon="5.34106">
        <ele>222.4</ele>
        <time>2022-05-02T12:29:35Z</time>
      </trkpt>
      <trkpt lat="46.49877" lon="5.34058">
        <ele>222.2</ele>
        <time>2022-05-02T12:29:42Z</time>
      </trkpt>
      <trkpt lat="46.49902" lon="5.34026">
        <ele>222</ele>
        <time>2022-05-02T12:29:47Z</time>
      </trkpt>
      <trkpt lat="46.49907" lon="5.3402">
        <ele>222</ele>
        <time>2022-05-02T12:29:48Z</time>
      </trkpt>
      <trkpt lat="46.49912" lon="5.34015">
        <ele>222</ele>
        <time>2022-05-02T12:29:49Z</time>
      </trkpt>
      <trkpt lat="46.49921" lon="5.34004">
        <ele>222.2</ele>
        <time>2022-05-02T12:29:51Z</time>
      </trkpt>
      <trkpt lat="46.49925" lon="5.33997">
        <ele>222.2</ele>
        <time>2022-05-02T12:29:52Z</time>
      </trkpt>
      <trkpt lat="46.49935" lon="5.3398">
        <ele>222.8</ele>
        <time>2022-05-02T12:29:55Z</time>
      </trkpt>
      <trkpt lat="46.4995" lon="5.33965">
        <ele>223.4</ele>
        <time>2022-05-02T12:29:58Z</time>
      </trkpt>
      <trkpt lat="46.49965" lon="5.33949">
        <ele>223.8</ele>
        <time>2022-05-02T12:30:01Z</time>
      </trkpt>
      <trkpt lat="46.49974" lon="5.33938">
        <ele>224.2</ele>
        <time>2022-05-02T12:30:03Z</time>
      </trkpt>
      <trkpt lat="46.49984" lon="5.33928">
        <ele>224.6</ele>
        <time>2022-05-02T12:30:05Z</time>
      </trkpt>
      <trkpt lat="46.50015" lon="5.33896">
        <ele>225</ele>
        <time>2022-05-02T12:30:11Z</time>
      </trkpt>
      <trkpt lat="46.50059" lon="5.33849">
        <ele>224.8</ele>
        <time>2022-05-02T12:30:19Z</time>
      </trkpt>
      <trkpt lat="46.50091" lon="5.33816">
        <ele>224.6</ele>
        <time>2022-05-02T12:30:24Z</time>
      </trkpt>
      <trkpt lat="46.50129" lon="5.33775">
        <ele>223.4</ele>
        <time>2022-05-02T12:30:30Z</time>
      </trkpt>
      <trkpt lat="46.50149" lon="5.33756">
        <ele>222.8</ele>
        <time>2022-05-02T12:30:33Z</time>
      </trkpt>
      <trkpt lat="46.5016" lon="5.33747">
        <ele>222.8</ele>
        <time>2022-05-02T12:30:35Z</time>
      </trkpt>
      <trkpt lat="46.5019" lon="5.33722">
        <ele>222.8</ele>
        <time>2022-05-02T12:30:40Z</time>
      </trkpt>
      <trkpt lat="46.50205" lon="5.33703">
        <ele>223.2</ele>
        <time>2022-05-02T12:30:43Z</time>
      </trkpt>
      <trkpt lat="46.50216" lon="5.33691">
        <ele>223.2</ele>
        <time>2022-05-02T12:30:45Z</time>
      </trkpt>
      <trkpt lat="46.50251" lon="5.33651">
        <ele>223.2</ele>
        <time>2022-05-02T12:30:52Z</time>
      </trkpt>
      <trkpt lat="46.50272" lon="5.33626">
        <ele>222.8</ele>
        <time>2022-05-02T12:30:56Z</time>
      </trkpt>
      <trkpt lat="46.50283" lon="5.33615">
        <ele>222.6</ele>
        <time>2022-05-02T12:30:58Z</time>
      </trkpt>
      <trkpt lat="46.50298" lon="5.33597">
        <ele>222.4</ele>
        <time>2022-05-02T12:31:01Z</time>
      </trkpt>
      <trkpt lat="46.50314" lon="5.33579">
        <ele>222.4</ele>
        <time>2022-05-02T12:31:04Z</time>
      </trkpt>
      <trkpt lat="46.50362" lon="5.3353">
        <ele>222.4</ele>
        <time>2022-05-02T12:31:12Z</time>
      </trkpt>
      <trkpt lat="46.50372" lon="5.33519">
        <ele>222</ele>
        <time>2022-05-02T12:31:14Z</time>
      </trkpt>
      <trkpt lat="46.50408" lon="5.33482">
        <ele>221.4</ele>
        <time>2022-05-02T12:31:20Z</time>
      </trkpt>
      <trkpt lat="46.50426" lon="5.33463">
        <ele>220.8</ele>
        <time>2022-05-02T12:31:23Z</time>
      </trkpt>
      <trkpt lat="46.50437" lon="5.3345">
        <ele>220.4</ele>
        <time>2022-05-02T12:31:25Z</time>
      </trkpt>
      <trkpt lat="46.50447" lon="5.33433">
        <ele>220.2</ele>
        <time>2022-05-02T12:31:27Z</time>
      </trkpt>
      <trkpt lat="46.50452" lon="5.33425">
        <ele>220</ele>
        <time>2022-05-02T12:31:28Z</time>
      </trkpt>
      <trkpt lat="46.50456" lon="5.33416">
        <ele>219.8</ele>
        <time>2022-05-02T12:31:29Z</time>
      </trkpt>
      <trkpt lat="46.50459" lon="5.33405">
        <ele>219.6</ele>
        <time>2022-05-02T12:31:30Z</time>
      </trkpt>
      <trkpt lat="46.50462" lon="5.33395">
        <ele>219.6</ele>
        <time>2022-05-02T12:31:31Z</time>
      </trkpt>
      <trkpt lat="46.50467" lon="5.33376">
        <ele>219.4</ele>
        <time>2022-05-02T12:31:33Z</time>
      </trkpt>
      <trkpt lat="46.5047" lon="5.33344">
        <ele>219</ele>
        <time>2022-05-02T12:31:36Z</time>
      </trkpt>
      <trkpt lat="46.50471" lon="5.33319">
        <ele>218.6</ele>
        <time>2022-05-02T12:31:38Z</time>
      </trkpt>
      <trkpt lat="46.50472" lon="5.33292">
        <ele>218.6</ele>
        <time>2022-05-02T12:31:41Z</time>
      </trkpt>
      <trkpt lat="46.50472" lon="5.3328">
        <ele>218.6</ele>
        <time>2022-05-02T12:31:42Z</time>
      </trkpt>
      <trkpt lat="46.50472" lon="5.33271">
        <ele>218.6</ele>
        <time>2022-05-02T12:31:43Z</time>
      </trkpt>
      <trkpt lat="46.50472" lon="5.33233">
        <ele>219</ele>
        <time>2022-05-02T12:31:47Z</time>
      </trkpt>
      <trkpt lat="46.50472" lon="5.33173">
        <ele>219.4</ele>
        <time>2022-05-02T12:31:53Z</time>
      </trkpt>
      <trkpt lat="46.5047" lon="5.33111">
        <ele>219.4</ele>
        <time>2022-05-02T12:31:58Z</time>
      </trkpt>
      <trkpt lat="46.50471" lon="5.33048">
        <ele>218.2</ele>
        <time>2022-05-02T12:32:03Z</time>
      </trkpt>
      <trkpt lat="46.50472" lon="5.3301">
        <ele>217.2</ele>
        <time>2022-05-02T12:32:06Z</time>
      </trkpt>
      <trkpt lat="46.50473" lon="5.32987">
        <ele>216.4</ele>
        <time>2022-05-02T12:32:08Z</time>
      </trkpt>
      <trkpt lat="46.50473" lon="5.32974">
        <ele>216.2</ele>
        <time>2022-05-02T12:32:09Z</time>
      </trkpt>
      <trkpt lat="46.50473" lon="5.32931">
        <ele>214.6</ele>
        <time>2022-05-02T12:32:12Z</time>
      </trkpt>
      <trkpt lat="46.50473" lon="5.32904">
        <ele>213.6</ele>
        <time>2022-05-02T12:32:14Z</time>
      </trkpt>
      <trkpt lat="46.50474" lon="5.3288">
        <ele>212.8</ele>
        <time>2022-05-02T12:32:16Z</time>
      </trkpt>
      <trkpt lat="46.50474" lon="5.32866">
        <ele>212.2</ele>
        <time>2022-05-02T12:32:17Z</time>
      </trkpt>
      <trkpt lat="46.50475" lon="5.32823">
        <ele>210.8</ele>
        <time>2022-05-02T12:32:20Z</time>
      </trkpt>
      <trkpt lat="46.50475" lon="5.32795">
        <ele>209.4</ele>
        <time>2022-05-02T12:32:22Z</time>
      </trkpt>
      <trkpt lat="46.50475" lon="5.32755">
        <ele>208.4</ele>
        <time>2022-05-02T12:32:25Z</time>
      </trkpt>
      <trkpt lat="46.50476" lon="5.32741">
        <ele>208</ele>
        <time>2022-05-02T12:32:26Z</time>
      </trkpt>
      <trkpt lat="46.50476" lon="5.32702">
        <ele>207</ele>
        <time>2022-05-02T12:32:29Z</time>
      </trkpt>
      <trkpt lat="46.50478" lon="5.32635">
        <ele>206.6</ele>
        <time>2022-05-02T12:32:34Z</time>
      </trkpt>
      <trkpt lat="46.50475" lon="5.3257">
        <ele>206</ele>
        <time>2022-05-02T12:32:39Z</time>
      </trkpt>
      <trkpt lat="46.50475" lon="5.32547">
        <ele>206</ele>
        <time>2022-05-02T12:32:41Z</time>
      </trkpt>
      <trkpt lat="46.50471" lon="5.3247">
        <ele>204.8</ele>
        <time>2022-05-02T12:32:47Z</time>
      </trkpt>
      <trkpt lat="46.50468" lon="5.32448">
        <ele>204.4</ele>
        <time>2022-05-02T12:32:49Z</time>
      </trkpt>
      <trkpt lat="46.50462" lon="5.3241">
        <ele>203.8</ele>
        <time>2022-05-02T12:32:52Z</time>
      </trkpt>
      <trkpt lat="46.50453" lon="5.32368">
        <ele>203.4</ele>
        <time>2022-05-02T12:32:56Z</time>
      </trkpt>
      <trkpt lat="46.50436" lon="5.32282">
        <ele>203</ele>
        <time>2022-05-02T12:33:04Z</time>
      </trkpt>
      <trkpt lat="46.50432" lon="5.32219">
        <ele>203</ele>
        <time>2022-05-02T12:33:10Z</time>
      </trkpt>
      <trkpt lat="46.50436" lon="5.32202">
        <ele>203</ele>
        <time>2022-05-02T12:33:12Z</time>
      </trkpt>
      <trkpt lat="46.5044" lon="5.32193">
        <ele>203</ele>
        <time>2022-05-02T12:33:13Z</time>
      </trkpt>
      <trkpt lat="46.50444" lon="5.32189">
        <ele>203</ele>
        <time>2022-05-02T12:33:14Z</time>
      </trkpt>
      <trkpt lat="46.50461" lon="5.32174">
        <ele>202.8</ele>
        <time>2022-05-02T12:33:17Z</time>
      </trkpt>
      <trkpt lat="46.50465" lon="5.32167">
        <ele>202.8</ele>
        <time>2022-05-02T12:33:18Z</time>
      </trkpt>
      <trkpt lat="46.50468" lon="5.32159">
        <ele>202.8</ele>
        <time>2022-05-02T12:33:19Z</time>
      </trkpt>
      <trkpt lat="46.5047" lon="5.32151">
        <ele>202.8</ele>
        <time>2022-05-02T12:33:20Z</time>
      </trkpt>
      <trkpt lat="46.5049" lon="5.32092">
        <ele>202.6</ele>
        <time>2022-05-02T12:33:27Z</time>
      </trkpt>
      <trkpt lat="46.50522" lon="5.32032">
        <ele>202.4</ele>
        <time>2022-05-02T12:33:35Z</time>
      </trkpt>
      <trkpt lat="46.50552" lon="5.3199">
        <ele>202.6</ele>
        <time>2022-05-02T12:33:42Z</time>
      </trkpt>
      <trkpt lat="46.50567" lon="5.31952">
        <ele>203.6</ele>
        <time>2022-05-02T12:33:48Z</time>
      </trkpt>
      <trkpt lat="46.50573" lon="5.31937">
        <ele>203.8</ele>
        <time>2022-05-02T12:33:51Z</time>
      </trkpt>
      <trkpt lat="46.50577" lon="5.31925">
        <ele>204.6</ele>
        <time>2022-05-02T12:33:53Z</time>
      </trkpt>
      <trkpt lat="46.50581" lon="5.31916">
        <ele>205.4</ele>
        <time>2022-05-02T12:33:55Z</time>
      </trkpt>
      <trkpt lat="46.50587" lon="5.319">
        <ele>206.4</ele>
        <time>2022-05-02T12:33:58Z</time>
      </trkpt>
      <trkpt lat="46.5059" lon="5.3189">
        <ele>206.8</ele>
        <time>2022-05-02T12:34:00Z</time>
      </trkpt>
      <trkpt lat="46.50597" lon="5.31871">
        <ele>207.6</ele>
        <time>2022-05-02T12:34:04Z</time>
      </trkpt>
      <trkpt lat="46.50603" lon="5.3186">
        <ele>207.8</ele>
        <time>2022-05-02T12:34:06Z</time>
      </trkpt>
      <trkpt lat="46.50612" lon="5.31841">
        <ele>208.6</ele>
        <time>2022-05-02T12:34:10Z</time>
      </trkpt>
      <trkpt lat="46.50614" lon="5.31836">
        <ele>208.8</ele>
        <time>2022-05-02T12:34:11Z</time>
      </trkpt>
      <trkpt lat="46.50616" lon="5.3183">
        <ele>209</ele>
        <time>2022-05-02T12:34:12Z</time>
      </trkpt>
      <trkpt lat="46.50619" lon="5.31819">
        <ele>209.8</ele>
        <time>2022-05-02T12:34:14Z</time>
      </trkpt>
      <trkpt lat="46.50621" lon="5.31811">
        <ele>209.8</ele>
        <time>2022-05-02T12:34:15Z</time>
      </trkpt>
      <trkpt lat="46.50632" lon="5.31773">
        <ele>210.8</ele>
        <time>2022-05-02T12:34:21Z</time>
      </trkpt>
      <trkpt lat="46.50636" lon="5.31759">
        <ele>211.2</ele>
        <time>2022-05-02T12:34:23Z</time>
      </trkpt>
      <trkpt lat="46.50644" lon="5.3174">
        <ele>211.4</ele>
        <time>2022-05-02T12:34:26Z</time>
      </trkpt>
      <trkpt lat="46.50655" lon="5.31725">
        <ele>211.6</ele>
        <time>2022-05-02T12:34:29Z</time>
      </trkpt>
      <trkpt lat="46.50659" lon="5.31721">
        <ele>211.6</ele>
        <time>2022-05-02T12:34:30Z</time>
      </trkpt>
      <trkpt lat="46.50674" lon="5.31714">
        <ele>211.6</ele>
        <time>2022-05-02T12:34:33Z</time>
      </trkpt>
      <trkpt lat="46.50719" lon="5.31708">
        <ele>211.4</ele>
        <time>2022-05-02T12:34:41Z</time>
      </trkpt>
      <trkpt lat="46.50761" lon="5.31705">
        <ele>211.8</ele>
        <time>2022-05-02T12:34:48Z</time>
      </trkpt>
      <trkpt lat="46.50767" lon="5.31706">
        <ele>211.8</ele>
        <time>2022-05-02T12:34:49Z</time>
      </trkpt>
      <trkpt lat="46.50779" lon="5.31711">
        <ele>211.8</ele>
        <time>2022-05-02T12:34:51Z</time>
      </trkpt>
      <trkpt lat="46.50785" lon="5.31715">
        <ele>211.8</ele>
        <time>2022-05-02T12:34:52Z</time>
      </trkpt>
      <trkpt lat="46.50827" lon="5.31746">
        <ele>212</ele>
        <time>2022-05-02T12:35:00Z</time>
      </trkpt>
      <trkpt lat="46.50833" lon="5.31748">
        <ele>212</ele>
        <time>2022-05-02T12:35:01Z</time>
      </trkpt>
      <trkpt lat="46.50838" lon="5.31748">
        <ele>212.2</ele>
        <time>2022-05-02T12:35:02Z</time>
      </trkpt>
      <trkpt lat="46.50843" lon="5.31747">
        <ele>212.2</ele>
        <time>2022-05-02T12:35:03Z</time>
      </trkpt>
      <trkpt lat="46.50849" lon="5.31745">
        <ele>212.4</ele>
        <time>2022-05-02T12:35:04Z</time>
      </trkpt>
      <trkpt lat="46.50864" lon="5.31733">
        <ele>212.8</ele>
        <time>2022-05-02T12:35:07Z</time>
      </trkpt>
      <trkpt lat="46.50879" lon="5.31718">
        <ele>213.2</ele>
        <time>2022-05-02T12:35:10Z</time>
      </trkpt>
      <trkpt lat="46.50894" lon="5.31703">
        <ele>213.4</ele>
        <time>2022-05-02T12:35:13Z</time>
      </trkpt>
      <trkpt lat="46.50934" lon="5.31663">
        <ele>213</ele>
        <time>2022-05-02T12:35:20Z</time>
      </trkpt>
      <trkpt lat="46.50978" lon="5.31615">
        <ele>212</ele>
        <time>2022-05-02T12:35:27Z</time>
      </trkpt>
      <trkpt lat="46.50985" lon="5.31609">
        <ele>211.8</ele>
        <time>2022-05-02T12:35:28Z</time>
      </trkpt>
      <trkpt lat="46.50996" lon="5.31597">
        <ele>211.8</ele>
        <time>2022-05-02T12:35:30Z</time>
      </trkpt>
      <trkpt lat="46.51007" lon="5.31585">
        <ele>211.6</ele>
        <time>2022-05-02T12:35:32Z</time>
      </trkpt>
      <trkpt lat="46.51033" lon="5.31555">
        <ele>212</ele>
        <time>2022-05-02T12:35:37Z</time>
      </trkpt>
      <trkpt lat="46.5104" lon="5.31535">
        <ele>212</ele>
        <time>2022-05-02T12:35:39Z</time>
      </trkpt>
      <trkpt lat="46.51045" lon="5.31515">
        <ele>212</ele>
        <time>2022-05-02T12:35:41Z</time>
      </trkpt>
      <trkpt lat="46.5106" lon="5.31443">
        <ele>212</ele>
        <time>2022-05-02T12:35:47Z</time>
      </trkpt>
      <trkpt lat="46.51067" lon="5.31404">
        <ele>211</ele>
        <time>2022-05-02T12:35:50Z</time>
      </trkpt>
      <trkpt lat="46.51069" lon="5.31392">
        <ele>210.8</ele>
        <time>2022-05-02T12:35:51Z</time>
      </trkpt>
      <trkpt lat="46.51071" lon="5.31379">
        <ele>210.4</ele>
        <time>2022-05-02T12:35:52Z</time>
      </trkpt>
      <trkpt lat="46.51071" lon="5.31354">
        <ele>210</ele>
        <time>2022-05-02T12:35:54Z</time>
      </trkpt>
      <trkpt lat="46.5107" lon="5.31342">
        <ele>209.6</ele>
        <time>2022-05-02T12:35:55Z</time>
      </trkpt>
      <trkpt lat="46.5107" lon="5.31329">
        <ele>209.2</ele>
        <time>2022-05-02T12:35:56Z</time>
      </trkpt>
      <trkpt lat="46.51076" lon="5.31301">
        <ele>208.6</ele>
        <time>2022-05-02T12:35:58Z</time>
      </trkpt>
      <trkpt lat="46.5108" lon="5.31293">
        <ele>208.4</ele>
        <time>2022-05-02T12:35:59Z</time>
      </trkpt>
      <trkpt lat="46.51087" lon="5.31283">
        <ele>208.2</ele>
        <time>2022-05-02T12:36:00Z</time>
      </trkpt>
      <trkpt lat="46.5111" lon="5.31256">
        <ele>207</ele>
        <time>2022-05-02T12:36:03Z</time>
      </trkpt>
      <trkpt lat="46.51136" lon="5.3123">
        <ele>206.4</ele>
        <time>2022-05-02T12:36:06Z</time>
      </trkpt>
      <trkpt lat="46.51142" lon="5.31223">
        <ele>205.8</ele>
        <time>2022-05-02T12:36:07Z</time>
      </trkpt>
      <trkpt lat="46.51149" lon="5.31215">
        <ele>205.6</ele>
        <time>2022-05-02T12:36:08Z</time>
      </trkpt>
      <trkpt lat="46.51164" lon="5.31199">
        <ele>204.4</ele>
        <time>2022-05-02T12:36:10Z</time>
      </trkpt>
      <trkpt lat="46.51193" lon="5.3117">
        <ele>203.4</ele>
        <time>2022-05-02T12:36:14Z</time>
      </trkpt>
      <trkpt lat="46.51206" lon="5.31155">
        <ele>203.2</ele>
        <time>2022-05-02T12:36:16Z</time>
      </trkpt>
      <trkpt lat="46.51221" lon="5.31141">
        <ele>203</ele>
        <time>2022-05-02T12:36:18Z</time>
      </trkpt>
      <trkpt lat="46.51242" lon="5.31115">
        <ele>202.6</ele>
        <time>2022-05-02T12:36:21Z</time>
      </trkpt>
      <trkpt lat="46.51249" lon="5.31107">
        <ele>202.4</ele>
        <time>2022-05-02T12:36:22Z</time>
      </trkpt>
      <trkpt lat="46.51256" lon="5.31101">
        <ele>202.2</ele>
        <time>2022-05-02T12:36:23Z</time>
      </trkpt>
      <trkpt lat="46.51266" lon="5.31095">
        <ele>201.8</ele>
        <time>2022-05-02T12:36:24Z</time>
      </trkpt>
      <trkpt lat="46.5128" lon="5.31088">
        <ele>201.6</ele>
        <time>2022-05-02T12:36:26Z</time>
      </trkpt>
      <trkpt lat="46.51296" lon="5.31085">
        <ele>201.2</ele>
        <time>2022-05-02T12:36:28Z</time>
      </trkpt>
      <trkpt lat="46.51334" lon="5.3108">
        <ele>200.4</ele>
        <time>2022-05-02T12:36:33Z</time>
      </trkpt>
      <trkpt lat="46.51391" lon="5.31076">
        <ele>200.2</ele>
        <time>2022-05-02T12:36:41Z</time>
      </trkpt>
      <trkpt lat="46.51412" lon="5.31074">
        <ele>200.2</ele>
        <time>2022-05-02T12:36:44Z</time>
      </trkpt>
      <trkpt lat="46.51469" lon="5.3107">
        <ele>199.6</ele>
        <time>2022-05-02T12:36:52Z</time>
      </trkpt>
      <trkpt lat="46.51476" lon="5.31071">
        <ele>199.6</ele>
        <time>2022-05-02T12:36:53Z</time>
      </trkpt>
      <trkpt lat="46.51531" lon="5.31074">
        <ele>199.8</ele>
        <time>2022-05-02T12:37:01Z</time>
      </trkpt>
      <trkpt lat="46.51544" lon="5.31075">
        <ele>199.8</ele>
        <time>2022-05-02T12:37:03Z</time>
      </trkpt>
      <trkpt lat="46.51597" lon="5.31085">
        <ele>200.2</ele>
        <time>2022-05-02T12:37:11Z</time>
      </trkpt>
      <trkpt lat="46.51631" lon="5.31102">
        <ele>200.4</ele>
        <time>2022-05-02T12:37:17Z</time>
      </trkpt>
      <trkpt lat="46.51635" lon="5.31104">
        <ele>200.6</ele>
        <time>2022-05-02T12:37:18Z</time>
      </trkpt>
      <trkpt lat="46.51646" lon="5.31106">
        <ele>201</ele>
        <time>2022-05-02T12:37:20Z</time>
      </trkpt>
      <trkpt lat="46.51651" lon="5.31105">
        <ele>201.4</ele>
        <time>2022-05-02T12:37:21Z</time>
      </trkpt>
      <trkpt lat="46.51659" lon="5.31104">
        <ele>201.6</ele>
        <time>2022-05-02T12:37:23Z</time>
      </trkpt>
      <trkpt lat="46.51668" lon="5.31106">
        <ele>202</ele>
        <time>2022-05-02T12:37:25Z</time>
      </trkpt>
      <trkpt lat="46.51673" lon="5.31109">
        <ele>202</ele>
        <time>2022-05-02T12:37:26Z</time>
      </trkpt>
      <trkpt lat="46.51676" lon="5.31115">
        <ele>202.2</ele>
        <time>2022-05-02T12:37:27Z</time>
      </trkpt>
      <trkpt lat="46.51683" lon="5.31128">
        <ele>202.4</ele>
        <time>2022-05-02T12:37:29Z</time>
      </trkpt>
      <trkpt lat="46.51687" lon="5.31136">
        <ele>202.4</ele>
        <time>2022-05-02T12:37:30Z</time>
      </trkpt>
      <trkpt lat="46.51697" lon="5.3115">
        <ele>202.4</ele>
        <time>2022-05-02T12:37:32Z</time>
      </trkpt>
      <trkpt lat="46.51712" lon="5.31165">
        <ele>202.4</ele>
        <time>2022-05-02T12:37:35Z</time>
      </trkpt>
      <trkpt lat="46.51718" lon="5.3117">
        <ele>202.4</ele>
        <time>2022-05-02T12:37:36Z</time>
      </trkpt>
      <trkpt lat="46.5174" lon="5.31179">
        <ele>202.2</ele>
        <time>2022-05-02T12:37:39Z</time>
      </trkpt>
      <trkpt lat="46.51756" lon="5.31181">
        <ele>201.8</ele>
        <time>2022-05-02T12:37:41Z</time>
      </trkpt>
      <trkpt lat="46.51776" lon="5.31181">
        <ele>201</ele>
        <time>2022-05-02T12:37:43Z</time>
      </trkpt>
      <trkpt lat="46.51812" lon="5.31181">
        <ele>199.8</ele>
        <time>2022-05-02T12:37:47Z</time>
      </trkpt>
      <trkpt lat="46.51821" lon="5.31183">
        <ele>199.8</ele>
        <time>2022-05-02T12:37:48Z</time>
      </trkpt>
      <trkpt lat="46.51829" lon="5.31185">
        <ele>199.4</ele>
        <time>2022-05-02T12:37:49Z</time>
      </trkpt>
      <trkpt lat="46.51838" lon="5.31189">
        <ele>199</ele>
        <time>2022-05-02T12:37:50Z</time>
      </trkpt>
      <trkpt lat="46.51849" lon="5.31194">
        <ele>198.8</ele>
        <time>2022-05-02T12:37:51Z</time>
      </trkpt>
      <trkpt lat="46.51857" lon="5.312">
        <ele>197.8</ele>
        <time>2022-05-02T12:37:52Z</time>
      </trkpt>
      <trkpt lat="46.51863" lon="5.31206">
        <ele>197.6</ele>
        <time>2022-05-02T12:37:53Z</time>
      </trkpt>
      <trkpt lat="46.5187" lon="5.31214">
        <ele>197</ele>
        <time>2022-05-02T12:37:54Z</time>
      </trkpt>
      <trkpt lat="46.51888" lon="5.31241">
        <ele>196</ele>
        <time>2022-05-02T12:37:57Z</time>
      </trkpt>
      <trkpt lat="46.51894" lon="5.3125">
        <ele>195.8</ele>
        <time>2022-05-02T12:37:58Z</time>
      </trkpt>
      <trkpt lat="46.51933" lon="5.31308">
        <ele>195.4</ele>
        <time>2022-05-02T12:38:05Z</time>
      </trkpt>
      <trkpt lat="46.51966" lon="5.31357">
        <ele>195.4</ele>
        <time>2022-05-02T12:38:12Z</time>
      </trkpt>
      <trkpt lat="46.52003" lon="5.31411">
        <ele>195.4</ele>
        <time>2022-05-02T12:38:20Z</time>
      </trkpt>
      <trkpt lat="46.52039" lon="5.31463">
        <ele>196.2</ele>
        <time>2022-05-02T12:38:28Z</time>
      </trkpt>
      <trkpt lat="46.52043" lon="5.31469">
        <ele>196.2</ele>
        <time>2022-05-02T12:38:29Z</time>
      </trkpt>
      <trkpt lat="46.52055" lon="5.31488">
        <ele>196.8</ele>
        <time>2022-05-02T12:38:32Z</time>
      </trkpt>
      <trkpt lat="46.5207" lon="5.3151">
        <ele>197.2</ele>
        <time>2022-05-02T12:38:36Z</time>
      </trkpt>
      <trkpt lat="46.52089" lon="5.31536">
        <ele>198</ele>
        <time>2022-05-02T12:38:41Z</time>
      </trkpt>
      <trkpt lat="46.52093" lon="5.31541">
        <ele>198.2</ele>
        <time>2022-05-02T12:38:42Z</time>
      </trkpt>
      <trkpt lat="46.52107" lon="5.3156">
        <ele>198.8</ele>
        <time>2022-05-02T12:38:46Z</time>
      </trkpt>
      <trkpt lat="46.52116" lon="5.31569">
        <ele>199</ele>
        <time>2022-05-02T12:38:48Z</time>
      </trkpt>
      <trkpt lat="46.52119" lon="5.31574">
        <ele>199.2</ele>
        <time>2022-05-02T12:38:49Z</time>
      </trkpt>
      <trkpt lat="46.52129" lon="5.31589">
        <ele>199.6</ele>
        <time>2022-05-02T12:38:52Z</time>
      </trkpt>
      <trkpt lat="46.52135" lon="5.316">
        <ele>200</ele>
        <time>2022-05-02T12:38:54Z</time>
      </trkpt>
      <trkpt lat="46.52139" lon="5.31605">
        <ele>200.2</ele>
        <time>2022-05-02T12:38:55Z</time>
      </trkpt>
      <trkpt lat="46.52152" lon="5.31624">
        <ele>200.8</ele>
        <time>2022-05-02T12:38:59Z</time>
      </trkpt>
      <trkpt lat="46.52155" lon="5.31629">
        <ele>201.2</ele>
        <time>2022-05-02T12:39:00Z</time>
      </trkpt>
      <trkpt lat="46.52158" lon="5.31635">
        <ele>201.2</ele>
        <time>2022-05-02T12:39:01Z</time>
      </trkpt>
      <trkpt lat="46.52168" lon="5.3165">
        <ele>201.8</ele>
        <time>2022-05-02T12:39:04Z</time>
      </trkpt>
      <trkpt lat="46.52179" lon="5.31665">
        <ele>202.2</ele>
        <time>2022-05-02T12:39:07Z</time>
      </trkpt>
      <trkpt lat="46.52183" lon="5.31671">
        <ele>202.4</ele>
        <time>2022-05-02T12:39:08Z</time>
      </trkpt>
      <trkpt lat="46.5219" lon="5.31681">
        <ele>203</ele>
        <time>2022-05-02T12:39:10Z</time>
      </trkpt>
      <trkpt lat="46.52197" lon="5.31691">
        <ele>203.4</ele>
        <time>2022-05-02T12:39:12Z</time>
      </trkpt>
      <trkpt lat="46.52202" lon="5.31695">
        <ele>203.6</ele>
        <time>2022-05-02T12:39:13Z</time>
      </trkpt>
      <trkpt lat="46.52205" lon="5.31699">
        <ele>203.8</ele>
        <time>2022-05-02T12:39:14Z</time>
      </trkpt>
      <trkpt lat="46.52216" lon="5.31714">
        <ele>204</ele>
        <time>2022-05-02T12:39:17Z</time>
      </trkpt>
      <trkpt lat="46.52219" lon="5.31719">
        <ele>204.2</ele>
        <time>2022-05-02T12:39:18Z</time>
      </trkpt>
      <trkpt lat="46.52235" lon="5.31744">
        <ele>204.6</ele>
        <time>2022-05-02T12:39:23Z</time>
      </trkpt>
      <trkpt lat="46.52245" lon="5.31759">
        <ele>204.8</ele>
        <time>2022-05-02T12:39:26Z</time>
      </trkpt>
      <trkpt lat="46.52262" lon="5.31784">
        <ele>205.6</ele>
        <time>2022-05-02T12:39:31Z</time>
      </trkpt>
      <trkpt lat="46.52274" lon="5.31803">
        <ele>206.4</ele>
        <time>2022-05-02T12:39:35Z</time>
      </trkpt>
      <trkpt lat="46.52277" lon="5.31807">
        <ele>206.6</ele>
        <time>2022-05-02T12:39:36Z</time>
      </trkpt>
      <trkpt lat="46.52307" lon="5.3185">
        <ele>207.6</ele>
        <time>2022-05-02T12:39:45Z</time>
      </trkpt>
      <trkpt lat="46.52311" lon="5.31854">
        <ele>207.8</ele>
        <time>2022-05-02T12:39:46Z</time>
      </trkpt>
      <trkpt lat="46.5233" lon="5.31882">
        <ele>208.8</ele>
        <time>2022-05-02T12:39:52Z</time>
      </trkpt>
      <trkpt lat="46.52334" lon="5.31886">
        <ele>209</ele>
        <time>2022-05-02T12:39:53Z</time>
      </trkpt>
      <trkpt lat="46.52345" lon="5.319">
        <ele>209.4</ele>
        <time>2022-05-02T12:39:56Z</time>
      </trkpt>
      <trkpt lat="46.52359" lon="5.31919">
        <ele>209.8</ele>
        <time>2022-05-02T12:40:00Z</time>
      </trkpt>
      <trkpt lat="46.5238" lon="5.3195">
        <ele>210</ele>
        <time>2022-05-02T12:40:05Z</time>
      </trkpt>
      <trkpt lat="46.52421" lon="5.3201">
        <ele>209</ele>
        <time>2022-05-02T12:40:13Z</time>
      </trkpt>
      <trkpt lat="46.52432" lon="5.32026">
        <ele>208.6</ele>
        <time>2022-05-02T12:40:15Z</time>
      </trkpt>
      <trkpt lat="46.52457" lon="5.3206">
        <ele>207.8</ele>
        <time>2022-05-02T12:40:19Z</time>
      </trkpt>
      <trkpt lat="46.52475" lon="5.32086">
        <ele>207.4</ele>
        <time>2022-05-02T12:40:22Z</time>
      </trkpt>
      <trkpt lat="46.52501" lon="5.32123">
        <ele>206.4</ele>
        <time>2022-05-02T12:40:26Z</time>
      </trkpt>
      <trkpt lat="46.52507" lon="5.32132">
        <ele>206.2</ele>
        <time>2022-05-02T12:40:27Z</time>
      </trkpt>
      <trkpt lat="46.5254" lon="5.32174">
        <ele>205</ele>
        <time>2022-05-02T12:40:32Z</time>
      </trkpt>
      <trkpt lat="46.52548" lon="5.32181">
        <ele>204.4</ele>
        <time>2022-05-02T12:40:33Z</time>
      </trkpt>
      <trkpt lat="46.52565" lon="5.32193">
        <ele>203.8</ele>
        <time>2022-05-02T12:40:35Z</time>
      </trkpt>
      <trkpt lat="46.52591" lon="5.32208">
        <ele>203</ele>
        <time>2022-05-02T12:40:38Z</time>
      </trkpt>
      <trkpt lat="46.52601" lon="5.32212">
        <ele>202.2</ele>
        <time>2022-05-02T12:40:39Z</time>
      </trkpt>
      <trkpt lat="46.52629" lon="5.32227">
        <ele>201</ele>
        <time>2022-05-02T12:40:42Z</time>
      </trkpt>
      <trkpt lat="46.52648" lon="5.32239">
        <ele>200</ele>
        <time>2022-05-02T12:40:44Z</time>
      </trkpt>
      <trkpt lat="46.52657" lon="5.32245">
        <ele>199.4</ele>
        <time>2022-05-02T12:40:45Z</time>
      </trkpt>
      <trkpt lat="46.52674" lon="5.3226">
        <ele>198</ele>
        <time>2022-05-02T12:40:47Z</time>
      </trkpt>
      <trkpt lat="46.5269" lon="5.32277">
        <ele>197.2</ele>
        <time>2022-05-02T12:40:49Z</time>
      </trkpt>
      <trkpt lat="46.52704" lon="5.32293">
        <ele>196.6</ele>
        <time>2022-05-02T12:40:51Z</time>
      </trkpt>
      <trkpt lat="46.5273" lon="5.32327">
        <ele>196</ele>
        <time>2022-05-02T12:40:55Z</time>
      </trkpt>
      <trkpt lat="46.5275" lon="5.3235">
        <ele>195.6</ele>
        <time>2022-05-02T12:40:58Z</time>
      </trkpt>
      <trkpt lat="46.52774" lon="5.32378">
        <ele>195.4</ele>
        <time>2022-05-02T12:41:02Z</time>
      </trkpt>
      <trkpt lat="46.5282" lon="5.32429">
        <ele>196</ele>
        <time>2022-05-02T12:41:10Z</time>
      </trkpt>
      <trkpt lat="46.52825" lon="5.32434">
        <ele>196</ele>
        <time>2022-05-02T12:41:11Z</time>
      </trkpt>
      <trkpt lat="46.52846" lon="5.32457">
        <ele>195.8</ele>
        <time>2022-05-02T12:41:15Z</time>
      </trkpt>
      <trkpt lat="46.52852" lon="5.32462">
        <ele>195.6</ele>
        <time>2022-05-02T12:41:16Z</time>
      </trkpt>
      <trkpt lat="46.52874" lon="5.32485">
        <ele>195.2</ele>
        <time>2022-05-02T12:41:20Z</time>
      </trkpt>
      <trkpt lat="46.52886" lon="5.32495">
        <ele>195</ele>
        <time>2022-05-02T12:41:22Z</time>
      </trkpt>
      <trkpt lat="46.52891" lon="5.32501">
        <ele>194.8</ele>
        <time>2022-05-02T12:41:23Z</time>
      </trkpt>
      <trkpt lat="46.5293" lon="5.32541">
        <ele>195</ele>
        <time>2022-05-02T12:41:30Z</time>
      </trkpt>
      <trkpt lat="46.52971" lon="5.32582">
        <ele>195.6</ele>
        <time>2022-05-02T12:41:38Z</time>
      </trkpt>
      <trkpt lat="46.53001" lon="5.32613">
        <ele>196.2</ele>
        <time>2022-05-02T12:41:45Z</time>
      </trkpt>
      <trkpt lat="46.53012" lon="5.32625">
        <ele>196.8</ele>
        <time>2022-05-02T12:41:48Z</time>
      </trkpt>
      <trkpt lat="46.53023" lon="5.32635">
        <ele>198.4</ele>
        <time>2022-05-02T12:41:51Z</time>
      </trkpt>
      <trkpt lat="46.53026" lon="5.32638">
        <ele>198.6</ele>
        <time>2022-05-02T12:41:52Z</time>
      </trkpt>
      <trkpt lat="46.5305" lon="5.32662">
        <ele>199.4</ele>
        <time>2022-05-02T12:41:59Z</time>
      </trkpt>
      <trkpt lat="46.53053" lon="5.32666">
        <ele>199.6</ele>
        <time>2022-05-02T12:42:00Z</time>
      </trkpt>
      <trkpt lat="46.53064" lon="5.32681">
        <ele>200.6</ele>
        <time>2022-05-02T12:42:04Z</time>
      </trkpt>
      <trkpt lat="46.53077" lon="5.32693">
        <ele>201.6</ele>
        <time>2022-05-02T12:42:08Z</time>
      </trkpt>
      <trkpt lat="46.53094" lon="5.32712">
        <ele>203</ele>
        <time>2022-05-02T12:42:13Z</time>
      </trkpt>
      <trkpt lat="46.53107" lon="5.32727">
        <ele>203.6</ele>
        <time>2022-05-02T12:42:17Z</time>
      </trkpt>
      <trkpt lat="46.5311" lon="5.3273">
        <ele>203.6</ele>
        <time>2022-05-02T12:42:18Z</time>
      </trkpt>
      <trkpt lat="46.53114" lon="5.32734">
        <ele>204</ele>
        <time>2022-05-02T12:42:19Z</time>
      </trkpt>
      <trkpt lat="46.53117" lon="5.32738">
        <ele>204.4</ele>
        <time>2022-05-02T12:42:20Z</time>
      </trkpt>
      <trkpt lat="46.53123" lon="5.32746">
        <ele>204.8</ele>
        <time>2022-05-02T12:42:22Z</time>
      </trkpt>
      <trkpt lat="46.53126" lon="5.3275">
        <ele>205</ele>
        <time>2022-05-02T12:42:23Z</time>
      </trkpt>
      <trkpt lat="46.53138" lon="5.32765">
        <ele>206.4</ele>
        <time>2022-05-02T12:42:27Z</time>
      </trkpt>
      <trkpt lat="46.53146" lon="5.32776">
        <ele>207</ele>
        <time>2022-05-02T12:42:30Z</time>
      </trkpt>
      <trkpt lat="46.53154" lon="5.32787">
        <ele>207.6</ele>
        <time>2022-05-02T12:42:33Z</time>
      </trkpt>
      <trkpt lat="46.53166" lon="5.32807">
        <ele>208.6</ele>
        <time>2022-05-02T12:42:38Z</time>
      </trkpt>
      <trkpt lat="46.53171" lon="5.32815">
        <ele>209</ele>
        <time>2022-05-02T12:42:40Z</time>
      </trkpt>
      <trkpt lat="46.5318" lon="5.32832">
        <ele>209.8</ele>
        <time>2022-05-02T12:42:44Z</time>
      </trkpt>
      <trkpt lat="46.53184" lon="5.32841">
        <ele>210.2</ele>
        <time>2022-05-02T12:42:46Z</time>
      </trkpt>
      <trkpt lat="46.53191" lon="5.32854">
        <ele>210.8</ele>
        <time>2022-05-02T12:42:49Z</time>
      </trkpt>
      <trkpt lat="46.53202" lon="5.32875">
        <ele>211.8</ele>
        <time>2022-05-02T12:42:54Z</time>
      </trkpt>
      <trkpt lat="46.53207" lon="5.32884">
        <ele>212.2</ele>
        <time>2022-05-02T12:42:56Z</time>
      </trkpt>
      <trkpt lat="46.53216" lon="5.32902">
        <ele>213</ele>
        <time>2022-05-02T12:43:00Z</time>
      </trkpt>
      <trkpt lat="46.53225" lon="5.32922">
        <ele>214</ele>
        <time>2022-05-02T12:43:05Z</time>
      </trkpt>
      <trkpt lat="46.53227" lon="5.32926">
        <ele>214.2</ele>
        <time>2022-05-02T12:43:06Z</time>
      </trkpt>
      <trkpt lat="46.53242" lon="5.32956">
        <ele>215</ele>
        <time>2022-05-02T12:43:13Z</time>
      </trkpt>
      <trkpt lat="46.53249" lon="5.32969">
        <ele>215.4</ele>
        <time>2022-05-02T12:43:16Z</time>
      </trkpt>
      <trkpt lat="46.53263" lon="5.32992">
        <ele>216</ele>
        <time>2022-05-02T12:43:21Z</time>
      </trkpt>
      <trkpt lat="46.53278" lon="5.33023">
        <ele>217.2</ele>
        <time>2022-05-02T12:43:27Z</time>
      </trkpt>
      <trkpt lat="46.53301" lon="5.33063">
        <ele>218</ele>
        <time>2022-05-02T12:43:35Z</time>
      </trkpt>
      <trkpt lat="46.53312" lon="5.33078">
        <ele>218.2</ele>
        <time>2022-05-02T12:43:38Z</time>
      </trkpt>
      <trkpt lat="46.53335" lon="5.33108">
        <ele>218.4</ele>
        <time>2022-05-02T12:43:44Z</time>
      </trkpt>
      <trkpt lat="46.53372" lon="5.33158">
        <ele>219</ele>
        <time>2022-05-02T12:43:53Z</time>
      </trkpt>
      <trkpt lat="46.53413" lon="5.33215">
        <ele>218.8</ele>
        <time>2022-05-02T12:44:03Z</time>
      </trkpt>
      <trkpt lat="46.53455" lon="5.33275">
        <ele>218.6</ele>
        <time>2022-05-02T12:44:13Z</time>
      </trkpt>
      <trkpt lat="46.53494" lon="5.33328">
        <ele>219.2</ele>
        <time>2022-05-02T12:44:22Z</time>
      </trkpt>
      <trkpt lat="46.53517" lon="5.33359">
        <ele>219</ele>
        <time>2022-05-02T12:44:27Z</time>
      </trkpt>
      <trkpt lat="46.53557" lon="5.33415">
        <ele>218.4</ele>
        <time>2022-05-02T12:44:36Z</time>
      </trkpt>
      <trkpt lat="46.53566" lon="5.33428">
        <ele>218.2</ele>
        <time>2022-05-02T12:44:38Z</time>
      </trkpt>
      <trkpt lat="46.53585" lon="5.33455">
        <ele>217.2</ele>
        <time>2022-05-02T12:44:42Z</time>
      </trkpt>
      <trkpt lat="46.53605" lon="5.33482">
        <ele>216.4</ele>
        <time>2022-05-02T12:44:46Z</time>
      </trkpt>
      <trkpt lat="46.53613" lon="5.33495">
        <ele>216</ele>
        <time>2022-05-02T12:44:48Z</time>
      </trkpt>
      <trkpt lat="46.53622" lon="5.33507">
        <ele>216</ele>
        <time>2022-05-02T12:44:50Z</time>
      </trkpt>
      <trkpt lat="46.53628" lon="5.33516">
        <ele>215.4</ele>
        <time>2022-05-02T12:44:52Z</time>
      </trkpt>
      <trkpt lat="46.5363" lon="5.33527">
        <ele>215</ele>
        <time>2022-05-02T12:44:55Z</time>
      </trkpt>
      <trkpt lat="46.5364" lon="5.33526">
        <ele>214.6</ele>
        <time>2022-05-02T12:44:58Z</time>
      </trkpt>
      <trkpt lat="46.53668" lon="5.33503">
        <ele>214.2</ele>
        <time>2022-05-02T12:45:05Z</time>
      </trkpt>
      <trkpt lat="46.53698" lon="5.33474">
        <ele>215.2</ele>
        <time>2022-05-02T12:45:12Z</time>
      </trkpt>
      <trkpt lat="46.53709" lon="5.33472">
        <ele>215.2</ele>
        <time>2022-05-02T12:45:14Z</time>
      </trkpt>
      <trkpt lat="46.53715" lon="5.33475">
        <ele>215.2</ele>
        <time>2022-05-02T12:45:15Z</time>
      </trkpt>
      <trkpt lat="46.53746" lon="5.3349">
        <ele>215.4</ele>
        <time>2022-05-02T12:45:20Z</time>
      </trkpt>
      <trkpt lat="46.53778" lon="5.33511">
        <ele>215.2</ele>
        <time>2022-05-02T12:45:25Z</time>
      </trkpt>
      <trkpt lat="46.53812" lon="5.33535">
        <ele>213.8</ele>
        <time>2022-05-02T12:45:30Z</time>
      </trkpt>
      <trkpt lat="46.53819" lon="5.33539">
        <ele>213.6</ele>
        <time>2022-05-02T12:45:31Z</time>
      </trkpt>
      <trkpt lat="46.53853" lon="5.33557">
        <ele>212.6</ele>
        <time>2022-05-02T12:45:36Z</time>
      </trkpt>
      <trkpt lat="46.5386" lon="5.3356">
        <ele>212.6</ele>
        <time>2022-05-02T12:45:37Z</time>
      </trkpt>
      <trkpt lat="46.53876" lon="5.33563">
        <ele>212.4</ele>
        <time>2022-05-02T12:45:39Z</time>
      </trkpt>
      <trkpt lat="46.53909" lon="5.33566">
        <ele>211.6</ele>
        <time>2022-05-02T12:45:43Z</time>
      </trkpt>
      <trkpt lat="46.53918" lon="5.33567">
        <ele>211.2</ele>
        <time>2022-05-02T12:45:44Z</time>
      </trkpt>
      <trkpt lat="46.53945" lon="5.33568">
        <ele>210.6</ele>
        <time>2022-05-02T12:45:47Z</time>
      </trkpt>
      <trkpt lat="46.53982" lon="5.33569">
        <ele>208.8</ele>
        <time>2022-05-02T12:45:51Z</time>
      </trkpt>
      <trkpt lat="46.54003" lon="5.33572">
        <ele>207.8</ele>
        <time>2022-05-02T12:45:53Z</time>
      </trkpt>
      <trkpt lat="46.54013" lon="5.33575">
        <ele>206.8</ele>
        <time>2022-05-02T12:45:54Z</time>
      </trkpt>
      <trkpt lat="46.54023" lon="5.33579">
        <ele>206.6</ele>
        <time>2022-05-02T12:45:55Z</time>
      </trkpt>
      <trkpt lat="46.54033" lon="5.33584">
        <ele>205.8</ele>
        <time>2022-05-02T12:45:56Z</time>
      </trkpt>
      <trkpt lat="46.54053" lon="5.33596">
        <ele>204.8</ele>
        <time>2022-05-02T12:45:58Z</time>
      </trkpt>
      <trkpt lat="46.54072" lon="5.33609">
        <ele>204</ele>
        <time>2022-05-02T12:46:00Z</time>
      </trkpt>
      <trkpt lat="46.54082" lon="5.33615">
        <ele>203.4</ele>
        <time>2022-05-02T12:46:01Z</time>
      </trkpt>
      <trkpt lat="46.541" lon="5.33626">
        <ele>202.2</ele>
        <time>2022-05-02T12:46:03Z</time>
      </trkpt>
      <trkpt lat="46.54125" lon="5.3364">
        <ele>201.4</ele>
        <time>2022-05-02T12:46:06Z</time>
      </trkpt>
      <trkpt lat="46.54133" lon="5.33643">
        <ele>201.2</ele>
        <time>2022-05-02T12:46:07Z</time>
      </trkpt>
      <trkpt lat="46.54148" lon="5.33648">
        <ele>201</ele>
        <time>2022-05-02T12:46:09Z</time>
      </trkpt>
      <trkpt lat="46.54155" lon="5.33649">
        <ele>201</ele>
        <time>2022-05-02T12:46:10Z</time>
      </trkpt>
      <trkpt lat="46.54193" lon="5.33654">
        <ele>202.2</ele>
        <time>2022-05-02T12:46:16Z</time>
      </trkpt>
      <trkpt lat="46.54199" lon="5.33655">
        <ele>202.6</ele>
        <time>2022-05-02T12:46:17Z</time>
      </trkpt>
      <trkpt lat="46.54226" lon="5.33657">
        <ele>203.4</ele>
        <time>2022-05-02T12:46:22Z</time>
      </trkpt>
      <trkpt lat="46.54237" lon="5.33658">
        <ele>204.2</ele>
        <time>2022-05-02T12:46:24Z</time>
      </trkpt>
      <trkpt lat="46.54249" lon="5.33659">
        <ele>204.8</ele>
        <time>2022-05-02T12:46:26Z</time>
      </trkpt>
      <trkpt lat="46.54287" lon="5.3366">
        <ele>205.2</ele>
        <time>2022-05-02T12:46:32Z</time>
      </trkpt>
      <trkpt lat="46.54323" lon="5.33662">
        <ele>204.8</ele>
        <time>2022-05-02T12:46:37Z</time>
      </trkpt>
      <trkpt lat="46.5433" lon="5.33663">
        <ele>204.6</ele>
        <time>2022-05-02T12:46:38Z</time>
      </trkpt>
      <trkpt lat="46.54371" lon="5.33671">
        <ele>203.2</ele>
        <time>2022-05-02T12:46:43Z</time>
      </trkpt>
      <trkpt lat="46.54379" lon="5.33674">
        <ele>203</ele>
        <time>2022-05-02T12:46:44Z</time>
      </trkpt>
      <trkpt lat="46.54426" lon="5.33695">
        <ele>202.4</ele>
        <time>2022-05-02T12:46:51Z</time>
      </trkpt>
      <trkpt lat="46.54454" lon="5.33708">
        <ele>203.6</ele>
        <time>2022-05-02T12:46:57Z</time>
      </trkpt>
      <trkpt lat="46.54463" lon="5.33711">
        <ele>204.2</ele>
        <time>2022-05-02T12:46:59Z</time>
      </trkpt>
      <trkpt lat="46.54478" lon="5.33717">
        <ele>205.4</ele>
        <time>2022-05-02T12:47:03Z</time>
      </trkpt>
      <trkpt lat="46.54482" lon="5.33719">
        <ele>205.8</ele>
        <time>2022-05-02T12:47:04Z</time>
      </trkpt>
      <trkpt lat="46.5449" lon="5.33722">
        <ele>206.4</ele>
        <time>2022-05-02T12:47:06Z</time>
      </trkpt>
      <trkpt lat="46.5451" lon="5.33734">
        <ele>207.6</ele>
        <time>2022-05-02T12:47:11Z</time>
      </trkpt>
      <trkpt lat="46.54513" lon="5.33736">
        <ele>207.8</ele>
        <time>2022-05-02T12:47:12Z</time>
      </trkpt>
      <trkpt lat="46.54525" lon="5.33741">
        <ele>208.6</ele>
        <time>2022-05-02T12:47:15Z</time>
      </trkpt>
      <trkpt lat="46.5454" lon="5.3375">
        <ele>209.4</ele>
        <time>2022-05-02T12:47:19Z</time>
      </trkpt>
      <trkpt lat="46.54547" lon="5.33754">
        <ele>209.8</ele>
        <time>2022-05-02T12:47:21Z</time>
      </trkpt>
      <trkpt lat="46.54563" lon="5.33762">
        <ele>211</ele>
        <time>2022-05-02T12:47:25Z</time>
      </trkpt>
      <trkpt lat="46.54574" lon="5.33767">
        <ele>211.6</ele>
        <time>2022-05-02T12:47:28Z</time>
      </trkpt>
      <trkpt lat="46.54581" lon="5.3377">
        <ele>212</ele>
        <time>2022-05-02T12:47:30Z</time>
      </trkpt>
      <trkpt lat="46.54597" lon="5.33775">
        <ele>213.2</ele>
        <time>2022-05-02T12:47:34Z</time>
      </trkpt>
      <trkpt lat="46.54601" lon="5.33776">
        <ele>213.4</ele>
        <time>2022-05-02T12:47:35Z</time>
      </trkpt>
      <trkpt lat="46.54609" lon="5.33777">
        <ele>213.8</ele>
        <time>2022-05-02T12:47:37Z</time>
      </trkpt>
      <trkpt lat="46.54617" lon="5.3378">
        <ele>214.4</ele>
        <time>2022-05-02T12:47:39Z</time>
      </trkpt>
      <trkpt lat="46.5463" lon="5.33784">
        <ele>215</ele>
        <time>2022-05-02T12:47:42Z</time>
      </trkpt>
      <trkpt lat="46.54657" lon="5.3379">
        <ele>215.2</ele>
        <time>2022-05-02T12:47:47Z</time>
      </trkpt>
      <trkpt lat="46.54682" lon="5.33792">
        <ele>215</ele>
        <time>2022-05-02T12:47:51Z</time>
      </trkpt>
      <trkpt lat="46.54695" lon="5.3379">
        <ele>214.4</ele>
        <time>2022-05-02T12:47:53Z</time>
      </trkpt>
      <trkpt lat="46.5474" lon="5.33781">
        <ele>213.2</ele>
        <time>2022-05-02T12:47:59Z</time>
      </trkpt>
      <trkpt lat="46.54779" lon="5.33778">
        <ele>212.2</ele>
        <time>2022-05-02T12:48:04Z</time>
      </trkpt>
      <trkpt lat="46.54787" lon="5.33778">
        <ele>212</ele>
        <time>2022-05-02T12:48:05Z</time>
      </trkpt>
      <trkpt lat="46.54828" lon="5.33782">
        <ele>211</ele>
        <time>2022-05-02T12:48:10Z</time>
      </trkpt>
      <trkpt lat="46.5486" lon="5.3378">
        <ele>210</ele>
        <time>2022-05-02T12:48:14Z</time>
      </trkpt>
      <trkpt lat="46.54883" lon="5.33775">
        <ele>209</ele>
        <time>2022-05-02T12:48:17Z</time>
      </trkpt>
      <trkpt lat="46.54914" lon="5.33773">
        <ele>208.4</ele>
        <time>2022-05-02T12:48:21Z</time>
      </trkpt>
      <trkpt lat="46.54952" lon="5.33779">
        <ele>208</ele>
        <time>2022-05-02T12:48:26Z</time>
      </trkpt>
      <trkpt lat="46.5496" lon="5.33781">
        <ele>207.8</ele>
        <time>2022-05-02T12:48:27Z</time>
      </trkpt>
      <trkpt lat="46.54994" lon="5.3379">
        <ele>207.6</ele>
        <time>2022-05-02T12:48:32Z</time>
      </trkpt>
      <trkpt lat="46.55014" lon="5.33795">
        <ele>207.4</ele>
        <time>2022-05-02T12:48:35Z</time>
      </trkpt>
      <trkpt lat="46.5505" lon="5.33813">
        <ele>207.8</ele>
        <time>2022-05-02T12:48:41Z</time>
      </trkpt>
      <trkpt lat="46.5508" lon="5.33838">
        <ele>208.2</ele>
        <time>2022-05-02T12:48:47Z</time>
      </trkpt>
      <trkpt lat="46.55107" lon="5.33871">
        <ele>208.8</ele>
        <time>2022-05-02T12:48:53Z</time>
      </trkpt>
      <trkpt lat="46.55121" lon="5.33892">
        <ele>209.2</ele>
        <time>2022-05-02T12:48:57Z</time>
      </trkpt>
      <trkpt lat="46.55136" lon="5.33913">
        <ele>209.6</ele>
        <time>2022-05-02T12:49:01Z</time>
      </trkpt>
      <trkpt lat="46.55143" lon="5.33924">
        <ele>210.2</ele>
        <time>2022-05-02T12:49:03Z</time>
      </trkpt>
      <trkpt lat="46.55159" lon="5.33954">
        <ele>211.4</ele>
        <time>2022-05-02T12:49:09Z</time>
      </trkpt>
      <trkpt lat="46.55169" lon="5.33973">
        <ele>212.2</ele>
        <time>2022-05-02T12:49:13Z</time>
      </trkpt>
      <trkpt lat="46.55171" lon="5.33978">
        <ele>212.6</ele>
        <time>2022-05-02T12:49:14Z</time>
      </trkpt>
      <trkpt lat="46.55179" lon="5.33996">
        <ele>213.8</ele>
        <time>2022-05-02T12:49:18Z</time>
      </trkpt>
      <trkpt lat="46.55182" lon="5.34">
        <ele>213.8</ele>
        <time>2022-05-02T12:49:19Z</time>
      </trkpt>
      <trkpt lat="46.55186" lon="5.34002">
        <ele>214.2</ele>
        <time>2022-05-02T12:49:20Z</time>
      </trkpt>
      <trkpt lat="46.55194" lon="5.34">
        <ele>214.8</ele>
        <time>2022-05-02T12:49:22Z</time>
      </trkpt>
      <trkpt lat="46.55202" lon="5.33994">
        <ele>215.2</ele>
        <time>2022-05-02T12:49:24Z</time>
      </trkpt>
      <trkpt lat="46.55209" lon="5.33986">
        <ele>215.8</ele>
        <time>2022-05-02T12:49:26Z</time>
      </trkpt>
      <trkpt lat="46.5523" lon="5.33961">
        <ele>216.4</ele>
        <time>2022-05-02T12:49:32Z</time>
      </trkpt>
      <trkpt lat="46.55259" lon="5.33918">
        <ele>216.8</ele>
        <time>2022-05-02T12:49:40Z</time>
      </trkpt>
      <trkpt lat="46.55265" lon="5.33906">
        <ele>216.8</ele>
        <time>2022-05-02T12:49:42Z</time>
      </trkpt>
      <trkpt lat="46.55284" lon="5.3387">
        <ele>217.2</ele>
        <time>2022-05-02T12:49:48Z</time>
      </trkpt>
      <trkpt lat="46.55309" lon="5.33835">
        <ele>217.2</ele>
        <time>2022-05-02T12:49:54Z</time>
      </trkpt>
      <trkpt lat="46.55351" lon="5.33789">
        <ele>217</ele>
        <time>2022-05-02T12:50:03Z</time>
      </trkpt>
      <trkpt lat="46.55387" lon="5.3376">
        <ele>216.4</ele>
        <time>2022-05-02T12:50:10Z</time>
      </trkpt>
      <trkpt lat="46.55417" lon="5.33734">
        <ele>216.2</ele>
        <time>2022-05-02T12:50:16Z</time>
      </trkpt>
      <trkpt lat="46.55448" lon="5.33691">
        <ele>216.2</ele>
        <time>2022-05-02T12:50:23Z</time>
      </trkpt>
      <trkpt lat="46.55479" lon="5.33645">
        <ele>215.8</ele>
        <time>2022-05-02T12:50:30Z</time>
      </trkpt>
      <trkpt lat="46.55494" lon="5.33625">
        <ele>215.6</ele>
        <time>2022-05-02T12:50:33Z</time>
      </trkpt>
      <trkpt lat="46.5551" lon="5.33606">
        <ele>215.4</ele>
        <time>2022-05-02T12:50:36Z</time>
      </trkpt>
      <trkpt lat="46.55541" lon="5.33563">
        <ele>214.6</ele>
        <time>2022-05-02T12:50:42Z</time>
      </trkpt>
      <trkpt lat="46.55558" lon="5.33539">
        <ele>213.6</ele>
        <time>2022-05-02T12:50:45Z</time>
      </trkpt>
      <trkpt lat="46.55564" lon="5.33532">
        <ele>213.6</ele>
        <time>2022-05-02T12:50:46Z</time>
      </trkpt>
      <trkpt lat="46.55585" lon="5.33498">
        <ele>212.8</ele>
        <time>2022-05-02T12:50:50Z</time>
      </trkpt>
      <trkpt lat="46.55589" lon="5.33489">
        <ele>212.8</ele>
        <time>2022-05-02T12:50:51Z</time>
      </trkpt>
      <trkpt lat="46.55592" lon="5.33478">
        <ele>212.4</ele>
        <time>2022-05-02T12:50:52Z</time>
      </trkpt>
      <trkpt lat="46.55596" lon="5.33452">
        <ele>211.6</ele>
        <time>2022-05-02T12:50:54Z</time>
      </trkpt>
      <trkpt lat="46.55597" lon="5.33439">
        <ele>211.4</ele>
        <time>2022-05-02T12:50:55Z</time>
      </trkpt>
      <trkpt lat="46.556" lon="5.33387">
        <ele>210</ele>
        <time>2022-05-02T12:50:59Z</time>
      </trkpt>
      <trkpt lat="46.55602" lon="5.33374">
        <ele>209.8</ele>
        <time>2022-05-02T12:51:00Z</time>
      </trkpt>
      <trkpt lat="46.55609" lon="5.33337">
        <ele>208.8</ele>
        <time>2022-05-02T12:51:03Z</time>
      </trkpt>
      <trkpt lat="46.55616" lon="5.33314">
        <ele>208.4</ele>
        <time>2022-05-02T12:51:05Z</time>
      </trkpt>
      <trkpt lat="46.55633" lon="5.3326">
        <ele>207.8</ele>
        <time>2022-05-02T12:51:10Z</time>
      </trkpt>
      <trkpt lat="46.55642" lon="5.33228">
        <ele>207.2</ele>
        <time>2022-05-02T12:51:13Z</time>
      </trkpt>
      <trkpt lat="46.55664" lon="5.33147">
        <ele>206.8</ele>
        <time>2022-05-02T12:51:21Z</time>
      </trkpt>
      <trkpt lat="46.55671" lon="5.33116">
        <ele>206.6</ele>
        <time>2022-05-02T12:51:24Z</time>
      </trkpt>
      <trkpt lat="46.55689" lon="5.33033">
        <ele>206.2</ele>
        <time>2022-05-02T12:51:32Z</time>
      </trkpt>
      <trkpt lat="46.5569" lon="5.33022">
        <ele>206.2</ele>
        <time>2022-05-02T12:51:33Z</time>
      </trkpt>
      <trkpt lat="46.55704" lon="5.32943">
        <ele>206.2</ele>
        <time>2022-05-02T12:51:41Z</time>
      </trkpt>
      <trkpt lat="46.55708" lon="5.32917">
        <ele>206.2</ele>
        <time>2022-05-02T12:51:44Z</time>
      </trkpt>
      <trkpt lat="46.55719" lon="5.32849">
        <ele>206.8</ele>
        <time>2022-05-02T12:51:52Z</time>
      </trkpt>
      <trkpt lat="46.55735" lon="5.32774">
        <ele>206.8</ele>
        <time>2022-05-02T12:52:01Z</time>
      </trkpt>
      <trkpt lat="46.55739" lon="5.32757">
        <ele>207</ele>
        <time>2022-05-02T12:52:03Z</time>
      </trkpt>
      <trkpt lat="46.55756" lon="5.32698">
        <ele>207.2</ele>
        <time>2022-05-02T12:52:10Z</time>
      </trkpt>
      <trkpt lat="46.5576" lon="5.32691">
        <ele>207.2</ele>
        <time>2022-05-02T12:52:11Z</time>
      </trkpt>
      <trkpt lat="46.55764" lon="5.32685">
        <ele>207</ele>
        <time>2022-05-02T12:52:12Z</time>
      </trkpt>
      <trkpt lat="46.55775" lon="5.32675">
        <ele>207</ele>
        <time>2022-05-02T12:52:14Z</time>
      </trkpt>
      <trkpt lat="46.55781" lon="5.32671">
        <ele>206.8</ele>
        <time>2022-05-02T12:52:15Z</time>
      </trkpt>
      <trkpt lat="46.558" lon="5.32664">
        <ele>206.6</ele>
        <time>2022-05-02T12:52:18Z</time>
      </trkpt>
      <trkpt lat="46.55812" lon="5.32663">
        <ele>206.6</ele>
        <time>2022-05-02T12:52:20Z</time>
      </trkpt>
      <trkpt lat="46.55831" lon="5.32663">
        <ele>206.6</ele>
        <time>2022-05-02T12:52:23Z</time>
      </trkpt>
      <trkpt lat="46.55856" lon="5.32658">
        <ele>206.6</ele>
        <time>2022-05-02T12:52:27Z</time>
      </trkpt>
      <trkpt lat="46.5588" lon="5.32647">
        <ele>206.6</ele>
        <time>2022-05-02T12:52:31Z</time>
      </trkpt>
      <trkpt lat="46.55886" lon="5.32643">
        <ele>206.8</ele>
        <time>2022-05-02T12:52:32Z</time>
      </trkpt>
      <trkpt lat="46.55911" lon="5.32615">
        <ele>207</ele>
        <time>2022-05-02T12:52:37Z</time>
      </trkpt>
      <trkpt lat="46.55915" lon="5.32608">
        <ele>207</ele>
        <time>2022-05-02T12:52:38Z</time>
      </trkpt>
      <trkpt lat="46.55945" lon="5.3254">
        <ele>207.4</ele>
        <time>2022-05-02T12:52:47Z</time>
      </trkpt>
      <trkpt lat="46.55973" lon="5.32472">
        <ele>207.8</ele>
        <time>2022-05-02T12:52:56Z</time>
      </trkpt>
      <trkpt lat="46.55979" lon="5.32457">
        <ele>207.8</ele>
        <time>2022-05-02T12:52:58Z</time>
      </trkpt>
      <trkpt lat="46.55986" lon="5.32442">
        <ele>208</ele>
        <time>2022-05-02T12:53:00Z</time>
      </trkpt>
      <trkpt lat="46.56012" lon="5.32382">
        <ele>208.4</ele>
        <time>2022-05-02T12:53:08Z</time>
      </trkpt>
      <trkpt lat="46.56039" lon="5.32341">
        <ele>208.8</ele>
        <time>2022-05-02T12:53:15Z</time>
      </trkpt>
      <trkpt lat="46.56047" lon="5.32332">
        <ele>209</ele>
        <time>2022-05-02T12:53:17Z</time>
      </trkpt>
      <trkpt lat="46.56062" lon="5.32313">
        <ele>209.8</ele>
        <time>2022-05-02T12:53:21Z</time>
      </trkpt>
      <trkpt lat="46.56069" lon="5.32304">
        <ele>210</ele>
        <time>2022-05-02T12:53:23Z</time>
      </trkpt>
      <trkpt lat="46.56095" lon="5.32272">
        <ele>210.4</ele>
        <time>2022-05-02T12:53:30Z</time>
      </trkpt>
      <trkpt lat="46.56106" lon="5.32257">
        <ele>211.2</ele>
        <time>2022-05-02T12:53:33Z</time>
      </trkpt>
      <trkpt lat="46.56127" lon="5.32233">
        <ele>212</ele>
        <time>2022-05-02T12:53:38Z</time>
      </trkpt>
      <trkpt lat="46.5613" lon="5.32228">
        <ele>212.2</ele>
        <time>2022-05-02T12:53:39Z</time>
      </trkpt>
      <trkpt lat="46.56159" lon="5.32195">
        <ele>213.4</ele>
        <time>2022-05-02T12:53:46Z</time>
      </trkpt>
      <trkpt lat="46.56195" lon="5.32151">
        <ele>214.2</ele>
        <time>2022-05-02T12:53:55Z</time>
      </trkpt>
      <trkpt lat="46.56203" lon="5.3214">
        <ele>214.4</ele>
        <time>2022-05-02T12:53:57Z</time>
      </trkpt>
      <trkpt lat="46.56227" lon="5.32112">
        <ele>214.8</ele>
        <time>2022-05-02T12:54:03Z</time>
      </trkpt>
      <trkpt lat="46.56231" lon="5.32107">
        <ele>215</ele>
        <time>2022-05-02T12:54:04Z</time>
      </trkpt>
      <trkpt lat="46.56272" lon="5.3206">
        <ele>215</ele>
        <time>2022-05-02T12:54:13Z</time>
      </trkpt>
      <trkpt lat="46.56317" lon="5.32027">
        <ele>214.8</ele>
        <time>2022-05-02T12:54:21Z</time>
      </trkpt>
      <trkpt lat="46.56366" lon="5.31993">
        <ele>214.4</ele>
        <time>2022-05-02T12:54:29Z</time>
      </trkpt>
      <trkpt lat="46.56408" lon="5.31968">
        <ele>214.2</ele>
        <time>2022-05-02T12:54:36Z</time>
      </trkpt>
      <trkpt lat="46.5645" lon="5.31962">
        <ele>214.6</ele>
        <time>2022-05-02T12:54:43Z</time>
      </trkpt>
      <trkpt lat="46.56505" lon="5.31959">
        <ele>214.8</ele>
        <time>2022-05-02T12:54:52Z</time>
      </trkpt>
      <trkpt lat="46.56524" lon="5.31957">
        <ele>214.8</ele>
        <time>2022-05-02T12:54:55Z</time>
      </trkpt>
      <trkpt lat="46.56576" lon="5.31944">
        <ele>214.6</ele>
        <time>2022-05-02T12:55:03Z</time>
      </trkpt>
      <trkpt lat="46.56594" lon="5.31935">
        <ele>214.6</ele>
        <time>2022-05-02T12:55:06Z</time>
      </trkpt>
      <trkpt lat="46.56611" lon="5.3192">
        <ele>214.4</ele>
        <time>2022-05-02T12:55:09Z</time>
      </trkpt>
      <trkpt lat="46.56656" lon="5.31877">
        <ele>214</ele>
        <time>2022-05-02T12:55:17Z</time>
      </trkpt>
      <trkpt lat="46.56667" lon="5.31866">
        <ele>214</ele>
        <time>2022-05-02T12:55:19Z</time>
      </trkpt>
      <trkpt lat="46.56713" lon="5.31821">
        <ele>214</ele>
        <time>2022-05-02T12:55:28Z</time>
      </trkpt>
      <trkpt lat="46.56718" lon="5.31816">
        <ele>214</ele>
        <time>2022-05-02T12:55:29Z</time>
      </trkpt>
      <trkpt lat="46.56762" lon="5.31775">
        <ele>214.8</ele>
        <time>2022-05-02T12:55:38Z</time>
      </trkpt>
      <trkpt lat="46.56808" lon="5.31731">
        <ele>215</ele>
        <time>2022-05-02T12:55:47Z</time>
      </trkpt>
      <trkpt lat="46.56813" lon="5.31725">
        <ele>215</ele>
        <time>2022-05-02T12:55:48Z</time>
      </trkpt>
      <trkpt lat="46.56852" lon="5.31692">
        <ele>214.6</ele>
        <time>2022-05-02T12:55:55Z</time>
      </trkpt>
      <trkpt lat="46.56858" lon="5.31689">
        <ele>214.6</ele>
        <time>2022-05-02T12:55:56Z</time>
      </trkpt>
      <trkpt lat="46.56864" lon="5.31687">
        <ele>214.4</ele>
        <time>2022-05-02T12:55:57Z</time>
      </trkpt>
      <trkpt lat="46.56889" lon="5.31686">
        <ele>214.2</ele>
        <time>2022-05-02T12:56:01Z</time>
      </trkpt>
      <trkpt lat="46.56939" lon="5.31687">
        <ele>214.2</ele>
        <time>2022-05-02T12:56:09Z</time>
      </trkpt>
      <trkpt lat="46.56994" lon="5.31679">
        <ele>214</ele>
        <time>2022-05-02T12:56:18Z</time>
      </trkpt>
      <trkpt lat="46.57048" lon="5.31669">
        <ele>214</ele>
        <time>2022-05-02T12:56:27Z</time>
      </trkpt>
      <trkpt lat="46.57103" lon="5.31663">
        <ele>214</ele>
        <time>2022-05-02T12:56:36Z</time>
      </trkpt>
      <trkpt lat="46.57109" lon="5.31663">
        <ele>214</ele>
        <time>2022-05-02T12:56:37Z</time>
      </trkpt>
      <trkpt lat="46.57157" lon="5.31661">
        <ele>214.4</ele>
        <time>2022-05-02T12:56:45Z</time>
      </trkpt>
      <trkpt lat="46.57204" lon="5.31659">
        <ele>214.6</ele>
        <time>2022-05-02T12:56:53Z</time>
      </trkpt>
      <trkpt lat="46.5721" lon="5.31658">
        <ele>214.6</ele>
        <time>2022-05-02T12:56:54Z</time>
      </trkpt>
      <trkpt lat="46.57265" lon="5.31654">
        <ele>215</ele>
        <time>2022-05-02T12:57:03Z</time>
      </trkpt>
      <trkpt lat="46.57278" lon="5.31652">
        <ele>215</ele>
        <time>2022-05-02T12:57:05Z</time>
      </trkpt>
      <trkpt lat="46.57334" lon="5.31639">
        <ele>214.6</ele>
        <time>2022-05-02T12:57:14Z</time>
      </trkpt>
      <trkpt lat="46.5734" lon="5.31638">
        <ele>214.6</ele>
        <time>2022-05-02T12:57:15Z</time>
      </trkpt>
      <trkpt lat="46.57389" lon="5.31622">
        <ele>214.2</ele>
        <time>2022-05-02T12:57:23Z</time>
      </trkpt>
      <trkpt lat="46.57432" lon="5.31618">
        <ele>214.4</ele>
        <time>2022-05-02T12:57:30Z</time>
      </trkpt>
      <trkpt lat="46.57488" lon="5.31615">
        <ele>214.6</ele>
        <time>2022-05-02T12:57:39Z</time>
      </trkpt>
      <trkpt lat="46.575" lon="5.31614">
        <ele>214.6</ele>
        <time>2022-05-02T12:57:41Z</time>
      </trkpt>
      <trkpt lat="46.57556" lon="5.31605">
        <ele>214.6</ele>
        <time>2022-05-02T12:57:50Z</time>
      </trkpt>
      <trkpt lat="46.57569" lon="5.31603">
        <ele>214.4</ele>
        <time>2022-05-02T12:57:52Z</time>
      </trkpt>
      <trkpt lat="46.57624" lon="5.31596">
        <ele>214.4</ele>
        <time>2022-05-02T12:58:01Z</time>
      </trkpt>
      <trkpt lat="46.5763" lon="5.31595">
        <ele>214.4</ele>
        <time>2022-05-02T12:58:02Z</time>
      </trkpt>
      <trkpt lat="46.57687" lon="5.31585">
        <ele>214.4</ele>
        <time>2022-05-02T12:58:11Z</time>
      </trkpt>
      <trkpt lat="46.57693" lon="5.31584">
        <ele>214.4</ele>
        <time>2022-05-02T12:58:12Z</time>
      </trkpt>
      <trkpt lat="46.57731" lon="5.31565">
        <ele>214.2</ele>
        <time>2022-05-02T12:58:18Z</time>
      </trkpt>
      <trkpt lat="46.57782" lon="5.31526">
        <ele>213.6</ele>
        <time>2022-05-02T12:58:26Z</time>
      </trkpt>
      <trkpt lat="46.5783" lon="5.31494">
        <ele>212.8</ele>
        <time>2022-05-02T12:58:33Z</time>
      </trkpt>
      <trkpt lat="46.57845" lon="5.31488">
        <ele>212.4</ele>
        <time>2022-05-02T12:58:35Z</time>
      </trkpt>
      <trkpt lat="46.57888" lon="5.31474">
        <ele>212</ele>
        <time>2022-05-02T12:58:41Z</time>
      </trkpt>
      <trkpt lat="46.57946" lon="5.31456">
        <ele>211.4</ele>
        <time>2022-05-02T12:58:49Z</time>
      </trkpt>
      <trkpt lat="46.57953" lon="5.31454">
        <ele>211.4</ele>
        <time>2022-05-02T12:58:50Z</time>
      </trkpt>
      <trkpt lat="46.57968" lon="5.3145">
        <ele>211.2</ele>
        <time>2022-05-02T12:58:52Z</time>
      </trkpt>
      <trkpt lat="46.58025" lon="5.31434">
        <ele>210.6</ele>
        <time>2022-05-02T12:59:00Z</time>
      </trkpt>
      <trkpt lat="46.58046" lon="5.3143">
        <ele>210.4</ele>
        <time>2022-05-02T12:59:03Z</time>
      </trkpt>
      <trkpt lat="46.5806" lon="5.3143">
        <ele>210.2</ele>
        <time>2022-05-02T12:59:05Z</time>
      </trkpt>
      <trkpt lat="46.58093" lon="5.31433">
        <ele>210.4</ele>
        <time>2022-05-02T12:59:10Z</time>
      </trkpt>
      <trkpt lat="46.58126" lon="5.31434">
        <ele>210.6</ele>
        <time>2022-05-02T12:59:15Z</time>
      </trkpt>
      <trkpt lat="46.58139" lon="5.31429">
        <ele>210.6</ele>
        <time>2022-05-02T12:59:17Z</time>
      </trkpt>
      <trkpt lat="46.58177" lon="5.31401">
        <ele>210.2</ele>
        <time>2022-05-02T12:59:23Z</time>
      </trkpt>
      <trkpt lat="46.5823" lon="5.31359">
        <ele>210</ele>
        <time>2022-05-02T12:59:31Z</time>
      </trkpt>
      <trkpt lat="46.58236" lon="5.31354">
        <ele>209.8</ele>
        <time>2022-05-02T12:59:32Z</time>
      </trkpt>
      <trkpt lat="46.58263" lon="5.31332">
        <ele>209.4</ele>
        <time>2022-05-02T12:59:36Z</time>
      </trkpt>
      <trkpt lat="46.58303" lon="5.31301">
        <ele>208.6</ele>
        <time>2022-05-02T12:59:42Z</time>
      </trkpt>
      <trkpt lat="46.58322" lon="5.31286">
        <ele>208.2</ele>
        <time>2022-05-02T12:59:45Z</time>
      </trkpt>
      <trkpt lat="46.58356" lon="5.31267">
        <ele>207.8</ele>
        <time>2022-05-02T12:59:50Z</time>
      </trkpt>
      <trkpt lat="46.58397" lon="5.31248">
        <ele>207.2</ele>
        <time>2022-05-02T12:59:56Z</time>
      </trkpt>
      <trkpt lat="46.5841" lon="5.31242">
        <ele>207.2</ele>
        <time>2022-05-02T12:59:58Z</time>
      </trkpt>
      <trkpt lat="46.58461" lon="5.3122">
        <ele>207.2</ele>
        <time>2022-05-02T13:00:06Z</time>
      </trkpt>
      <trkpt lat="46.58519" lon="5.31195">
        <ele>207.4</ele>
        <time>2022-05-02T13:00:15Z</time>
      </trkpt>
      <trkpt lat="46.58531" lon="5.31188">
        <ele>207.4</ele>
        <time>2022-05-02T13:00:17Z</time>
      </trkpt>
      <trkpt lat="46.58573" lon="5.31156">
        <ele>207.4</ele>
        <time>2022-05-02T13:00:24Z</time>
      </trkpt>
      <trkpt lat="46.5862" lon="5.31109">
        <ele>207</ele>
        <time>2022-05-02T13:00:32Z</time>
      </trkpt>
      <trkpt lat="46.58626" lon="5.31103">
        <ele>206.8</ele>
        <time>2022-05-02T13:00:33Z</time>
      </trkpt>
      <trkpt lat="46.58649" lon="5.31079">
        <ele>206.2</ele>
        <time>2022-05-02T13:00:37Z</time>
      </trkpt>
      <trkpt lat="46.5867" lon="5.31056">
        <ele>205.8</ele>
        <time>2022-05-02T13:00:41Z</time>
      </trkpt>
      <trkpt lat="46.58712" lon="5.31014">
        <ele>205.8</ele>
        <time>2022-05-02T13:00:49Z</time>
      </trkpt>
      <trkpt lat="46.58758" lon="5.30967">
        <ele>205.8</ele>
        <time>2022-05-02T13:00:59Z</time>
      </trkpt>
      <trkpt lat="46.58762" lon="5.30963">
        <ele>205.8</ele>
        <time>2022-05-02T13:01:00Z</time>
      </trkpt>
      <trkpt lat="46.58796" lon="5.30926">
        <ele>207.4</ele>
        <time>2022-05-02T13:01:08Z</time>
      </trkpt>
      <trkpt lat="46.58804" lon="5.30919">
        <ele>207.8</ele>
        <time>2022-05-02T13:01:10Z</time>
      </trkpt>
      <trkpt lat="46.58824" lon="5.30909">
        <ele>208.4</ele>
        <time>2022-05-02T13:01:14Z</time>
      </trkpt>
      <trkpt lat="46.58829" lon="5.30908">
        <ele>208.6</ele>
        <time>2022-05-02T13:01:15Z</time>
      </trkpt>
      <trkpt lat="46.58834" lon="5.30906">
        <ele>208.6</ele>
        <time>2022-05-02T13:01:16Z</time>
      </trkpt>
      <trkpt lat="46.58874" lon="5.30899">
        <ele>209.4</ele>
        <time>2022-05-02T13:01:23Z</time>
      </trkpt>
      <trkpt lat="46.58896" lon="5.30896">
        <ele>209.6</ele>
        <time>2022-05-02T13:01:27Z</time>
      </trkpt>
      <trkpt lat="46.58925" lon="5.30892">
        <ele>209.4</ele>
        <time>2022-05-02T13:01:32Z</time>
      </trkpt>
      <trkpt lat="46.58978" lon="5.30886">
        <ele>208.8</ele>
        <time>2022-05-02T13:01:40Z</time>
      </trkpt>
      <trkpt lat="46.58999" lon="5.30883">
        <ele>208.4</ele>
        <time>2022-05-02T13:01:43Z</time>
      </trkpt>
      <trkpt lat="46.59022" lon="5.3088">
        <ele>207.4</ele>
        <time>2022-05-02T13:01:46Z</time>
      </trkpt>
      <trkpt lat="46.59031" lon="5.30879">
        <ele>207.4</ele>
        <time>2022-05-02T13:01:47Z</time>
      </trkpt>
      <trkpt lat="46.59065" lon="5.30874">
        <ele>206.2</ele>
        <time>2022-05-02T13:01:51Z</time>
      </trkpt>
      <trkpt lat="46.59083" lon="5.30872">
        <ele>205.6</ele>
        <time>2022-05-02T13:01:53Z</time>
      </trkpt>
      <trkpt lat="46.59101" lon="5.30869">
        <ele>204.8</ele>
        <time>2022-05-02T13:01:55Z</time>
      </trkpt>
      <trkpt lat="46.59138" lon="5.30865">
        <ele>203.2</ele>
        <time>2022-05-02T13:01:59Z</time>
      </trkpt>
      <trkpt lat="46.59148" lon="5.30864">
        <ele>202.6</ele>
        <time>2022-05-02T13:02:00Z</time>
      </trkpt>
      <trkpt lat="46.59166" lon="5.30861">
        <ele>201.8</ele>
        <time>2022-05-02T13:02:02Z</time>
      </trkpt>
      <trkpt lat="46.59204" lon="5.30856">
        <ele>200.6</ele>
        <time>2022-05-02T13:02:06Z</time>
      </trkpt>
      <trkpt lat="46.59241" lon="5.30852">
        <ele>199.8</ele>
        <time>2022-05-02T13:02:10Z</time>
      </trkpt>
      <trkpt lat="46.5925" lon="5.30851">
        <ele>199.4</ele>
        <time>2022-05-02T13:02:11Z</time>
      </trkpt>
      <trkpt lat="46.59279" lon="5.30847">
        <ele>198</ele>
        <time>2022-05-02T13:02:14Z</time>
      </trkpt>
      <trkpt lat="46.59308" lon="5.30843">
        <ele>197</ele>
        <time>2022-05-02T13:02:17Z</time>
      </trkpt>
      <trkpt lat="46.59327" lon="5.3084">
        <ele>196.2</ele>
        <time>2022-05-02T13:02:19Z</time>
      </trkpt>
      <trkpt lat="46.59336" lon="5.30839">
        <ele>195.6</ele>
        <time>2022-05-02T13:02:20Z</time>
      </trkpt>
      <trkpt lat="46.59365" lon="5.30835">
        <ele>194.6</ele>
        <time>2022-05-02T13:02:23Z</time>
      </trkpt>
      <trkpt lat="46.59404" lon="5.3083">
        <ele>193.2</ele>
        <time>2022-05-02T13:02:27Z</time>
      </trkpt>
      <trkpt lat="46.59423" lon="5.30827">
        <ele>192.6</ele>
        <time>2022-05-02T13:02:29Z</time>
      </trkpt>
      <trkpt lat="46.59432" lon="5.30826">
        <ele>192.2</ele>
        <time>2022-05-02T13:02:30Z</time>
      </trkpt>
      <trkpt lat="46.59468" lon="5.30821">
        <ele>191</ele>
        <time>2022-05-02T13:02:34Z</time>
      </trkpt>
      <trkpt lat="46.59494" lon="5.30818">
        <ele>190.2</ele>
        <time>2022-05-02T13:02:37Z</time>
      </trkpt>
      <trkpt lat="46.5951" lon="5.30816">
        <ele>190</ele>
        <time>2022-05-02T13:02:39Z</time>
      </trkpt>
      <trkpt lat="46.59549" lon="5.3081">
        <ele>189.8</ele>
        <time>2022-05-02T13:02:44Z</time>
      </trkpt>
      <trkpt lat="46.59609" lon="5.30803">
        <ele>189.6</ele>
        <time>2022-05-02T13:02:52Z</time>
      </trkpt>
      <trkpt lat="46.59664" lon="5.30796">
        <ele>189.6</ele>
        <time>2022-05-02T13:03:00Z</time>
      </trkpt>
      <trkpt lat="46.59699" lon="5.30792">
        <ele>190.2</ele>
        <time>2022-05-02T13:03:06Z</time>
      </trkpt>
      <trkpt lat="46.59724" lon="5.30792">
        <ele>191</ele>
        <time>2022-05-02T13:03:11Z</time>
      </trkpt>
      <trkpt lat="46.59729" lon="5.30792">
        <ele>191.4</ele>
        <time>2022-05-02T13:03:12Z</time>
      </trkpt>
      <trkpt lat="46.59742" lon="5.30791">
        <ele>192</ele>
        <time>2022-05-02T13:03:15Z</time>
      </trkpt>
      <trkpt lat="46.5976" lon="5.30789">
        <ele>193.2</ele>
        <time>2022-05-02T13:03:19Z</time>
      </trkpt>
      <trkpt lat="46.59769" lon="5.30788">
        <ele>193.4</ele>
        <time>2022-05-02T13:03:21Z</time>
      </trkpt>
      <trkpt lat="46.59785" lon="5.3079">
        <ele>194.4</ele>
        <time>2022-05-02T13:03:25Z</time>
      </trkpt>
      <trkpt lat="46.598" lon="5.30798">
        <ele>195.2</ele>
        <time>2022-05-02T13:03:29Z</time>
      </trkpt>
      <trkpt lat="46.59804" lon="5.308">
        <ele>195.6</ele>
        <time>2022-05-02T13:03:30Z</time>
      </trkpt>
      <trkpt lat="46.59809" lon="5.30803">
        <ele>195.8</ele>
        <time>2022-05-02T13:03:31Z</time>
      </trkpt>
      <trkpt lat="46.59827" lon="5.30811">
        <ele>196.8</ele>
        <time>2022-05-02T13:03:35Z</time>
      </trkpt>
      <trkpt lat="46.59851" lon="5.30817">
        <ele>197.6</ele>
        <time>2022-05-02T13:03:40Z</time>
      </trkpt>
      <trkpt lat="46.59861" lon="5.3082">
        <ele>198</ele>
        <time>2022-05-02T13:03:42Z</time>
      </trkpt>
      <trkpt lat="46.59871" lon="5.30823">
        <ele>198</ele>
        <time>2022-05-02T13:03:44Z</time>
      </trkpt>
      <trkpt lat="46.59885" lon="5.30825">
        <ele>198.2</ele>
        <time>2022-05-02T13:03:47Z</time>
      </trkpt>
      <trkpt lat="46.59919" lon="5.30831">
        <ele>199.2</ele>
        <time>2022-05-02T13:03:54Z</time>
      </trkpt>
      <trkpt lat="46.59933" lon="5.30834">
        <ele>199.4</ele>
        <time>2022-05-02T13:03:57Z</time>
      </trkpt>
      <trkpt lat="46.59956" lon="5.30839">
        <ele>200</ele>
        <time>2022-05-02T13:04:02Z</time>
      </trkpt>
      <trkpt lat="46.59961" lon="5.30842">
        <ele>200.2</ele>
        <time>2022-05-02T13:04:03Z</time>
      </trkpt>
      <trkpt lat="46.59969" lon="5.30848">
        <ele>200.4</ele>
        <time>2022-05-02T13:04:05Z</time>
      </trkpt>
      <trkpt lat="46.59988" lon="5.30869">
        <ele>201.2</ele>
        <time>2022-05-02T13:04:10Z</time>
      </trkpt>
      <trkpt lat="46.59999" lon="5.30882">
        <ele>201.6</ele>
        <time>2022-05-02T13:04:13Z</time>
      </trkpt>
      <trkpt lat="46.60013" lon="5.30899">
        <ele>202.6</ele>
        <time>2022-05-02T13:04:17Z</time>
      </trkpt>
      <trkpt lat="46.60024" lon="5.30911">
        <ele>202.8</ele>
        <time>2022-05-02T13:04:20Z</time>
      </trkpt>
      <trkpt lat="46.60042" lon="5.30931">
        <ele>203.6</ele>
        <time>2022-05-02T13:04:25Z</time>
      </trkpt>
      <trkpt lat="46.60064" lon="5.30957">
        <ele>204.4</ele>
        <time>2022-05-02T13:04:31Z</time>
      </trkpt>
      <trkpt lat="46.60072" lon="5.30965">
        <ele>204.6</ele>
        <time>2022-05-02T13:04:33Z</time>
      </trkpt>
      <trkpt lat="46.60099" lon="5.30997">
        <ele>205.4</ele>
        <time>2022-05-02T13:04:41Z</time>
      </trkpt>
      <trkpt lat="46.60106" lon="5.31006">
        <ele>205.6</ele>
        <time>2022-05-02T13:04:45Z</time>
      </trkpt>
      <trkpt lat="46.60107" lon="5.31012">
        <ele>205.6</ele>
        <time>2022-05-02T13:04:49Z</time>
      </trkpt>
      <trkpt lat="46.60112" lon="5.31013">
        <ele>205.6</ele>
        <time>2022-05-02T13:04:51Z</time>
      </trkpt>
      <trkpt lat="46.60129" lon="5.31013">
        <ele>205.6</ele>
        <time>2022-05-02T13:04:55Z</time>
      </trkpt>
      <trkpt lat="46.60153" lon="5.3102">
        <ele>205</ele>
        <time>2022-05-02T13:04:59Z</time>
      </trkpt>
      <trkpt lat="46.60202" lon="5.31035">
        <ele>204</ele>
        <time>2022-05-02T13:05:07Z</time>
      </trkpt>
      <trkpt lat="46.60251" lon="5.31055">
        <ele>204.2</ele>
        <time>2022-05-02T13:05:14Z</time>
      </trkpt>
      <trkpt lat="46.60289" lon="5.31075">
        <ele>203.6</ele>
        <time>2022-05-02T13:05:19Z</time>
      </trkpt>
      <trkpt lat="46.60303" lon="5.31083">
        <ele>203.2</ele>
        <time>2022-05-02T13:05:21Z</time>
      </trkpt>
      <trkpt lat="46.60325" lon="5.31097">
        <ele>202.4</ele>
        <time>2022-05-02T13:05:24Z</time>
      </trkpt>
      <trkpt lat="46.60332" lon="5.31103">
        <ele>202.4</ele>
        <time>2022-05-02T13:05:25Z</time>
      </trkpt>
      <trkpt lat="46.60343" lon="5.31116">
        <ele>202</ele>
        <time>2022-05-02T13:05:27Z</time>
      </trkpt>
      <trkpt lat="46.60362" lon="5.31149">
        <ele>201.8</ele>
        <time>2022-05-02T13:05:31Z</time>
      </trkpt>
      <trkpt lat="46.60366" lon="5.31159">
        <ele>201.6</ele>
        <time>2022-05-02T13:05:32Z</time>
      </trkpt>
      <trkpt lat="46.60373" lon="5.31189">
        <ele>201.6</ele>
        <time>2022-05-02T13:05:35Z</time>
      </trkpt>
      <trkpt lat="46.60374" lon="5.312">
        <ele>201.6</ele>
        <time>2022-05-02T13:05:36Z</time>
      </trkpt>
      <trkpt lat="46.60372" lon="5.31252">
        <ele>201.4</ele>
        <time>2022-05-02T13:05:41Z</time>
      </trkpt>
      <trkpt lat="46.60364" lon="5.31319">
        <ele>202</ele>
        <time>2022-05-02T13:05:48Z</time>
      </trkpt>
      <trkpt lat="46.60362" lon="5.31358">
        <ele>202.6</ele>
        <time>2022-05-02T13:05:52Z</time>
      </trkpt>
      <trkpt lat="46.60364" lon="5.31377">
        <ele>202.8</ele>
        <time>2022-05-02T13:05:54Z</time>
      </trkpt>
      <trkpt lat="46.60369" lon="5.31396">
        <ele>203</ele>
        <time>2022-05-02T13:05:56Z</time>
      </trkpt>
      <trkpt lat="46.60378" lon="5.31413">
        <ele>203</ele>
        <time>2022-05-02T13:05:58Z</time>
      </trkpt>
      <trkpt lat="46.60403" lon="5.3144">
        <ele>203</ele>
        <time>2022-05-02T13:06:02Z</time>
      </trkpt>
      <trkpt lat="46.60439" lon="5.31484">
        <ele>202.2</ele>
        <time>2022-05-02T13:06:08Z</time>
      </trkpt>
      <trkpt lat="46.60476" lon="5.31538">
        <ele>201.8</ele>
        <time>2022-05-02T13:06:15Z</time>
      </trkpt>
      <trkpt lat="46.60503" lon="5.31566">
        <ele>202</ele>
        <time>2022-05-02T13:06:20Z</time>
      </trkpt>
      <trkpt lat="46.60544" lon="5.31604">
        <ele>202.8</ele>
        <time>2022-05-02T13:06:28Z</time>
      </trkpt>
      <trkpt lat="46.60577" lon="5.31633">
        <ele>203.8</ele>
        <time>2022-05-02T13:06:35Z</time>
      </trkpt>
      <trkpt lat="46.6059" lon="5.31643">
        <ele>204.8</ele>
        <time>2022-05-02T13:06:38Z</time>
      </trkpt>
      <trkpt lat="46.60616" lon="5.31659">
        <ele>205.4</ele>
        <time>2022-05-02T13:06:43Z</time>
      </trkpt>
      <trkpt lat="46.60638" lon="5.31671">
        <ele>205.8</ele>
        <time>2022-05-02T13:06:47Z</time>
      </trkpt>
      <trkpt lat="46.60656" lon="5.31679">
        <ele>206</ele>
        <time>2022-05-02T13:06:50Z</time>
      </trkpt>
      <trkpt lat="46.60705" lon="5.31698">
        <ele>205.8</ele>
        <time>2022-05-02T13:06:58Z</time>
      </trkpt>
      <trkpt lat="46.60736" lon="5.31714">
        <ele>205.6</ele>
        <time>2022-05-02T13:07:03Z</time>
      </trkpt>
      <trkpt lat="46.60747" lon="5.31724">
        <ele>205.6</ele>
        <time>2022-05-02T13:07:05Z</time>
      </trkpt>
      <trkpt lat="46.60762" lon="5.31742">
        <ele>205.6</ele>
        <time>2022-05-02T13:07:08Z</time>
      </trkpt>
      <trkpt lat="46.60771" lon="5.31757">
        <ele>205.6</ele>
        <time>2022-05-02T13:07:10Z</time>
      </trkpt>
      <trkpt lat="46.60793" lon="5.31803">
        <ele>205.2</ele>
        <time>2022-05-02T13:07:15Z</time>
      </trkpt>
      <trkpt lat="46.60797" lon="5.31814">
        <ele>204.8</ele>
        <time>2022-05-02T13:07:16Z</time>
      </trkpt>
      <trkpt lat="46.60809" lon="5.31856">
        <ele>204</ele>
        <time>2022-05-02T13:07:20Z</time>
      </trkpt>
      <trkpt lat="46.6082" lon="5.31903">
        <ele>203.8</ele>
        <time>2022-05-02T13:07:25Z</time>
      </trkpt>
      <trkpt lat="46.60824" lon="5.31928">
        <ele>203.8</ele>
        <time>2022-05-02T13:07:28Z</time>
      </trkpt>
      <trkpt lat="46.60827" lon="5.31953">
        <ele>204</ele>
        <time>2022-05-02T13:07:31Z</time>
      </trkpt>
      <trkpt lat="46.60831" lon="5.32018">
        <ele>204.6</ele>
        <time>2022-05-02T13:07:38Z</time>
      </trkpt>
      <trkpt lat="46.60838" lon="5.32081">
        <ele>204.6</ele>
        <time>2022-05-02T13:07:44Z</time>
      </trkpt>
      <trkpt lat="46.6085" lon="5.32108">
        <ele>203.8</ele>
        <time>2022-05-02T13:07:47Z</time>
      </trkpt>
      <trkpt lat="46.60854" lon="5.32115">
        <ele>203.8</ele>
        <time>2022-05-02T13:07:48Z</time>
      </trkpt>
      <trkpt lat="46.60859" lon="5.32122">
        <ele>203.6</ele>
        <time>2022-05-02T13:07:49Z</time>
      </trkpt>
      <trkpt lat="46.60889" lon="5.32158">
        <ele>203.6</ele>
        <time>2022-05-02T13:07:55Z</time>
      </trkpt>
      <trkpt lat="46.60898" lon="5.32169">
        <ele>203.6</ele>
        <time>2022-05-02T13:07:57Z</time>
      </trkpt>
      <trkpt lat="46.60911" lon="5.32185">
        <ele>203.8</ele>
        <time>2022-05-02T13:08:00Z</time>
      </trkpt>
      <trkpt lat="46.6092" lon="5.32196">
        <ele>203.8</ele>
        <time>2022-05-02T13:08:02Z</time>
      </trkpt>
      <trkpt lat="46.60934" lon="5.32208">
        <ele>204.2</ele>
        <time>2022-05-02T13:08:05Z</time>
      </trkpt>
      <trkpt lat="46.60943" lon="5.32215">
        <ele>204.4</ele>
        <time>2022-05-02T13:08:07Z</time>
      </trkpt>
      <trkpt lat="46.60954" lon="5.32221">
        <ele>204.8</ele>
        <time>2022-05-02T13:08:09Z</time>
      </trkpt>
      <trkpt lat="46.60959" lon="5.32222">
        <ele>205</ele>
        <time>2022-05-02T13:08:10Z</time>
      </trkpt>
      <trkpt lat="46.60972" lon="5.32223">
        <ele>205.2</ele>
        <time>2022-05-02T13:08:12Z</time>
      </trkpt>
      <trkpt lat="46.61003" lon="5.32222">
        <ele>205.6</ele>
        <time>2022-05-02T13:08:17Z</time>
      </trkpt>
      <trkpt lat="46.61023" lon="5.32223">
        <ele>205.8</ele>
        <time>2022-05-02T13:08:20Z</time>
      </trkpt>
      <trkpt lat="46.61073" lon="5.32223">
        <ele>205</ele>
        <time>2022-05-02T13:08:27Z</time>
      </trkpt>
      <trkpt lat="46.61088" lon="5.32223">
        <ele>204.8</ele>
        <time>2022-05-02T13:08:29Z</time>
      </trkpt>
      <trkpt lat="46.61119" lon="5.32224">
        <ele>203.4</ele>
        <time>2022-05-02T13:08:33Z</time>
      </trkpt>
      <trkpt lat="46.61127" lon="5.32224">
        <ele>203.2</ele>
        <time>2022-05-02T13:08:34Z</time>
      </trkpt>
      <trkpt lat="46.61157" lon="5.32222">
        <ele>202.4</ele>
        <time>2022-05-02T13:08:38Z</time>
      </trkpt>
      <trkpt lat="46.61178" lon="5.32217">
        <ele>202.2</ele>
        <time>2022-05-02T13:08:41Z</time>
      </trkpt>
      <trkpt lat="46.61191" lon="5.32209">
        <ele>202.2</ele>
        <time>2022-05-02T13:08:43Z</time>
      </trkpt>
      <trkpt lat="46.61202" lon="5.32198">
        <ele>202.2</ele>
        <time>2022-05-02T13:08:45Z</time>
      </trkpt>
      <trkpt lat="46.61232" lon="5.32178">
        <ele>202.8</ele>
        <time>2022-05-02T13:08:50Z</time>
      </trkpt>
      <trkpt lat="46.61238" lon="5.32176">
        <ele>202.8</ele>
        <time>2022-05-02T13:08:51Z</time>
      </trkpt>
      <trkpt lat="46.61271" lon="5.32174">
        <ele>202.8</ele>
        <time>2022-05-02T13:08:56Z</time>
      </trkpt>
      <trkpt lat="46.61321" lon="5.32193">
        <ele>202.4</ele>
        <time>2022-05-02T13:09:03Z</time>
      </trkpt>
      <trkpt lat="46.6136" lon="5.32206">
        <ele>201.6</ele>
        <time>2022-05-02T13:09:08Z</time>
      </trkpt>
      <trkpt lat="46.61368" lon="5.32205">
        <ele>201.4</ele>
        <time>2022-05-02T13:09:09Z</time>
      </trkpt>
      <trkpt lat="46.61376" lon="5.32204">
        <ele>201.2</ele>
        <time>2022-05-02T13:09:10Z</time>
      </trkpt>
      <trkpt lat="46.6141" lon="5.32193">
        <ele>200.2</ele>
        <time>2022-05-02T13:09:14Z</time>
      </trkpt>
      <trkpt lat="46.61443" lon="5.32169">
        <ele>199.2</ele>
        <time>2022-05-02T13:09:19Z</time>
      </trkpt>
      <trkpt lat="46.61458" lon="5.32159">
        <ele>198.8</ele>
        <time>2022-05-02T13:09:21Z</time>
      </trkpt>
      <trkpt lat="46.61483" lon="5.3215">
        <ele>198.2</ele>
        <time>2022-05-02T13:09:24Z</time>
      </trkpt>
      <trkpt lat="46.61491" lon="5.32149">
        <ele>198.2</ele>
        <time>2022-05-02T13:09:25Z</time>
      </trkpt>
      <trkpt lat="46.61507" lon="5.32153">
        <ele>197.8</ele>
        <time>2022-05-02T13:09:27Z</time>
      </trkpt>
      <trkpt lat="46.61522" lon="5.32162">
        <ele>197.4</ele>
        <time>2022-05-02T13:09:29Z</time>
      </trkpt>
      <trkpt lat="46.61535" lon="5.32176">
        <ele>197</ele>
        <time>2022-05-02T13:09:31Z</time>
      </trkpt>
      <trkpt lat="46.61565" lon="5.32225">
        <ele>196.6</ele>
        <time>2022-05-02T13:09:37Z</time>
      </trkpt>
      <trkpt lat="46.61592" lon="5.32273">
        <ele>196.8</ele>
        <time>2022-05-02T13:09:43Z</time>
      </trkpt>
      <trkpt lat="46.61595" lon="5.32282">
        <ele>197</ele>
        <time>2022-05-02T13:09:44Z</time>
      </trkpt>
      <trkpt lat="46.61597" lon="5.32291">
        <ele>196.8</ele>
        <time>2022-05-02T13:09:45Z</time>
      </trkpt>
      <trkpt lat="46.61603" lon="5.32327">
        <ele>197.2</ele>
        <time>2022-05-02T13:09:49Z</time>
      </trkpt>
      <trkpt lat="46.61615" lon="5.32378">
        <ele>197.8</ele>
        <time>2022-05-02T13:09:55Z</time>
      </trkpt>
      <trkpt lat="46.61622" lon="5.32392">
        <ele>198</ele>
        <time>2022-05-02T13:09:57Z</time>
      </trkpt>
      <trkpt lat="46.61631" lon="5.32404">
        <ele>198.2</ele>
        <time>2022-05-02T13:09:59Z</time>
      </trkpt>
      <trkpt lat="46.61659" lon="5.32431">
        <ele>198.4</ele>
        <time>2022-05-02T13:10:05Z</time>
      </trkpt>
      <trkpt lat="46.61698" lon="5.32454">
        <ele>199</ele>
        <time>2022-05-02T13:10:13Z</time>
      </trkpt>
      <trkpt lat="46.61708" lon="5.32459">
        <ele>199.4</ele>
        <time>2022-05-02T13:10:15Z</time>
      </trkpt>
      <trkpt lat="46.61746" lon="5.32481">
        <ele>200.6</ele>
        <time>2022-05-02T13:10:23Z</time>
      </trkpt>
      <trkpt lat="46.61771" lon="5.32498">
        <ele>201.6</ele>
        <time>2022-05-02T13:10:29Z</time>
      </trkpt>
      <trkpt lat="46.61779" lon="5.32504">
        <ele>201.8</ele>
        <time>2022-05-02T13:10:31Z</time>
      </trkpt>
      <trkpt lat="46.61803" lon="5.32524">
        <ele>202.8</ele>
        <time>2022-05-02T13:10:37Z</time>
      </trkpt>
      <trkpt lat="46.61819" lon="5.32538">
        <ele>203.4</ele>
        <time>2022-05-02T13:10:41Z</time>
      </trkpt>
      <trkpt lat="46.61834" lon="5.32551">
        <ele>203.8</ele>
        <time>2022-05-02T13:10:45Z</time>
      </trkpt>
      <trkpt lat="46.61863" lon="5.32577">
        <ele>204.8</ele>
        <time>2022-05-02T13:10:52Z</time>
      </trkpt>
      <trkpt lat="46.61867" lon="5.32581">
        <ele>205</ele>
        <time>2022-05-02T13:10:53Z</time>
      </trkpt>
      <trkpt lat="46.61907" lon="5.32628">
        <ele>205.6</ele>
        <time>2022-05-02T13:11:03Z</time>
      </trkpt>
      <trkpt lat="46.61949" lon="5.32686">
        <ele>205.6</ele>
        <time>2022-05-02T13:11:13Z</time>
      </trkpt>
      <trkpt lat="46.61984" lon="5.32739">
        <ele>205.4</ele>
        <time>2022-05-02T13:11:21Z</time>
      </trkpt>
      <trkpt lat="46.62015" lon="5.3279">
        <ele>205.6</ele>
        <time>2022-05-02T13:11:29Z</time>
      </trkpt>
      <trkpt lat="46.62034" lon="5.3282">
        <ele>206.2</ele>
        <time>2022-05-02T13:11:34Z</time>
      </trkpt>
      <trkpt lat="46.62045" lon="5.32839">
        <ele>206.6</ele>
        <time>2022-05-02T13:11:37Z</time>
      </trkpt>
      <trkpt lat="46.62075" lon="5.32881">
        <ele>207.2</ele>
        <time>2022-05-02T13:11:44Z</time>
      </trkpt>
      <trkpt lat="46.6208" lon="5.32887">
        <ele>207.2</ele>
        <time>2022-05-02T13:11:45Z</time>
      </trkpt>
      <trkpt lat="46.62085" lon="5.32891">
        <ele>207.4</ele>
        <time>2022-05-02T13:11:46Z</time>
      </trkpt>
      <trkpt lat="46.62112" lon="5.32911">
        <ele>207.8</ele>
        <time>2022-05-02T13:11:51Z</time>
      </trkpt>
      <trkpt lat="46.62156" lon="5.32938">
        <ele>207.8</ele>
        <time>2022-05-02T13:11:59Z</time>
      </trkpt>
      <trkpt lat="46.62161" lon="5.32939">
        <ele>207.6</ele>
        <time>2022-05-02T13:12:00Z</time>
      </trkpt>
      <trkpt lat="46.62168" lon="5.3294">
        <ele>207.6</ele>
        <time>2022-05-02T13:12:01Z</time>
      </trkpt>
      <trkpt lat="46.62181" lon="5.32937">
        <ele>207.4</ele>
        <time>2022-05-02T13:12:03Z</time>
      </trkpt>
      <trkpt lat="46.62187" lon="5.32934">
        <ele>207.2</ele>
        <time>2022-05-02T13:12:04Z</time>
      </trkpt>
      <trkpt lat="46.62221" lon="5.3292">
        <ele>206.8</ele>
        <time>2022-05-02T13:12:09Z</time>
      </trkpt>
      <trkpt lat="46.62243" lon="5.32919">
        <ele>206</ele>
        <time>2022-05-02T13:12:12Z</time>
      </trkpt>
      <trkpt lat="46.62267" lon="5.32918">
        <ele>205</ele>
        <time>2022-05-02T13:12:15Z</time>
      </trkpt>
      <trkpt lat="46.62283" lon="5.32917">
        <ele>203.8</ele>
        <time>2022-05-02T13:12:17Z</time>
      </trkpt>
      <trkpt lat="46.62318" lon="5.32915">
        <ele>202.8</ele>
        <time>2022-05-02T13:12:21Z</time>
      </trkpt>
      <trkpt lat="46.62328" lon="5.32915">
        <ele>202.6</ele>
        <time>2022-05-02T13:12:22Z</time>
      </trkpt>
      <trkpt lat="46.62356" lon="5.32912">
        <ele>201.4</ele>
        <time>2022-05-02T13:12:25Z</time>
      </trkpt>
      <trkpt lat="46.62386" lon="5.32908">
        <ele>200.2</ele>
        <time>2022-05-02T13:12:28Z</time>
      </trkpt>
      <trkpt lat="46.62415" lon="5.32905">
        <ele>198.6</ele>
        <time>2022-05-02T13:12:31Z</time>
      </trkpt>
      <trkpt lat="46.62445" lon="5.329">
        <ele>197.6</ele>
        <time>2022-05-02T13:12:34Z</time>
      </trkpt>
      <trkpt lat="46.62455" lon="5.32898">
        <ele>196.8</ele>
        <time>2022-05-02T13:12:35Z</time>
      </trkpt>
      <trkpt lat="46.62474" lon="5.32895">
        <ele>195.8</ele>
        <time>2022-05-02T13:12:37Z</time>
      </trkpt>
      <trkpt lat="46.62519" lon="5.32887">
        <ele>194.4</ele>
        <time>2022-05-02T13:12:42Z</time>
      </trkpt>
      <trkpt lat="46.62536" lon="5.32884">
        <ele>194</ele>
        <time>2022-05-02T13:12:44Z</time>
      </trkpt>
      <trkpt lat="46.62583" lon="5.32875">
        <ele>193.8</ele>
        <time>2022-05-02T13:12:50Z</time>
      </trkpt>
      <trkpt lat="46.62599" lon="5.32878">
        <ele>193.8</ele>
        <time>2022-05-02T13:12:52Z</time>
      </trkpt>
      <trkpt lat="46.62606" lon="5.32882">
        <ele>193.8</ele>
        <time>2022-05-02T13:12:53Z</time>
      </trkpt>
      <trkpt lat="46.62613" lon="5.32889">
        <ele>193.8</ele>
        <time>2022-05-02T13:12:54Z</time>
      </trkpt>
      <trkpt lat="46.62622" lon="5.32908">
        <ele>193.8</ele>
        <time>2022-05-02T13:12:56Z</time>
      </trkpt>
      <trkpt lat="46.62642" lon="5.3296">
        <ele>193.6</ele>
        <time>2022-05-02T13:13:02Z</time>
      </trkpt>
      <trkpt lat="46.62657" lon="5.32984">
        <ele>194</ele>
        <time>2022-05-02T13:13:06Z</time>
      </trkpt>
      <trkpt lat="46.62662" lon="5.32988">
        <ele>194.2</ele>
        <time>2022-05-02T13:13:07Z</time>
      </trkpt>
      <trkpt lat="46.62671" lon="5.32994">
        <ele>195</ele>
        <time>2022-05-02T13:13:09Z</time>
      </trkpt>
      <trkpt lat="46.62676" lon="5.32996">
        <ele>195.4</ele>
        <time>2022-05-02T13:13:10Z</time>
      </trkpt>
      <trkpt lat="46.62686" lon="5.32998">
        <ele>196</ele>
        <time>2022-05-02T13:13:12Z</time>
      </trkpt>
      <trkpt lat="46.62695" lon="5.32997">
        <ele>196.6</ele>
        <time>2022-05-02T13:13:14Z</time>
      </trkpt>
      <trkpt lat="46.62709" lon="5.32995">
        <ele>197.6</ele>
        <time>2022-05-02T13:13:17Z</time>
      </trkpt>
      <trkpt lat="46.62713" lon="5.32994">
        <ele>197.6</ele>
        <time>2022-05-02T13:13:18Z</time>
      </trkpt>
      <trkpt lat="46.62718" lon="5.32995">
        <ele>198</ele>
        <time>2022-05-02T13:13:19Z</time>
      </trkpt>
      <trkpt lat="46.62732" lon="5.32999">
        <ele>198.8</ele>
        <time>2022-05-02T13:13:22Z</time>
      </trkpt>
      <trkpt lat="46.62741" lon="5.33001">
        <ele>199.2</ele>
        <time>2022-05-02T13:13:24Z</time>
      </trkpt>
      <trkpt lat="46.62755" lon="5.33005">
        <ele>200</ele>
        <time>2022-05-02T13:13:27Z</time>
      </trkpt>
      <trkpt lat="46.62783" lon="5.33016">
        <ele>200.6</ele>
        <time>2022-05-02T13:13:33Z</time>
      </trkpt>
      <trkpt lat="46.62792" lon="5.33018">
        <ele>201.2</ele>
        <time>2022-05-02T13:13:35Z</time>
      </trkpt>
      <trkpt lat="46.62816" lon="5.33026">
        <ele>202.4</ele>
        <time>2022-05-02T13:13:40Z</time>
      </trkpt>
      <trkpt lat="46.62825" lon="5.3303">
        <ele>202.6</ele>
        <time>2022-05-02T13:13:42Z</time>
      </trkpt>
      <trkpt lat="46.6284" lon="5.33034">
        <ele>202.8</ele>
        <time>2022-05-02T13:13:45Z</time>
      </trkpt>
      <trkpt lat="46.62857" lon="5.33038">
        <ele>203</ele>
        <time>2022-05-02T13:13:48Z</time>
      </trkpt>
      <trkpt lat="46.62867" lon="5.33041">
        <ele>203.2</ele>
        <time>2022-05-02T13:13:50Z</time>
      </trkpt>
      <trkpt lat="46.62878" lon="5.33045">
        <ele>203.6</ele>
        <time>2022-05-02T13:13:52Z</time>
      </trkpt>
      <trkpt lat="46.62888" lon="5.33052">
        <ele>203.8</ele>
        <time>2022-05-02T13:13:54Z</time>
      </trkpt>
      <trkpt lat="46.62898" lon="5.3306">
        <ele>204</ele>
        <time>2022-05-02T13:13:56Z</time>
      </trkpt>
      <trkpt lat="46.62911" lon="5.33076">
        <ele>204.2</ele>
        <time>2022-05-02T13:13:59Z</time>
      </trkpt>
      <trkpt lat="46.62931" lon="5.33101">
        <ele>204.4</ele>
        <time>2022-05-02T13:14:04Z</time>
      </trkpt>
      <trkpt lat="46.62941" lon="5.33107">
        <ele>204.4</ele>
        <time>2022-05-02T13:14:06Z</time>
      </trkpt>
      <trkpt lat="46.62951" lon="5.33111">
        <ele>204.6</ele>
        <time>2022-05-02T13:14:08Z</time>
      </trkpt>
      <trkpt lat="46.62979" lon="5.33118">
        <ele>205.2</ele>
        <time>2022-05-02T13:14:14Z</time>
      </trkpt>
      <trkpt lat="46.62989" lon="5.33121">
        <ele>205.6</ele>
        <time>2022-05-02T13:14:16Z</time>
      </trkpt>
      <trkpt lat="46.63016" lon="5.33129">
        <ele>206.6</ele>
        <time>2022-05-02T13:14:22Z</time>
      </trkpt>
      <trkpt lat="46.6302" lon="5.33131">
        <ele>207</ele>
        <time>2022-05-02T13:14:23Z</time>
      </trkpt>
      <trkpt lat="46.63029" lon="5.33136">
        <ele>207.8</ele>
        <time>2022-05-02T13:14:25Z</time>
      </trkpt>
      <trkpt lat="46.63048" lon="5.33151">
        <ele>208.6</ele>
        <time>2022-05-02T13:14:30Z</time>
      </trkpt>
      <trkpt lat="46.63052" lon="5.33154">
        <ele>209</ele>
        <time>2022-05-02T13:14:31Z</time>
      </trkpt>
      <trkpt lat="46.63069" lon="5.33169">
        <ele>209.6</ele>
        <time>2022-05-02T13:14:35Z</time>
      </trkpt>
      <trkpt lat="46.63081" lon="5.33181">
        <ele>210</ele>
        <time>2022-05-02T13:14:38Z</time>
      </trkpt>
      <trkpt lat="46.63097" lon="5.33196">
        <ele>210.6</ele>
        <time>2022-05-02T13:14:42Z</time>
      </trkpt>
      <trkpt lat="46.631" lon="5.33201">
        <ele>210.6</ele>
        <time>2022-05-02T13:14:43Z</time>
      </trkpt>
      <trkpt lat="46.63103" lon="5.33205">
        <ele>210.6</ele>
        <time>2022-05-02T13:14:44Z</time>
      </trkpt>
      <trkpt lat="46.63104" lon="5.33215">
        <ele>210.8</ele>
        <time>2022-05-02T13:14:46Z</time>
      </trkpt>
      <trkpt lat="46.63104" lon="5.33222">
        <ele>210.8</ele>
        <time>2022-05-02T13:14:49Z</time>
      </trkpt>
      <trkpt lat="46.63104" lon="5.33223">
        <ele>210.8</ele>
        <time>2022-05-02T13:14:50Z</time>
      </trkpt>
      <trkpt lat="46.63104" lon="5.33224">
        <ele>210.6</ele>
        <time>2022-05-02T13:14:55Z</time>
      </trkpt>
      <trkpt lat="46.63108" lon="5.33216">
        <ele>211</ele>
        <time>2022-05-02T13:15:40Z</time>
      </trkpt>
      <trkpt lat="46.63114" lon="5.33213">
        <ele>210.8</ele>
        <time>2022-05-02T13:15:42Z</time>
      </trkpt>
      <trkpt lat="46.63131" lon="5.33229">
        <ele>210.8</ele>
        <time>2022-05-02T13:15:46Z</time>
      </trkpt>
      <trkpt lat="46.63165" lon="5.33259">
        <ele>211</ele>
        <time>2022-05-02T13:15:52Z</time>
      </trkpt>
      <trkpt lat="46.63181" lon="5.33274">
        <ele>211.2</ele>
        <time>2022-05-02T13:15:55Z</time>
      </trkpt>
      <trkpt lat="46.63221" lon="5.33306">
        <ele>211.8</ele>
        <time>2022-05-02T13:16:02Z</time>
      </trkpt>
      <trkpt lat="46.63249" lon="5.33325">
        <ele>212.2</ele>
        <time>2022-05-02T13:16:07Z</time>
      </trkpt>
      <trkpt lat="46.63273" lon="5.33336">
        <ele>212.4</ele>
        <time>2022-05-02T13:16:11Z</time>
      </trkpt>
      <trkpt lat="46.63316" lon="5.33347">
        <ele>212.4</ele>
        <time>2022-05-02T13:16:18Z</time>
      </trkpt>
      <trkpt lat="46.63355" lon="5.3336">
        <ele>212</ele>
        <time>2022-05-02T13:16:24Z</time>
      </trkpt>
      <trkpt lat="46.63395" lon="5.3339">
        <ele>211.8</ele>
        <time>2022-05-02T13:16:31Z</time>
      </trkpt>
      <trkpt lat="46.63446" lon="5.33431">
        <ele>211.8</ele>
        <time>2022-05-02T13:16:40Z</time>
      </trkpt>
      <trkpt lat="46.63495" lon="5.33474">
        <ele>211.4</ele>
        <time>2022-05-02T13:16:49Z</time>
      </trkpt>
      <trkpt lat="46.63508" lon="5.33484">
        <ele>211.4</ele>
        <time>2022-05-02T13:16:51Z</time>
      </trkpt>
      <trkpt lat="46.63518" lon="5.33493">
        <ele>211.2</ele>
        <time>2022-05-02T13:16:53Z</time>
      </trkpt>
      <trkpt lat="46.63525" lon="5.33497">
        <ele>211.2</ele>
        <time>2022-05-02T13:16:54Z</time>
      </trkpt>
      <trkpt lat="46.63536" lon="5.33504">
        <ele>211</ele>
        <time>2022-05-02T13:16:56Z</time>
      </trkpt>
      <trkpt lat="46.63541" lon="5.33506">
        <ele>211</ele>
        <time>2022-05-02T13:16:57Z</time>
      </trkpt>
      <trkpt lat="46.63585" lon="5.33514">
        <ele>211</ele>
        <time>2022-05-02T13:17:04Z</time>
      </trkpt>
      <trkpt lat="46.63645" lon="5.33523">
        <ele>210.8</ele>
        <time>2022-05-02T13:17:13Z</time>
      </trkpt>
      <trkpt lat="46.63664" lon="5.33528">
        <ele>210.8</ele>
        <time>2022-05-02T13:17:16Z</time>
      </trkpt>
      <trkpt lat="46.63717" lon="5.33555">
        <ele>211</ele>
        <time>2022-05-02T13:17:24Z</time>
      </trkpt>
      <trkpt lat="46.63762" lon="5.33578">
        <ele>210.8</ele>
        <time>2022-05-02T13:17:31Z</time>
      </trkpt>
      <trkpt lat="46.63802" lon="5.33597">
        <ele>210.2</ele>
        <time>2022-05-02T13:17:37Z</time>
      </trkpt>
      <trkpt lat="46.63809" lon="5.33601">
        <ele>210</ele>
        <time>2022-05-02T13:17:38Z</time>
      </trkpt>
      <trkpt lat="46.63837" lon="5.33616">
        <ele>209.6</ele>
        <time>2022-05-02T13:17:42Z</time>
      </trkpt>
      <trkpt lat="46.63881" lon="5.33636">
        <ele>209</ele>
        <time>2022-05-02T13:17:48Z</time>
      </trkpt>
      <trkpt lat="46.63897" lon="5.33643">
        <ele>208.8</ele>
        <time>2022-05-02T13:17:50Z</time>
      </trkpt>
      <trkpt lat="46.63953" lon="5.33669">
        <ele>208</ele>
        <time>2022-05-02T13:17:57Z</time>
      </trkpt>
      <trkpt lat="46.6396" lon="5.33672">
        <ele>207.8</ele>
        <time>2022-05-02T13:17:58Z</time>
      </trkpt>
      <trkpt lat="46.63976" lon="5.33679">
        <ele>207.6</ele>
        <time>2022-05-02T13:18:00Z</time>
      </trkpt>
      <trkpt lat="46.64001" lon="5.33691">
        <ele>206.8</ele>
        <time>2022-05-02T13:18:03Z</time>
      </trkpt>
      <trkpt lat="46.64035" lon="5.33707">
        <ele>205.8</ele>
        <time>2022-05-02T13:18:07Z</time>
      </trkpt>
      <trkpt lat="46.64043" lon="5.33711">
        <ele>205.2</ele>
        <time>2022-05-02T13:18:08Z</time>
      </trkpt>
      <trkpt lat="46.64061" lon="5.3372">
        <ele>204.8</ele>
        <time>2022-05-02T13:18:10Z</time>
      </trkpt>
      <trkpt lat="46.64099" lon="5.33737">
        <ele>203.4</ele>
        <time>2022-05-02T13:18:14Z</time>
      </trkpt>
      <trkpt lat="46.64118" lon="5.33746">
        <ele>202.6</ele>
        <time>2022-05-02T13:18:16Z</time>
      </trkpt>
      <trkpt lat="46.64128" lon="5.3375">
        <ele>202.2</ele>
        <time>2022-05-02T13:18:17Z</time>
      </trkpt>
      <trkpt lat="46.64166" lon="5.33768">
        <ele>200.8</ele>
        <time>2022-05-02T13:18:21Z</time>
      </trkpt>
      <trkpt lat="46.64196" lon="5.33783">
        <ele>199.4</ele>
        <time>2022-05-02T13:18:24Z</time>
      </trkpt>
      <trkpt lat="46.64213" lon="5.3379">
        <ele>198.6</ele>
        <time>2022-05-02T13:18:26Z</time>
      </trkpt>
      <trkpt lat="46.64222" lon="5.33795">
        <ele>198</ele>
        <time>2022-05-02T13:18:27Z</time>
      </trkpt>
      <trkpt lat="46.64258" lon="5.33811">
        <ele>197</ele>
        <time>2022-05-02T13:18:31Z</time>
      </trkpt>
      <trkpt lat="46.64283" lon="5.33823">
        <ele>196.6</ele>
        <time>2022-05-02T13:18:34Z</time>
      </trkpt>
      <trkpt lat="46.64328" lon="5.33845">
        <ele>196.6</ele>
        <time>2022-05-02T13:18:40Z</time>
      </trkpt>
      <trkpt lat="46.64375" lon="5.33868">
        <ele>197</ele>
        <time>2022-05-02T13:18:47Z</time>
      </trkpt>
      <trkpt lat="46.64409" lon="5.33886">
        <ele>197.8</ele>
        <time>2022-05-02T13:18:53Z</time>
      </trkpt>
      <trkpt lat="46.64422" lon="5.33892">
        <ele>198</ele>
        <time>2022-05-02T13:18:55Z</time>
      </trkpt>
      <trkpt lat="46.64469" lon="5.33913">
        <ele>199.2</ele>
        <time>2022-05-02T13:19:02Z</time>
      </trkpt>
      <trkpt lat="46.64482" lon="5.33919">
        <ele>199.4</ele>
        <time>2022-05-02T13:19:04Z</time>
      </trkpt>
      <trkpt lat="46.64534" lon="5.33947">
        <ele>199.4</ele>
        <time>2022-05-02T13:19:12Z</time>
      </trkpt>
      <trkpt lat="46.64541" lon="5.33951">
        <ele>199.4</ele>
        <time>2022-05-02T13:19:13Z</time>
      </trkpt>
      <trkpt lat="46.64586" lon="5.33982">
        <ele>198.6</ele>
        <time>2022-05-02T13:19:19Z</time>
      </trkpt>
      <trkpt lat="46.64601" lon="5.33991">
        <ele>198.2</ele>
        <time>2022-05-02T13:19:21Z</time>
      </trkpt>
      <trkpt lat="46.64618" lon="5.33995">
        <ele>197.4</ele>
        <time>2022-05-02T13:19:23Z</time>
      </trkpt>
      <trkpt lat="46.64627" lon="5.33995">
        <ele>196.8</ele>
        <time>2022-05-02T13:19:24Z</time>
      </trkpt>
      <trkpt lat="46.64648" lon="5.3399">
        <ele>196.2</ele>
        <time>2022-05-02T13:19:27Z</time>
      </trkpt>
      <trkpt lat="46.64656" lon="5.3399">
        <ele>196.2</ele>
        <time>2022-05-02T13:19:28Z</time>
      </trkpt>
      <trkpt lat="46.64671" lon="5.33994">
        <ele>196</ele>
        <time>2022-05-02T13:19:30Z</time>
      </trkpt>
      <trkpt lat="46.64678" lon="5.33997">
        <ele>195.8</ele>
        <time>2022-05-02T13:19:31Z</time>
      </trkpt>
      <trkpt lat="46.64693" lon="5.34006">
        <ele>195.6</ele>
        <time>2022-05-02T13:19:33Z</time>
      </trkpt>
      <trkpt lat="46.64706" lon="5.34016">
        <ele>195.4</ele>
        <time>2022-05-02T13:19:35Z</time>
      </trkpt>
      <trkpt lat="46.64741" lon="5.34041">
        <ele>195.4</ele>
        <time>2022-05-02T13:19:41Z</time>
      </trkpt>
      <trkpt lat="46.64747" lon="5.34043">
        <ele>195.4</ele>
        <time>2022-05-02T13:19:42Z</time>
      </trkpt>
      <trkpt lat="46.6477" lon="5.34047">
        <ele>196</ele>
        <time>2022-05-02T13:19:46Z</time>
      </trkpt>
      <trkpt lat="46.64801" lon="5.3405">
        <ele>197</ele>
        <time>2022-05-02T13:19:52Z</time>
      </trkpt>
      <trkpt lat="46.64825" lon="5.34052">
        <ele>198</ele>
        <time>2022-05-02T13:19:57Z</time>
      </trkpt>
      <trkpt lat="46.64839" lon="5.34053">
        <ele>198.4</ele>
        <time>2022-05-02T13:20:00Z</time>
      </trkpt>
      <trkpt lat="46.64857" lon="5.34055">
        <ele>199.2</ele>
        <time>2022-05-02T13:20:04Z</time>
      </trkpt>
      <trkpt lat="46.64872" lon="5.34056">
        <ele>200</ele>
        <time>2022-05-02T13:20:07Z</time>
      </trkpt>
      <trkpt lat="46.64876" lon="5.34057">
        <ele>200.2</ele>
        <time>2022-05-02T13:20:08Z</time>
      </trkpt>
      <trkpt lat="46.64889" lon="5.34059">
        <ele>201</ele>
        <time>2022-05-02T13:20:11Z</time>
      </trkpt>
      <trkpt lat="46.64896" lon="5.3406">
        <ele>201.4</ele>
        <time>2022-05-02T13:20:13Z</time>
      </trkpt>
      <trkpt lat="46.64901" lon="5.3406">
        <ele>201.6</ele>
        <time>2022-05-02T13:20:14Z</time>
      </trkpt>
      <trkpt lat="46.64913" lon="5.34061">
        <ele>202.6</ele>
        <time>2022-05-02T13:20:17Z</time>
      </trkpt>
      <trkpt lat="46.64924" lon="5.34062">
        <ele>203.4</ele>
        <time>2022-05-02T13:20:20Z</time>
      </trkpt>
      <trkpt lat="46.64928" lon="5.34062">
        <ele>203.6</ele>
        <time>2022-05-02T13:20:21Z</time>
      </trkpt>
      <trkpt lat="46.64944" lon="5.34063">
        <ele>204.8</ele>
        <time>2022-05-02T13:20:25Z</time>
      </trkpt>
      <trkpt lat="46.64952" lon="5.34062">
        <ele>205.2</ele>
        <time>2022-05-02T13:20:27Z</time>
      </trkpt>
      <trkpt lat="46.64964" lon="5.34061">
        <ele>206</ele>
        <time>2022-05-02T13:20:30Z</time>
      </trkpt>
      <trkpt lat="46.64981" lon="5.34061">
        <ele>206.6</ele>
        <time>2022-05-02T13:20:34Z</time>
      </trkpt>
      <trkpt lat="46.64984" lon="5.34061">
        <ele>206.8</ele>
        <time>2022-05-02T13:20:35Z</time>
      </trkpt>
      <trkpt lat="46.64998" lon="5.34062">
        <ele>207</ele>
        <time>2022-05-02T13:20:38Z</time>
      </trkpt>
      <trkpt lat="46.65021" lon="5.34061">
        <ele>208.2</ele>
        <time>2022-05-02T13:20:43Z</time>
      </trkpt>
      <trkpt lat="46.65031" lon="5.3406">
        <ele>208.4</ele>
        <time>2022-05-02T13:20:45Z</time>
      </trkpt>
      <trkpt lat="46.65075" lon="5.3406">
        <ele>208.8</ele>
        <time>2022-05-02T13:20:54Z</time>
      </trkpt>
      <trkpt lat="46.65094" lon="5.3406">
        <ele>209.2</ele>
        <time>2022-05-02T13:20:58Z</time>
      </trkpt>
      <trkpt lat="46.65123" lon="5.34065">
        <ele>209.6</ele>
        <time>2022-05-02T13:21:04Z</time>
      </trkpt>
      <trkpt lat="46.65169" lon="5.34078">
        <ele>210.4</ele>
        <time>2022-05-02T13:21:13Z</time>
      </trkpt>
      <trkpt lat="46.65185" lon="5.34082">
        <ele>210.6</ele>
        <time>2022-05-02T13:21:16Z</time>
      </trkpt>
      <trkpt lat="46.65206" lon="5.34088">
        <ele>210.8</ele>
        <time>2022-05-02T13:21:20Z</time>
      </trkpt>
      <trkpt lat="46.65215" lon="5.34089">
        <ele>210.8</ele>
        <time>2022-05-02T13:21:22Z</time>
      </trkpt>
      <trkpt lat="46.65225" lon="5.34092">
        <ele>211</ele>
        <time>2022-05-02T13:21:25Z</time>
      </trkpt>
      <trkpt lat="46.65229" lon="5.34097">
        <ele>211.2</ele>
        <time>2022-05-02T13:21:28Z</time>
      </trkpt>
      <trkpt lat="46.65234" lon="5.34113">
        <ele>211.6</ele>
        <time>2022-05-02T13:21:32Z</time>
      </trkpt>
      <trkpt lat="46.65235" lon="5.34119">
        <ele>211.6</ele>
        <time>2022-05-02T13:21:33Z</time>
      </trkpt>
      <trkpt lat="46.65246" lon="5.34155">
        <ele>211.8</ele>
        <time>2022-05-02T13:21:38Z</time>
      </trkpt>
      <trkpt lat="46.65263" lon="5.34198">
        <ele>212.2</ele>
        <time>2022-05-02T13:21:44Z</time>
      </trkpt>
      <trkpt lat="46.65279" lon="5.3423">
        <ele>212.6</ele>
        <time>2022-05-02T13:21:48Z</time>
      </trkpt>
      <trkpt lat="46.65295" lon="5.3426">
        <ele>212.8</ele>
        <time>2022-05-02T13:21:52Z</time>
      </trkpt>
      <trkpt lat="46.65332" lon="5.34329">
        <ele>213</ele>
        <time>2022-05-02T13:22:01Z</time>
      </trkpt>
      <trkpt lat="46.65365" lon="5.34391">
        <ele>213.2</ele>
        <time>2022-05-02T13:22:09Z</time>
      </trkpt>
      <trkpt lat="46.6537" lon="5.34399">
        <ele>213.2</ele>
        <time>2022-05-02T13:22:10Z</time>
      </trkpt>
      <trkpt lat="46.65406" lon="5.34467">
        <ele>212.8</ele>
        <time>2022-05-02T13:22:18Z</time>
      </trkpt>
      <trkpt lat="46.6544" lon="5.34529">
        <ele>211.8</ele>
        <time>2022-05-02T13:22:25Z</time>
      </trkpt>
      <trkpt lat="46.65444" lon="5.34537">
        <ele>211.6</ele>
        <time>2022-05-02T13:22:26Z</time>
      </trkpt>
      <trkpt lat="46.65449" lon="5.34545">
        <ele>211.6</ele>
        <time>2022-05-02T13:22:27Z</time>
      </trkpt>
      <trkpt lat="46.65482" lon="5.34606">
        <ele>211.4</ele>
        <time>2022-05-02T13:22:34Z</time>
      </trkpt>
      <trkpt lat="46.65518" lon="5.34674">
        <ele>211.6</ele>
        <time>2022-05-02T13:22:42Z</time>
      </trkpt>
      <trkpt lat="46.65523" lon="5.34683">
        <ele>211.6</ele>
        <time>2022-05-02T13:22:43Z</time>
      </trkpt>
      <trkpt lat="46.65556" lon="5.34739">
        <ele>211.8</ele>
        <time>2022-05-02T13:22:50Z</time>
      </trkpt>
      <trkpt lat="46.65561" lon="5.34743">
        <ele>211.8</ele>
        <time>2022-05-02T13:22:51Z</time>
      </trkpt>
      <trkpt lat="46.65567" lon="5.34745">
        <ele>211.8</ele>
        <time>2022-05-02T13:22:52Z</time>
      </trkpt>
      <trkpt lat="46.65582" lon="5.34744">
        <ele>212</ele>
        <time>2022-05-02T13:22:54Z</time>
      </trkpt>
      <trkpt lat="46.65595" lon="5.34736">
        <ele>212</ele>
        <time>2022-05-02T13:22:56Z</time>
      </trkpt>
      <trkpt lat="46.65599" lon="5.34728">
        <ele>212</ele>
        <time>2022-05-02T13:22:57Z</time>
      </trkpt>
      <trkpt lat="46.65618" lon="5.34684">
        <ele>212.4</ele>
        <time>2022-05-02T13:23:02Z</time>
      </trkpt>
      <trkpt lat="46.65622" lon="5.34675">
        <ele>212.4</ele>
        <time>2022-05-02T13:23:03Z</time>
      </trkpt>
      <trkpt lat="46.65627" lon="5.34655">
        <ele>212.6</ele>
        <time>2022-05-02T13:23:05Z</time>
      </trkpt>
      <trkpt lat="46.65628" lon="5.34645">
        <ele>212.8</ele>
        <time>2022-05-02T13:23:06Z</time>
      </trkpt>
      <trkpt lat="46.65629" lon="5.34635">
        <ele>213</ele>
        <time>2022-05-02T13:23:07Z</time>
      </trkpt>
      <trkpt lat="46.65632" lon="5.34605">
        <ele>213.4</ele>
        <time>2022-05-02T13:23:10Z</time>
      </trkpt>
      <trkpt lat="46.65633" lon="5.34595">
        <ele>213.6</ele>
        <time>2022-05-02T13:23:11Z</time>
      </trkpt>
      <trkpt lat="46.6564" lon="5.34556">
        <ele>213.6</ele>
        <time>2022-05-02T13:23:15Z</time>
      </trkpt>
      <trkpt lat="46.65655" lon="5.34469">
        <ele>212.8</ele>
        <time>2022-05-02T13:23:23Z</time>
      </trkpt>
      <trkpt lat="46.65657" lon="5.34458">
        <ele>212.6</ele>
        <time>2022-05-02T13:23:24Z</time>
      </trkpt>
      <trkpt lat="46.65661" lon="5.34439">
        <ele>212.2</ele>
        <time>2022-05-02T13:23:26Z</time>
      </trkpt>
      <trkpt lat="46.6567" lon="5.34423">
        <ele>211.8</ele>
        <time>2022-05-02T13:23:28Z</time>
      </trkpt>
      <trkpt lat="46.65676" lon="5.34418">
        <ele>211.8</ele>
        <time>2022-05-02T13:23:29Z</time>
      </trkpt>
      <trkpt lat="46.65682" lon="5.34417">
        <ele>211.4</ele>
        <time>2022-05-02T13:23:30Z</time>
      </trkpt>
      <trkpt lat="46.65691" lon="5.34421">
        <ele>211.4</ele>
        <time>2022-05-02T13:23:31Z</time>
      </trkpt>
      <trkpt lat="46.65704" lon="5.34429">
        <ele>211.4</ele>
        <time>2022-05-02T13:23:33Z</time>
      </trkpt>
      <trkpt lat="46.65709" lon="5.34434">
        <ele>211.4</ele>
        <time>2022-05-02T13:23:34Z</time>
      </trkpt>
      <trkpt lat="46.6574" lon="5.3447">
        <ele>211.2</ele>
        <time>2022-05-02T13:23:40Z</time>
      </trkpt>
      <trkpt lat="46.65755" lon="5.34485">
        <ele>211.6</ele>
        <time>2022-05-02T13:23:43Z</time>
      </trkpt>
      <trkpt lat="46.65767" lon="5.34489">
        <ele>211.8</ele>
        <time>2022-05-02T13:23:45Z</time>
      </trkpt>
      <trkpt lat="46.65778" lon="5.34483">
        <ele>211.8</ele>
        <time>2022-05-02T13:23:47Z</time>
      </trkpt>
      <trkpt lat="46.65783" lon="5.34477">
        <ele>211.8</ele>
        <time>2022-05-02T13:23:48Z</time>
      </trkpt>
      <trkpt lat="46.65806" lon="5.34438">
        <ele>211.6</ele>
        <time>2022-05-02T13:23:53Z</time>
      </trkpt>
      <trkpt lat="46.65833" lon="5.34392">
        <ele>210.6</ele>
        <time>2022-05-02T13:23:58Z</time>
      </trkpt>
      <trkpt lat="46.65837" lon="5.34384">
        <ele>210.2</ele>
        <time>2022-05-02T13:23:59Z</time>
      </trkpt>
      <trkpt lat="46.65855" lon="5.34351">
        <ele>209.4</ele>
        <time>2022-05-02T13:24:02Z</time>
      </trkpt>
      <trkpt lat="46.65873" lon="5.3432">
        <ele>208.2</ele>
        <time>2022-05-02T13:24:05Z</time>
      </trkpt>
      <trkpt lat="46.65878" lon="5.34311">
        <ele>207.4</ele>
        <time>2022-05-02T13:24:06Z</time>
      </trkpt>
      <trkpt lat="46.65886" lon="5.34299">
        <ele>207</ele>
        <time>2022-05-02T13:24:07Z</time>
      </trkpt>
      <trkpt lat="46.659" lon="5.34283">
        <ele>205.8</ele>
        <time>2022-05-02T13:24:09Z</time>
      </trkpt>
      <trkpt lat="46.65909" lon="5.34276">
        <ele>205.4</ele>
        <time>2022-05-02T13:24:10Z</time>
      </trkpt>
      <trkpt lat="46.65926" lon="5.34264">
        <ele>204.2</ele>
        <time>2022-05-02T13:24:12Z</time>
      </trkpt>
      <trkpt lat="46.65935" lon="5.34255">
        <ele>203.6</ele>
        <time>2022-05-02T13:24:13Z</time>
      </trkpt>
      <trkpt lat="46.65942" lon="5.34246">
        <ele>203.4</ele>
        <time>2022-05-02T13:24:14Z</time>
      </trkpt>
      <trkpt lat="46.65947" lon="5.34239">
        <ele>202.8</ele>
        <time>2022-05-02T13:24:15Z</time>
      </trkpt>
      <trkpt lat="46.65971" lon="5.34204">
        <ele>201.8</ele>
        <time>2022-05-02T13:24:19Z</time>
      </trkpt>
      <trkpt lat="46.65978" lon="5.34194">
        <ele>201.8</ele>
        <time>2022-05-02T13:24:20Z</time>
      </trkpt>
      <trkpt lat="46.66011" lon="5.34157">
        <ele>201.6</ele>
        <time>2022-05-02T13:24:26Z</time>
      </trkpt>
      <trkpt lat="46.66025" lon="5.34137">
        <ele>202</ele>
        <time>2022-05-02T13:24:29Z</time>
      </trkpt>
      <trkpt lat="46.66028" lon="5.3413">
        <ele>202</ele>
        <time>2022-05-02T13:24:30Z</time>
      </trkpt>
      <trkpt lat="46.66038" lon="5.34104">
        <ele>203</ele>
        <time>2022-05-02T13:24:34Z</time>
      </trkpt>
      <trkpt lat="46.66039" lon="5.34098">
        <ele>203.2</ele>
        <time>2022-05-02T13:24:35Z</time>
      </trkpt>
      <trkpt lat="46.66044" lon="5.3408">
        <ele>204.4</ele>
        <time>2022-05-02T13:24:38Z</time>
      </trkpt>
      <trkpt lat="46.66046" lon="5.34074">
        <ele>204.6</ele>
        <time>2022-05-02T13:24:39Z</time>
      </trkpt>
      <trkpt lat="46.66048" lon="5.34068">
        <ele>205</ele>
        <time>2022-05-02T13:24:40Z</time>
      </trkpt>
      <trkpt lat="46.66051" lon="5.34062">
        <ele>205.2</ele>
        <time>2022-05-02T13:24:41Z</time>
      </trkpt>
      <trkpt lat="46.66056" lon="5.34051">
        <ele>205.6</ele>
        <time>2022-05-02T13:24:43Z</time>
      </trkpt>
      <trkpt lat="46.66065" lon="5.34033">
        <ele>206.4</ele>
        <time>2022-05-02T13:24:46Z</time>
      </trkpt>
      <trkpt lat="46.66067" lon="5.34029">
        <ele>206.6</ele>
        <time>2022-05-02T13:24:47Z</time>
      </trkpt>
      <trkpt lat="46.66084" lon="5.33998">
        <ele>207.8</ele>
        <time>2022-05-02T13:24:53Z</time>
      </trkpt>
      <trkpt lat="46.66096" lon="5.3397">
        <ele>208.8</ele>
        <time>2022-05-02T13:24:58Z</time>
      </trkpt>
      <trkpt lat="46.66105" lon="5.3395">
        <ele>210</ele>
        <time>2022-05-02T13:25:02Z</time>
      </trkpt>
      <trkpt lat="46.66107" lon="5.33945">
        <ele>210.2</ele>
        <time>2022-05-02T13:25:03Z</time>
      </trkpt>
      <trkpt lat="46.66115" lon="5.33931">
        <ele>211</ele>
        <time>2022-05-02T13:25:06Z</time>
      </trkpt>
      <trkpt lat="46.66128" lon="5.33912">
        <ele>211.6</ele>
        <time>2022-05-02T13:25:10Z</time>
      </trkpt>
      <trkpt lat="46.66133" lon="5.33903">
        <ele>212.2</ele>
        <time>2022-05-02T13:25:12Z</time>
      </trkpt>
      <trkpt lat="46.66156" lon="5.33861">
        <ele>213</ele>
        <time>2022-05-02T13:25:20Z</time>
      </trkpt>
      <trkpt lat="46.66176" lon="5.33811">
        <ele>213</ele>
        <time>2022-05-02T13:25:27Z</time>
      </trkpt>
      <trkpt lat="46.66192" lon="5.33743">
        <ele>213.4</ele>
        <time>2022-05-02T13:25:36Z</time>
      </trkpt>
      <trkpt lat="46.66198" lon="5.33717">
        <ele>213.4</ele>
        <time>2022-05-02T13:25:39Z</time>
      </trkpt>
      <trkpt lat="46.66212" lon="5.33666">
        <ele>213.4</ele>
        <time>2022-05-02T13:25:45Z</time>
      </trkpt>
      <trkpt lat="46.66224" lon="5.33619">
        <ele>212.8</ele>
        <time>2022-05-02T13:25:50Z</time>
      </trkpt>
      <trkpt lat="46.66231" lon="5.33585">
        <ele>212.4</ele>
        <time>2022-05-02T13:25:53Z</time>
      </trkpt>
      <trkpt lat="46.66237" lon="5.33546">
        <ele>211.4</ele>
        <time>2022-05-02T13:25:56Z</time>
      </trkpt>
      <trkpt lat="46.66243" lon="5.33506">
        <ele>209.6</ele>
        <time>2022-05-02T13:25:59Z</time>
      </trkpt>
      <trkpt lat="46.66247" lon="5.33463">
        <ele>208</ele>
        <time>2022-05-02T13:26:02Z</time>
      </trkpt>
      <trkpt lat="46.66247" lon="5.33422">
        <ele>206.8</ele>
        <time>2022-05-02T13:26:05Z</time>
      </trkpt>
      <trkpt lat="46.66245" lon="5.33395">
        <ele>205.8</ele>
        <time>2022-05-02T13:26:07Z</time>
      </trkpt>
      <trkpt lat="46.6624" lon="5.33356">
        <ele>204.8</ele>
        <time>2022-05-02T13:26:10Z</time>
      </trkpt>
      <trkpt lat="46.66235" lon="5.33331">
        <ele>204.2</ele>
        <time>2022-05-02T13:26:12Z</time>
      </trkpt>
      <trkpt lat="46.66224" lon="5.33287">
        <ele>203.6</ele>
        <time>2022-05-02T13:26:16Z</time>
      </trkpt>
      <trkpt lat="46.66222" lon="5.33277">
        <ele>203.6</ele>
        <time>2022-05-02T13:26:17Z</time>
      </trkpt>
      <trkpt lat="46.66214" lon="5.33232">
        <ele>204</ele>
        <time>2022-05-02T13:26:22Z</time>
      </trkpt>
      <trkpt lat="46.66212" lon="5.33216">
        <ele>204.8</ele>
        <time>2022-05-02T13:26:24Z</time>
      </trkpt>
      <trkpt lat="46.6621" lon="5.33201">
        <ele>205.2</ele>
        <time>2022-05-02T13:26:26Z</time>
      </trkpt>
      <trkpt lat="46.66207" lon="5.33187">
        <ele>205.8</ele>
        <time>2022-05-02T13:26:28Z</time>
      </trkpt>
      <trkpt lat="46.66201" lon="5.33161">
        <ele>207</ele>
        <time>2022-05-02T13:26:32Z</time>
      </trkpt>
      <trkpt lat="46.66199" lon="5.33155">
        <ele>207.2</ele>
        <time>2022-05-02T13:26:33Z</time>
      </trkpt>
      <trkpt lat="46.66199" lon="5.33148">
        <ele>207.6</ele>
        <time>2022-05-02T13:26:34Z</time>
      </trkpt>
      <trkpt lat="46.662" lon="5.33142">
        <ele>207.8</ele>
        <time>2022-05-02T13:26:35Z</time>
      </trkpt>
      <trkpt lat="46.66207" lon="5.33134">
        <ele>208</ele>
        <time>2022-05-02T13:26:37Z</time>
      </trkpt>
      <trkpt lat="46.66232" lon="5.33131">
        <ele>208</ele>
        <time>2022-05-02T13:26:41Z</time>
      </trkpt>
      <trkpt lat="46.66281" lon="5.33132">
        <ele>207.2</ele>
        <time>2022-05-02T13:26:48Z</time>
      </trkpt>
      <trkpt lat="46.66297" lon="5.33134">
        <ele>206.8</ele>
        <time>2022-05-02T13:26:50Z</time>
      </trkpt>
      <trkpt lat="46.66331" lon="5.33142">
        <ele>205.8</ele>
        <time>2022-05-02T13:26:54Z</time>
      </trkpt>
      <trkpt lat="46.66359" lon="5.33151">
        <ele>204.6</ele>
        <time>2022-05-02T13:26:57Z</time>
      </trkpt>
      <trkpt lat="46.66388" lon="5.33159">
        <ele>203.2</ele>
        <time>2022-05-02T13:27:00Z</time>
      </trkpt>
      <trkpt lat="46.66398" lon="5.33161">
        <ele>203</ele>
        <time>2022-05-02T13:27:01Z</time>
      </trkpt>
      <trkpt lat="46.66426" lon="5.33167">
        <ele>201.8</ele>
        <time>2022-05-02T13:27:04Z</time>
      </trkpt>
      <trkpt lat="46.66452" lon="5.33171">
        <ele>200.8</ele>
        <time>2022-05-02T13:27:07Z</time>
      </trkpt>
      <trkpt lat="46.66485" lon="5.33188">
        <ele>200.4</ele>
        <time>2022-05-02T13:27:11Z</time>
      </trkpt>
      <trkpt lat="46.66529" lon="5.33214">
        <ele>200.2</ele>
        <time>2022-05-02T13:27:17Z</time>
      </trkpt>
      <trkpt lat="46.66543" lon="5.33221">
        <ele>200.4</ele>
        <time>2022-05-02T13:27:19Z</time>
      </trkpt>
      <trkpt lat="46.66564" lon="5.33225">
        <ele>200.6</ele>
        <time>2022-05-02T13:27:22Z</time>
      </trkpt>
      <trkpt lat="46.66594" lon="5.33225">
        <ele>201.4</ele>
        <time>2022-05-02T13:27:27Z</time>
      </trkpt>
      <trkpt lat="46.66604" lon="5.33224">
        <ele>201.8</ele>
        <time>2022-05-02T13:27:29Z</time>
      </trkpt>
      <trkpt lat="46.66619" lon="5.33222">
        <ele>202.8</ele>
        <time>2022-05-02T13:27:32Z</time>
      </trkpt>
      <trkpt lat="46.66628" lon="5.33222">
        <ele>203.4</ele>
        <time>2022-05-02T13:27:34Z</time>
      </trkpt>
      <trkpt lat="46.66633" lon="5.33221">
        <ele>204</ele>
        <time>2022-05-02T13:27:35Z</time>
      </trkpt>
      <trkpt lat="46.66651" lon="5.33221">
        <ele>205.4</ele>
        <time>2022-05-02T13:27:39Z</time>
      </trkpt>
      <trkpt lat="46.66663" lon="5.33218">
        <ele>206.2</ele>
        <time>2022-05-02T13:27:42Z</time>
      </trkpt>
      <trkpt lat="46.66667" lon="5.33215">
        <ele>206.4</ele>
        <time>2022-05-02T13:27:43Z</time>
      </trkpt>
      <trkpt lat="46.6667" lon="5.33212">
        <ele>206.6</ele>
        <time>2022-05-02T13:27:44Z</time>
      </trkpt>
      <trkpt lat="46.66676" lon="5.33203">
        <ele>207.2</ele>
        <time>2022-05-02T13:27:46Z</time>
      </trkpt>
      <trkpt lat="46.66679" lon="5.33197">
        <ele>207.2</ele>
        <time>2022-05-02T13:27:47Z</time>
      </trkpt>
      <trkpt lat="46.66681" lon="5.33191">
        <ele>207.6</ele>
        <time>2022-05-02T13:27:48Z</time>
      </trkpt>
      <trkpt lat="46.66686" lon="5.3317">
        <ele>208.6</ele>
        <time>2022-05-02T13:27:51Z</time>
      </trkpt>
      <trkpt lat="46.66687" lon="5.33163">
        <ele>208.6</ele>
        <time>2022-05-02T13:27:52Z</time>
      </trkpt>
      <trkpt lat="46.66689" lon="5.33115">
        <ele>209</ele>
        <time>2022-05-02T13:27:58Z</time>
      </trkpt>
      <trkpt lat="46.66691" lon="5.33099">
        <ele>208.8</ele>
        <time>2022-05-02T13:28:00Z</time>
      </trkpt>
      <trkpt lat="46.66694" lon="5.33083">
        <ele>208.8</ele>
        <time>2022-05-02T13:28:02Z</time>
      </trkpt>
      <trkpt lat="46.66697" lon="5.33076">
        <ele>208.8</ele>
        <time>2022-05-02T13:28:03Z</time>
      </trkpt>
      <trkpt lat="46.66705" lon="5.33063">
        <ele>208.6</ele>
        <time>2022-05-02T13:28:05Z</time>
      </trkpt>
      <trkpt lat="46.66718" lon="5.33046">
        <ele>208.4</ele>
        <time>2022-05-02T13:28:08Z</time>
      </trkpt>
      <trkpt lat="46.66728" lon="5.33039">
        <ele>208.2</ele>
        <time>2022-05-02T13:28:10Z</time>
      </trkpt>
      <trkpt lat="46.66733" lon="5.33038">
        <ele>208</ele>
        <time>2022-05-02T13:28:11Z</time>
      </trkpt>
      <trkpt lat="46.66737" lon="5.33039">
        <ele>207.8</ele>
        <time>2022-05-02T13:28:12Z</time>
      </trkpt>
      <trkpt lat="46.66746" lon="5.33048">
        <ele>207.6</ele>
        <time>2022-05-02T13:28:14Z</time>
      </trkpt>
      <trkpt lat="46.66749" lon="5.33054">
        <ele>207.4</ele>
        <time>2022-05-02T13:28:15Z</time>
      </trkpt>
      <trkpt lat="46.66752" lon="5.3306">
        <ele>207.4</ele>
        <time>2022-05-02T13:28:16Z</time>
      </trkpt>
      <trkpt lat="46.66757" lon="5.33076">
        <ele>207.2</ele>
        <time>2022-05-02T13:28:18Z</time>
      </trkpt>
      <trkpt lat="46.66769" lon="5.3311">
        <ele>207.2</ele>
        <time>2022-05-02T13:28:22Z</time>
      </trkpt>
      <trkpt lat="46.66773" lon="5.33119">
        <ele>207.2</ele>
        <time>2022-05-02T13:28:23Z</time>
      </trkpt>
      <trkpt lat="46.66792" lon="5.33159">
        <ele>207.4</ele>
        <time>2022-05-02T13:28:28Z</time>
      </trkpt>
      <trkpt lat="46.66824" lon="5.33224">
        <ele>208</ele>
        <time>2022-05-02T13:28:36Z</time>
      </trkpt>
      <trkpt lat="46.66827" lon="5.33232">
        <ele>208</ele>
        <time>2022-05-02T13:28:37Z</time>
      </trkpt>
      <trkpt lat="46.66849" lon="5.33274">
        <ele>208.6</ele>
        <time>2022-05-02T13:28:43Z</time>
      </trkpt>
      <trkpt lat="46.66863" lon="5.33302">
        <ele>209.2</ele>
        <time>2022-05-02T13:28:47Z</time>
      </trkpt>
      <trkpt lat="46.66873" lon="5.33322">
        <ele>209.6</ele>
        <time>2022-05-02T13:28:50Z</time>
      </trkpt>
      <trkpt lat="46.66888" lon="5.3335">
        <ele>210.8</ele>
        <time>2022-05-02T13:28:54Z</time>
      </trkpt>
      <trkpt lat="46.66892" lon="5.33357">
        <ele>210.8</ele>
        <time>2022-05-02T13:28:55Z</time>
      </trkpt>
      <trkpt lat="46.66925" lon="5.3342">
        <ele>211.8</ele>
        <time>2022-05-02T13:29:04Z</time>
      </trkpt>
      <trkpt lat="46.66929" lon="5.33427">
        <ele>211.8</ele>
        <time>2022-05-02T13:29:05Z</time>
      </trkpt>
      <trkpt lat="46.66932" lon="5.33434">
        <ele>211.8</ele>
        <time>2022-05-02T13:29:06Z</time>
      </trkpt>
      <trkpt lat="46.66966" lon="5.33498">
        <ele>212.6</ele>
        <time>2022-05-02T13:29:15Z</time>
      </trkpt>
      <trkpt lat="46.66974" lon="5.33513">
        <ele>213</ele>
        <time>2022-05-02T13:29:17Z</time>
      </trkpt>
      <trkpt lat="46.67007" lon="5.33577">
        <ele>213.8</ele>
        <time>2022-05-02T13:29:26Z</time>
      </trkpt>
      <trkpt lat="46.67015" lon="5.33591">
        <ele>213.8</ele>
        <time>2022-05-02T13:29:28Z</time>
      </trkpt>
      <trkpt lat="46.67044" lon="5.33664">
        <ele>214.2</ele>
        <time>2022-05-02T13:29:37Z</time>
      </trkpt>
      <trkpt lat="46.67048" lon="5.33672">
        <ele>214.2</ele>
        <time>2022-05-02T13:29:38Z</time>
      </trkpt>
      <trkpt lat="46.67061" lon="5.33709">
        <ele>214.2</ele>
        <time>2022-05-02T13:29:42Z</time>
      </trkpt>
      <trkpt lat="46.67071" lon="5.33737">
        <ele>214.2</ele>
        <time>2022-05-02T13:29:45Z</time>
      </trkpt>
      <trkpt lat="46.67098" lon="5.33812">
        <ele>214</ele>
        <time>2022-05-02T13:29:53Z</time>
      </trkpt>
      <trkpt lat="46.67101" lon="5.33822">
        <ele>214</ele>
        <time>2022-05-02T13:29:54Z</time>
      </trkpt>
      <trkpt lat="46.67127" lon="5.33895">
        <ele>214.4</ele>
        <time>2022-05-02T13:30:02Z</time>
      </trkpt>
      <trkpt lat="46.67137" lon="5.33922">
        <ele>214.4</ele>
        <time>2022-05-02T13:30:05Z</time>
      </trkpt>
      <trkpt lat="46.67164" lon="5.33996">
        <ele>214.6</ele>
        <time>2022-05-02T13:30:13Z</time>
      </trkpt>
      <trkpt lat="46.67171" lon="5.34015">
        <ele>214.6</ele>
        <time>2022-05-02T13:30:15Z</time>
      </trkpt>
      <trkpt lat="46.67198" lon="5.34091">
        <ele>214.6</ele>
        <time>2022-05-02T13:30:23Z</time>
      </trkpt>
      <trkpt lat="46.67209" lon="5.34119">
        <ele>214.2</ele>
        <time>2022-05-02T13:30:26Z</time>
      </trkpt>
      <trkpt lat="46.67235" lon="5.34191">
        <ele>213.6</ele>
        <time>2022-05-02T13:30:34Z</time>
      </trkpt>
      <trkpt lat="46.67238" lon="5.342">
        <ele>213.6</ele>
        <time>2022-05-02T13:30:35Z</time>
      </trkpt>
      <trkpt lat="46.67266" lon="5.34277">
        <ele>214.6</ele>
        <time>2022-05-02T13:30:44Z</time>
      </trkpt>
      <trkpt lat="46.67269" lon="5.34286">
        <ele>214.6</ele>
        <time>2022-05-02T13:30:45Z</time>
      </trkpt>
      <trkpt lat="46.67287" lon="5.34338">
        <ele>215</ele>
        <time>2022-05-02T13:30:51Z</time>
      </trkpt>
      <trkpt lat="46.67314" lon="5.34412">
        <ele>215.4</ele>
        <time>2022-05-02T13:30:59Z</time>
      </trkpt>
      <trkpt lat="46.67341" lon="5.34486">
        <ele>215.4</ele>
        <time>2022-05-02T13:31:07Z</time>
      </trkpt>
      <trkpt lat="46.67348" lon="5.34505">
        <ele>215.2</ele>
        <time>2022-05-02T13:31:09Z</time>
      </trkpt>
      <trkpt lat="46.67376" lon="5.34581">
        <ele>214.4</ele>
        <time>2022-05-02T13:31:18Z</time>
      </trkpt>
      <trkpt lat="46.67391" lon="5.34623">
        <ele>214.4</ele>
        <time>2022-05-02T13:31:24Z</time>
      </trkpt>
      <trkpt lat="46.67394" lon="5.34629">
        <ele>214.4</ele>
        <time>2022-05-02T13:31:25Z</time>
      </trkpt>
      <trkpt lat="46.67406" lon="5.3466">
        <ele>214.8</ele>
        <time>2022-05-02T13:31:31Z</time>
      </trkpt>
      <trkpt lat="46.67412" lon="5.3467">
        <ele>215.2</ele>
        <time>2022-05-02T13:31:35Z</time>
      </trkpt>
      <trkpt lat="46.67422" lon="5.34681">
        <ele>215.2</ele>
        <time>2022-05-02T13:31:39Z</time>
      </trkpt>
      <trkpt lat="46.67425" lon="5.34687">
        <ele>215.2</ele>
        <time>2022-05-02T13:31:40Z</time>
      </trkpt>
      <trkpt lat="46.67428" lon="5.34693">
        <ele>215.2</ele>
        <time>2022-05-02T13:31:41Z</time>
      </trkpt>
      <trkpt lat="46.67437" lon="5.34706">
        <ele>215.2</ele>
        <time>2022-05-02T13:31:43Z</time>
      </trkpt>
      <trkpt lat="46.67442" lon="5.34712">
        <ele>215.4</ele>
        <time>2022-05-02T13:31:44Z</time>
      </trkpt>
      <trkpt lat="46.67458" lon="5.3473">
        <ele>215.4</ele>
        <time>2022-05-02T13:31:47Z</time>
      </trkpt>
      <trkpt lat="46.67499" lon="5.34777">
        <ele>216.2</ele>
        <time>2022-05-02T13:31:55Z</time>
      </trkpt>
      <trkpt lat="46.67514" lon="5.34794">
        <ele>216.4</ele>
        <time>2022-05-02T13:31:58Z</time>
      </trkpt>
      <trkpt lat="46.67529" lon="5.34808">
        <ele>216.4</ele>
        <time>2022-05-02T13:32:01Z</time>
      </trkpt>
      <trkpt lat="46.67554" lon="5.34842">
        <ele>215.8</ele>
        <time>2022-05-02T13:32:07Z</time>
      </trkpt>
      <trkpt lat="46.67587" lon="5.34881">
        <ele>215.4</ele>
        <time>2022-05-02T13:32:14Z</time>
      </trkpt>
      <trkpt lat="46.6763" lon="5.34932">
        <ele>215.4</ele>
        <time>2022-05-02T13:32:22Z</time>
      </trkpt>
      <trkpt lat="46.67657" lon="5.34977">
        <ele>215.4</ele>
        <time>2022-05-02T13:32:28Z</time>
      </trkpt>
      <trkpt lat="46.67675" lon="5.35028">
        <ele>215.6</ele>
        <time>2022-05-02T13:32:34Z</time>
      </trkpt>
      <trkpt lat="46.677" lon="5.35107">
        <ele>216.2</ele>
        <time>2022-05-02T13:32:43Z</time>
      </trkpt>
      <trkpt lat="46.67703" lon="5.35115">
        <ele>216.2</ele>
        <time>2022-05-02T13:32:44Z</time>
      </trkpt>
      <trkpt lat="46.67722" lon="5.35176">
        <ele>216.4</ele>
        <time>2022-05-02T13:32:51Z</time>
      </trkpt>
      <trkpt lat="46.67731" lon="5.35202">
        <ele>216.4</ele>
        <time>2022-05-02T13:32:54Z</time>
      </trkpt>
      <trkpt lat="46.67748" lon="5.35258">
        <ele>216.6</ele>
        <time>2022-05-02T13:33:00Z</time>
      </trkpt>
      <trkpt lat="46.67773" lon="5.35334">
        <ele>217</ele>
        <time>2022-05-02T13:33:08Z</time>
      </trkpt>
      <trkpt lat="46.67779" lon="5.35353">
        <ele>217</ele>
        <time>2022-05-02T13:33:10Z</time>
      </trkpt>
      <trkpt lat="46.67804" lon="5.3543">
        <ele>217.4</ele>
        <time>2022-05-02T13:33:18Z</time>
      </trkpt>
      <trkpt lat="46.6781" lon="5.35448">
        <ele>217.4</ele>
        <time>2022-05-02T13:33:20Z</time>
      </trkpt>
      <trkpt lat="46.67834" lon="5.35523">
        <ele>217.6</ele>
        <time>2022-05-02T13:33:28Z</time>
      </trkpt>
      <trkpt lat="46.67837" lon="5.35532">
        <ele>217.6</ele>
        <time>2022-05-02T13:33:29Z</time>
      </trkpt>
      <trkpt lat="46.6784" lon="5.35542">
        <ele>217.8</ele>
        <time>2022-05-02T13:33:30Z</time>
      </trkpt>
      <trkpt lat="46.67864" lon="5.35617">
        <ele>217.6</ele>
        <time>2022-05-02T13:33:38Z</time>
      </trkpt>
      <trkpt lat="46.67868" lon="5.35626">
        <ele>217.6</ele>
        <time>2022-05-02T13:33:39Z</time>
      </trkpt>
      <trkpt lat="46.67897" lon="5.35699">
        <ele>217.6</ele>
        <time>2022-05-02T13:33:47Z</time>
      </trkpt>
      <trkpt lat="46.67902" lon="5.35707">
        <ele>217.6</ele>
        <time>2022-05-02T13:33:48Z</time>
      </trkpt>
      <trkpt lat="46.6794" lon="5.35772">
        <ele>217.8</ele>
        <time>2022-05-02T13:33:56Z</time>
      </trkpt>
      <trkpt lat="46.67945" lon="5.3578">
        <ele>217.8</ele>
        <time>2022-05-02T13:33:57Z</time>
      </trkpt>
      <trkpt lat="46.67987" lon="5.35847">
        <ele>217.8</ele>
        <time>2022-05-02T13:34:05Z</time>
      </trkpt>
      <trkpt lat="46.67992" lon="5.35856">
        <ele>217.8</ele>
        <time>2022-05-02T13:34:06Z</time>
      </trkpt>
      <trkpt lat="46.68032" lon="5.35923">
        <ele>217.2</ele>
        <time>2022-05-02T13:34:14Z</time>
      </trkpt>
      <trkpt lat="46.68046" lon="5.35945">
        <ele>217.2</ele>
        <time>2022-05-02T13:34:17Z</time>
      </trkpt>
      <trkpt lat="46.68062" lon="5.35965">
        <ele>217.2</ele>
        <time>2022-05-02T13:34:20Z</time>
      </trkpt>
      <trkpt lat="46.68098" lon="5.35994">
        <ele>217.6</ele>
        <time>2022-05-02T13:34:26Z</time>
      </trkpt>
      <trkpt lat="46.68151" lon="5.3602">
        <ele>217.8</ele>
        <time>2022-05-02T13:34:34Z</time>
      </trkpt>
      <trkpt lat="46.68206" lon="5.36046">
        <ele>218.4</ele>
        <time>2022-05-02T13:34:42Z</time>
      </trkpt>
      <trkpt lat="46.68213" lon="5.36049">
        <ele>218.4</ele>
        <time>2022-05-02T13:34:43Z</time>
      </trkpt>
      <trkpt lat="46.68267" lon="5.36076">
        <ele>218.2</ele>
        <time>2022-05-02T13:34:51Z</time>
      </trkpt>
      <trkpt lat="46.68281" lon="5.36083">
        <ele>218</ele>
        <time>2022-05-02T13:34:53Z</time>
      </trkpt>
      <trkpt lat="46.68328" lon="5.36106">
        <ele>218</ele>
        <time>2022-05-02T13:35:00Z</time>
      </trkpt>
      <trkpt lat="46.6838" lon="5.36139">
        <ele>218</ele>
        <time>2022-05-02T13:35:08Z</time>
      </trkpt>
      <trkpt lat="46.68387" lon="5.36144">
        <ele>218</ele>
        <time>2022-05-02T13:35:09Z</time>
      </trkpt>
      <trkpt lat="46.68436" lon="5.36187">
        <ele>218</ele>
        <time>2022-05-02T13:35:17Z</time>
      </trkpt>
      <trkpt lat="46.68484" lon="5.36232">
        <ele>218</ele>
        <time>2022-05-02T13:35:25Z</time>
      </trkpt>
      <trkpt lat="46.68533" lon="5.36276">
        <ele>218</ele>
        <time>2022-05-02T13:35:33Z</time>
      </trkpt>
      <trkpt lat="46.68539" lon="5.36281">
        <ele>218</ele>
        <time>2022-05-02T13:35:34Z</time>
      </trkpt>
      <trkpt lat="46.68589" lon="5.36325">
        <ele>218</ele>
        <time>2022-05-02T13:35:42Z</time>
      </trkpt>
      <trkpt lat="46.68619" lon="5.36353">
        <ele>218</ele>
        <time>2022-05-02T13:35:47Z</time>
      </trkpt>
      <trkpt lat="46.6867" lon="5.36397">
        <ele>217.6</ele>
        <time>2022-05-02T13:35:55Z</time>
      </trkpt>
      <trkpt lat="46.68676" lon="5.36403">
        <ele>217.4</ele>
        <time>2022-05-02T13:35:56Z</time>
      </trkpt>
      <trkpt lat="46.68715" lon="5.36437">
        <ele>216.8</ele>
        <time>2022-05-02T13:36:02Z</time>
      </trkpt>
      <trkpt lat="46.68722" lon="5.36443">
        <ele>216.6</ele>
        <time>2022-05-02T13:36:03Z</time>
      </trkpt>
      <trkpt lat="46.68769" lon="5.36485">
        <ele>215.8</ele>
        <time>2022-05-02T13:36:10Z</time>
      </trkpt>
      <trkpt lat="46.68783" lon="5.36496">
        <ele>215.4</ele>
        <time>2022-05-02T13:36:12Z</time>
      </trkpt>
      <trkpt lat="46.68829" lon="5.36537">
        <ele>214.8</ele>
        <time>2022-05-02T13:36:19Z</time>
      </trkpt>
      <trkpt lat="46.68836" lon="5.36543">
        <ele>214.6</ele>
        <time>2022-05-02T13:36:20Z</time>
      </trkpt>
      <trkpt lat="46.68842" lon="5.36549">
        <ele>214.4</ele>
        <time>2022-05-02T13:36:21Z</time>
      </trkpt>
      <trkpt lat="46.68875" lon="5.36578">
        <ele>213.4</ele>
        <time>2022-05-02T13:36:26Z</time>
      </trkpt>
      <trkpt lat="46.68882" lon="5.36584">
        <ele>213.2</ele>
        <time>2022-05-02T13:36:27Z</time>
      </trkpt>
      <trkpt lat="46.68915" lon="5.36615">
        <ele>212.4</ele>
        <time>2022-05-02T13:36:32Z</time>
      </trkpt>
      <trkpt lat="46.68943" lon="5.36645">
        <ele>211.6</ele>
        <time>2022-05-02T13:36:36Z</time>
      </trkpt>
      <trkpt lat="46.6895" lon="5.36653">
        <ele>211.4</ele>
        <time>2022-05-02T13:36:37Z</time>
      </trkpt>
      <trkpt lat="46.6897" lon="5.36677">
        <ele>210.4</ele>
        <time>2022-05-02T13:36:40Z</time>
      </trkpt>
      <trkpt lat="46.68984" lon="5.36693">
        <ele>209.6</ele>
        <time>2022-05-02T13:36:42Z</time>
      </trkpt>
      <trkpt lat="46.68991" lon="5.36701">
        <ele>209</ele>
        <time>2022-05-02T13:36:43Z</time>
      </trkpt>
      <trkpt lat="46.69026" lon="5.36741">
        <ele>207.6</ele>
        <time>2022-05-02T13:36:48Z</time>
      </trkpt>
      <trkpt lat="46.69039" lon="5.36757">
        <ele>207</ele>
        <time>2022-05-02T13:36:50Z</time>
      </trkpt>
      <trkpt lat="46.69045" lon="5.36778">
        <ele>205.8</ele>
        <time>2022-05-02T13:36:52Z</time>
      </trkpt>
      <trkpt lat="46.69047" lon="5.36835">
        <ele>204.8</ele>
        <time>2022-05-02T13:36:57Z</time>
      </trkpt>
      <trkpt lat="46.69048" lon="5.36857">
        <ele>204.6</ele>
        <time>2022-05-02T13:36:59Z</time>
      </trkpt>
      <trkpt lat="46.69052" lon="5.36941">
        <ele>204.4</ele>
        <time>2022-05-02T13:37:07Z</time>
      </trkpt>
      <trkpt lat="46.69054" lon="5.3695">
        <ele>204.6</ele>
        <time>2022-05-02T13:37:08Z</time>
      </trkpt>
      <trkpt lat="46.69062" lon="5.37013">
        <ele>205.6</ele>
        <time>2022-05-02T13:37:15Z</time>
      </trkpt>
      <trkpt lat="46.69062" lon="5.37022">
        <ele>206</ele>
        <time>2022-05-02T13:37:16Z</time>
      </trkpt>
      <trkpt lat="46.6906" lon="5.37086">
        <ele>207</ele>
        <time>2022-05-02T13:37:23Z</time>
      </trkpt>
      <trkpt lat="46.69059" lon="5.37095">
        <ele>207</ele>
        <time>2022-05-02T13:37:24Z</time>
      </trkpt>
      <trkpt lat="46.69058" lon="5.37129">
        <ele>207.6</ele>
        <time>2022-05-02T13:37:28Z</time>
      </trkpt>
      <trkpt lat="46.69056" lon="5.37146">
        <ele>207.6</ele>
        <time>2022-05-02T13:37:30Z</time>
      </trkpt>
      <trkpt lat="46.69054" lon="5.37189">
        <ele>208.2</ele>
        <time>2022-05-02T13:37:35Z</time>
      </trkpt>
      <trkpt lat="46.69053" lon="5.37197">
        <ele>208.4</ele>
        <time>2022-05-02T13:37:36Z</time>
      </trkpt>
      <trkpt lat="46.69048" lon="5.37249">
        <ele>209.2</ele>
        <time>2022-05-02T13:37:42Z</time>
      </trkpt>
      <trkpt lat="46.69046" lon="5.37258">
        <ele>209.2</ele>
        <time>2022-05-02T13:37:43Z</time>
      </trkpt>
      <trkpt lat="46.69024" lon="5.3731">
        <ele>210</ele>
        <time>2022-05-02T13:37:50Z</time>
      </trkpt>
      <trkpt lat="46.69015" lon="5.37321">
        <ele>210.2</ele>
        <time>2022-05-02T13:37:52Z</time>
      </trkpt>
      <trkpt lat="46.69006" lon="5.37333">
        <ele>210.4</ele>
        <time>2022-05-02T13:37:54Z</time>
      </trkpt>
      <trkpt lat="46.68984" lon="5.3736">
        <ele>211.2</ele>
        <time>2022-05-02T13:37:59Z</time>
      </trkpt>
      <trkpt lat="46.6897" lon="5.37375">
        <ele>211.6</ele>
        <time>2022-05-02T13:38:02Z</time>
      </trkpt>
      <trkpt lat="46.6894" lon="5.37411">
        <ele>212.6</ele>
        <time>2022-05-02T13:38:09Z</time>
      </trkpt>
      <trkpt lat="46.68936" lon="5.37416">
        <ele>212.6</ele>
        <time>2022-05-02T13:38:10Z</time>
      </trkpt>
      <trkpt lat="46.68932" lon="5.3742">
        <ele>213</ele>
        <time>2022-05-02T13:38:11Z</time>
      </trkpt>
      <trkpt lat="46.68923" lon="5.37429">
        <ele>213.4</ele>
        <time>2022-05-02T13:38:13Z</time>
      </trkpt>
      <trkpt lat="46.6892" lon="5.37433">
        <ele>213.8</ele>
        <time>2022-05-02T13:38:14Z</time>
      </trkpt>
      <trkpt lat="46.68916" lon="5.37437">
        <ele>214</ele>
        <time>2022-05-02T13:38:15Z</time>
      </trkpt>
      <trkpt lat="46.68895" lon="5.37456">
        <ele>215.2</ele>
        <time>2022-05-02T13:38:20Z</time>
      </trkpt>
      <trkpt lat="46.68886" lon="5.37464">
        <ele>215.6</ele>
        <time>2022-05-02T13:38:22Z</time>
      </trkpt>
      <trkpt lat="46.68864" lon="5.37484">
        <ele>216.2</ele>
        <time>2022-05-02T13:38:27Z</time>
      </trkpt>
      <trkpt lat="46.68841" lon="5.37506">
        <ele>217.4</ele>
        <time>2022-05-02T13:38:32Z</time>
      </trkpt>
      <trkpt lat="46.68808" lon="5.37538">
        <ele>218.4</ele>
        <time>2022-05-02T13:38:39Z</time>
      </trkpt>
      <trkpt lat="46.68803" lon="5.37543">
        <ele>218.4</ele>
        <time>2022-05-02T13:38:40Z</time>
      </trkpt>
      <trkpt lat="46.68766" lon="5.37584">
        <ele>218.8</ele>
        <time>2022-05-02T13:38:47Z</time>
      </trkpt>
      <trkpt lat="46.68729" lon="5.37622">
        <ele>218.8</ele>
        <time>2022-05-02T13:38:53Z</time>
      </trkpt>
      <trkpt lat="46.68689" lon="5.37665">
        <ele>218.4</ele>
        <time>2022-05-02T13:38:59Z</time>
      </trkpt>
      <trkpt lat="46.68647" lon="5.37707">
        <ele>218.2</ele>
        <time>2022-05-02T13:39:06Z</time>
      </trkpt>
      <trkpt lat="46.68604" lon="5.37752">
        <ele>219.6</ele>
        <time>2022-05-02T13:39:14Z</time>
      </trkpt>
      <trkpt lat="46.68598" lon="5.37758">
        <ele>219.8</ele>
        <time>2022-05-02T13:39:15Z</time>
      </trkpt>
      <trkpt lat="46.68552" lon="5.37806">
        <ele>220.4</ele>
        <time>2022-05-02T13:39:23Z</time>
      </trkpt>
      <trkpt lat="46.6854" lon="5.37819">
        <ele>220.4</ele>
        <time>2022-05-02T13:39:25Z</time>
      </trkpt>
      <trkpt lat="46.68497" lon="5.37863">
        <ele>220.6</ele>
        <time>2022-05-02T13:39:32Z</time>
      </trkpt>
      <trkpt lat="46.68452" lon="5.37909">
        <ele>220.4</ele>
        <time>2022-05-02T13:39:39Z</time>
      </trkpt>
      <trkpt lat="46.6844" lon="5.37923">
        <ele>220.4</ele>
        <time>2022-05-02T13:39:41Z</time>
      </trkpt>
      <trkpt lat="46.68391" lon="5.37971">
        <ele>219.6</ele>
        <time>2022-05-02T13:39:48Z</time>
      </trkpt>
      <trkpt lat="46.68371" lon="5.37993">
        <ele>219.4</ele>
        <time>2022-05-02T13:39:51Z</time>
      </trkpt>
      <trkpt lat="46.68343" lon="5.38022">
        <ele>218.8</ele>
        <time>2022-05-02T13:39:55Z</time>
      </trkpt>
      <trkpt lat="46.68337" lon="5.3803">
        <ele>218.8</ele>
        <time>2022-05-02T13:39:56Z</time>
      </trkpt>
      <trkpt lat="46.68306" lon="5.38059">
        <ele>218.4</ele>
        <time>2022-05-02T13:40:00Z</time>
      </trkpt>
      <trkpt lat="46.68283" lon="5.38081">
        <ele>217.4</ele>
        <time>2022-05-02T13:40:03Z</time>
      </trkpt>
      <trkpt lat="46.68241" lon="5.38126">
        <ele>216</ele>
        <time>2022-05-02T13:40:09Z</time>
      </trkpt>
      <trkpt lat="46.68201" lon="5.38169">
        <ele>215</ele>
        <time>2022-05-02T13:40:15Z</time>
      </trkpt>
      <trkpt lat="46.68189" lon="5.38181">
        <ele>215</ele>
        <time>2022-05-02T13:40:17Z</time>
      </trkpt>
      <trkpt lat="46.68149" lon="5.38222">
        <ele>215.4</ele>
        <time>2022-05-02T13:40:24Z</time>
      </trkpt>
      <trkpt lat="46.68117" lon="5.38255">
        <ele>216.2</ele>
        <time>2022-05-02T13:40:30Z</time>
      </trkpt>
      <trkpt lat="46.68106" lon="5.38267">
        <ele>216.6</ele>
        <time>2022-05-02T13:40:32Z</time>
      </trkpt>
      <trkpt lat="46.68096" lon="5.38277">
        <ele>217.2</ele>
        <time>2022-05-02T13:40:34Z</time>
      </trkpt>
      <trkpt lat="46.68076" lon="5.383">
        <ele>218.4</ele>
        <time>2022-05-02T13:40:38Z</time>
      </trkpt>
      <trkpt lat="46.68061" lon="5.38316">
        <ele>219</ele>
        <time>2022-05-02T13:40:41Z</time>
      </trkpt>
      <trkpt lat="46.68051" lon="5.38327">
        <ele>219.4</ele>
        <time>2022-05-02T13:40:43Z</time>
      </trkpt>
      <trkpt lat="46.68026" lon="5.38354">
        <ele>220.4</ele>
        <time>2022-05-02T13:40:48Z</time>
      </trkpt>
      <trkpt lat="46.68016" lon="5.38364">
        <ele>220.6</ele>
        <time>2022-05-02T13:40:50Z</time>
      </trkpt>
      <trkpt lat="46.67979" lon="5.38403">
        <ele>221.4</ele>
        <time>2022-05-02T13:40:57Z</time>
      </trkpt>
      <trkpt lat="46.67973" lon="5.38409">
        <ele>221.6</ele>
        <time>2022-05-02T13:40:58Z</time>
      </trkpt>
      <trkpt lat="46.67938" lon="5.38445">
        <ele>221.8</ele>
        <time>2022-05-02T13:41:04Z</time>
      </trkpt>
      <trkpt lat="46.6789" lon="5.38493">
        <ele>221</ele>
        <time>2022-05-02T13:41:12Z</time>
      </trkpt>
      <trkpt lat="46.67884" lon="5.38499">
        <ele>221</ele>
        <time>2022-05-02T13:41:13Z</time>
      </trkpt>
      <trkpt lat="46.67843" lon="5.38542">
        <ele>220.8</ele>
        <time>2022-05-02T13:41:20Z</time>
      </trkpt>
      <trkpt lat="46.67803" lon="5.38584">
        <ele>220.6</ele>
        <time>2022-05-02T13:41:27Z</time>
      </trkpt>
      <trkpt lat="46.67769" lon="5.3862">
        <ele>220.6</ele>
        <time>2022-05-02T13:41:33Z</time>
      </trkpt>
      <trkpt lat="46.67763" lon="5.38626">
        <ele>220.4</ele>
        <time>2022-05-02T13:41:34Z</time>
      </trkpt>
      <trkpt lat="46.67724" lon="5.38667">
        <ele>220.2</ele>
        <time>2022-05-02T13:41:40Z</time>
      </trkpt>
      <trkpt lat="46.67717" lon="5.38676">
        <ele>220.2</ele>
        <time>2022-05-02T13:41:41Z</time>
      </trkpt>
      <trkpt lat="46.67694" lon="5.38692">
        <ele>220</ele>
        <time>2022-05-02T13:41:44Z</time>
      </trkpt>
      <trkpt lat="46.6766" lon="5.38727">
        <ele>219.4</ele>
        <time>2022-05-02T13:41:49Z</time>
      </trkpt>
      <trkpt lat="46.67653" lon="5.38734">
        <ele>219.4</ele>
        <time>2022-05-02T13:41:50Z</time>
      </trkpt>
      <trkpt lat="46.67623" lon="5.38768">
        <ele>218.4</ele>
        <time>2022-05-02T13:41:54Z</time>
      </trkpt>
      <trkpt lat="46.67608" lon="5.38784">
        <ele>217.8</ele>
        <time>2022-05-02T13:41:56Z</time>
      </trkpt>
      <trkpt lat="46.676" lon="5.38791">
        <ele>217.8</ele>
        <time>2022-05-02T13:41:57Z</time>
      </trkpt>
      <trkpt lat="46.67592" lon="5.388">
        <ele>217.2</ele>
        <time>2022-05-02T13:41:58Z</time>
      </trkpt>
      <trkpt lat="46.67561" lon="5.38832">
        <ele>216.2</ele>
        <time>2022-05-02T13:42:02Z</time>
      </trkpt>
      <trkpt lat="46.67553" lon="5.3884">
        <ele>215.8</ele>
        <time>2022-05-02T13:42:03Z</time>
      </trkpt>
      <trkpt lat="46.67525" lon="5.38869">
        <ele>215.2</ele>
        <time>2022-05-02T13:42:07Z</time>
      </trkpt>
      <trkpt lat="46.67517" lon="5.38877">
        <ele>215</ele>
        <time>2022-05-02T13:42:08Z</time>
      </trkpt>
      <trkpt lat="46.67491" lon="5.38903">
        <ele>215</ele>
        <time>2022-05-02T13:42:12Z</time>
      </trkpt>
      <trkpt lat="46.67468" lon="5.38926">
        <ele>215.2</ele>
        <time>2022-05-02T13:42:16Z</time>
      </trkpt>
      <trkpt lat="46.67434" lon="5.38963">
        <ele>216</ele>
        <time>2022-05-02T13:42:21Z</time>
      </trkpt>
      <trkpt lat="46.67388" lon="5.39011">
        <ele>215.8</ele>
        <time>2022-05-02T13:42:27Z</time>
      </trkpt>
      <trkpt lat="46.67349" lon="5.39052">
        <ele>215.6</ele>
        <time>2022-05-02T13:42:33Z</time>
      </trkpt>
      <trkpt lat="46.6732" lon="5.39082">
        <ele>216</ele>
        <time>2022-05-02T13:42:38Z</time>
      </trkpt>
      <trkpt lat="46.67315" lon="5.39087">
        <ele>216</ele>
        <time>2022-05-02T13:42:39Z</time>
      </trkpt>
      <trkpt lat="46.67301" lon="5.39103">
        <ele>217</ele>
        <time>2022-05-02T13:42:42Z</time>
      </trkpt>
      <trkpt lat="46.6728" lon="5.39125">
        <ele>217.6</ele>
        <time>2022-05-02T13:42:46Z</time>
      </trkpt>
      <trkpt lat="46.67264" lon="5.3914">
        <ele>218.2</ele>
        <time>2022-05-02T13:42:49Z</time>
      </trkpt>
      <trkpt lat="46.67239" lon="5.39166">
        <ele>219.2</ele>
        <time>2022-05-02T13:42:54Z</time>
      </trkpt>
      <trkpt lat="46.67204" lon="5.39202">
        <ele>220.2</ele>
        <time>2022-05-02T13:43:01Z</time>
      </trkpt>
      <trkpt lat="46.67195" lon="5.39211">
        <ele>220.6</ele>
        <time>2022-05-02T13:43:03Z</time>
      </trkpt>
      <trkpt lat="46.67185" lon="5.39218">
        <ele>220.6</ele>
        <time>2022-05-02T13:43:05Z</time>
      </trkpt>
      <trkpt lat="46.67175" lon="5.3922">
        <ele>220.8</ele>
        <time>2022-05-02T13:43:07Z</time>
      </trkpt>
      <trkpt lat="46.67162" lon="5.3922">
        <ele>220.4</ele>
        <time>2022-05-02T13:43:11Z</time>
      </trkpt>
      <trkpt lat="46.67161" lon="5.3922">
        <ele>220.4</ele>
        <time>2022-05-02T13:43:12Z</time>
      </trkpt>
      <trkpt lat="46.67161" lon="5.3922">
        <ele>220.2</ele>
        <time>2022-05-02T13:43:15Z</time>
      </trkpt>
      <trkpt lat="46.67157" lon="5.39222">
        <ele>219.2</ele>
        <time>2022-05-02T13:43:25Z</time>
      </trkpt>
      <trkpt lat="46.67153" lon="5.39229">
        <ele>219.2</ele>
        <time>2022-05-02T13:43:27Z</time>
      </trkpt>
      <trkpt lat="46.6715" lon="5.39243">
        <ele>219</ele>
        <time>2022-05-02T13:43:29Z</time>
      </trkpt>
      <trkpt lat="46.67149" lon="5.39252">
        <ele>219</ele>
        <time>2022-05-02T13:43:30Z</time>
      </trkpt>
      <trkpt lat="46.67145" lon="5.39296">
        <ele>218.2</ele>
        <time>2022-05-02T13:43:34Z</time>
      </trkpt>
      <trkpt lat="46.67144" lon="5.39305">
        <ele>218</ele>
        <time>2022-05-02T13:43:35Z</time>
      </trkpt>
      <trkpt lat="46.67142" lon="5.3932">
        <ele>218</ele>
        <time>2022-05-02T13:43:36Z</time>
      </trkpt>
      <trkpt lat="46.67138" lon="5.39359">
        <ele>217.6</ele>
        <time>2022-05-02T13:43:39Z</time>
      </trkpt>
      <trkpt lat="46.67132" lon="5.39412">
        <ele>217</ele>
        <time>2022-05-02T13:43:43Z</time>
      </trkpt>
      <trkpt lat="46.67127" lon="5.39457">
        <ele>216.2</ele>
        <time>2022-05-02T13:43:46Z</time>
      </trkpt>
      <trkpt lat="46.67125" lon="5.39484">
        <ele>215.8</ele>
        <time>2022-05-02T13:43:48Z</time>
      </trkpt>
      <trkpt lat="46.6712" lon="5.39534">
        <ele>215.4</ele>
        <time>2022-05-02T13:43:52Z</time>
      </trkpt>
      <trkpt lat="46.67119" lon="5.39546">
        <ele>215.2</ele>
        <time>2022-05-02T13:43:53Z</time>
      </trkpt>
      <trkpt lat="46.67112" lon="5.39625">
        <ele>215.2</ele>
        <time>2022-05-02T13:44:00Z</time>
      </trkpt>
      <trkpt lat="46.67111" lon="5.39636">
        <ele>215.4</ele>
        <time>2022-05-02T13:44:01Z</time>
      </trkpt>
      <trkpt lat="46.67102" lon="5.3972">
        <ele>216.2</ele>
        <time>2022-05-02T13:44:09Z</time>
      </trkpt>
      <trkpt lat="46.67098" lon="5.39765">
        <ele>217.4</ele>
        <time>2022-05-02T13:44:14Z</time>
      </trkpt>
      <trkpt lat="46.67095" lon="5.39797">
        <ele>218.8</ele>
        <time>2022-05-02T13:44:18Z</time>
      </trkpt>
      <trkpt lat="46.67093" lon="5.39819">
        <ele>219.8</ele>
        <time>2022-05-02T13:44:21Z</time>
      </trkpt>
      <trkpt lat="46.67091" lon="5.39833">
        <ele>221</ele>
        <time>2022-05-02T13:44:23Z</time>
      </trkpt>
      <trkpt lat="46.6709" lon="5.39839">
        <ele>221.2</ele>
        <time>2022-05-02T13:44:24Z</time>
      </trkpt>
      <trkpt lat="46.67087" lon="5.39865">
        <ele>222.4</ele>
        <time>2022-05-02T13:44:27Z</time>
      </trkpt>
      <trkpt lat="46.67082" lon="5.39928">
        <ele>223.4</ele>
        <time>2022-05-02T13:44:34Z</time>
      </trkpt>
      <trkpt lat="46.67075" lon="5.40007">
        <ele>223.8</ele>
        <time>2022-05-02T13:44:42Z</time>
      </trkpt>
      <trkpt lat="46.67074" lon="5.40015">
        <ele>223.8</ele>
        <time>2022-05-02T13:44:43Z</time>
      </trkpt>
      <trkpt lat="46.67068" lon="5.40095">
        <ele>223.2</ele>
        <time>2022-05-02T13:44:51Z</time>
      </trkpt>
      <trkpt lat="46.67066" lon="5.40105">
        <ele>223.2</ele>
        <time>2022-05-02T13:44:52Z</time>
      </trkpt>
      <trkpt lat="46.67062" lon="5.40113">
        <ele>223.2</ele>
        <time>2022-05-02T13:44:53Z</time>
      </trkpt>
      <trkpt lat="46.67056" lon="5.4012">
        <ele>223.2</ele>
        <time>2022-05-02T13:44:54Z</time>
      </trkpt>
      <trkpt lat="46.67049" lon="5.40122">
        <ele>223</ele>
        <time>2022-05-02T13:44:55Z</time>
      </trkpt>
      <trkpt lat="46.67041" lon="5.40123">
        <ele>222.8</ele>
        <time>2022-05-02T13:44:56Z</time>
      </trkpt>
      <trkpt lat="46.67018" lon="5.40122">
        <ele>222.4</ele>
        <time>2022-05-02T13:44:59Z</time>
      </trkpt>
      <trkpt lat="46.6701" lon="5.40122">
        <ele>222.2</ele>
        <time>2022-05-02T13:45:00Z</time>
      </trkpt>
      <trkpt lat="46.66957" lon="5.40116">
        <ele>222.2</ele>
        <time>2022-05-02T13:45:07Z</time>
      </trkpt>
      <trkpt lat="46.66901" lon="5.40106">
        <ele>222</ele>
        <time>2022-05-02T13:45:14Z</time>
      </trkpt>
      <trkpt lat="46.66893" lon="5.40106">
        <ele>222</ele>
        <time>2022-05-02T13:45:15Z</time>
      </trkpt>
      <trkpt lat="46.66853" lon="5.40113">
        <ele>221.6</ele>
        <time>2022-05-02T13:45:20Z</time>
      </trkpt>
      <trkpt lat="46.66838" lon="5.40113">
        <ele>221.6</ele>
        <time>2022-05-02T13:45:22Z</time>
      </trkpt>
      <trkpt lat="46.66824" lon="5.40107">
        <ele>221.4</ele>
        <time>2022-05-02T13:45:24Z</time>
      </trkpt>
      <trkpt lat="46.66804" lon="5.40095">
        <ele>221.2</ele>
        <time>2022-05-02T13:45:27Z</time>
      </trkpt>
      <trkpt lat="46.66777" lon="5.40077">
        <ele>221.2</ele>
        <time>2022-05-02T13:45:31Z</time>
      </trkpt>
      <trkpt lat="46.66726" lon="5.40044">
        <ele>221.6</ele>
        <time>2022-05-02T13:45:39Z</time>
      </trkpt>
      <trkpt lat="46.6672" lon="5.4004">
        <ele>221.6</ele>
        <time>2022-05-02T13:45:40Z</time>
      </trkpt>
      <trkpt lat="46.6667" lon="5.40013">
        <ele>222.4</ele>
        <time>2022-05-02T13:45:48Z</time>
      </trkpt>
      <trkpt lat="46.66614" lon="5.39998">
        <ele>222</ele>
        <time>2022-05-02T13:45:56Z</time>
      </trkpt>
      <trkpt lat="46.66598" lon="5.39989">
        <ele>221.6</ele>
        <time>2022-05-02T13:45:59Z</time>
      </trkpt>
      <trkpt lat="46.66592" lon="5.39985">
        <ele>221.4</ele>
        <time>2022-05-02T13:46:00Z</time>
      </trkpt>
      <trkpt lat="46.66587" lon="5.39978">
        <ele>221.4</ele>
        <time>2022-05-02T13:46:01Z</time>
      </trkpt>
      <trkpt lat="46.66582" lon="5.39971">
        <ele>221.4</ele>
        <time>2022-05-02T13:46:02Z</time>
      </trkpt>
      <trkpt lat="46.66569" lon="5.39956">
        <ele>221</ele>
        <time>2022-05-02T13:46:04Z</time>
      </trkpt>
      <trkpt lat="46.66546" lon="5.39933">
        <ele>220.2</ele>
        <time>2022-05-02T13:46:07Z</time>
      </trkpt>
      <trkpt lat="46.6653" lon="5.3992">
        <ele>220</ele>
        <time>2022-05-02T13:46:09Z</time>
      </trkpt>
      <trkpt lat="46.6648" lon="5.39883">
        <ele>219</ele>
        <time>2022-05-02T13:46:15Z</time>
      </trkpt>
      <trkpt lat="46.66451" lon="5.39865">
        <ele>218.6</ele>
        <time>2022-05-02T13:46:19Z</time>
      </trkpt>
      <trkpt lat="46.66424" lon="5.3985">
        <ele>219</ele>
        <time>2022-05-02T13:46:23Z</time>
      </trkpt>
      <trkpt lat="46.66401" lon="5.39828">
        <ele>219.6</ele>
        <time>2022-05-02T13:46:27Z</time>
      </trkpt>
      <trkpt lat="46.66391" lon="5.39816">
        <ele>220</ele>
        <time>2022-05-02T13:46:29Z</time>
      </trkpt>
      <trkpt lat="46.66386" lon="5.39809">
        <ele>220.4</ele>
        <time>2022-05-02T13:46:30Z</time>
      </trkpt>
      <trkpt lat="46.66376" lon="5.39792">
        <ele>220.6</ele>
        <time>2022-05-02T13:46:32Z</time>
      </trkpt>
      <trkpt lat="46.66357" lon="5.39744">
        <ele>221</ele>
        <time>2022-05-02T13:46:37Z</time>
      </trkpt>
      <trkpt lat="46.66353" lon="5.39735">
        <ele>221</ele>
        <time>2022-05-02T13:46:38Z</time>
      </trkpt>
      <trkpt lat="46.66336" lon="5.39709">
        <ele>220.8</ele>
        <time>2022-05-02T13:46:41Z</time>
      </trkpt>
      <trkpt lat="46.66329" lon="5.397">
        <ele>220.8</ele>
        <time>2022-05-02T13:46:42Z</time>
      </trkpt>
      <trkpt lat="46.66308" lon="5.39681">
        <ele>220.4</ele>
        <time>2022-05-02T13:46:45Z</time>
      </trkpt>
      <trkpt lat="46.66294" lon="5.39674">
        <ele>220</ele>
        <time>2022-05-02T13:46:47Z</time>
      </trkpt>
      <trkpt lat="46.66277" lon="5.39669">
        <ele>219.8</ele>
        <time>2022-05-02T13:46:49Z</time>
      </trkpt>
      <trkpt lat="46.66239" lon="5.39668">
        <ele>218.8</ele>
        <time>2022-05-02T13:46:53Z</time>
      </trkpt>
      <trkpt lat="46.6623" lon="5.39668">
        <ele>218.2</ele>
        <time>2022-05-02T13:46:54Z</time>
      </trkpt>
      <trkpt lat="46.66213" lon="5.3967">
        <ele>217.4</ele>
        <time>2022-05-02T13:46:56Z</time>
      </trkpt>
      <trkpt lat="46.66184" lon="5.39676">
        <ele>216.8</ele>
        <time>2022-05-02T13:46:59Z</time>
      </trkpt>
      <trkpt lat="46.66174" lon="5.39681">
        <ele>216.4</ele>
        <time>2022-05-02T13:47:00Z</time>
      </trkpt>
      <trkpt lat="46.66165" lon="5.39686">
        <ele>216</ele>
        <time>2022-05-02T13:47:01Z</time>
      </trkpt>
      <trkpt lat="46.66111" lon="5.39716">
        <ele>215</ele>
        <time>2022-05-02T13:47:07Z</time>
      </trkpt>
      <trkpt lat="46.66081" lon="5.39732">
        <ele>214.2</ele>
        <time>2022-05-02T13:47:10Z</time>
      </trkpt>
      <trkpt lat="46.66071" lon="5.39738">
        <ele>213.8</ele>
        <time>2022-05-02T13:47:11Z</time>
      </trkpt>
      <trkpt lat="46.66042" lon="5.39754">
        <ele>212.4</ele>
        <time>2022-05-02T13:47:14Z</time>
      </trkpt>
      <trkpt lat="46.66019" lon="5.39764">
        <ele>211.4</ele>
        <time>2022-05-02T13:47:16Z</time>
      </trkpt>
      <trkpt lat="46.66008" lon="5.39766">
        <ele>210.6</ele>
        <time>2022-05-02T13:47:17Z</time>
      </trkpt>
      <trkpt lat="46.65998" lon="5.39766">
        <ele>210.2</ele>
        <time>2022-05-02T13:47:18Z</time>
      </trkpt>
      <trkpt lat="46.65977" lon="5.39765">
        <ele>209.4</ele>
        <time>2022-05-02T13:47:20Z</time>
      </trkpt>
      <trkpt lat="46.65968" lon="5.39767">
        <ele>208.8</ele>
        <time>2022-05-02T13:47:21Z</time>
      </trkpt>
      <trkpt lat="46.65958" lon="5.39771">
        <ele>208.4</ele>
        <time>2022-05-02T13:47:22Z</time>
      </trkpt>
      <trkpt lat="46.65933" lon="5.39788">
        <ele>208</ele>
        <time>2022-05-02T13:47:25Z</time>
      </trkpt>
      <trkpt lat="46.65911" lon="5.39803">
        <ele>208</ele>
        <time>2022-05-02T13:47:28Z</time>
      </trkpt>
      <trkpt lat="46.65894" lon="5.3981">
        <ele>208.2</ele>
        <time>2022-05-02T13:47:30Z</time>
      </trkpt>
      <trkpt lat="46.65873" lon="5.39813">
        <ele>208.8</ele>
        <time>2022-05-02T13:47:33Z</time>
      </trkpt>
      <trkpt lat="46.65866" lon="5.39813">
        <ele>208.8</ele>
        <time>2022-05-02T13:47:34Z</time>
      </trkpt>
      <trkpt lat="46.65839" lon="5.39811">
        <ele>210</ele>
        <time>2022-05-02T13:47:38Z</time>
      </trkpt>
      <trkpt lat="46.65833" lon="5.39811">
        <ele>210.2</ele>
        <time>2022-05-02T13:47:39Z</time>
      </trkpt>
      <trkpt lat="46.65814" lon="5.39806">
        <ele>211.2</ele>
        <time>2022-05-02T13:47:42Z</time>
      </trkpt>
      <trkpt lat="46.65795" lon="5.39801">
        <ele>212.2</ele>
        <time>2022-05-02T13:47:45Z</time>
      </trkpt>
      <trkpt lat="46.65767" lon="5.39793">
        <ele>213.2</ele>
        <time>2022-05-02T13:47:50Z</time>
      </trkpt>
      <trkpt lat="46.65762" lon="5.39792">
        <ele>213.4</ele>
        <time>2022-05-02T13:47:51Z</time>
      </trkpt>
      <trkpt lat="46.65757" lon="5.3979">
        <ele>213.6</ele>
        <time>2022-05-02T13:47:52Z</time>
      </trkpt>
      <trkpt lat="46.65736" lon="5.39778">
        <ele>214.4</ele>
        <time>2022-05-02T13:47:56Z</time>
      </trkpt>
      <trkpt lat="46.65709" lon="5.39766">
        <ele>215.6</ele>
        <time>2022-05-02T13:48:01Z</time>
      </trkpt>
      <trkpt lat="46.65698" lon="5.39765">
        <ele>215.8</ele>
        <time>2022-05-02T13:48:03Z</time>
      </trkpt>
      <trkpt lat="46.65686" lon="5.39768">
        <ele>216.2</ele>
        <time>2022-05-02T13:48:05Z</time>
      </trkpt>
      <trkpt lat="46.65675" lon="5.39776">
        <ele>216.4</ele>
        <time>2022-05-02T13:48:07Z</time>
      </trkpt>
      <trkpt lat="46.6567" lon="5.39781">
        <ele>216.8</ele>
        <time>2022-05-02T13:48:08Z</time>
      </trkpt>
      <trkpt lat="46.65666" lon="5.39788">
        <ele>216.8</ele>
        <time>2022-05-02T13:48:09Z</time>
      </trkpt>
      <trkpt lat="46.65659" lon="5.39804">
        <ele>217.2</ele>
        <time>2022-05-02T13:48:11Z</time>
      </trkpt>
      <trkpt lat="46.65649" lon="5.39836">
        <ele>217.8</ele>
        <time>2022-05-02T13:48:15Z</time>
      </trkpt>
      <trkpt lat="46.65641" lon="5.39863">
        <ele>218</ele>
        <time>2022-05-02T13:48:18Z</time>
      </trkpt>
      <trkpt lat="46.65622" lon="5.39929">
        <ele>218.6</ele>
        <time>2022-05-02T13:48:26Z</time>
      </trkpt>
      <trkpt lat="46.6562" lon="5.39935">
        <ele>218.6</ele>
        <time>2022-05-02T13:48:27Z</time>
      </trkpt>
      <trkpt lat="46.65615" lon="5.3995">
        <ele>219</ele>
        <time>2022-05-02T13:48:29Z</time>
      </trkpt>
      <trkpt lat="46.65613" lon="5.39957">
        <ele>219</ele>
        <time>2022-05-02T13:48:30Z</time>
      </trkpt>
      <trkpt lat="46.6561" lon="5.39964">
        <ele>219.2</ele>
        <time>2022-05-02T13:48:31Z</time>
      </trkpt>
      <trkpt lat="46.656" lon="5.39994">
        <ele>220</ele>
        <time>2022-05-02T13:48:35Z</time>
      </trkpt>
      <trkpt lat="46.65594" lon="5.4001">
        <ele>220.2</ele>
        <time>2022-05-02T13:48:37Z</time>
      </trkpt>
      <trkpt lat="46.65589" lon="5.40024">
        <ele>220.6</ele>
        <time>2022-05-02T13:48:39Z</time>
      </trkpt>
      <trkpt lat="46.65566" lon="5.40083">
        <ele>220.6</ele>
        <time>2022-05-02T13:48:46Z</time>
      </trkpt>
      <trkpt lat="46.65558" lon="5.40112">
        <ele>220.4</ele>
        <time>2022-05-02T13:48:49Z</time>
      </trkpt>
      <trkpt lat="46.65551" lon="5.40139">
        <ele>220.2</ele>
        <time>2022-05-02T13:48:52Z</time>
      </trkpt>
      <trkpt lat="46.65534" lon="5.40217">
        <ele>219.8</ele>
        <time>2022-05-02T13:48:59Z</time>
      </trkpt>
      <trkpt lat="46.65526" lon="5.40237">
        <ele>219.6</ele>
        <time>2022-05-02T13:49:01Z</time>
      </trkpt>
      <trkpt lat="46.65514" lon="5.40258">
        <ele>219</ele>
        <time>2022-05-02T13:49:03Z</time>
      </trkpt>
      <trkpt lat="46.65505" lon="5.4027">
        <ele>218.6</ele>
        <time>2022-05-02T13:49:04Z</time>
      </trkpt>
      <trkpt lat="46.65474" lon="5.40306">
        <ele>217.6</ele>
        <time>2022-05-02T13:49:08Z</time>
      </trkpt>
      <trkpt lat="46.65468" lon="5.40315">
        <ele>217.4</ele>
        <time>2022-05-02T13:49:09Z</time>
      </trkpt>
      <trkpt lat="46.65442" lon="5.40352">
        <ele>216.2</ele>
        <time>2022-05-02T13:49:12Z</time>
      </trkpt>
      <trkpt lat="46.65434" lon="5.40362">
        <ele>214.6</ele>
        <time>2022-05-02T13:49:13Z</time>
      </trkpt>
      <trkpt lat="46.6542" lon="5.40381">
        <ele>213.4</ele>
        <time>2022-05-02T13:49:15Z</time>
      </trkpt>
      <trkpt lat="46.65403" lon="5.40404">
        <ele>212</ele>
        <time>2022-05-02T13:49:17Z</time>
      </trkpt>
      <trkpt lat="46.65381" lon="5.40436">
        <ele>210.6</ele>
        <time>2022-05-02T13:49:20Z</time>
      </trkpt>
      <trkpt lat="46.65356" lon="5.40474">
        <ele>209.4</ele>
        <time>2022-05-02T13:49:24Z</time>
      </trkpt>
      <trkpt lat="46.65338" lon="5.40501">
        <ele>209.2</ele>
        <time>2022-05-02T13:49:27Z</time>
      </trkpt>
      <trkpt lat="46.65335" lon="5.4051">
        <ele>209.2</ele>
        <time>2022-05-02T13:49:28Z</time>
      </trkpt>
      <trkpt lat="46.65334" lon="5.4052">
        <ele>209.2</ele>
        <time>2022-05-02T13:49:29Z</time>
      </trkpt>
      <trkpt lat="46.65336" lon="5.40531">
        <ele>209.2</ele>
        <time>2022-05-02T13:49:30Z</time>
      </trkpt>
      <trkpt lat="46.65337" lon="5.40543">
        <ele>209</ele>
        <time>2022-05-02T13:49:31Z</time>
      </trkpt>
      <trkpt lat="46.65339" lon="5.40579">
        <ele>209</ele>
        <time>2022-05-02T13:49:34Z</time>
      </trkpt>
      <trkpt lat="46.6534" lon="5.40666">
        <ele>209.6</ele>
        <time>2022-05-02T13:49:41Z</time>
      </trkpt>
      <trkpt lat="46.65342" lon="5.4075">
        <ele>210.2</ele>
        <time>2022-05-02T13:49:48Z</time>
      </trkpt>
      <trkpt lat="46.65342" lon="5.40773">
        <ele>210.2</ele>
        <time>2022-05-02T13:49:50Z</time>
      </trkpt>
      <trkpt lat="46.65343" lon="5.40841">
        <ele>210.2</ele>
        <time>2022-05-02T13:49:56Z</time>
      </trkpt>
      <trkpt lat="46.65342" lon="5.4092">
        <ele>210.2</ele>
        <time>2022-05-02T13:50:03Z</time>
      </trkpt>
      <trkpt lat="46.65341" lon="5.40942">
        <ele>210</ele>
        <time>2022-05-02T13:50:05Z</time>
      </trkpt>
      <trkpt lat="46.65343" lon="5.40984">
        <ele>210.4</ele>
        <time>2022-05-02T13:50:09Z</time>
      </trkpt>
      <trkpt lat="46.65345" lon="5.40994">
        <ele>210.4</ele>
        <time>2022-05-02T13:50:10Z</time>
      </trkpt>
      <trkpt lat="46.65353" lon="5.41035">
        <ele>210.6</ele>
        <time>2022-05-02T13:50:14Z</time>
      </trkpt>
      <trkpt lat="46.65368" lon="5.41095">
        <ele>210.8</ele>
        <time>2022-05-02T13:50:20Z</time>
      </trkpt>
      <trkpt lat="46.65378" lon="5.41124">
        <ele>210.8</ele>
        <time>2022-05-02T13:50:23Z</time>
      </trkpt>
      <trkpt lat="46.65387" lon="5.41151">
        <ele>211</ele>
        <time>2022-05-02T13:50:26Z</time>
      </trkpt>
      <trkpt lat="46.65405" lon="5.41194">
        <ele>211.2</ele>
        <time>2022-05-02T13:50:31Z</time>
      </trkpt>
      <trkpt lat="46.65436" lon="5.41248">
        <ele>211.4</ele>
        <time>2022-05-02T13:50:38Z</time>
      </trkpt>
      <trkpt lat="46.6545" lon="5.41269">
        <ele>211.6</ele>
        <time>2022-05-02T13:50:41Z</time>
      </trkpt>
      <trkpt lat="46.65462" lon="5.41281">
        <ele>211.6</ele>
        <time>2022-05-02T13:50:43Z</time>
      </trkpt>
      <trkpt lat="46.65467" lon="5.41285">
        <ele>211.6</ele>
        <time>2022-05-02T13:50:44Z</time>
      </trkpt>
      <trkpt lat="46.65475" lon="5.41282">
        <ele>211.6</ele>
        <time>2022-05-02T13:50:45Z</time>
      </trkpt>
      <trkpt lat="46.65483" lon="5.41279">
        <ele>211.6</ele>
        <time>2022-05-02T13:50:46Z</time>
      </trkpt>
      <trkpt lat="46.65498" lon="5.41273">
        <ele>211.8</ele>
        <time>2022-05-02T13:50:48Z</time>
      </trkpt>
      <trkpt lat="46.65531" lon="5.4126">
        <ele>212.2</ele>
        <time>2022-05-02T13:50:53Z</time>
      </trkpt>
      <trkpt lat="46.65548" lon="5.41252">
        <ele>212.8</ele>
        <time>2022-05-02T13:50:56Z</time>
      </trkpt>
      <trkpt lat="46.65558" lon="5.41249">
        <ele>213.2</ele>
        <time>2022-05-02T13:50:58Z</time>
      </trkpt>
      <trkpt lat="46.65563" lon="5.41249">
        <ele>213.6</ele>
        <time>2022-05-02T13:50:59Z</time>
      </trkpt>
      <trkpt lat="46.65568" lon="5.41253">
        <ele>213.8</ele>
        <time>2022-05-02T13:51:00Z</time>
      </trkpt>
      <trkpt lat="46.65572" lon="5.41256">
        <ele>214.2</ele>
        <time>2022-05-02T13:51:01Z</time>
      </trkpt>
      <trkpt lat="46.65576" lon="5.41261">
        <ele>214.6</ele>
        <time>2022-05-02T13:51:02Z</time>
      </trkpt>
      <trkpt lat="46.6558" lon="5.41266">
        <ele>214.8</ele>
        <time>2022-05-02T13:51:03Z</time>
      </trkpt>
      <trkpt lat="46.65584" lon="5.41271">
        <ele>215</ele>
        <time>2022-05-02T13:51:04Z</time>
      </trkpt>
      <trkpt lat="46.65587" lon="5.41276">
        <ele>215.2</ele>
        <time>2022-05-02T13:51:05Z</time>
      </trkpt>
      <trkpt lat="46.65598" lon="5.41292">
        <ele>216.4</ele>
        <time>2022-05-02T13:51:08Z</time>
      </trkpt>
      <trkpt lat="46.65602" lon="5.41298">
        <ele>216.8</ele>
        <time>2022-05-02T13:51:09Z</time>
      </trkpt>
      <trkpt lat="46.65609" lon="5.41309">
        <ele>217.4</ele>
        <time>2022-05-02T13:51:11Z</time>
      </trkpt>
      <trkpt lat="46.65628" lon="5.41337">
        <ele>218.4</ele>
        <time>2022-05-02T13:51:16Z</time>
      </trkpt>
      <trkpt lat="46.6565" lon="5.4137">
        <ele>219.6</ele>
        <time>2022-05-02T13:51:22Z</time>
      </trkpt>
      <trkpt lat="46.65674" lon="5.41402">
        <ele>220.4</ele>
        <time>2022-05-02T13:51:28Z</time>
      </trkpt>
      <trkpt lat="46.65682" lon="5.41413">
        <ele>220.8</ele>
        <time>2022-05-02T13:51:30Z</time>
      </trkpt>
      <trkpt lat="46.65701" lon="5.41445">
        <ele>221.2</ele>
        <time>2022-05-02T13:51:35Z</time>
      </trkpt>
      <trkpt lat="46.65704" lon="5.41452">
        <ele>221.2</ele>
        <time>2022-05-02T13:51:36Z</time>
      </trkpt>
      <trkpt lat="46.65719" lon="5.41492">
        <ele>221.6</ele>
        <time>2022-05-02T13:51:41Z</time>
      </trkpt>
      <trkpt lat="46.65722" lon="5.41509">
        <ele>221.6</ele>
        <time>2022-05-02T13:51:43Z</time>
      </trkpt>
      <trkpt lat="46.65728" lon="5.41545">
        <ele>222</ele>
        <time>2022-05-02T13:51:47Z</time>
      </trkpt>
      <trkpt lat="46.65737" lon="5.41582">
        <ele>222.2</ele>
        <time>2022-05-02T13:51:51Z</time>
      </trkpt>
      <trkpt lat="46.65756" lon="5.41633">
        <ele>222.2</ele>
        <time>2022-05-02T13:51:57Z</time>
      </trkpt>
      <trkpt lat="46.65759" lon="5.41642">
        <ele>222.2</ele>
        <time>2022-05-02T13:51:58Z</time>
      </trkpt>
      <trkpt lat="46.65773" lon="5.41674">
        <ele>222.2</ele>
        <time>2022-05-02T13:52:02Z</time>
      </trkpt>
      <trkpt lat="46.65781" lon="5.41686">
        <ele>222.4</ele>
        <time>2022-05-02T13:52:04Z</time>
      </trkpt>
      <trkpt lat="46.65797" lon="5.417">
        <ele>222.4</ele>
        <time>2022-05-02T13:52:07Z</time>
      </trkpt>
      <trkpt lat="46.65808" lon="5.41708">
        <ele>222.6</ele>
        <time>2022-05-02T13:52:09Z</time>
      </trkpt>
      <trkpt lat="46.65824" lon="5.4172">
        <ele>222.8</ele>
        <time>2022-05-02T13:52:12Z</time>
      </trkpt>
      <trkpt lat="46.65829" lon="5.41726">
        <ele>223</ele>
        <time>2022-05-02T13:52:13Z</time>
      </trkpt>
      <trkpt lat="46.65833" lon="5.41732">
        <ele>223.4</ele>
        <time>2022-05-02T13:52:14Z</time>
      </trkpt>
      <trkpt lat="46.65837" lon="5.41739">
        <ele>223.6</ele>
        <time>2022-05-02T13:52:15Z</time>
      </trkpt>
      <trkpt lat="46.65838" lon="5.41747">
        <ele>224</ele>
        <time>2022-05-02T13:52:16Z</time>
      </trkpt>
      <trkpt lat="46.65837" lon="5.41754">
        <ele>224</ele>
        <time>2022-05-02T13:52:17Z</time>
      </trkpt>
      <trkpt lat="46.65835" lon="5.41761">
        <ele>224.2</ele>
        <time>2022-05-02T13:52:18Z</time>
      </trkpt>
      <trkpt lat="46.65824" lon="5.41784">
        <ele>224.2</ele>
        <time>2022-05-02T13:52:21Z</time>
      </trkpt>
      <trkpt lat="46.65804" lon="5.41829">
        <ele>224</ele>
        <time>2022-05-02T13:52:26Z</time>
      </trkpt>
      <trkpt lat="46.65786" lon="5.41867">
        <ele>223</ele>
        <time>2022-05-02T13:52:30Z</time>
      </trkpt>
      <trkpt lat="46.65778" lon="5.41883">
        <ele>222.4</ele>
        <time>2022-05-02T13:52:32Z</time>
      </trkpt>
      <trkpt lat="46.6577" lon="5.41885">
        <ele>220.8</ele>
        <time>2022-05-02T13:52:34Z</time>
      </trkpt>
      <trkpt lat="46.65765" lon="5.41882">
        <ele>219.6</ele>
        <time>2022-05-02T13:52:35Z</time>
      </trkpt>
      <trkpt lat="46.65761" lon="5.41877">
        <ele>219.2</ele>
        <time>2022-05-02T13:52:36Z</time>
      </trkpt>
      <trkpt lat="46.65756" lon="5.4187">
        <ele>218.6</ele>
        <time>2022-05-02T13:52:37Z</time>
      </trkpt>
      <trkpt lat="46.65741" lon="5.41848">
        <ele>217.4</ele>
        <time>2022-05-02T13:52:40Z</time>
      </trkpt>
      <trkpt lat="46.65736" lon="5.41839">
        <ele>217</ele>
        <time>2022-05-02T13:52:41Z</time>
      </trkpt>
      <trkpt lat="46.657" lon="5.41775">
        <ele>216.4</ele>
        <time>2022-05-02T13:52:48Z</time>
      </trkpt>
      <trkpt lat="46.6569" lon="5.41756">
        <ele>216.2</ele>
        <time>2022-05-02T13:52:50Z</time>
      </trkpt>
      <trkpt lat="46.6567" lon="5.4172">
        <ele>216</ele>
        <time>2022-05-02T13:52:54Z</time>
      </trkpt>
      <trkpt lat="46.65645" lon="5.41681">
        <ele>215.4</ele>
        <time>2022-05-02T13:52:59Z</time>
      </trkpt>
      <trkpt lat="46.65636" lon="5.4168">
        <ele>215</ele>
        <time>2022-05-02T13:53:01Z</time>
      </trkpt>
      <trkpt lat="46.65632" lon="5.41683">
        <ele>214.8</ele>
        <time>2022-05-02T13:53:02Z</time>
      </trkpt>
      <trkpt lat="46.65628" lon="5.41694">
        <ele>214</ele>
        <time>2022-05-02T13:53:04Z</time>
      </trkpt>
      <trkpt lat="46.65627" lon="5.41702">
        <ele>213.6</ele>
        <time>2022-05-02T13:53:05Z</time>
      </trkpt>
      <trkpt lat="46.65627" lon="5.41711">
        <ele>213.6</ele>
        <time>2022-05-02T13:53:06Z</time>
      </trkpt>
      <trkpt lat="46.65635" lon="5.4173">
        <ele>213</ele>
        <time>2022-05-02T13:53:08Z</time>
      </trkpt>
      <trkpt lat="46.65641" lon="5.4174">
        <ele>212.8</ele>
        <time>2022-05-02T13:53:09Z</time>
      </trkpt>
      <trkpt lat="46.65665" lon="5.4178">
        <ele>212.6</ele>
        <time>2022-05-02T13:53:13Z</time>
      </trkpt>
      <trkpt lat="46.6568" lon="5.4181">
        <ele>212.8</ele>
        <time>2022-05-02T13:53:16Z</time>
      </trkpt>
      <trkpt lat="46.657" lon="5.4184">
        <ele>213.2</ele>
        <time>2022-05-02T13:53:19Z</time>
      </trkpt>
      <trkpt lat="46.65743" lon="5.41902">
        <ele>213.6</ele>
        <time>2022-05-02T13:53:26Z</time>
      </trkpt>
      <trkpt lat="46.65749" lon="5.41911">
        <ele>213.6</ele>
        <time>2022-05-02T13:53:27Z</time>
      </trkpt>
      <trkpt lat="46.65791" lon="5.41966">
        <ele>213.4</ele>
        <time>2022-05-02T13:53:34Z</time>
      </trkpt>
      <trkpt lat="46.65819" lon="5.42004">
        <ele>213.4</ele>
        <time>2022-05-02T13:53:39Z</time>
      </trkpt>
      <trkpt lat="46.65854" lon="5.42065">
        <ele>213.4</ele>
        <time>2022-05-02T13:53:46Z</time>
      </trkpt>
      <trkpt lat="46.65881" lon="5.42133">
        <ele>213.2</ele>
        <time>2022-05-02T13:53:53Z</time>
      </trkpt>
      <trkpt lat="46.65902" lon="5.42204">
        <ele>213.2</ele>
        <time>2022-05-02T13:54:00Z</time>
      </trkpt>
      <trkpt lat="46.65916" lon="5.42281">
        <ele>213.2</ele>
        <time>2022-05-02T13:54:07Z</time>
      </trkpt>
      <trkpt lat="46.65929" lon="5.42368">
        <ele>213.4</ele>
        <time>2022-05-02T13:54:15Z</time>
      </trkpt>
      <trkpt lat="46.65931" lon="5.42379">
        <ele>213.4</ele>
        <time>2022-05-02T13:54:16Z</time>
      </trkpt>
      <trkpt lat="46.65948" lon="5.42442">
        <ele>213.6</ele>
        <time>2022-05-02T13:54:22Z</time>
      </trkpt>
      <trkpt lat="46.65973" lon="5.42512">
        <ele>214</ele>
        <time>2022-05-02T13:54:29Z</time>
      </trkpt>
      <trkpt lat="46.66007" lon="5.42574">
        <ele>214</ele>
        <time>2022-05-02T13:54:36Z</time>
      </trkpt>
      <trkpt lat="46.66012" lon="5.42582">
        <ele>213.8</ele>
        <time>2022-05-02T13:54:37Z</time>
      </trkpt>
      <trkpt lat="46.66046" lon="5.42638">
        <ele>213.8</ele>
        <time>2022-05-02T13:54:44Z</time>
      </trkpt>
      <trkpt lat="46.66054" lon="5.42651">
        <ele>213.8</ele>
        <time>2022-05-02T13:54:46Z</time>
      </trkpt>
      <trkpt lat="46.66057" lon="5.42657">
        <ele>213.8</ele>
        <time>2022-05-02T13:54:47Z</time>
      </trkpt>
      <trkpt lat="46.6606" lon="5.42662">
        <ele>213.8</ele>
        <time>2022-05-02T13:54:48Z</time>
      </trkpt>
      <trkpt lat="46.66067" lon="5.42672">
        <ele>213.8</ele>
        <time>2022-05-02T13:54:50Z</time>
      </trkpt>
      <trkpt lat="46.66075" lon="5.42684">
        <ele>213.6</ele>
        <time>2022-05-02T13:54:52Z</time>
      </trkpt>
      <trkpt lat="46.66079" lon="5.42691">
        <ele>213.6</ele>
        <time>2022-05-02T13:54:53Z</time>
      </trkpt>
      <trkpt lat="46.66101" lon="5.4273">
        <ele>213.8</ele>
        <time>2022-05-02T13:54:58Z</time>
      </trkpt>
      <trkpt lat="46.66127" lon="5.42774">
        <ele>213.8</ele>
        <time>2022-05-02T13:55:03Z</time>
      </trkpt>
      <trkpt lat="46.66163" lon="5.42833">
        <ele>214.2</ele>
        <time>2022-05-02T13:55:10Z</time>
      </trkpt>
      <trkpt lat="46.66168" lon="5.42841">
        <ele>214.2</ele>
        <time>2022-05-02T13:55:11Z</time>
      </trkpt>
      <trkpt lat="46.662" lon="5.42899">
        <ele>214</ele>
        <time>2022-05-02T13:55:18Z</time>
      </trkpt>
      <trkpt lat="46.66228" lon="5.42962">
        <ele>213.6</ele>
        <time>2022-05-02T13:55:25Z</time>
      </trkpt>
      <trkpt lat="46.66252" lon="5.4304">
        <ele>213.8</ele>
        <time>2022-05-02T13:55:33Z</time>
      </trkpt>
      <trkpt lat="46.66268" lon="5.43122">
        <ele>214</ele>
        <time>2022-05-02T13:55:41Z</time>
      </trkpt>
      <trkpt lat="46.66273" lon="5.43197">
        <ele>214.4</ele>
        <time>2022-05-02T13:55:48Z</time>
      </trkpt>
      <trkpt lat="46.66272" lon="5.43261">
        <ele>214.2</ele>
        <time>2022-05-02T13:55:54Z</time>
      </trkpt>
      <trkpt lat="46.66269" lon="5.43311">
        <ele>213.8</ele>
        <time>2022-05-02T13:55:59Z</time>
      </trkpt>
      <trkpt lat="46.66264" lon="5.43383">
        <ele>214.2</ele>
        <time>2022-05-02T13:56:06Z</time>
      </trkpt>
      <trkpt lat="46.66263" lon="5.43393">
        <ele>214.4</ele>
        <time>2022-05-02T13:56:07Z</time>
      </trkpt>
      <trkpt lat="46.66261" lon="5.43434">
        <ele>215</ele>
        <time>2022-05-02T13:56:11Z</time>
      </trkpt>
      <trkpt lat="46.66258" lon="5.43497">
        <ele>215.2</ele>
        <time>2022-05-02T13:56:17Z</time>
      </trkpt>
      <trkpt lat="46.66257" lon="5.43508">
        <ele>215.2</ele>
        <time>2022-05-02T13:56:18Z</time>
      </trkpt>
      <trkpt lat="46.66253" lon="5.4359">
        <ele>215.4</ele>
        <time>2022-05-02T13:56:26Z</time>
      </trkpt>
      <trkpt lat="46.66252" lon="5.4361">
        <ele>215.6</ele>
        <time>2022-05-02T13:56:28Z</time>
      </trkpt>
      <trkpt lat="46.66251" lon="5.43641">
        <ele>216.2</ele>
        <time>2022-05-02T13:56:31Z</time>
      </trkpt>
      <trkpt lat="46.66255" lon="5.43712">
        <ele>217</ele>
        <time>2022-05-02T13:56:38Z</time>
      </trkpt>
      <trkpt lat="46.66258" lon="5.43739">
        <ele>217.4</ele>
        <time>2022-05-02T13:56:41Z</time>
      </trkpt>
      <trkpt lat="46.6626" lon="5.43748">
        <ele>217.4</ele>
        <time>2022-05-02T13:56:42Z</time>
      </trkpt>
      <trkpt lat="46.66266" lon="5.43783">
        <ele>217.6</ele>
        <time>2022-05-02T13:56:46Z</time>
      </trkpt>
      <trkpt lat="46.66271" lon="5.43807">
        <ele>217.6</ele>
        <time>2022-05-02T13:56:49Z</time>
      </trkpt>
      <trkpt lat="46.66282" lon="5.43853">
        <ele>217.6</ele>
        <time>2022-05-02T13:56:55Z</time>
      </trkpt>
      <trkpt lat="46.66284" lon="5.43861">
        <ele>217.6</ele>
        <time>2022-05-02T13:56:56Z</time>
      </trkpt>
      <trkpt lat="46.6629" lon="5.43899">
        <ele>217.6</ele>
        <time>2022-05-02T13:57:00Z</time>
      </trkpt>
      <trkpt lat="46.66292" lon="5.43909">
        <ele>217.6</ele>
        <time>2022-05-02T13:57:01Z</time>
      </trkpt>
      <trkpt lat="46.66298" lon="5.4393">
        <ele>217.6</ele>
        <time>2022-05-02T13:57:03Z</time>
      </trkpt>
      <trkpt lat="46.66307" lon="5.43962">
        <ele>217.4</ele>
        <time>2022-05-02T13:57:06Z</time>
      </trkpt>
      <trkpt lat="46.66338" lon="5.44038">
        <ele>218.2</ele>
        <time>2022-05-02T13:57:14Z</time>
      </trkpt>
      <trkpt lat="46.66369" lon="5.44095">
        <ele>218</ele>
        <time>2022-05-02T13:57:21Z</time>
      </trkpt>
      <trkpt lat="46.66389" lon="5.44129">
        <ele>217.6</ele>
        <time>2022-05-02T13:57:26Z</time>
      </trkpt>
      <trkpt lat="46.66392" lon="5.44135">
        <ele>217.6</ele>
        <time>2022-05-02T13:57:27Z</time>
      </trkpt>
      <trkpt lat="46.66406" lon="5.44162">
        <ele>217.4</ele>
        <time>2022-05-02T13:57:31Z</time>
      </trkpt>
      <trkpt lat="46.66409" lon="5.44169">
        <ele>217.4</ele>
        <time>2022-05-02T13:57:32Z</time>
      </trkpt>
      <trkpt lat="46.66426" lon="5.44199">
        <ele>217.6</ele>
        <time>2022-05-02T13:57:36Z</time>
      </trkpt>
      <trkpt lat="46.66431" lon="5.44208">
        <ele>217.6</ele>
        <time>2022-05-02T13:57:37Z</time>
      </trkpt>
      <trkpt lat="46.66438" lon="5.44224">
        <ele>217.6</ele>
        <time>2022-05-02T13:57:39Z</time>
      </trkpt>
      <trkpt lat="46.66443" lon="5.44242">
        <ele>217.8</ele>
        <time>2022-05-02T13:57:41Z</time>
      </trkpt>
      <trkpt lat="46.66455" lon="5.4428">
        <ele>218</ele>
        <time>2022-05-02T13:57:45Z</time>
      </trkpt>
      <trkpt lat="46.66458" lon="5.44291">
        <ele>218.2</ele>
        <time>2022-05-02T13:57:46Z</time>
      </trkpt>
      <trkpt lat="46.66476" lon="5.44358">
        <ele>218.6</ele>
        <time>2022-05-02T13:57:53Z</time>
      </trkpt>
      <trkpt lat="46.66487" lon="5.4444">
        <ele>218.8</ele>
        <time>2022-05-02T13:58:01Z</time>
      </trkpt>
      <trkpt lat="46.66492" lon="5.44512">
        <ele>218.8</ele>
        <time>2022-05-02T13:58:08Z</time>
      </trkpt>
      <trkpt lat="46.66497" lon="5.44593">
        <ele>219</ele>
        <time>2022-05-02T13:58:16Z</time>
      </trkpt>
      <trkpt lat="46.66501" lon="5.44654">
        <ele>219.2</ele>
        <time>2022-05-02T13:58:22Z</time>
      </trkpt>
      <trkpt lat="46.66505" lon="5.44704">
        <ele>219.6</ele>
        <time>2022-05-02T13:58:27Z</time>
      </trkpt>
      <trkpt lat="46.66507" lon="5.44733">
        <ele>219.8</ele>
        <time>2022-05-02T13:58:30Z</time>
      </trkpt>
      <trkpt lat="46.6651" lon="5.44794">
        <ele>219.8</ele>
        <time>2022-05-02T13:58:36Z</time>
      </trkpt>
      <trkpt lat="46.6651" lon="5.44866">
        <ele>219.6</ele>
        <time>2022-05-02T13:58:43Z</time>
      </trkpt>
      <trkpt lat="46.66503" lon="5.44946">
        <ele>219.6</ele>
        <time>2022-05-02T13:58:51Z</time>
      </trkpt>
      <trkpt lat="46.66503" lon="5.44956">
        <ele>219.6</ele>
        <time>2022-05-02T13:58:52Z</time>
      </trkpt>
      <trkpt lat="46.66494" lon="5.45042">
        <ele>220</ele>
        <time>2022-05-02T13:59:01Z</time>
      </trkpt>
      <trkpt lat="46.66486" lon="5.45116">
        <ele>220</ele>
        <time>2022-05-02T13:59:09Z</time>
      </trkpt>
      <trkpt lat="46.66479" lon="5.45198">
        <ele>220.8</ele>
        <time>2022-05-02T13:59:18Z</time>
      </trkpt>
      <trkpt lat="46.66479" lon="5.45207">
        <ele>220.8</ele>
        <time>2022-05-02T13:59:19Z</time>
      </trkpt>
      <trkpt lat="46.66473" lon="5.45291">
        <ele>221.6</ele>
        <time>2022-05-02T13:59:28Z</time>
      </trkpt>
      <trkpt lat="46.66472" lon="5.45309">
        <ele>222</ele>
        <time>2022-05-02T13:59:30Z</time>
      </trkpt>
      <trkpt lat="46.66469" lon="5.45364">
        <ele>222.4</ele>
        <time>2022-05-02T13:59:36Z</time>
      </trkpt>
      <trkpt lat="46.66463" lon="5.45447">
        <ele>223</ele>
        <time>2022-05-02T13:59:45Z</time>
      </trkpt>
      <trkpt lat="46.66462" lon="5.45466">
        <ele>223.2</ele>
        <time>2022-05-02T13:59:47Z</time>
      </trkpt>
      <trkpt lat="46.66457" lon="5.4554">
        <ele>224.2</ele>
        <time>2022-05-02T13:59:55Z</time>
      </trkpt>
      <trkpt lat="46.66452" lon="5.45622">
        <ele>224.8</ele>
        <time>2022-05-02T14:00:04Z</time>
      </trkpt>
      <trkpt lat="46.66452" lon="5.45632">
        <ele>224.8</ele>
        <time>2022-05-02T14:00:05Z</time>
      </trkpt>
      <trkpt lat="46.6645" lon="5.45661">
        <ele>225</ele>
        <time>2022-05-02T14:00:08Z</time>
      </trkpt>
      <trkpt lat="46.66447" lon="5.457">
        <ele>225.2</ele>
        <time>2022-05-02T14:00:12Z</time>
      </trkpt>
      <trkpt lat="46.66444" lon="5.45758">
        <ele>226</ele>
        <time>2022-05-02T14:00:18Z</time>
      </trkpt>
      <trkpt lat="46.66443" lon="5.45801">
        <ele>226.2</ele>
        <time>2022-05-02T14:00:23Z</time>
      </trkpt>
      <trkpt lat="46.66441" lon="5.45814">
        <ele>226</ele>
        <time>2022-05-02T14:00:25Z</time>
      </trkpt>
      <trkpt lat="46.66439" lon="5.45817">
        <ele>226</ele>
        <time>2022-05-02T14:00:26Z</time>
      </trkpt>
      <trkpt lat="46.66432" lon="5.45811">
        <ele>225.8</ele>
        <time>2022-05-02T14:00:29Z</time>
      </trkpt>
      <trkpt lat="46.66427" lon="5.45799">
        <ele>225.8</ele>
        <time>2022-05-02T14:00:31Z</time>
      </trkpt>
      <trkpt lat="46.6642" lon="5.45786">
        <ele>225.6</ele>
        <time>2022-05-02T14:00:33Z</time>
      </trkpt>
      <trkpt lat="46.66397" lon="5.45738">
        <ele>225.4</ele>
        <time>2022-05-02T14:00:39Z</time>
      </trkpt>
      <trkpt lat="46.66365" lon="5.45674">
        <ele>225.6</ele>
        <time>2022-05-02T14:00:47Z</time>
      </trkpt>
      <trkpt lat="46.66361" lon="5.45666">
        <ele>225.6</ele>
        <time>2022-05-02T14:00:48Z</time>
      </trkpt>
      <trkpt lat="46.66329" lon="5.45609">
        <ele>226.2</ele>
        <time>2022-05-02T14:00:56Z</time>
      </trkpt>
      <trkpt lat="46.66299" lon="5.45574">
        <ele>227</ele>
        <time>2022-05-02T14:01:02Z</time>
      </trkpt>
      <trkpt lat="46.66293" lon="5.45568">
        <ele>227.4</ele>
        <time>2022-05-02T14:01:03Z</time>
      </trkpt>
      <trkpt lat="46.66257" lon="5.45535">
        <ele>227.4</ele>
        <time>2022-05-02T14:01:09Z</time>
      </trkpt>
      <trkpt lat="46.66244" lon="5.45526">
        <ele>227.2</ele>
        <time>2022-05-02T14:01:11Z</time>
      </trkpt>
      <trkpt lat="46.66224" lon="5.45515">
        <ele>227</ele>
        <time>2022-05-02T14:01:14Z</time>
      </trkpt>
      <trkpt lat="46.66171" lon="5.45493">
        <ele>227.6</ele>
        <time>2022-05-02T14:01:22Z</time>
      </trkpt>
      <trkpt lat="46.66127" lon="5.45474">
        <ele>228.2</ele>
        <time>2022-05-02T14:01:29Z</time>
      </trkpt>
      <trkpt lat="46.66115" lon="5.45466">
        <ele>228.4</ele>
        <time>2022-05-02T14:01:31Z</time>
      </trkpt>
      <trkpt lat="46.66098" lon="5.45452">
        <ele>228.4</ele>
        <time>2022-05-02T14:01:34Z</time>
      </trkpt>
      <trkpt lat="46.66093" lon="5.45447">
        <ele>228.4</ele>
        <time>2022-05-02T14:01:35Z</time>
      </trkpt>
      <trkpt lat="46.66073" lon="5.45422">
        <ele>229.4</ele>
        <time>2022-05-02T14:01:39Z</time>
      </trkpt>
      <trkpt lat="46.6606" lon="5.45403">
        <ele>229.8</ele>
        <time>2022-05-02T14:01:42Z</time>
      </trkpt>
      <trkpt lat="46.66039" lon="5.45369">
        <ele>230.4</ele>
        <time>2022-05-02T14:01:47Z</time>
      </trkpt>
      <trkpt lat="46.66026" lon="5.45348">
        <ele>230.8</ele>
        <time>2022-05-02T14:01:50Z</time>
      </trkpt>
      <trkpt lat="46.66002" lon="5.45304">
        <ele>231.2</ele>
        <time>2022-05-02T14:01:56Z</time>
      </trkpt>
      <trkpt lat="46.65999" lon="5.45295">
        <ele>231.4</ele>
        <time>2022-05-02T14:01:57Z</time>
      </trkpt>
      <trkpt lat="46.65974" lon="5.45238">
        <ele>231.2</ele>
        <time>2022-05-02T14:02:04Z</time>
      </trkpt>
      <trkpt lat="46.65943" lon="5.45204">
        <ele>231.4</ele>
        <time>2022-05-02T14:02:10Z</time>
      </trkpt>
      <trkpt lat="46.6591" lon="5.4517">
        <ele>230.8</ele>
        <time>2022-05-02T14:02:16Z</time>
      </trkpt>
      <trkpt lat="46.65869" lon="5.45114">
        <ele>231</ele>
        <time>2022-05-02T14:02:24Z</time>
      </trkpt>
      <trkpt lat="46.6584" lon="5.45083">
        <ele>230.8</ele>
        <time>2022-05-02T14:02:29Z</time>
      </trkpt>
      <trkpt lat="46.65798" lon="5.4504">
        <ele>229.8</ele>
        <time>2022-05-02T14:02:35Z</time>
      </trkpt>
      <trkpt lat="46.65792" lon="5.45032">
        <ele>229.6</ele>
        <time>2022-05-02T14:02:36Z</time>
      </trkpt>
      <trkpt lat="46.65782" lon="5.45016">
        <ele>229.2</ele>
        <time>2022-05-02T14:02:38Z</time>
      </trkpt>
      <trkpt lat="46.65777" lon="5.45007">
        <ele>229.2</ele>
        <time>2022-05-02T14:02:39Z</time>
      </trkpt>
      <trkpt lat="46.65774" lon="5.44998">
        <ele>229.2</ele>
        <time>2022-05-02T14:02:40Z</time>
      </trkpt>
      <trkpt lat="46.65771" lon="5.44979">
        <ele>229.2</ele>
        <time>2022-05-02T14:02:42Z</time>
      </trkpt>
      <trkpt lat="46.65767" lon="5.4491">
        <ele>230.2</ele>
        <time>2022-05-02T14:02:49Z</time>
      </trkpt>
      <trkpt lat="46.65764" lon="5.44872">
        <ele>230.6</ele>
        <time>2022-05-02T14:02:53Z</time>
      </trkpt>
      <trkpt lat="46.65758" lon="5.44843">
        <ele>231</ele>
        <time>2022-05-02T14:02:56Z</time>
      </trkpt>
      <trkpt lat="46.65745" lon="5.44796">
        <ele>231.6</ele>
        <time>2022-05-02T14:03:00Z</time>
      </trkpt>
      <trkpt lat="46.65741" lon="5.44776">
        <ele>231.8</ele>
        <time>2022-05-02T14:03:02Z</time>
      </trkpt>
      <trkpt lat="46.65733" lon="5.44729">
        <ele>232.2</ele>
        <time>2022-05-02T14:03:07Z</time>
      </trkpt>
      <trkpt lat="46.65728" lon="5.44702">
        <ele>232.2</ele>
        <time>2022-05-02T14:03:10Z</time>
      </trkpt>
      <trkpt lat="46.65721" lon="5.44685">
        <ele>232.2</ele>
        <time>2022-05-02T14:03:12Z</time>
      </trkpt>
      <trkpt lat="46.65712" lon="5.4467">
        <ele>232.2</ele>
        <time>2022-05-02T14:03:14Z</time>
      </trkpt>
      <trkpt lat="46.65685" lon="5.44632">
        <ele>231.8</ele>
        <time>2022-05-02T14:03:19Z</time>
      </trkpt>
      <trkpt lat="46.65646" lon="5.4458">
        <ele>231.4</ele>
        <time>2022-05-02T14:03:26Z</time>
      </trkpt>
      <trkpt lat="46.65599" lon="5.44527">
        <ele>231.2</ele>
        <time>2022-05-02T14:03:34Z</time>
      </trkpt>
      <trkpt lat="46.65593" lon="5.44521">
        <ele>231.2</ele>
        <time>2022-05-02T14:03:35Z</time>
      </trkpt>
      <trkpt lat="46.65574" lon="5.44503">
        <ele>231.2</ele>
        <time>2022-05-02T14:03:38Z</time>
      </trkpt>
      <trkpt lat="46.65559" lon="5.44497">
        <ele>230.8</ele>
        <time>2022-05-02T14:03:40Z</time>
      </trkpt>
      <trkpt lat="46.65534" lon="5.44492">
        <ele>230.4</ele>
        <time>2022-05-02T14:03:43Z</time>
      </trkpt>
      <trkpt lat="46.65526" lon="5.4449">
        <ele>230.4</ele>
        <time>2022-05-02T14:03:44Z</time>
      </trkpt>
      <trkpt lat="46.6551" lon="5.44482">
        <ele>230</ele>
        <time>2022-05-02T14:03:46Z</time>
      </trkpt>
      <trkpt lat="46.65463" lon="5.44452">
        <ele>229.6</ele>
        <time>2022-05-02T14:03:52Z</time>
      </trkpt>
      <trkpt lat="46.65456" lon="5.44445">
        <ele>229.4</ele>
        <time>2022-05-02T14:03:53Z</time>
      </trkpt>
      <trkpt lat="46.6545" lon="5.44437">
        <ele>229.4</ele>
        <time>2022-05-02T14:03:54Z</time>
      </trkpt>
      <trkpt lat="46.65433" lon="5.44411">
        <ele>229.2</ele>
        <time>2022-05-02T14:03:57Z</time>
      </trkpt>
      <trkpt lat="46.65394" lon="5.44355">
        <ele>229.4</ele>
        <time>2022-05-02T14:04:04Z</time>
      </trkpt>
      <trkpt lat="46.65352" lon="5.44309">
        <ele>229.8</ele>
        <time>2022-05-02T14:04:11Z</time>
      </trkpt>
      <trkpt lat="46.65346" lon="5.44303">
        <ele>229.8</ele>
        <time>2022-05-02T14:04:12Z</time>
      </trkpt>
      <trkpt lat="46.65312" lon="5.44277">
        <ele>230</ele>
        <time>2022-05-02T14:04:17Z</time>
      </trkpt>
      <trkpt lat="46.65257" lon="5.44236">
        <ele>230</ele>
        <time>2022-05-02T14:04:25Z</time>
      </trkpt>
      <trkpt lat="46.65225" lon="5.44193">
        <ele>230</ele>
        <time>2022-05-02T14:04:31Z</time>
      </trkpt>
      <trkpt lat="46.65201" lon="5.44158">
        <ele>230</ele>
        <time>2022-05-02T14:04:36Z</time>
      </trkpt>
      <trkpt lat="46.65197" lon="5.4415">
        <ele>230.2</ele>
        <time>2022-05-02T14:04:37Z</time>
      </trkpt>
      <trkpt lat="46.65164" lon="5.44095">
        <ele>230.2</ele>
        <time>2022-05-02T14:04:44Z</time>
      </trkpt>
      <trkpt lat="46.65122" lon="5.44037">
        <ele>230.2</ele>
        <time>2022-05-02T14:04:52Z</time>
      </trkpt>
      <trkpt lat="46.65105" lon="5.44018">
        <ele>230.2</ele>
        <time>2022-05-02T14:04:55Z</time>
      </trkpt>
      <trkpt lat="46.65098" lon="5.44014">
        <ele>230.2</ele>
        <time>2022-05-02T14:04:56Z</time>
      </trkpt>
      <trkpt lat="46.65084" lon="5.44009">
        <ele>230.2</ele>
        <time>2022-05-02T14:04:58Z</time>
      </trkpt>
      <trkpt lat="46.65069" lon="5.44009">
        <ele>230.2</ele>
        <time>2022-05-02T14:05:00Z</time>
      </trkpt>
      <trkpt lat="46.65053" lon="5.44009">
        <ele>230</ele>
        <time>2022-05-02T14:05:02Z</time>
      </trkpt>
      <trkpt lat="46.65038" lon="5.44004">
        <ele>230</ele>
        <time>2022-05-02T14:05:04Z</time>
      </trkpt>
      <trkpt lat="46.65031" lon="5.43999">
        <ele>230</ele>
        <time>2022-05-02T14:05:05Z</time>
      </trkpt>
      <trkpt lat="46.65017" lon="5.43988">
        <ele>230</ele>
        <time>2022-05-02T14:05:07Z</time>
      </trkpt>
      <trkpt lat="46.64998" lon="5.43968">
        <ele>229.8</ele>
        <time>2022-05-02T14:05:10Z</time>
      </trkpt>
      <trkpt lat="46.64953" lon="5.43922">
        <ele>229.2</ele>
        <time>2022-05-02T14:05:17Z</time>
      </trkpt>
      <trkpt lat="46.64933" lon="5.43903">
        <ele>228.8</ele>
        <time>2022-05-02T14:05:20Z</time>
      </trkpt>
      <trkpt lat="46.64927" lon="5.43898">
        <ele>228.4</ele>
        <time>2022-05-02T14:05:21Z</time>
      </trkpt>
      <trkpt lat="46.64907" lon="5.4388">
        <ele>227.8</ele>
        <time>2022-05-02T14:05:24Z</time>
      </trkpt>
      <trkpt lat="46.649" lon="5.43876">
        <ele>227.6</ele>
        <time>2022-05-02T14:05:25Z</time>
      </trkpt>
      <trkpt lat="46.64893" lon="5.43871">
        <ele>227.2</ele>
        <time>2022-05-02T14:05:26Z</time>
      </trkpt>
      <trkpt lat="46.64873" lon="5.43851">
        <ele>227</ele>
        <time>2022-05-02T14:05:29Z</time>
      </trkpt>
      <trkpt lat="46.64853" lon="5.43833">
        <ele>226.2</ele>
        <time>2022-05-02T14:05:32Z</time>
      </trkpt>
      <trkpt lat="46.64834" lon="5.43814">
        <ele>226</ele>
        <time>2022-05-02T14:05:35Z</time>
      </trkpt>
      <trkpt lat="46.64824" lon="5.43799">
        <ele>226.2</ele>
        <time>2022-05-02T14:05:37Z</time>
      </trkpt>
      <trkpt lat="46.64816" lon="5.43781">
        <ele>226.4</ele>
        <time>2022-05-02T14:05:39Z</time>
      </trkpt>
      <trkpt lat="46.64805" lon="5.43732">
        <ele>227.4</ele>
        <time>2022-05-02T14:05:44Z</time>
      </trkpt>
      <trkpt lat="46.64799" lon="5.43715">
        <ele>227.6</ele>
        <time>2022-05-02T14:05:46Z</time>
      </trkpt>
      <trkpt lat="46.64792" lon="5.437">
        <ele>227.8</ele>
        <time>2022-05-02T14:05:48Z</time>
      </trkpt>
      <trkpt lat="46.64782" lon="5.43688">
        <ele>228.6</ele>
        <time>2022-05-02T14:05:50Z</time>
      </trkpt>
      <trkpt lat="46.6477" lon="5.43679">
        <ele>229.2</ele>
        <time>2022-05-02T14:05:52Z</time>
      </trkpt>
      <trkpt lat="46.64723" lon="5.43652">
        <ele>229.4</ele>
        <time>2022-05-02T14:05:59Z</time>
      </trkpt>
      <trkpt lat="46.64685" lon="5.43629">
        <ele>229.2</ele>
        <time>2022-05-02T14:06:04Z</time>
      </trkpt>
      <trkpt lat="46.64677" lon="5.43623">
        <ele>229</ele>
        <time>2022-05-02T14:06:05Z</time>
      </trkpt>
      <trkpt lat="46.64638" lon="5.43591">
        <ele>228</ele>
        <time>2022-05-02T14:06:10Z</time>
      </trkpt>
      <trkpt lat="46.64622" lon="5.4358">
        <ele>227.6</ele>
        <time>2022-05-02T14:06:12Z</time>
      </trkpt>
      <trkpt lat="46.64613" lon="5.43576">
        <ele>227.4</ele>
        <time>2022-05-02T14:06:13Z</time>
      </trkpt>
      <trkpt lat="46.64605" lon="5.43574">
        <ele>226.8</ele>
        <time>2022-05-02T14:06:14Z</time>
      </trkpt>
      <trkpt lat="46.64587" lon="5.43568">
        <ele>226.2</ele>
        <time>2022-05-02T14:06:16Z</time>
      </trkpt>
      <trkpt lat="46.6456" lon="5.43554">
        <ele>225.6</ele>
        <time>2022-05-02T14:06:19Z</time>
      </trkpt>
      <trkpt lat="46.64544" lon="5.43539">
        <ele>225.2</ele>
        <time>2022-05-02T14:06:21Z</time>
      </trkpt>
      <trkpt lat="46.64521" lon="5.43513">
        <ele>224.4</ele>
        <time>2022-05-02T14:06:24Z</time>
      </trkpt>
      <trkpt lat="46.64505" lon="5.43497">
        <ele>224</ele>
        <time>2022-05-02T14:06:26Z</time>
      </trkpt>
      <trkpt lat="46.64457" lon="5.4345">
        <ele>223.4</ele>
        <time>2022-05-02T14:06:32Z</time>
      </trkpt>
      <trkpt lat="46.64448" lon="5.43444">
        <ele>223.2</ele>
        <time>2022-05-02T14:06:33Z</time>
      </trkpt>
      <trkpt lat="46.64439" lon="5.4344">
        <ele>223.2</ele>
        <time>2022-05-02T14:06:34Z</time>
      </trkpt>
      <trkpt lat="46.6443" lon="5.43436">
        <ele>223</ele>
        <time>2022-05-02T14:06:35Z</time>
      </trkpt>
      <trkpt lat="46.64411" lon="5.43431">
        <ele>222.8</ele>
        <time>2022-05-02T14:06:37Z</time>
      </trkpt>
      <trkpt lat="46.64355" lon="5.43407">
        <ele>222.2</ele>
        <time>2022-05-02T14:06:43Z</time>
      </trkpt>
      <trkpt lat="46.64338" lon="5.43395">
        <ele>221.8</ele>
        <time>2022-05-02T14:06:45Z</time>
      </trkpt>
      <trkpt lat="46.64322" lon="5.4338">
        <ele>221.8</ele>
        <time>2022-05-02T14:06:47Z</time>
      </trkpt>
      <trkpt lat="46.64315" lon="5.43371">
        <ele>221.6</ele>
        <time>2022-05-02T14:06:48Z</time>
      </trkpt>
      <trkpt lat="46.64296" lon="5.43344">
        <ele>221.6</ele>
        <time>2022-05-02T14:06:51Z</time>
      </trkpt>
      <trkpt lat="46.64264" lon="5.43291">
        <ele>221.8</ele>
        <time>2022-05-02T14:06:57Z</time>
      </trkpt>
      <trkpt lat="46.64233" lon="5.43242">
        <ele>223</ele>
        <time>2022-05-02T14:07:03Z</time>
      </trkpt>
      <trkpt lat="46.64224" lon="5.43225">
        <ele>223.2</ele>
        <time>2022-05-02T14:07:05Z</time>
      </trkpt>
      <trkpt lat="46.64205" lon="5.43183">
        <ele>224.2</ele>
        <time>2022-05-02T14:07:10Z</time>
      </trkpt>
      <trkpt lat="46.64202" lon="5.43175">
        <ele>224.4</ele>
        <time>2022-05-02T14:07:11Z</time>
      </trkpt>
      <trkpt lat="46.64191" lon="5.4314">
        <ele>225.6</ele>
        <time>2022-05-02T14:07:15Z</time>
      </trkpt>
      <trkpt lat="46.64189" lon="5.4313">
        <ele>225.8</ele>
        <time>2022-05-02T14:07:16Z</time>
      </trkpt>
      <trkpt lat="46.64188" lon="5.43119">
        <ele>226.2</ele>
        <time>2022-05-02T14:07:17Z</time>
      </trkpt>
      <trkpt lat="46.64188" lon="5.43108">
        <ele>226.2</ele>
        <time>2022-05-02T14:07:18Z</time>
      </trkpt>
      <trkpt lat="46.6419" lon="5.43086">
        <ele>226.4</ele>
        <time>2022-05-02T14:07:20Z</time>
      </trkpt>
      <trkpt lat="46.64193" lon="5.43075">
        <ele>226.4</ele>
        <time>2022-05-02T14:07:21Z</time>
      </trkpt>
      <trkpt lat="46.64211" lon="5.43011">
        <ele>226.2</ele>
        <time>2022-05-02T14:07:27Z</time>
      </trkpt>
      <trkpt lat="46.64213" lon="5.43">
        <ele>226.2</ele>
        <time>2022-05-02T14:07:28Z</time>
      </trkpt>
      <trkpt lat="46.64213" lon="5.42977">
        <ele>226</ele>
        <time>2022-05-02T14:07:30Z</time>
      </trkpt>
      <trkpt lat="46.64207" lon="5.42955">
        <ele>225.4</ele>
        <time>2022-05-02T14:07:32Z</time>
      </trkpt>
      <trkpt lat="46.64199" lon="5.42933">
        <ele>225.2</ele>
        <time>2022-05-02T14:07:34Z</time>
      </trkpt>
      <trkpt lat="46.64173" lon="5.42859">
        <ele>224.8</ele>
        <time>2022-05-02T14:07:41Z</time>
      </trkpt>
      <trkpt lat="46.64145" lon="5.42807">
        <ele>224.8</ele>
        <time>2022-05-02T14:07:47Z</time>
      </trkpt>
      <trkpt lat="46.64132" lon="5.42796">
        <ele>224.6</ele>
        <time>2022-05-02T14:07:49Z</time>
      </trkpt>
      <trkpt lat="46.64118" lon="5.42787">
        <ele>224.8</ele>
        <time>2022-05-02T14:07:51Z</time>
      </trkpt>
      <trkpt lat="46.64103" lon="5.42779">
        <ele>224.6</ele>
        <time>2022-05-02T14:07:53Z</time>
      </trkpt>
      <trkpt lat="46.64077" lon="5.42755">
        <ele>224.2</ele>
        <time>2022-05-02T14:07:57Z</time>
      </trkpt>
      <trkpt lat="46.64044" lon="5.42711">
        <ele>224.4</ele>
        <time>2022-05-02T14:08:03Z</time>
      </trkpt>
      <trkpt lat="46.64012" lon="5.42652">
        <ele>225.2</ele>
        <time>2022-05-02T14:08:10Z</time>
      </trkpt>
      <trkpt lat="46.64003" lon="5.42635">
        <ele>225.2</ele>
        <time>2022-05-02T14:08:12Z</time>
      </trkpt>
      <trkpt lat="46.63992" lon="5.42622">
        <ele>225.2</ele>
        <time>2022-05-02T14:08:14Z</time>
      </trkpt>
      <trkpt lat="46.63968" lon="5.426">
        <ele>225.8</ele>
        <time>2022-05-02T14:08:18Z</time>
      </trkpt>
      <trkpt lat="46.63951" lon="5.42581">
        <ele>226</ele>
        <time>2022-05-02T14:08:21Z</time>
      </trkpt>
      <trkpt lat="46.63909" lon="5.42531">
        <ele>226.6</ele>
        <time>2022-05-02T14:08:29Z</time>
      </trkpt>
      <trkpt lat="46.63904" lon="5.42523">
        <ele>226.8</ele>
        <time>2022-05-02T14:08:30Z</time>
      </trkpt>
      <trkpt lat="46.639" lon="5.42515">
        <ele>226.8</ele>
        <time>2022-05-02T14:08:31Z</time>
      </trkpt>
      <trkpt lat="46.63895" lon="5.42498">
        <ele>227</ele>
        <time>2022-05-02T14:08:33Z</time>
      </trkpt>
      <trkpt lat="46.63893" lon="5.42488">
        <ele>227.2</ele>
        <time>2022-05-02T14:08:34Z</time>
      </trkpt>
      <trkpt lat="46.63891" lon="5.42479">
        <ele>227.4</ele>
        <time>2022-05-02T14:08:35Z</time>
      </trkpt>
      <trkpt lat="46.63881" lon="5.42454">
        <ele>227.6</ele>
        <time>2022-05-02T14:08:38Z</time>
      </trkpt>
      <trkpt lat="46.6387" lon="5.42432">
        <ele>227.8</ele>
        <time>2022-05-02T14:08:42Z</time>
      </trkpt>
      <trkpt lat="46.63849" lon="5.42397">
        <ele>228.6</ele>
        <time>2022-05-02T14:08:46Z</time>
      </trkpt>
      <trkpt lat="46.6384" lon="5.42381">
        <ele>229</ele>
        <time>2022-05-02T14:08:48Z</time>
      </trkpt>
      <trkpt lat="46.63811" lon="5.42336">
        <ele>229.2</ele>
        <time>2022-05-02T14:08:54Z</time>
      </trkpt>
      <trkpt lat="46.63774" lon="5.42299">
        <ele>229.2</ele>
        <time>2022-05-02T14:09:00Z</time>
      </trkpt>
      <trkpt lat="46.63762" lon="5.42285">
        <ele>229</ele>
        <time>2022-05-02T14:09:02Z</time>
      </trkpt>
      <trkpt lat="46.63755" lon="5.42267">
        <ele>229</ele>
        <time>2022-05-02T14:09:04Z</time>
      </trkpt>
      <trkpt lat="46.63753" lon="5.42237">
        <ele>228.8</ele>
        <time>2022-05-02T14:09:07Z</time>
      </trkpt>
      <trkpt lat="46.63747" lon="5.42221">
        <ele>229</ele>
        <time>2022-05-02T14:09:09Z</time>
      </trkpt>
      <trkpt lat="46.63742" lon="5.42214">
        <ele>229</ele>
        <time>2022-05-02T14:09:10Z</time>
      </trkpt>
      <trkpt lat="46.63697" lon="5.42177">
        <ele>229</ele>
        <time>2022-05-02T14:09:17Z</time>
      </trkpt>
      <trkpt lat="46.63647" lon="5.42147">
        <ele>229</ele>
        <time>2022-05-02T14:09:24Z</time>
      </trkpt>
      <trkpt lat="46.63615" lon="5.42132">
        <ele>228.6</ele>
        <time>2022-05-02T14:09:28Z</time>
      </trkpt>
      <trkpt lat="46.63607" lon="5.42126">
        <ele>228.6</ele>
        <time>2022-05-02T14:09:29Z</time>
      </trkpt>
      <trkpt lat="46.63601" lon="5.42118">
        <ele>228.4</ele>
        <time>2022-05-02T14:09:30Z</time>
      </trkpt>
      <trkpt lat="46.63597" lon="5.42107">
        <ele>228.2</ele>
        <time>2022-05-02T14:09:31Z</time>
      </trkpt>
      <trkpt lat="46.63593" lon="5.42095">
        <ele>227.8</ele>
        <time>2022-05-02T14:09:32Z</time>
      </trkpt>
      <trkpt lat="46.63589" lon="5.42083">
        <ele>227.8</ele>
        <time>2022-05-02T14:09:33Z</time>
      </trkpt>
      <trkpt lat="46.63577" lon="5.42063">
        <ele>227.4</ele>
        <time>2022-05-02T14:09:35Z</time>
      </trkpt>
      <trkpt lat="46.6355" lon="5.42034">
        <ele>226.6</ele>
        <time>2022-05-02T14:09:39Z</time>
      </trkpt>
      <trkpt lat="46.63519" lon="5.42017">
        <ele>226.4</ele>
        <time>2022-05-02T14:09:43Z</time>
      </trkpt>
      <trkpt lat="46.63476" lon="5.41982">
        <ele>226.4</ele>
        <time>2022-05-02T14:09:49Z</time>
      </trkpt>
      <trkpt lat="46.63431" lon="5.41953">
        <ele>226</ele>
        <time>2022-05-02T14:09:55Z</time>
      </trkpt>
      <trkpt lat="46.634" lon="5.41934">
        <ele>225.6</ele>
        <time>2022-05-02T14:09:59Z</time>
      </trkpt>
      <trkpt lat="46.63393" lon="5.41928">
        <ele>225.4</ele>
        <time>2022-05-02T14:10:00Z</time>
      </trkpt>
      <trkpt lat="46.63351" lon="5.41885">
        <ele>224.8</ele>
        <time>2022-05-02T14:10:06Z</time>
      </trkpt>
      <trkpt lat="46.63345" lon="5.41876">
        <ele>224.6</ele>
        <time>2022-05-02T14:10:07Z</time>
      </trkpt>
      <trkpt lat="46.63304" lon="5.41819">
        <ele>224.2</ele>
        <time>2022-05-02T14:10:14Z</time>
      </trkpt>
      <trkpt lat="46.63298" lon="5.41811">
        <ele>224.2</ele>
        <time>2022-05-02T14:10:15Z</time>
      </trkpt>
      <trkpt lat="46.63274" lon="5.41773">
        <ele>224.4</ele>
        <time>2022-05-02T14:10:20Z</time>
      </trkpt>
      <trkpt lat="46.63237" lon="5.41724">
        <ele>225.6</ele>
        <time>2022-05-02T14:10:27Z</time>
      </trkpt>
      <trkpt lat="46.63216" lon="5.41689">
        <ele>225.6</ele>
        <time>2022-05-02T14:10:31Z</time>
      </trkpt>
      <trkpt lat="46.63185" lon="5.41621">
        <ele>225</ele>
        <time>2022-05-02T14:10:38Z</time>
      </trkpt>
      <trkpt lat="46.63154" lon="5.41557">
        <ele>224.6</ele>
        <time>2022-05-02T14:10:45Z</time>
      </trkpt>
      <trkpt lat="46.63122" lon="5.41484">
        <ele>224.8</ele>
        <time>2022-05-02T14:10:53Z</time>
      </trkpt>
      <trkpt lat="46.63118" lon="5.41475">
        <ele>224.8</ele>
        <time>2022-05-02T14:10:54Z</time>
      </trkpt>
      <trkpt lat="46.63081" lon="5.41423">
        <ele>224.8</ele>
        <time>2022-05-02T14:11:01Z</time>
      </trkpt>
      <trkpt lat="46.63047" lon="5.41383">
        <ele>225</ele>
        <time>2022-05-02T14:11:07Z</time>
      </trkpt>
      <trkpt lat="46.63012" lon="5.41356">
        <ele>225.2</ele>
        <time>2022-05-02T14:11:12Z</time>
      </trkpt>
      <trkpt lat="46.62966" lon="5.41336">
        <ele>224.6</ele>
        <time>2022-05-02T14:11:17Z</time>
      </trkpt>
      <trkpt lat="46.62936" lon="5.41323">
        <ele>223.6</ele>
        <time>2022-05-02T14:11:20Z</time>
      </trkpt>
      <trkpt lat="46.62915" lon="5.41315">
        <ele>222.4</ele>
        <time>2022-05-02T14:11:22Z</time>
      </trkpt>
      <trkpt lat="46.62894" lon="5.41306">
        <ele>221.8</ele>
        <time>2022-05-02T14:11:24Z</time>
      </trkpt>
      <trkpt lat="46.62883" lon="5.41301">
        <ele>221.2</ele>
        <time>2022-05-02T14:11:25Z</time>
      </trkpt>
      <trkpt lat="46.62861" lon="5.41292">
        <ele>220</ele>
        <time>2022-05-02T14:11:27Z</time>
      </trkpt>
      <trkpt lat="46.62839" lon="5.41282">
        <ele>218.8</ele>
        <time>2022-05-02T14:11:29Z</time>
      </trkpt>
      <trkpt lat="46.62817" lon="5.41272">
        <ele>217.8</ele>
        <time>2022-05-02T14:11:31Z</time>
      </trkpt>
      <trkpt lat="46.62774" lon="5.41253">
        <ele>216.2</ele>
        <time>2022-05-02T14:11:35Z</time>
      </trkpt>
      <trkpt lat="46.62753" lon="5.41244">
        <ele>215.2</ele>
        <time>2022-05-02T14:11:37Z</time>
      </trkpt>
      <trkpt lat="46.62732" lon="5.41235">
        <ele>214</ele>
        <time>2022-05-02T14:11:39Z</time>
      </trkpt>
      <trkpt lat="46.62721" lon="5.4123">
        <ele>213.2</ele>
        <time>2022-05-02T14:11:40Z</time>
      </trkpt>
      <trkpt lat="46.62711" lon="5.41226">
        <ele>213</ele>
        <time>2022-05-02T14:11:41Z</time>
      </trkpt>
      <trkpt lat="46.6268" lon="5.41213">
        <ele>211.8</ele>
        <time>2022-05-02T14:11:44Z</time>
      </trkpt>
      <trkpt lat="46.62629" lon="5.41191">
        <ele>210.6</ele>
        <time>2022-05-02T14:11:49Z</time>
      </trkpt>
      <trkpt lat="46.62589" lon="5.41174">
        <ele>209.4</ele>
        <time>2022-05-02T14:11:53Z</time>
      </trkpt>
      <trkpt lat="46.62559" lon="5.41161">
        <ele>208.8</ele>
        <time>2022-05-02T14:11:56Z</time>
      </trkpt>
      <trkpt lat="46.6254" lon="5.41152">
        <ele>208.4</ele>
        <time>2022-05-02T14:11:58Z</time>
      </trkpt>
      <trkpt lat="46.62492" lon="5.41127">
        <ele>207.6</ele>
        <time>2022-05-02T14:12:03Z</time>
      </trkpt>
      <trkpt lat="46.62484" lon="5.41119">
        <ele>207.4</ele>
        <time>2022-05-02T14:12:04Z</time>
      </trkpt>
      <trkpt lat="46.62476" lon="5.41111">
        <ele>207.2</ele>
        <time>2022-05-02T14:12:05Z</time>
      </trkpt>
      <trkpt lat="46.6247" lon="5.41101">
        <ele>207</ele>
        <time>2022-05-02T14:12:06Z</time>
      </trkpt>
      <trkpt lat="46.62458" lon="5.4108">
        <ele>206.8</ele>
        <time>2022-05-02T14:12:08Z</time>
      </trkpt>
      <trkpt lat="46.62448" lon="5.41056">
        <ele>206.4</ele>
        <time>2022-05-02T14:12:10Z</time>
      </trkpt>
      <trkpt lat="46.62439" lon="5.41033">
        <ele>206.2</ele>
        <time>2022-05-02T14:12:12Z</time>
      </trkpt>
      <trkpt lat="46.62413" lon="5.40966">
        <ele>205.4</ele>
        <time>2022-05-02T14:12:18Z</time>
      </trkpt>
      <trkpt lat="46.62408" lon="5.40955">
        <ele>205.2</ele>
        <time>2022-05-02T14:12:19Z</time>
      </trkpt>
      <trkpt lat="46.62403" lon="5.40945">
        <ele>205</ele>
        <time>2022-05-02T14:12:20Z</time>
      </trkpt>
      <trkpt lat="46.62391" lon="5.40927">
        <ele>204.8</ele>
        <time>2022-05-02T14:12:22Z</time>
      </trkpt>
      <trkpt lat="46.62348" lon="5.40884">
        <ele>204.4</ele>
        <time>2022-05-02T14:12:28Z</time>
      </trkpt>
      <trkpt lat="46.62328" lon="5.4086">
        <ele>204.2</ele>
        <time>2022-05-02T14:12:31Z</time>
      </trkpt>
      <trkpt lat="46.62323" lon="5.40851">
        <ele>204.2</ele>
        <time>2022-05-02T14:12:32Z</time>
      </trkpt>
      <trkpt lat="46.62318" lon="5.40842">
        <ele>204.2</ele>
        <time>2022-05-02T14:12:33Z</time>
      </trkpt>
      <trkpt lat="46.6229" lon="5.40801">
        <ele>203.8</ele>
        <time>2022-05-02T14:12:38Z</time>
      </trkpt>
      <trkpt lat="46.62246" lon="5.40756">
        <ele>203.8</ele>
        <time>2022-05-02T14:12:45Z</time>
      </trkpt>
      <trkpt lat="46.62227" lon="5.40737">
        <ele>203.8</ele>
        <time>2022-05-02T14:12:48Z</time>
      </trkpt>
      <trkpt lat="46.62201" lon="5.40714">
        <ele>203.8</ele>
        <time>2022-05-02T14:12:52Z</time>
      </trkpt>
      <trkpt lat="46.62194" lon="5.4071">
        <ele>203.8</ele>
        <time>2022-05-02T14:12:53Z</time>
      </trkpt>
      <trkpt lat="46.62187" lon="5.40708">
        <ele>203.8</ele>
        <time>2022-05-02T14:12:54Z</time>
      </trkpt>
      <trkpt lat="46.62171" lon="5.40706">
        <ele>203.8</ele>
        <time>2022-05-02T14:12:56Z</time>
      </trkpt>
      <trkpt lat="46.62164" lon="5.40707">
        <ele>203.8</ele>
        <time>2022-05-02T14:12:57Z</time>
      </trkpt>
      <trkpt lat="46.62156" lon="5.4071">
        <ele>203.8</ele>
        <time>2022-05-02T14:12:58Z</time>
      </trkpt>
      <trkpt lat="46.62142" lon="5.40718">
        <ele>203.8</ele>
        <time>2022-05-02T14:13:00Z</time>
      </trkpt>
      <trkpt lat="46.62135" lon="5.40723">
        <ele>203.6</ele>
        <time>2022-05-02T14:13:01Z</time>
      </trkpt>
      <trkpt lat="46.62128" lon="5.4073">
        <ele>203.6</ele>
        <time>2022-05-02T14:13:02Z</time>
      </trkpt>
      <trkpt lat="46.62117" lon="5.40745">
        <ele>203.8</ele>
        <time>2022-05-02T14:13:04Z</time>
      </trkpt>
      <trkpt lat="46.62112" lon="5.40754">
        <ele>203.8</ele>
        <time>2022-05-02T14:13:05Z</time>
      </trkpt>
      <trkpt lat="46.62088" lon="5.40814">
        <ele>203.8</ele>
        <time>2022-05-02T14:13:11Z</time>
      </trkpt>
      <trkpt lat="46.62061" lon="5.40891">
        <ele>203.2</ele>
        <time>2022-05-02T14:13:18Z</time>
      </trkpt>
      <trkpt lat="46.62054" lon="5.40913">
        <ele>203.2</ele>
        <time>2022-05-02T14:13:20Z</time>
      </trkpt>
      <trkpt lat="46.62029" lon="5.40989">
        <ele>202.8</ele>
        <time>2022-05-02T14:13:27Z</time>
      </trkpt>
      <trkpt lat="46.62018" lon="5.41022">
        <ele>202.6</ele>
        <time>2022-05-02T14:13:30Z</time>
      </trkpt>
      <trkpt lat="46.62004" lon="5.41052">
        <ele>202.6</ele>
        <time>2022-05-02T14:13:33Z</time>
      </trkpt>
      <trkpt lat="46.61993" lon="5.4107">
        <ele>202.6</ele>
        <time>2022-05-02T14:13:35Z</time>
      </trkpt>
      <trkpt lat="46.61952" lon="5.41127">
        <ele>202.6</ele>
        <time>2022-05-02T14:13:42Z</time>
      </trkpt>
      <trkpt lat="46.61946" lon="5.41135">
        <ele>202.6</ele>
        <time>2022-05-02T14:13:43Z</time>
      </trkpt>
      <trkpt lat="46.61904" lon="5.41191">
        <ele>202.6</ele>
        <time>2022-05-02T14:13:50Z</time>
      </trkpt>
      <trkpt lat="46.61899" lon="5.41199">
        <ele>202.6</ele>
        <time>2022-05-02T14:13:51Z</time>
      </trkpt>
      <trkpt lat="46.61864" lon="5.41249">
        <ele>202.2</ele>
        <time>2022-05-02T14:13:57Z</time>
      </trkpt>
      <trkpt lat="46.61854" lon="5.41267">
        <ele>202.2</ele>
        <time>2022-05-02T14:13:59Z</time>
      </trkpt>
      <trkpt lat="46.61818" lon="5.41331">
        <ele>202.4</ele>
        <time>2022-05-02T14:14:06Z</time>
      </trkpt>
      <trkpt lat="46.61803" lon="5.41357">
        <ele>202.6</ele>
        <time>2022-05-02T14:14:09Z</time>
      </trkpt>
      <trkpt lat="46.61788" lon="5.41384">
        <ele>202.6</ele>
        <time>2022-05-02T14:14:12Z</time>
      </trkpt>
      <trkpt lat="46.61764" lon="5.41414">
        <ele>202.6</ele>
        <time>2022-05-02T14:14:16Z</time>
      </trkpt>
      <trkpt lat="46.61757" lon="5.4142">
        <ele>202.6</ele>
        <time>2022-05-02T14:14:17Z</time>
      </trkpt>
      <trkpt lat="46.61735" lon="5.41432">
        <ele>202.4</ele>
        <time>2022-05-02T14:14:20Z</time>
      </trkpt>
      <trkpt lat="46.61712" lon="5.41436">
        <ele>202.4</ele>
        <time>2022-05-02T14:14:23Z</time>
      </trkpt>
      <trkpt lat="46.61704" lon="5.41435">
        <ele>202.4</ele>
        <time>2022-05-02T14:14:24Z</time>
      </trkpt>
      <trkpt lat="46.61689" lon="5.41431">
        <ele>202.4</ele>
        <time>2022-05-02T14:14:26Z</time>
      </trkpt>
      <trkpt lat="46.61674" lon="5.41422">
        <ele>202.6</ele>
        <time>2022-05-02T14:14:28Z</time>
      </trkpt>
      <trkpt lat="46.61642" lon="5.41389">
        <ele>202.8</ele>
        <time>2022-05-02T14:14:33Z</time>
      </trkpt>
      <trkpt lat="46.61598" lon="5.41341">
        <ele>203.2</ele>
        <time>2022-05-02T14:14:40Z</time>
      </trkpt>
      <trkpt lat="46.6159" lon="5.41336">
        <ele>203.2</ele>
        <time>2022-05-02T14:14:41Z</time>
      </trkpt>
      <trkpt lat="46.6154" lon="5.41301">
        <ele>202.8</ele>
        <time>2022-05-02T14:14:48Z</time>
      </trkpt>
      <trkpt lat="46.61511" lon="5.41282">
        <ele>202.8</ele>
        <time>2022-05-02T14:14:52Z</time>
      </trkpt>
      <trkpt lat="46.61466" lon="5.41266">
        <ele>203</ele>
        <time>2022-05-02T14:14:58Z</time>
      </trkpt>
      <trkpt lat="46.6141" lon="5.41251">
        <ele>203.2</ele>
        <time>2022-05-02T14:15:05Z</time>
      </trkpt>
      <trkpt lat="46.61386" lon="5.41244">
        <ele>203.2</ele>
        <time>2022-05-02T14:15:08Z</time>
      </trkpt>
      <trkpt lat="46.61331" lon="5.41228">
        <ele>202.8</ele>
        <time>2022-05-02T14:15:15Z</time>
      </trkpt>
      <trkpt lat="46.61292" lon="5.41218">
        <ele>202.6</ele>
        <time>2022-05-02T14:15:20Z</time>
      </trkpt>
      <trkpt lat="46.61237" lon="5.41203">
        <ele>202.4</ele>
        <time>2022-05-02T14:15:27Z</time>
      </trkpt>
      <trkpt lat="46.61183" lon="5.41187">
        <ele>202.2</ele>
        <time>2022-05-02T14:15:34Z</time>
      </trkpt>
      <trkpt lat="46.61175" lon="5.41185">
        <ele>202.2</ele>
        <time>2022-05-02T14:15:35Z</time>
      </trkpt>
      <trkpt lat="46.61122" lon="5.41171">
        <ele>202.2</ele>
        <time>2022-05-02T14:15:42Z</time>
      </trkpt>
      <trkpt lat="46.6107" lon="5.41156">
        <ele>202.4</ele>
        <time>2022-05-02T14:15:49Z</time>
      </trkpt>
      <trkpt lat="46.61048" lon="5.4115">
        <ele>202.6</ele>
        <time>2022-05-02T14:15:52Z</time>
      </trkpt>
      <trkpt lat="46.61033" lon="5.41151">
        <ele>202.8</ele>
        <time>2022-05-02T14:15:54Z</time>
      </trkpt>
      <trkpt lat="46.61026" lon="5.41152">
        <ele>202.8</ele>
        <time>2022-05-02T14:15:55Z</time>
      </trkpt>
      <trkpt lat="46.61012" lon="5.41157">
        <ele>202.8</ele>
        <time>2022-05-02T14:15:57Z</time>
      </trkpt>
      <trkpt lat="46.61005" lon="5.41161">
        <ele>202.8</ele>
        <time>2022-05-02T14:15:58Z</time>
      </trkpt>
      <trkpt lat="46.60965" lon="5.41196">
        <ele>202.8</ele>
        <time>2022-05-02T14:16:04Z</time>
      </trkpt>
      <trkpt lat="46.60918" lon="5.41245">
        <ele>203</ele>
        <time>2022-05-02T14:16:12Z</time>
      </trkpt>
      <trkpt lat="46.60884" lon="5.41287">
        <ele>203.8</ele>
        <time>2022-05-02T14:16:19Z</time>
      </trkpt>
      <trkpt lat="46.60879" lon="5.41294">
        <ele>203.8</ele>
        <time>2022-05-02T14:16:20Z</time>
      </trkpt>
      <trkpt lat="46.60856" lon="5.41323">
        <ele>204.2</ele>
        <time>2022-05-02T14:16:25Z</time>
      </trkpt>
      <trkpt lat="46.60844" lon="5.4133">
        <ele>204.2</ele>
        <time>2022-05-02T14:16:27Z</time>
      </trkpt>
      <trkpt lat="46.60832" lon="5.41331">
        <ele>204.2</ele>
        <time>2022-05-02T14:16:29Z</time>
      </trkpt>
      <trkpt lat="46.6082" lon="5.41327">
        <ele>204.4</ele>
        <time>2022-05-02T14:16:31Z</time>
      </trkpt>
      <trkpt lat="46.60804" lon="5.41313">
        <ele>204.8</ele>
        <time>2022-05-02T14:16:34Z</time>
      </trkpt>
      <trkpt lat="46.608" lon="5.41308">
        <ele>204.8</ele>
        <time>2022-05-02T14:16:35Z</time>
      </trkpt>
      <trkpt lat="46.60779" lon="5.41285">
        <ele>205.6</ele>
        <time>2022-05-02T14:16:40Z</time>
      </trkpt>
      <trkpt lat="46.60775" lon="5.41281">
        <ele>205.8</ele>
        <time>2022-05-02T14:16:41Z</time>
      </trkpt>
      <trkpt lat="46.60767" lon="5.41272">
        <ele>207</ele>
        <time>2022-05-02T14:16:43Z</time>
      </trkpt>
      <trkpt lat="46.60754" lon="5.41259">
        <ele>208</ele>
        <time>2022-05-02T14:16:46Z</time>
      </trkpt>
      <trkpt lat="46.60741" lon="5.41244">
        <ele>208.4</ele>
        <time>2022-05-02T14:16:49Z</time>
      </trkpt>
      <trkpt lat="46.60717" lon="5.41214">
        <ele>209</ele>
        <time>2022-05-02T14:16:54Z</time>
      </trkpt>
      <trkpt lat="46.60712" lon="5.41208">
        <ele>209</ele>
        <time>2022-05-02T14:16:55Z</time>
      </trkpt>
      <trkpt lat="46.6069" lon="5.41184">
        <ele>209</ele>
        <time>2022-05-02T14:16:59Z</time>
      </trkpt>
      <trkpt lat="46.60684" lon="5.4118">
        <ele>209</ele>
        <time>2022-05-02T14:17:00Z</time>
      </trkpt>
      <trkpt lat="46.60644" lon="5.41165">
        <ele>208.8</ele>
        <time>2022-05-02T14:17:06Z</time>
      </trkpt>
      <trkpt lat="46.60606" lon="5.41153">
        <ele>209.2</ele>
        <time>2022-05-02T14:17:12Z</time>
      </trkpt>
      <trkpt lat="46.60562" lon="5.41142">
        <ele>210</ele>
        <time>2022-05-02T14:17:19Z</time>
      </trkpt>
      <trkpt lat="46.60556" lon="5.41141">
        <ele>210.2</ele>
        <time>2022-05-02T14:17:20Z</time>
      </trkpt>
      <trkpt lat="46.60524" lon="5.41137">
        <ele>211</ele>
        <time>2022-05-02T14:17:25Z</time>
      </trkpt>
      <trkpt lat="46.60518" lon="5.41138">
        <ele>211.4</ele>
        <time>2022-05-02T14:17:26Z</time>
      </trkpt>
      <trkpt lat="46.60481" lon="5.41136">
        <ele>212.4</ele>
        <time>2022-05-02T14:17:32Z</time>
      </trkpt>
      <trkpt lat="46.60469" lon="5.41134">
        <ele>212.8</ele>
        <time>2022-05-02T14:17:34Z</time>
      </trkpt>
      <trkpt lat="46.60458" lon="5.4113">
        <ele>213</ele>
        <time>2022-05-02T14:17:36Z</time>
      </trkpt>
      <trkpt lat="46.60447" lon="5.41123">
        <ele>213.6</ele>
        <time>2022-05-02T14:17:38Z</time>
      </trkpt>
      <trkpt lat="46.60441" lon="5.41118">
        <ele>213.8</ele>
        <time>2022-05-02T14:17:39Z</time>
      </trkpt>
      <trkpt lat="46.60433" lon="5.41106">
        <ele>214.4</ele>
        <time>2022-05-02T14:17:41Z</time>
      </trkpt>
      <trkpt lat="46.60426" lon="5.41091">
        <ele>214.6</ele>
        <time>2022-05-02T14:17:43Z</time>
      </trkpt>
      <trkpt lat="46.60407" lon="5.41044">
        <ele>215.8</ele>
        <time>2022-05-02T14:17:49Z</time>
      </trkpt>
      <trkpt lat="46.60403" lon="5.41037">
        <ele>216</ele>
        <time>2022-05-02T14:17:50Z</time>
      </trkpt>
      <trkpt lat="46.60398" lon="5.4103">
        <ele>216</ele>
        <time>2022-05-02T14:17:51Z</time>
      </trkpt>
      <trkpt lat="46.60386" lon="5.41017">
        <ele>216</ele>
        <time>2022-05-02T14:17:53Z</time>
      </trkpt>
      <trkpt lat="46.60379" lon="5.41012">
        <ele>216</ele>
        <time>2022-05-02T14:17:54Z</time>
      </trkpt>
      <trkpt lat="46.60357" lon="5.40999">
        <ele>215.8</ele>
        <time>2022-05-02T14:17:57Z</time>
      </trkpt>
      <trkpt lat="46.60341" lon="5.40985">
        <ele>215.2</ele>
        <time>2022-05-02T14:17:59Z</time>
      </trkpt>
      <trkpt lat="46.60328" lon="5.40965">
        <ele>214.4</ele>
        <time>2022-05-02T14:18:01Z</time>
      </trkpt>
      <trkpt lat="46.60315" lon="5.40941">
        <ele>213.8</ele>
        <time>2022-05-02T14:18:03Z</time>
      </trkpt>
      <trkpt lat="46.60308" lon="5.40929">
        <ele>213.4</ele>
        <time>2022-05-02T14:18:04Z</time>
      </trkpt>
      <trkpt lat="46.60294" lon="5.40905">
        <ele>212.2</ele>
        <time>2022-05-02T14:18:06Z</time>
      </trkpt>
      <trkpt lat="46.60285" lon="5.40895">
        <ele>211.8</ele>
        <time>2022-05-02T14:18:07Z</time>
      </trkpt>
      <trkpt lat="46.60257" lon="5.4087">
        <ele>210.2</ele>
        <time>2022-05-02T14:18:10Z</time>
      </trkpt>
      <trkpt lat="46.60238" lon="5.40855">
        <ele>209</ele>
        <time>2022-05-02T14:18:12Z</time>
      </trkpt>
      <trkpt lat="46.60219" lon="5.4084">
        <ele>208</ele>
        <time>2022-05-02T14:18:14Z</time>
      </trkpt>
      <trkpt lat="46.60201" lon="5.40825">
        <ele>207</ele>
        <time>2022-05-02T14:18:16Z</time>
      </trkpt>
      <trkpt lat="46.60193" lon="5.40816">
        <ele>206.2</ele>
        <time>2022-05-02T14:18:17Z</time>
      </trkpt>
      <trkpt lat="46.60186" lon="5.40805">
        <ele>205.8</ele>
        <time>2022-05-02T14:18:18Z</time>
      </trkpt>
      <trkpt lat="46.6018" lon="5.40793">
        <ele>205.8</ele>
        <time>2022-05-02T14:18:19Z</time>
      </trkpt>
      <trkpt lat="46.60174" lon="5.40766">
        <ele>205.4</ele>
        <time>2022-05-02T14:18:21Z</time>
      </trkpt>
      <trkpt lat="46.60174" lon="5.40739">
        <ele>205</ele>
        <time>2022-05-02T14:18:23Z</time>
      </trkpt>
      <trkpt lat="46.60176" lon="5.40725">
        <ele>204.8</ele>
        <time>2022-05-02T14:18:24Z</time>
      </trkpt>
      <trkpt lat="46.60179" lon="5.40713">
        <ele>204.6</ele>
        <time>2022-05-02T14:18:25Z</time>
      </trkpt>
      <trkpt lat="46.60187" lon="5.40691">
        <ele>204.6</ele>
        <time>2022-05-02T14:18:27Z</time>
      </trkpt>
      <trkpt lat="46.60214" lon="5.40647">
        <ele>205.4</ele>
        <time>2022-05-02T14:18:32Z</time>
      </trkpt>
      <trkpt lat="46.60228" lon="5.4062">
        <ele>205.4</ele>
        <time>2022-05-02T14:18:35Z</time>
      </trkpt>
      <trkpt lat="46.60235" lon="5.40601">
        <ele>205.4</ele>
        <time>2022-05-02T14:18:37Z</time>
      </trkpt>
      <trkpt lat="46.60237" lon="5.4058">
        <ele>205.4</ele>
        <time>2022-05-02T14:18:39Z</time>
      </trkpt>
      <trkpt lat="46.60236" lon="5.40559">
        <ele>205.2</ele>
        <time>2022-05-02T14:18:41Z</time>
      </trkpt>
      <trkpt lat="46.60224" lon="5.40499">
        <ele>205.4</ele>
        <time>2022-05-02T14:18:47Z</time>
      </trkpt>
      <trkpt lat="46.6022" lon="5.40454">
        <ele>205.6</ele>
        <time>2022-05-02T14:18:52Z</time>
      </trkpt>
      <trkpt lat="46.60222" lon="5.40405">
        <ele>206</ele>
        <time>2022-05-02T14:18:58Z</time>
      </trkpt>
      <trkpt lat="46.60222" lon="5.40398">
        <ele>206.2</ele>
        <time>2022-05-02T14:18:59Z</time>
      </trkpt>
      <trkpt lat="46.60221" lon="5.40368">
        <ele>207.2</ele>
        <time>2022-05-02T14:19:03Z</time>
      </trkpt>
      <trkpt lat="46.60219" lon="5.40354">
        <ele>207.6</ele>
        <time>2022-05-02T14:19:05Z</time>
      </trkpt>
      <trkpt lat="46.60215" lon="5.40338">
        <ele>208.4</ele>
        <time>2022-05-02T14:19:07Z</time>
      </trkpt>
      <trkpt lat="46.60205" lon="5.40305">
        <ele>209.2</ele>
        <time>2022-05-02T14:19:11Z</time>
      </trkpt>
      <trkpt lat="46.60199" lon="5.40288">
        <ele>209.6</ele>
        <time>2022-05-02T14:19:13Z</time>
      </trkpt>
      <trkpt lat="46.60185" lon="5.40257">
        <ele>209.6</ele>
        <time>2022-05-02T14:19:17Z</time>
      </trkpt>
      <trkpt lat="46.60179" lon="5.40241">
        <ele>209.4</ele>
        <time>2022-05-02T14:19:19Z</time>
      </trkpt>
      <trkpt lat="46.60173" lon="5.40221">
        <ele>209</ele>
        <time>2022-05-02T14:19:22Z</time>
      </trkpt>
      <trkpt lat="46.60172" lon="5.40212">
        <ele>208.8</ele>
        <time>2022-05-02T14:19:25Z</time>
      </trkpt>
      <trkpt lat="46.60171" lon="5.4021">
        <ele>208.6</ele>
        <time>2022-05-02T14:19:29Z</time>
      </trkpt>
      <trkpt lat="46.60173" lon="5.40207">
        <ele>208.6</ele>
        <time>2022-05-02T14:20:24Z</time>
      </trkpt>
      <trkpt lat="46.6018" lon="5.40183">
        <ele>208.4</ele>
        <time>2022-05-02T14:20:28Z</time>
      </trkpt>
      <trkpt lat="46.60189" lon="5.40141">
        <ele>208.6</ele>
        <time>2022-05-02T14:20:33Z</time>
      </trkpt>
      <trkpt lat="46.60194" lon="5.40093">
        <ele>209.2</ele>
        <time>2022-05-02T14:20:38Z</time>
      </trkpt>
      <trkpt lat="46.6019" lon="5.40005">
        <ele>209</ele>
        <time>2022-05-02T14:20:46Z</time>
      </trkpt>
      <trkpt lat="46.60187" lon="5.39938">
        <ele>208.8</ele>
        <time>2022-05-02T14:20:52Z</time>
      </trkpt>
      <trkpt lat="46.60186" lon="5.39927">
        <ele>208.6</ele>
        <time>2022-05-02T14:20:53Z</time>
      </trkpt>
      <trkpt lat="46.60183" lon="5.39916">
        <ele>208</ele>
        <time>2022-05-02T14:20:54Z</time>
      </trkpt>
      <trkpt lat="46.60174" lon="5.39896">
        <ele>207.6</ele>
        <time>2022-05-02T14:20:56Z</time>
      </trkpt>
      <trkpt lat="46.60162" lon="5.3988">
        <ele>207.2</ele>
        <time>2022-05-02T14:20:58Z</time>
      </trkpt>
      <trkpt lat="46.60155" lon="5.39873">
        <ele>207</ele>
        <time>2022-05-02T14:20:59Z</time>
      </trkpt>
      <trkpt lat="46.60106" lon="5.3983">
        <ele>205.8</ele>
        <time>2022-05-02T14:21:06Z</time>
      </trkpt>
      <trkpt lat="46.60099" lon="5.39823">
        <ele>205.4</ele>
        <time>2022-05-02T14:21:07Z</time>
      </trkpt>
      <trkpt lat="46.60093" lon="5.39815">
        <ele>205.4</ele>
        <time>2022-05-02T14:21:08Z</time>
      </trkpt>
      <trkpt lat="46.60081" lon="5.39787">
        <ele>205.4</ele>
        <time>2022-05-02T14:21:11Z</time>
      </trkpt>
      <trkpt lat="46.60066" lon="5.3974">
        <ele>205.6</ele>
        <time>2022-05-02T14:21:16Z</time>
      </trkpt>
      <trkpt lat="46.60065" lon="5.39731">
        <ele>205.6</ele>
        <time>2022-05-02T14:21:17Z</time>
      </trkpt>
      <trkpt lat="46.60065" lon="5.39721">
        <ele>205.6</ele>
        <time>2022-05-02T14:21:18Z</time>
      </trkpt>
      <trkpt lat="46.6007" lon="5.39702">
        <ele>205.8</ele>
        <time>2022-05-02T14:21:20Z</time>
      </trkpt>
      <trkpt lat="46.60088" lon="5.39655">
        <ele>206.8</ele>
        <time>2022-05-02T14:21:26Z</time>
      </trkpt>
      <trkpt lat="46.6009" lon="5.39639">
        <ele>207</ele>
        <time>2022-05-02T14:21:28Z</time>
      </trkpt>
      <trkpt lat="46.6009" lon="5.39623">
        <ele>207.2</ele>
        <time>2022-05-02T14:21:30Z</time>
      </trkpt>
      <trkpt lat="46.60089" lon="5.39608">
        <ele>207.4</ele>
        <time>2022-05-02T14:21:32Z</time>
      </trkpt>
      <trkpt lat="46.60084" lon="5.39588">
        <ele>208.2</ele>
        <time>2022-05-02T14:21:35Z</time>
      </trkpt>
      <trkpt lat="46.60082" lon="5.39581">
        <ele>208.4</ele>
        <time>2022-05-02T14:21:36Z</time>
      </trkpt>
      <trkpt lat="46.60074" lon="5.39563">
        <ele>209.4</ele>
        <time>2022-05-02T14:21:39Z</time>
      </trkpt>
      <trkpt lat="46.60068" lon="5.39551">
        <ele>209.8</ele>
        <time>2022-05-02T14:21:41Z</time>
      </trkpt>
      <trkpt lat="46.60055" lon="5.39523">
        <ele>210.4</ele>
        <time>2022-05-02T14:21:46Z</time>
      </trkpt>
      <trkpt lat="46.60043" lon="5.39494">
        <ele>211.4</ele>
        <time>2022-05-02T14:21:51Z</time>
      </trkpt>
      <trkpt lat="46.60041" lon="5.39488">
        <ele>211.6</ele>
        <time>2022-05-02T14:21:52Z</time>
      </trkpt>
      <trkpt lat="46.60037" lon="5.39461">
        <ele>212.6</ele>
        <time>2022-05-02T14:21:56Z</time>
      </trkpt>
      <trkpt lat="46.60036" lon="5.39454">
        <ele>212.8</ele>
        <time>2022-05-02T14:21:57Z</time>
      </trkpt>
      <trkpt lat="46.60037" lon="5.3944">
        <ele>213.4</ele>
        <time>2022-05-02T14:21:59Z</time>
      </trkpt>
      <trkpt lat="46.60041" lon="5.39409">
        <ele>214</ele>
        <time>2022-05-02T14:22:03Z</time>
      </trkpt>
      <trkpt lat="46.60051" lon="5.39356">
        <ele>214</ele>
        <time>2022-05-02T14:22:09Z</time>
      </trkpt>
      <trkpt lat="46.60055" lon="5.39294">
        <ele>213.4</ele>
        <time>2022-05-02T14:22:16Z</time>
      </trkpt>
      <trkpt lat="46.60054" lon="5.39279">
        <ele>213.6</ele>
        <time>2022-05-02T14:22:18Z</time>
      </trkpt>
      <trkpt lat="46.60051" lon="5.39265">
        <ele>213.6</ele>
        <time>2022-05-02T14:22:20Z</time>
      </trkpt>
      <trkpt lat="46.60049" lon="5.39258">
        <ele>213.8</ele>
        <time>2022-05-02T14:22:21Z</time>
      </trkpt>
      <trkpt lat="46.60037" lon="5.39228">
        <ele>214.6</ele>
        <time>2022-05-02T14:22:26Z</time>
      </trkpt>
      <trkpt lat="46.6003" lon="5.39218">
        <ele>215.2</ele>
        <time>2022-05-02T14:22:28Z</time>
      </trkpt>
      <trkpt lat="46.60019" lon="5.39204">
        <ele>216.6</ele>
        <time>2022-05-02T14:22:31Z</time>
      </trkpt>
      <trkpt lat="46.60011" lon="5.39197">
        <ele>217.2</ele>
        <time>2022-05-02T14:22:33Z</time>
      </trkpt>
      <trkpt lat="46.60006" lon="5.39194">
        <ele>217.6</ele>
        <time>2022-05-02T14:22:34Z</time>
      </trkpt>
      <trkpt lat="46.60001" lon="5.39191">
        <ele>217.8</ele>
        <time>2022-05-02T14:22:35Z</time>
      </trkpt>
      <trkpt lat="46.59985" lon="5.39184">
        <ele>218.8</ele>
        <time>2022-05-02T14:22:38Z</time>
      </trkpt>
      <trkpt lat="46.59979" lon="5.39183">
        <ele>219</ele>
        <time>2022-05-02T14:22:39Z</time>
      </trkpt>
      <trkpt lat="46.59973" lon="5.39182">
        <ele>219.2</ele>
        <time>2022-05-02T14:22:40Z</time>
      </trkpt>
      <trkpt lat="46.59956" lon="5.39182">
        <ele>219.4</ele>
        <time>2022-05-02T14:22:43Z</time>
      </trkpt>
      <trkpt lat="46.59933" lon="5.39179">
        <ele>219.6</ele>
        <time>2022-05-02T14:22:47Z</time>
      </trkpt>
      <trkpt lat="46.59924" lon="5.39177">
        <ele>219.8</ele>
        <time>2022-05-02T14:22:49Z</time>
      </trkpt>
      <trkpt lat="46.59919" lon="5.39176">
        <ele>220</ele>
        <time>2022-05-02T14:22:50Z</time>
      </trkpt>
      <trkpt lat="46.59909" lon="5.3918">
        <ele>220.4</ele>
        <time>2022-05-02T14:22:52Z</time>
      </trkpt>
      <trkpt lat="46.59885" lon="5.39191">
        <ele>221</ele>
        <time>2022-05-02T14:22:56Z</time>
      </trkpt>
      <trkpt lat="46.59879" lon="5.39192">
        <ele>221.2</ele>
        <time>2022-05-02T14:22:57Z</time>
      </trkpt>
      <trkpt lat="46.59866" lon="5.39194">
        <ele>221.4</ele>
        <time>2022-05-02T14:22:59Z</time>
      </trkpt>
      <trkpt lat="46.59821" lon="5.39188">
        <ele>222.2</ele>
        <time>2022-05-02T14:23:06Z</time>
      </trkpt>
      <trkpt lat="46.59808" lon="5.39187">
        <ele>222.4</ele>
        <time>2022-05-02T14:23:08Z</time>
      </trkpt>
      <trkpt lat="46.59788" lon="5.39191">
        <ele>222.6</ele>
        <time>2022-05-02T14:23:11Z</time>
      </trkpt>
      <trkpt lat="46.59769" lon="5.39198">
        <ele>222.8</ele>
        <time>2022-05-02T14:23:14Z</time>
      </trkpt>
      <trkpt lat="46.59757" lon="5.39206">
        <ele>223</ele>
        <time>2022-05-02T14:23:16Z</time>
      </trkpt>
      <trkpt lat="46.59751" lon="5.3921">
        <ele>223</ele>
        <time>2022-05-02T14:23:17Z</time>
      </trkpt>
      <trkpt lat="46.59738" lon="5.39212">
        <ele>223.2</ele>
        <time>2022-05-02T14:23:19Z</time>
      </trkpt>
      <trkpt lat="46.59732" lon="5.3921">
        <ele>223.2</ele>
        <time>2022-05-02T14:23:20Z</time>
      </trkpt>
      <trkpt lat="46.59706" lon="5.39199">
        <ele>223.6</ele>
        <time>2022-05-02T14:23:24Z</time>
      </trkpt>
      <trkpt lat="46.59669" lon="5.39189">
        <ele>223.8</ele>
        <time>2022-05-02T14:23:29Z</time>
      </trkpt>
      <trkpt lat="46.59628" lon="5.39183">
        <ele>224</ele>
        <time>2022-05-02T14:23:34Z</time>
      </trkpt>
      <trkpt lat="46.59612" lon="5.39185">
        <ele>223.8</ele>
        <time>2022-05-02T14:23:36Z</time>
      </trkpt>
      <trkpt lat="46.59596" lon="5.39191">
        <ele>223.8</ele>
        <time>2022-05-02T14:23:38Z</time>
      </trkpt>
      <trkpt lat="46.5958" lon="5.39199">
        <ele>223.6</ele>
        <time>2022-05-02T14:23:40Z</time>
      </trkpt>
      <trkpt lat="46.59554" lon="5.39206">
        <ele>223.6</ele>
        <time>2022-05-02T14:23:43Z</time>
      </trkpt>
      <trkpt lat="46.59537" lon="5.39206">
        <ele>223.4</ele>
        <time>2022-05-02T14:23:45Z</time>
      </trkpt>
      <trkpt lat="46.5952" lon="5.39199">
        <ele>223.2</ele>
        <time>2022-05-02T14:23:47Z</time>
      </trkpt>
      <trkpt lat="46.59508" lon="5.39183">
        <ele>223.2</ele>
        <time>2022-05-02T14:23:49Z</time>
      </trkpt>
      <trkpt lat="46.59504" lon="5.39172">
        <ele>223</ele>
        <time>2022-05-02T14:23:50Z</time>
      </trkpt>
      <trkpt lat="46.59502" lon="5.3916">
        <ele>223</ele>
        <time>2022-05-02T14:23:51Z</time>
      </trkpt>
      <trkpt lat="46.59498" lon="5.39123">
        <ele>223</ele>
        <time>2022-05-02T14:23:54Z</time>
      </trkpt>
      <trkpt lat="46.59487" lon="5.39036">
        <ele>223</ele>
        <time>2022-05-02T14:24:01Z</time>
      </trkpt>
      <trkpt lat="46.59486" lon="5.39023">
        <ele>223</ele>
        <time>2022-05-02T14:24:02Z</time>
      </trkpt>
      <trkpt lat="46.59478" lon="5.38963">
        <ele>222.2</ele>
        <time>2022-05-02T14:24:07Z</time>
      </trkpt>
      <trkpt lat="46.59475" lon="5.38952">
        <ele>222.2</ele>
        <time>2022-05-02T14:24:08Z</time>
      </trkpt>
      <trkpt lat="46.59471" lon="5.38941">
        <ele>222</ele>
        <time>2022-05-02T14:24:09Z</time>
      </trkpt>
      <trkpt lat="46.59454" lon="5.38889">
        <ele>221.8</ele>
        <time>2022-05-02T14:24:14Z</time>
      </trkpt>
      <trkpt lat="46.5945" lon="5.38845">
        <ele>221.8</ele>
        <time>2022-05-02T14:24:18Z</time>
      </trkpt>
      <trkpt lat="46.59443" lon="5.38803">
        <ele>222.2</ele>
        <time>2022-05-02T14:24:22Z</time>
      </trkpt>
      <trkpt lat="46.59439" lon="5.38793">
        <ele>222.4</ele>
        <time>2022-05-02T14:24:23Z</time>
      </trkpt>
      <trkpt lat="46.59435" lon="5.38783">
        <ele>222.4</ele>
        <time>2022-05-02T14:24:24Z</time>
      </trkpt>
      <trkpt lat="46.59423" lon="5.38767">
        <ele>222.4</ele>
        <time>2022-05-02T14:24:26Z</time>
      </trkpt>
      <trkpt lat="46.59377" lon="5.38718">
        <ele>222.4</ele>
        <time>2022-05-02T14:24:33Z</time>
      </trkpt>
      <trkpt lat="46.5937" lon="5.38711">
        <ele>222.6</ele>
        <time>2022-05-02T14:24:34Z</time>
      </trkpt>
      <trkpt lat="46.59323" lon="5.3866">
        <ele>222.6</ele>
        <time>2022-05-02T14:24:41Z</time>
      </trkpt>
      <trkpt lat="46.59304" lon="5.38639">
        <ele>222.4</ele>
        <time>2022-05-02T14:24:44Z</time>
      </trkpt>
      <trkpt lat="46.59259" lon="5.3859">
        <ele>222</ele>
        <time>2022-05-02T14:24:51Z</time>
      </trkpt>
      <trkpt lat="46.59247" lon="5.38578">
        <ele>222</ele>
        <time>2022-05-02T14:24:53Z</time>
      </trkpt>
      <trkpt lat="46.59213" lon="5.38541">
        <ele>222</ele>
        <time>2022-05-02T14:24:59Z</time>
      </trkpt>
      <trkpt lat="46.59166" lon="5.38484">
        <ele>221.8</ele>
        <time>2022-05-02T14:25:07Z</time>
      </trkpt>
      <trkpt lat="46.5916" lon="5.38476">
        <ele>221.8</ele>
        <time>2022-05-02T14:25:08Z</time>
      </trkpt>
      <trkpt lat="46.59135" lon="5.3843">
        <ele>221.2</ele>
        <time>2022-05-02T14:25:13Z</time>
      </trkpt>
      <trkpt lat="46.59129" lon="5.38422">
        <ele>220.8</ele>
        <time>2022-05-02T14:25:14Z</time>
      </trkpt>
      <trkpt lat="46.59099" lon="5.38392">
        <ele>220.2</ele>
        <time>2022-05-02T14:25:18Z</time>
      </trkpt>
      <trkpt lat="46.5909" lon="5.38385">
        <ele>219.6</ele>
        <time>2022-05-02T14:25:19Z</time>
      </trkpt>
      <trkpt lat="46.59057" lon="5.38357">
        <ele>218.4</ele>
        <time>2022-05-02T14:25:23Z</time>
      </trkpt>
      <trkpt lat="46.59039" lon="5.38344">
        <ele>217.8</ele>
        <time>2022-05-02T14:25:25Z</time>
      </trkpt>
      <trkpt lat="46.59022" lon="5.38329">
        <ele>217.4</ele>
        <time>2022-05-02T14:25:27Z</time>
      </trkpt>
      <trkpt lat="46.58989" lon="5.38301">
        <ele>216</ele>
        <time>2022-05-02T14:25:31Z</time>
      </trkpt>
      <trkpt lat="46.58973" lon="5.38288">
        <ele>215.8</ele>
        <time>2022-05-02T14:25:33Z</time>
      </trkpt>
      <trkpt lat="46.58951" lon="5.38269">
        <ele>215</ele>
        <time>2022-05-02T14:25:36Z</time>
      </trkpt>
      <trkpt lat="46.58937" lon="5.38256">
        <ele>214.8</ele>
        <time>2022-05-02T14:25:38Z</time>
      </trkpt>
      <trkpt lat="46.58901" lon="5.38213">
        <ele>214.6</ele>
        <time>2022-05-02T14:25:44Z</time>
      </trkpt>
      <trkpt lat="46.58861" lon="5.38164">
        <ele>215.8</ele>
        <time>2022-05-02T14:25:51Z</time>
      </trkpt>
      <trkpt lat="46.58849" lon="5.3815">
        <ele>216.4</ele>
        <time>2022-05-02T14:25:53Z</time>
      </trkpt>
      <trkpt lat="46.58815" lon="5.38105">
        <ele>217.2</ele>
        <time>2022-05-02T14:25:59Z</time>
      </trkpt>
      <trkpt lat="46.58804" lon="5.38091">
        <ele>217.6</ele>
        <time>2022-05-02T14:26:01Z</time>
      </trkpt>
      <trkpt lat="46.58786" lon="5.38071">
        <ele>218</ele>
        <time>2022-05-02T14:26:04Z</time>
      </trkpt>
      <trkpt lat="46.58779" lon="5.38066">
        <ele>218</ele>
        <time>2022-05-02T14:26:05Z</time>
      </trkpt>
      <trkpt lat="46.58771" lon="5.38062">
        <ele>218</ele>
        <time>2022-05-02T14:26:06Z</time>
      </trkpt>
      <trkpt lat="46.58748" lon="5.38056">
        <ele>218.2</ele>
        <time>2022-05-02T14:26:09Z</time>
      </trkpt>
      <trkpt lat="46.587" lon="5.38053">
        <ele>218</ele>
        <time>2022-05-02T14:26:15Z</time>
      </trkpt>
      <trkpt lat="46.58644" lon="5.38048">
        <ele>217.6</ele>
        <time>2022-05-02T14:26:22Z</time>
      </trkpt>
      <trkpt lat="46.58628" lon="5.38043">
        <ele>217.4</ele>
        <time>2022-05-02T14:26:24Z</time>
      </trkpt>
      <trkpt lat="46.58598" lon="5.38021">
        <ele>217</ele>
        <time>2022-05-02T14:26:28Z</time>
      </trkpt>
      <trkpt lat="46.58584" lon="5.38007">
        <ele>216.8</ele>
        <time>2022-05-02T14:26:30Z</time>
      </trkpt>
      <trkpt lat="46.58568" lon="5.37999">
        <ele>216.8</ele>
        <time>2022-05-02T14:26:32Z</time>
      </trkpt>
      <trkpt lat="46.58552" lon="5.38001">
        <ele>216.6</ele>
        <time>2022-05-02T14:26:34Z</time>
      </trkpt>
      <trkpt lat="46.58545" lon="5.38005">
        <ele>216.4</ele>
        <time>2022-05-02T14:26:35Z</time>
      </trkpt>
      <trkpt lat="46.58516" lon="5.38024">
        <ele>215.6</ele>
        <time>2022-05-02T14:26:39Z</time>
      </trkpt>
      <trkpt lat="46.58509" lon="5.38026">
        <ele>215.4</ele>
        <time>2022-05-02T14:26:40Z</time>
      </trkpt>
      <trkpt lat="46.58501" lon="5.38027">
        <ele>215.2</ele>
        <time>2022-05-02T14:26:41Z</time>
      </trkpt>
      <trkpt lat="46.58475" lon="5.38024">
        <ele>215</ele>
        <time>2022-05-02T14:26:44Z</time>
      </trkpt>
      <trkpt lat="46.5843" lon="5.38007">
        <ele>215</ele>
        <time>2022-05-02T14:26:49Z</time>
      </trkpt>
      <trkpt lat="46.58381" lon="5.37989">
        <ele>214.2</ele>
        <time>2022-05-02T14:26:54Z</time>
      </trkpt>
      <trkpt lat="46.58361" lon="5.37981">
        <ele>213.2</ele>
        <time>2022-05-02T14:26:56Z</time>
      </trkpt>
      <trkpt lat="46.58352" lon="5.37977">
        <ele>212.8</ele>
        <time>2022-05-02T14:26:57Z</time>
      </trkpt>
      <trkpt lat="46.58332" lon="5.37969">
        <ele>211.4</ele>
        <time>2022-05-02T14:26:59Z</time>
      </trkpt>
      <trkpt lat="46.58295" lon="5.37948">
        <ele>210.6</ele>
        <time>2022-05-02T14:27:03Z</time>
      </trkpt>
      <trkpt lat="46.58277" lon="5.37936">
        <ele>210</ele>
        <time>2022-05-02T14:27:05Z</time>
      </trkpt>
      <trkpt lat="46.58241" lon="5.37914">
        <ele>209.2</ele>
        <time>2022-05-02T14:27:09Z</time>
      </trkpt>
      <trkpt lat="46.58205" lon="5.37891">
        <ele>208.2</ele>
        <time>2022-05-02T14:27:13Z</time>
      </trkpt>
      <trkpt lat="46.58196" lon="5.37885">
        <ele>208</ele>
        <time>2022-05-02T14:27:14Z</time>
      </trkpt>
      <trkpt lat="46.58178" lon="5.37877">
        <ele>207.2</ele>
        <time>2022-05-02T14:27:16Z</time>
      </trkpt>
      <trkpt lat="46.58168" lon="5.37875">
        <ele>207</ele>
        <time>2022-05-02T14:27:17Z</time>
      </trkpt>
      <trkpt lat="46.58158" lon="5.37876">
        <ele>207</ele>
        <time>2022-05-02T14:27:18Z</time>
      </trkpt>
      <trkpt lat="46.5814" lon="5.37887">
        <ele>206.6</ele>
        <time>2022-05-02T14:27:20Z</time>
      </trkpt>
      <trkpt lat="46.58115" lon="5.37907">
        <ele>205.8</ele>
        <time>2022-05-02T14:27:23Z</time>
      </trkpt>
      <trkpt lat="46.58097" lon="5.37914">
        <ele>205.6</ele>
        <time>2022-05-02T14:27:25Z</time>
      </trkpt>
      <trkpt lat="46.58043" lon="5.37932">
        <ele>205</ele>
        <time>2022-05-02T14:27:31Z</time>
      </trkpt>
      <trkpt lat="46.58026" lon="5.37938">
        <ele>204.8</ele>
        <time>2022-05-02T14:27:33Z</time>
      </trkpt>
      <trkpt lat="46.58018" lon="5.37941">
        <ele>204.8</ele>
        <time>2022-05-02T14:27:34Z</time>
      </trkpt>
      <trkpt lat="46.58002" lon="5.37948">
        <ele>204.8</ele>
        <time>2022-05-02T14:27:36Z</time>
      </trkpt>
      <trkpt lat="46.57987" lon="5.37959">
        <ele>204.8</ele>
        <time>2022-05-02T14:27:38Z</time>
      </trkpt>
      <trkpt lat="46.57953" lon="5.37984">
        <ele>205.2</ele>
        <time>2022-05-02T14:27:43Z</time>
      </trkpt>
      <trkpt lat="46.57928" lon="5.38">
        <ele>205.4</ele>
        <time>2022-05-02T14:27:47Z</time>
      </trkpt>
      <trkpt lat="46.57913" lon="5.38018">
        <ele>205.8</ele>
        <time>2022-05-02T14:27:50Z</time>
      </trkpt>
      <trkpt lat="46.57909" lon="5.38025">
        <ele>206</ele>
        <time>2022-05-02T14:27:51Z</time>
      </trkpt>
      <trkpt lat="46.57905" lon="5.38033">
        <ele>206.2</ele>
        <time>2022-05-02T14:27:52Z</time>
      </trkpt>
      <trkpt lat="46.57896" lon="5.38057">
        <ele>207.2</ele>
        <time>2022-05-02T14:27:55Z</time>
      </trkpt>
      <trkpt lat="46.57885" lon="5.38094">
        <ele>207.8</ele>
        <time>2022-05-02T14:27:59Z</time>
      </trkpt>
      <trkpt lat="46.57879" lon="5.38113">
        <ele>208.4</ele>
        <time>2022-05-02T14:28:01Z</time>
      </trkpt>
      <trkpt lat="46.57866" lon="5.3815">
        <ele>208.6</ele>
        <time>2022-05-02T14:28:05Z</time>
      </trkpt>
      <trkpt lat="46.57847" lon="5.38193">
        <ele>209</ele>
        <time>2022-05-02T14:28:10Z</time>
      </trkpt>
      <trkpt lat="46.57842" lon="5.382">
        <ele>209</ele>
        <time>2022-05-02T14:28:11Z</time>
      </trkpt>
      <trkpt lat="46.57806" lon="5.38232">
        <ele>209</ele>
        <time>2022-05-02T14:28:17Z</time>
      </trkpt>
      <trkpt lat="46.57767" lon="5.38272">
        <ele>209</ele>
        <time>2022-05-02T14:28:24Z</time>
      </trkpt>
      <trkpt lat="46.57755" lon="5.38283">
        <ele>209.2</ele>
        <time>2022-05-02T14:28:26Z</time>
      </trkpt>
      <trkpt lat="46.57749" lon="5.38287">
        <ele>209.4</ele>
        <time>2022-05-02T14:28:27Z</time>
      </trkpt>
      <trkpt lat="46.57743" lon="5.38291">
        <ele>209.4</ele>
        <time>2022-05-02T14:28:28Z</time>
      </trkpt>
      <trkpt lat="46.57723" lon="5.383">
        <ele>209.6</ele>
        <time>2022-05-02T14:28:31Z</time>
      </trkpt>
      <trkpt lat="46.57669" lon="5.38312">
        <ele>209.8</ele>
        <time>2022-05-02T14:28:39Z</time>
      </trkpt>
      <trkpt lat="46.57662" lon="5.38313">
        <ele>209.8</ele>
        <time>2022-05-02T14:28:40Z</time>
      </trkpt>
      <trkpt lat="46.57655" lon="5.38314">
        <ele>209.8</ele>
        <time>2022-05-02T14:28:41Z</time>
      </trkpt>
      <trkpt lat="46.57635" lon="5.38323">
        <ele>210</ele>
        <time>2022-05-02T14:28:44Z</time>
      </trkpt>
      <trkpt lat="46.57623" lon="5.38318">
        <ele>209.8</ele>
        <time>2022-05-02T14:28:46Z</time>
      </trkpt>
      <trkpt lat="46.57609" lon="5.38288">
        <ele>209.4</ele>
        <time>2022-05-02T14:28:49Z</time>
      </trkpt>
      <trkpt lat="46.57585" lon="5.38246">
        <ele>208.4</ele>
        <time>2022-05-02T14:28:53Z</time>
      </trkpt>
      <trkpt lat="46.57578" lon="5.38237">
        <ele>208.2</ele>
        <time>2022-05-02T14:28:54Z</time>
      </trkpt>
      <trkpt lat="46.57562" lon="5.3822">
        <ele>207</ele>
        <time>2022-05-02T14:28:56Z</time>
      </trkpt>
      <trkpt lat="46.57554" lon="5.38213">
        <ele>206.6</ele>
        <time>2022-05-02T14:28:57Z</time>
      </trkpt>
      <trkpt lat="46.57514" lon="5.38181">
        <ele>205.8</ele>
        <time>2022-05-02T14:29:02Z</time>
      </trkpt>
      <trkpt lat="46.57499" lon="5.38169">
        <ele>205.6</ele>
        <time>2022-05-02T14:29:04Z</time>
      </trkpt>
      <trkpt lat="46.57448" lon="5.38128">
        <ele>205.6</ele>
        <time>2022-05-02T14:29:11Z</time>
      </trkpt>
      <trkpt lat="46.57441" lon="5.38123">
        <ele>205.4</ele>
        <time>2022-05-02T14:29:12Z</time>
      </trkpt>
      <trkpt lat="46.57393" lon="5.38084">
        <ele>205.4</ele>
        <time>2022-05-02T14:29:19Z</time>
      </trkpt>
      <trkpt lat="46.57382" lon="5.38071">
        <ele>205.6</ele>
        <time>2022-05-02T14:29:21Z</time>
      </trkpt>
      <trkpt lat="46.57367" lon="5.38039">
        <ele>205.8</ele>
        <time>2022-05-02T14:29:25Z</time>
      </trkpt>
      <trkpt lat="46.57347" lon="5.37996">
        <ele>206.8</ele>
        <time>2022-05-02T14:29:31Z</time>
      </trkpt>
      <trkpt lat="46.57345" lon="5.37989">
        <ele>207</ele>
        <time>2022-05-02T14:29:32Z</time>
      </trkpt>
      <trkpt lat="46.57333" lon="5.37965">
        <ele>208.2</ele>
        <time>2022-05-02T14:29:36Z</time>
      </trkpt>
      <trkpt lat="46.5733" lon="5.37959">
        <ele>208.8</ele>
        <time>2022-05-02T14:29:37Z</time>
      </trkpt>
      <trkpt lat="46.57319" lon="5.3794">
        <ele>209.2</ele>
        <time>2022-05-02T14:29:40Z</time>
      </trkpt>
      <trkpt lat="46.57306" lon="5.37913">
        <ele>210.2</ele>
        <time>2022-05-02T14:29:44Z</time>
      </trkpt>
      <trkpt lat="46.57302" lon="5.37907">
        <ele>210.4</ele>
        <time>2022-05-02T14:29:45Z</time>
      </trkpt>
      <trkpt lat="46.57282" lon="5.37868">
        <ele>211.6</ele>
        <time>2022-05-02T14:29:51Z</time>
      </trkpt>
      <trkpt lat="46.57279" lon="5.37862">
        <ele>211.8</ele>
        <time>2022-05-02T14:29:52Z</time>
      </trkpt>
      <trkpt lat="46.57276" lon="5.37855">
        <ele>212</ele>
        <time>2022-05-02T14:29:53Z</time>
      </trkpt>
      <trkpt lat="46.57271" lon="5.37841">
        <ele>212.4</ele>
        <time>2022-05-02T14:29:55Z</time>
      </trkpt>
      <trkpt lat="46.57268" lon="5.37835">
        <ele>212.8</ele>
        <time>2022-05-02T14:29:56Z</time>
      </trkpt>
      <trkpt lat="46.57259" lon="5.37816">
        <ele>213.6</ele>
        <time>2022-05-02T14:29:59Z</time>
      </trkpt>
      <trkpt lat="46.57255" lon="5.3781">
        <ele>214</ele>
        <time>2022-05-02T14:30:00Z</time>
      </trkpt>
      <trkpt lat="46.57243" lon="5.37786">
        <ele>215</ele>
        <time>2022-05-02T14:30:04Z</time>
      </trkpt>
      <trkpt lat="46.57229" lon="5.37763">
        <ele>215.8</ele>
        <time>2022-05-02T14:30:08Z</time>
      </trkpt>
      <trkpt lat="46.57225" lon="5.37758">
        <ele>216.2</ele>
        <time>2022-05-02T14:30:09Z</time>
      </trkpt>
      <trkpt lat="46.57221" lon="5.37755">
        <ele>216.6</ele>
        <time>2022-05-02T14:30:10Z</time>
      </trkpt>
      <trkpt lat="46.57212" lon="5.37755">
        <ele>217</ele>
        <time>2022-05-02T14:30:12Z</time>
      </trkpt>
      <trkpt lat="46.57204" lon="5.37762">
        <ele>217.4</ele>
        <time>2022-05-02T14:30:14Z</time>
      </trkpt>
      <trkpt lat="46.57196" lon="5.37771">
        <ele>217.6</ele>
        <time>2022-05-02T14:30:16Z</time>
      </trkpt>
      <trkpt lat="46.57179" lon="5.37791">
        <ele>218</ele>
        <time>2022-05-02T14:30:20Z</time>
      </trkpt>
      <trkpt lat="46.57169" lon="5.37802">
        <ele>218.2</ele>
        <time>2022-05-02T14:30:22Z</time>
      </trkpt>
      <trkpt lat="46.57135" lon="5.3784">
        <ele>217.4</ele>
        <time>2022-05-02T14:30:28Z</time>
      </trkpt>
      <trkpt lat="46.57099" lon="5.37874">
        <ele>216.2</ele>
        <time>2022-05-02T14:30:33Z</time>
      </trkpt>
      <trkpt lat="46.57092" lon="5.3788">
        <ele>216</ele>
        <time>2022-05-02T14:30:34Z</time>
      </trkpt>
      <trkpt lat="46.5704" lon="5.37923">
        <ele>215.2</ele>
        <time>2022-05-02T14:30:41Z</time>
      </trkpt>
      <trkpt lat="46.57025" lon="5.37935">
        <ele>215.2</ele>
        <time>2022-05-02T14:30:43Z</time>
      </trkpt>
      <trkpt lat="46.5697" lon="5.37974">
        <ele>215.2</ele>
        <time>2022-05-02T14:30:51Z</time>
      </trkpt>
      <trkpt lat="46.5695" lon="5.37985">
        <ele>215.6</ele>
        <time>2022-05-02T14:30:54Z</time>
      </trkpt>
      <trkpt lat="46.56936" lon="5.37988">
        <ele>215.6</ele>
        <time>2022-05-02T14:30:56Z</time>
      </trkpt>
      <trkpt lat="46.56929" lon="5.37989">
        <ele>215.8</ele>
        <time>2022-05-02T14:30:57Z</time>
      </trkpt>
      <trkpt lat="46.56923" lon="5.37988">
        <ele>215.8</ele>
        <time>2022-05-02T14:30:58Z</time>
      </trkpt>
      <trkpt lat="46.5691" lon="5.37985">
        <ele>216.2</ele>
        <time>2022-05-02T14:31:00Z</time>
      </trkpt>
      <trkpt lat="46.56904" lon="5.37984">
        <ele>216.4</ele>
        <time>2022-05-02T14:31:01Z</time>
      </trkpt>
      <trkpt lat="46.56877" lon="5.37978">
        <ele>217.2</ele>
        <time>2022-05-02T14:31:05Z</time>
      </trkpt>
      <trkpt lat="46.56862" lon="5.37976">
        <ele>217.4</ele>
        <time>2022-05-02T14:31:07Z</time>
      </trkpt>
      <trkpt lat="46.56817" lon="5.37966">
        <ele>218.2</ele>
        <time>2022-05-02T14:31:13Z</time>
      </trkpt>
      <trkpt lat="46.56758" lon="5.37951">
        <ele>219.4</ele>
        <time>2022-05-02T14:31:21Z</time>
      </trkpt>
      <trkpt lat="46.56701" lon="5.37937">
        <ele>220.2</ele>
        <time>2022-05-02T14:31:29Z</time>
      </trkpt>
      <trkpt lat="46.56687" lon="5.37934">
        <ele>220.4</ele>
        <time>2022-05-02T14:31:31Z</time>
      </trkpt>
      <trkpt lat="46.56639" lon="5.37923">
        <ele>221.2</ele>
        <time>2022-05-02T14:31:38Z</time>
      </trkpt>
      <trkpt lat="46.56611" lon="5.37917">
        <ele>221.6</ele>
        <time>2022-05-02T14:31:42Z</time>
      </trkpt>
      <trkpt lat="46.56582" lon="5.37915">
        <ele>221.6</ele>
        <time>2022-05-02T14:31:46Z</time>
      </trkpt>
      <trkpt lat="46.5656" lon="5.3792">
        <ele>221.6</ele>
        <time>2022-05-02T14:31:49Z</time>
      </trkpt>
      <trkpt lat="46.56553" lon="5.37924">
        <ele>221.6</ele>
        <time>2022-05-02T14:31:50Z</time>
      </trkpt>
      <trkpt lat="46.56516" lon="5.37947">
        <ele>221.4</ele>
        <time>2022-05-02T14:31:55Z</time>
      </trkpt>
      <trkpt lat="46.56499" lon="5.3795">
        <ele>221</ele>
        <time>2022-05-02T14:31:57Z</time>
      </trkpt>
      <trkpt lat="46.56491" lon="5.37949">
        <ele>220.8</ele>
        <time>2022-05-02T14:31:58Z</time>
      </trkpt>
      <trkpt lat="46.56433" lon="5.37935">
        <ele>220.4</ele>
        <time>2022-05-02T14:32:05Z</time>
      </trkpt>
      <trkpt lat="46.56425" lon="5.37933">
        <ele>220.4</ele>
        <time>2022-05-02T14:32:06Z</time>
      </trkpt>
      <trkpt lat="46.56399" lon="5.37928">
        <ele>220.2</ele>
        <time>2022-05-02T14:32:09Z</time>
      </trkpt>
      <trkpt lat="46.56382" lon="5.37931">
        <ele>220</ele>
        <time>2022-05-02T14:32:11Z</time>
      </trkpt>
      <trkpt lat="46.56364" lon="5.3794">
        <ele>219.4</ele>
        <time>2022-05-02T14:32:13Z</time>
      </trkpt>
      <trkpt lat="46.56347" lon="5.37948">
        <ele>219</ele>
        <time>2022-05-02T14:32:15Z</time>
      </trkpt>
      <trkpt lat="46.56329" lon="5.37952">
        <ele>218.8</ele>
        <time>2022-05-02T14:32:17Z</time>
      </trkpt>
      <trkpt lat="46.5631" lon="5.3795">
        <ele>218.4</ele>
        <time>2022-05-02T14:32:19Z</time>
      </trkpt>
      <trkpt lat="46.56301" lon="5.3795">
        <ele>218.2</ele>
        <time>2022-05-02T14:32:20Z</time>
      </trkpt>
      <trkpt lat="46.56274" lon="5.37955">
        <ele>218</ele>
        <time>2022-05-02T14:32:23Z</time>
      </trkpt>
      <trkpt lat="46.56224" lon="5.3798">
        <ele>217.8</ele>
        <time>2022-05-02T14:32:29Z</time>
      </trkpt>
      <trkpt lat="46.56217" lon="5.37986">
        <ele>217.8</ele>
        <time>2022-05-02T14:32:30Z</time>
      </trkpt>
      <trkpt lat="46.5621" lon="5.37992">
        <ele>217.8</ele>
        <time>2022-05-02T14:32:31Z</time>
      </trkpt>
      <trkpt lat="46.56191" lon="5.38017">
        <ele>217.8</ele>
        <time>2022-05-02T14:32:34Z</time>
      </trkpt>
      <trkpt lat="46.56156" lon="5.38084">
        <ele>218.2</ele>
        <time>2022-05-02T14:32:41Z</time>
      </trkpt>
      <trkpt lat="46.56128" lon="5.38112">
        <ele>218.6</ele>
        <time>2022-05-02T14:32:45Z</time>
      </trkpt>
      <trkpt lat="46.56076" lon="5.38149">
        <ele>219</ele>
        <time>2022-05-02T14:32:52Z</time>
      </trkpt>
      <trkpt lat="46.56069" lon="5.38154">
        <ele>219</ele>
        <time>2022-05-02T14:32:53Z</time>
      </trkpt>
      <trkpt lat="46.56048" lon="5.38169">
        <ele>219.4</ele>
        <time>2022-05-02T14:32:56Z</time>
      </trkpt>
      <trkpt lat="46.56027" lon="5.38186">
        <ele>219.6</ele>
        <time>2022-05-02T14:32:59Z</time>
      </trkpt>
      <trkpt lat="46.56021" lon="5.38193">
        <ele>219.6</ele>
        <time>2022-05-02T14:33:00Z</time>
      </trkpt>
      <trkpt lat="46.56015" lon="5.38202">
        <ele>219.6</ele>
        <time>2022-05-02T14:33:01Z</time>
      </trkpt>
      <trkpt lat="46.56008" lon="5.38223">
        <ele>219.6</ele>
        <time>2022-05-02T14:33:03Z</time>
      </trkpt>
      <trkpt lat="46.55998" lon="5.38293">
        <ele>219.6</ele>
        <time>2022-05-02T14:33:09Z</time>
      </trkpt>
      <trkpt lat="46.55989" lon="5.38347">
        <ele>220.4</ele>
        <time>2022-05-02T14:33:14Z</time>
      </trkpt>
      <trkpt lat="46.55987" lon="5.38357">
        <ele>220.4</ele>
        <time>2022-05-02T14:33:15Z</time>
      </trkpt>
      <trkpt lat="46.55978" lon="5.38425">
        <ele>221.4</ele>
        <time>2022-05-02T14:33:22Z</time>
      </trkpt>
      <trkpt lat="46.55976" lon="5.38452">
        <ele>221.8</ele>
        <time>2022-05-02T14:33:25Z</time>
      </trkpt>
      <trkpt lat="46.55975" lon="5.38469">
        <ele>222.2</ele>
        <time>2022-05-02T14:33:27Z</time>
      </trkpt>
      <trkpt lat="46.55976" lon="5.38479">
        <ele>222.4</ele>
        <time>2022-05-02T14:33:28Z</time>
      </trkpt>
      <trkpt lat="46.55978" lon="5.38498">
        <ele>222.8</ele>
        <time>2022-05-02T14:33:30Z</time>
      </trkpt>
      <trkpt lat="46.55979" lon="5.38517">
        <ele>223.6</ele>
        <time>2022-05-02T14:33:32Z</time>
      </trkpt>
      <trkpt lat="46.55981" lon="5.38537">
        <ele>223.6</ele>
        <time>2022-05-02T14:33:34Z</time>
      </trkpt>
      <trkpt lat="46.55985" lon="5.38568">
        <ele>223.6</ele>
        <time>2022-05-02T14:33:37Z</time>
      </trkpt>
      <trkpt lat="46.55996" lon="5.3864">
        <ele>223.6</ele>
        <time>2022-05-02T14:33:44Z</time>
      </trkpt>
      <trkpt lat="46.55997" lon="5.38649">
        <ele>223.6</ele>
        <time>2022-05-02T14:33:45Z</time>
      </trkpt>
      <trkpt lat="46.55998" lon="5.38659">
        <ele>223.4</ele>
        <time>2022-05-02T14:33:46Z</time>
      </trkpt>
      <trkpt lat="46.56" lon="5.38699">
        <ele>223.4</ele>
        <time>2022-05-02T14:33:50Z</time>
      </trkpt>
      <trkpt lat="46.56006" lon="5.38752">
        <ele>223.4</ele>
        <time>2022-05-02T14:33:55Z</time>
      </trkpt>
      <trkpt lat="46.56008" lon="5.38802">
        <ele>223.2</ele>
        <time>2022-05-02T14:33:59Z</time>
      </trkpt>
      <trkpt lat="46.56006" lon="5.38816">
        <ele>223</ele>
        <time>2022-05-02T14:34:00Z</time>
      </trkpt>
      <trkpt lat="46.55992" lon="5.38886">
        <ele>221.6</ele>
        <time>2022-05-02T14:34:05Z</time>
      </trkpt>
      <trkpt lat="46.55984" lon="5.38912">
        <ele>220.4</ele>
        <time>2022-05-02T14:34:07Z</time>
      </trkpt>
      <trkpt lat="46.55974" lon="5.38937">
        <ele>219.2</ele>
        <time>2022-05-02T14:34:09Z</time>
      </trkpt>
      <trkpt lat="46.55966" lon="5.38961">
        <ele>218.6</ele>
        <time>2022-05-02T14:34:11Z</time>
      </trkpt>
      <trkpt lat="46.55953" lon="5.38995">
        <ele>218.2</ele>
        <time>2022-05-02T14:34:14Z</time>
      </trkpt>
      <trkpt lat="46.55945" lon="5.39029">
        <ele>218.2</ele>
        <time>2022-05-02T14:34:17Z</time>
      </trkpt>
      <trkpt lat="46.55939" lon="5.39078">
        <ele>219</ele>
        <time>2022-05-02T14:34:22Z</time>
      </trkpt>
      <trkpt lat="46.55939" lon="5.39087">
        <ele>219.2</ele>
        <time>2022-05-02T14:34:23Z</time>
      </trkpt>
      <trkpt lat="46.55938" lon="5.39095">
        <ele>219.6</ele>
        <time>2022-05-02T14:34:24Z</time>
      </trkpt>
      <trkpt lat="46.55936" lon="5.39138">
        <ele>220.6</ele>
        <time>2022-05-02T14:34:29Z</time>
      </trkpt>
      <trkpt lat="46.55936" lon="5.39147">
        <ele>220.8</ele>
        <time>2022-05-02T14:34:30Z</time>
      </trkpt>
      <trkpt lat="46.55936" lon="5.39194">
        <ele>221.6</ele>
        <time>2022-05-02T14:34:35Z</time>
      </trkpt>
      <trkpt lat="46.55935" lon="5.39212">
        <ele>222.2</ele>
        <time>2022-05-02T14:34:37Z</time>
      </trkpt>
      <trkpt lat="46.55934" lon="5.3924">
        <ele>222.8</ele>
        <time>2022-05-02T14:34:40Z</time>
      </trkpt>
      <trkpt lat="46.55928" lon="5.39285">
        <ele>223.2</ele>
        <time>2022-05-02T14:34:45Z</time>
      </trkpt>
      <trkpt lat="46.55921" lon="5.3934">
        <ele>223.8</ele>
        <time>2022-05-02T14:34:51Z</time>
      </trkpt>
      <trkpt lat="46.55917" lon="5.39375">
        <ele>224.2</ele>
        <time>2022-05-02T14:34:55Z</time>
      </trkpt>
      <trkpt lat="46.55911" lon="5.39436">
        <ele>225</ele>
        <time>2022-05-02T14:35:02Z</time>
      </trkpt>
      <trkpt lat="46.5591" lon="5.39445">
        <ele>225</ele>
        <time>2022-05-02T14:35:03Z</time>
      </trkpt>
      <trkpt lat="46.55902" lon="5.39515">
        <ele>226.2</ele>
        <time>2022-05-02T14:35:11Z</time>
      </trkpt>
      <trkpt lat="46.55899" lon="5.39533">
        <ele>226.4</ele>
        <time>2022-05-02T14:35:13Z</time>
      </trkpt>
      <trkpt lat="46.55889" lon="5.39616">
        <ele>227</ele>
        <time>2022-05-02T14:35:22Z</time>
      </trkpt>
      <trkpt lat="46.55873" lon="5.39686">
        <ele>227.2</ele>
        <time>2022-05-02T14:35:30Z</time>
      </trkpt>
      <trkpt lat="46.55871" lon="5.39695">
        <ele>227.2</ele>
        <time>2022-05-02T14:35:31Z</time>
      </trkpt>
      <trkpt lat="46.55855" lon="5.39753">
        <ele>227.8</ele>
        <time>2022-05-02T14:35:38Z</time>
      </trkpt>
      <trkpt lat="46.55849" lon="5.39777">
        <ele>228.2</ele>
        <time>2022-05-02T14:35:41Z</time>
      </trkpt>
      <trkpt lat="46.55834" lon="5.39834">
        <ele>229.2</ele>
        <time>2022-05-02T14:35:48Z</time>
      </trkpt>
      <trkpt lat="46.55832" lon="5.39843">
        <ele>229.4</ele>
        <time>2022-05-02T14:35:49Z</time>
      </trkpt>
      <trkpt lat="46.5582" lon="5.39891">
        <ele>229.6</ele>
        <time>2022-05-02T14:35:54Z</time>
      </trkpt>
      <trkpt lat="46.55814" lon="5.39908">
        <ele>229.4</ele>
        <time>2022-05-02T14:35:56Z</time>
      </trkpt>
      <trkpt lat="46.55804" lon="5.39916">
        <ele>229</ele>
        <time>2022-05-02T14:35:58Z</time>
      </trkpt>
      <trkpt lat="46.55792" lon="5.39912">
        <ele>229</ele>
        <time>2022-05-02T14:36:00Z</time>
      </trkpt>
      <trkpt lat="46.55786" lon="5.39907">
        <ele>228.8</ele>
        <time>2022-05-02T14:36:01Z</time>
      </trkpt>
      <trkpt lat="46.55751" lon="5.39876">
        <ele>229.2</ele>
        <time>2022-05-02T14:36:07Z</time>
      </trkpt>
      <trkpt lat="46.55713" lon="5.39841">
        <ele>230.6</ele>
        <time>2022-05-02T14:36:14Z</time>
      </trkpt>
      <trkpt lat="46.55708" lon="5.39835">
        <ele>230.8</ele>
        <time>2022-05-02T14:36:15Z</time>
      </trkpt>
      <trkpt lat="46.55688" lon="5.39815">
        <ele>232</ele>
        <time>2022-05-02T14:36:19Z</time>
      </trkpt>
      <trkpt lat="46.55673" lon="5.39802">
        <ele>233</ele>
        <time>2022-05-02T14:36:22Z</time>
      </trkpt>
      <trkpt lat="46.55667" lon="5.39797">
        <ele>233.2</ele>
        <time>2022-05-02T14:36:23Z</time>
      </trkpt>
      <trkpt lat="46.5563" lon="5.39771">
        <ele>233.6</ele>
        <time>2022-05-02T14:36:29Z</time>
      </trkpt>
      <trkpt lat="46.55584" lon="5.39739">
        <ele>233.6</ele>
        <time>2022-05-02T14:36:35Z</time>
      </trkpt>
      <trkpt lat="46.55536" lon="5.39697">
        <ele>232.2</ele>
        <time>2022-05-02T14:36:42Z</time>
      </trkpt>
      <trkpt lat="46.55483" lon="5.39652">
        <ele>232.4</ele>
        <time>2022-05-02T14:36:50Z</time>
      </trkpt>
      <trkpt lat="46.55463" lon="5.39636">
        <ele>232.6</ele>
        <time>2022-05-02T14:36:53Z</time>
      </trkpt>
      <trkpt lat="46.55421" lon="5.39601">
        <ele>233.2</ele>
        <time>2022-05-02T14:37:00Z</time>
      </trkpt>
      <trkpt lat="46.55405" lon="5.39587">
        <ele>234</ele>
        <time>2022-05-02T14:37:03Z</time>
      </trkpt>
      <trkpt lat="46.55375" lon="5.39564">
        <ele>235.2</ele>
        <time>2022-05-02T14:37:08Z</time>
      </trkpt>
      <trkpt lat="46.55333" lon="5.39529">
        <ele>236.2</ele>
        <time>2022-05-02T14:37:15Z</time>
      </trkpt>
      <trkpt lat="46.55307" lon="5.39511">
        <ele>237</ele>
        <time>2022-05-02T14:37:19Z</time>
      </trkpt>
      <trkpt lat="46.55254" lon="5.39468">
        <ele>236.8</ele>
        <time>2022-05-02T14:37:27Z</time>
      </trkpt>
      <trkpt lat="46.5524" lon="5.39456">
        <ele>236.6</ele>
        <time>2022-05-02T14:37:29Z</time>
      </trkpt>
      <trkpt lat="46.55229" lon="5.3944">
        <ele>236.4</ele>
        <time>2022-05-02T14:37:31Z</time>
      </trkpt>
      <trkpt lat="46.55223" lon="5.39433">
        <ele>236.4</ele>
        <time>2022-05-02T14:37:32Z</time>
      </trkpt>
      <trkpt lat="46.55208" lon="5.39425">
        <ele>236.2</ele>
        <time>2022-05-02T14:37:34Z</time>
      </trkpt>
      <trkpt lat="46.55167" lon="5.39421">
        <ele>236.2</ele>
        <time>2022-05-02T14:37:39Z</time>
      </trkpt>
      <trkpt lat="46.55123" lon="5.39404">
        <ele>236.6</ele>
        <time>2022-05-02T14:37:45Z</time>
      </trkpt>
      <trkpt lat="46.55071" lon="5.39379">
        <ele>236.8</ele>
        <time>2022-05-02T14:37:52Z</time>
      </trkpt>
      <trkpt lat="46.55047" lon="5.39366">
        <ele>236.6</ele>
        <time>2022-05-02T14:37:55Z</time>
      </trkpt>
      <trkpt lat="46.54993" lon="5.39333">
        <ele>235.4</ele>
        <time>2022-05-02T14:38:01Z</time>
      </trkpt>
      <trkpt lat="46.54964" lon="5.3932">
        <ele>233.8</ele>
        <time>2022-05-02T14:38:04Z</time>
      </trkpt>
      <trkpt lat="46.54935" lon="5.39308">
        <ele>232.4</ele>
        <time>2022-05-02T14:38:07Z</time>
      </trkpt>
      <trkpt lat="46.54894" lon="5.39295">
        <ele>231.6</ele>
        <time>2022-05-02T14:38:12Z</time>
      </trkpt>
      <trkpt lat="46.54844" lon="5.39273">
        <ele>233.4</ele>
        <time>2022-05-02T14:38:19Z</time>
      </trkpt>
      <trkpt lat="46.54823" lon="5.39263">
        <ele>234.8</ele>
        <time>2022-05-02T14:38:22Z</time>
      </trkpt>
      <trkpt lat="46.54802" lon="5.39253">
        <ele>236.2</ele>
        <time>2022-05-02T14:38:25Z</time>
      </trkpt>
      <trkpt lat="46.54789" lon="5.39246">
        <ele>236.6</ele>
        <time>2022-05-02T14:38:27Z</time>
      </trkpt>
      <trkpt lat="46.54769" lon="5.39237">
        <ele>237.2</ele>
        <time>2022-05-02T14:38:30Z</time>
      </trkpt>
      <trkpt lat="46.54757" lon="5.39231">
        <ele>238.2</ele>
        <time>2022-05-02T14:38:32Z</time>
      </trkpt>
      <trkpt lat="46.54732" lon="5.39219">
        <ele>239</ele>
        <time>2022-05-02T14:38:36Z</time>
      </trkpt>
      <trkpt lat="46.5472" lon="5.39213">
        <ele>239.2</ele>
        <time>2022-05-02T14:38:38Z</time>
      </trkpt>
      <trkpt lat="46.5467" lon="5.39188">
        <ele>240.2</ele>
        <time>2022-05-02T14:38:46Z</time>
      </trkpt>
      <trkpt lat="46.54643" lon="5.39176">
        <ele>240.4</ele>
        <time>2022-05-02T14:38:50Z</time>
      </trkpt>
      <trkpt lat="46.54602" lon="5.39158">
        <ele>240.4</ele>
        <time>2022-05-02T14:38:56Z</time>
      </trkpt>
      <trkpt lat="46.54551" lon="5.39132">
        <ele>240.2</ele>
        <time>2022-05-02T14:39:04Z</time>
      </trkpt>
      <trkpt lat="46.54539" lon="5.39125">
        <ele>240.4</ele>
        <time>2022-05-02T14:39:06Z</time>
      </trkpt>
      <trkpt lat="46.54518" lon="5.39112">
        <ele>241.4</ele>
        <time>2022-05-02T14:39:10Z</time>
      </trkpt>
      <trkpt lat="46.54513" lon="5.39111">
        <ele>241.8</ele>
        <time>2022-05-02T14:39:11Z</time>
      </trkpt>
      <trkpt lat="46.54508" lon="5.39112">
        <ele>242</ele>
        <time>2022-05-02T14:39:12Z</time>
      </trkpt>
      <trkpt lat="46.54502" lon="5.39122">
        <ele>242.4</ele>
        <time>2022-05-02T14:39:14Z</time>
      </trkpt>
      <trkpt lat="46.54498" lon="5.39136">
        <ele>243.4</ele>
        <time>2022-05-02T14:39:16Z</time>
      </trkpt>
      <trkpt lat="46.54489" lon="5.39146">
        <ele>243.6</ele>
        <time>2022-05-02T14:39:18Z</time>
      </trkpt>
      <trkpt lat="46.54476" lon="5.39143">
        <ele>243.6</ele>
        <time>2022-05-02T14:39:20Z</time>
      </trkpt>
      <trkpt lat="46.54444" lon="5.3913">
        <ele>243.2</ele>
        <time>2022-05-02T14:39:24Z</time>
      </trkpt>
      <trkpt lat="46.54425" lon="5.39125">
        <ele>242.6</ele>
        <time>2022-05-02T14:39:26Z</time>
      </trkpt>
      <trkpt lat="46.54395" lon="5.39115">
        <ele>241.6</ele>
        <time>2022-05-02T14:39:29Z</time>
      </trkpt>
      <trkpt lat="46.54385" lon="5.39111">
        <ele>241</ele>
        <time>2022-05-02T14:39:30Z</time>
      </trkpt>
      <trkpt lat="46.54345" lon="5.39097">
        <ele>239.6</ele>
        <time>2022-05-02T14:39:34Z</time>
      </trkpt>
      <trkpt lat="46.54326" lon="5.39088">
        <ele>238.8</ele>
        <time>2022-05-02T14:39:36Z</time>
      </trkpt>
      <trkpt lat="46.54298" lon="5.39074">
        <ele>238.4</ele>
        <time>2022-05-02T14:39:39Z</time>
      </trkpt>
      <trkpt lat="46.54262" lon="5.39054">
        <ele>238.4</ele>
        <time>2022-05-02T14:39:43Z</time>
      </trkpt>
      <trkpt lat="46.54209" lon="5.39027">
        <ele>238</ele>
        <time>2022-05-02T14:39:49Z</time>
      </trkpt>
      <trkpt lat="46.542" lon="5.39023">
        <ele>237.8</ele>
        <time>2022-05-02T14:39:50Z</time>
      </trkpt>
      <trkpt lat="46.5416" lon="5.39005">
        <ele>238</ele>
        <time>2022-05-02T14:39:55Z</time>
      </trkpt>
      <trkpt lat="46.54103" lon="5.38985">
        <ele>238.6</ele>
        <time>2022-05-02T14:40:02Z</time>
      </trkpt>
      <trkpt lat="46.54088" lon="5.38979">
        <ele>238.8</ele>
        <time>2022-05-02T14:40:04Z</time>
      </trkpt>
      <trkpt lat="46.54034" lon="5.38956">
        <ele>239</ele>
        <time>2022-05-02T14:40:11Z</time>
      </trkpt>
      <trkpt lat="46.5398" lon="5.38942">
        <ele>239</ele>
        <time>2022-05-02T14:40:18Z</time>
      </trkpt>
      <trkpt lat="46.53972" lon="5.38941">
        <ele>239</ele>
        <time>2022-05-02T14:40:19Z</time>
      </trkpt>
      <trkpt lat="46.53918" lon="5.38935">
        <ele>239.2</ele>
        <time>2022-05-02T14:40:26Z</time>
      </trkpt>
      <trkpt lat="46.53896" lon="5.38934">
        <ele>239.4</ele>
        <time>2022-05-02T14:40:29Z</time>
      </trkpt>
      <trkpt lat="46.53888" lon="5.38933">
        <ele>239.6</ele>
        <time>2022-05-02T14:40:30Z</time>
      </trkpt>
      <trkpt lat="46.53845" lon="5.38928">
        <ele>240.2</ele>
        <time>2022-05-02T14:40:36Z</time>
      </trkpt>
      <trkpt lat="46.53809" lon="5.38911">
        <ele>240.6</ele>
        <time>2022-05-02T14:40:41Z</time>
      </trkpt>
      <trkpt lat="46.53793" lon="5.38907">
        <ele>240.6</ele>
        <time>2022-05-02T14:40:43Z</time>
      </trkpt>
      <trkpt lat="46.53738" lon="5.38889">
        <ele>240.8</ele>
        <time>2022-05-02T14:40:50Z</time>
      </trkpt>
      <trkpt lat="46.5373" lon="5.38885">
        <ele>240.8</ele>
        <time>2022-05-02T14:40:51Z</time>
      </trkpt>
      <trkpt lat="46.53677" lon="5.38865">
        <ele>240.8</ele>
        <time>2022-05-02T14:40:58Z</time>
      </trkpt>
      <trkpt lat="46.5367" lon="5.38862">
        <ele>240.8</ele>
        <time>2022-05-02T14:40:59Z</time>
      </trkpt>
      <trkpt lat="46.53614" lon="5.38832">
        <ele>241.2</ele>
        <time>2022-05-02T14:41:07Z</time>
      </trkpt>
      <trkpt lat="46.53574" lon="5.38808">
        <ele>241.6</ele>
        <time>2022-05-02T14:41:13Z</time>
      </trkpt>
      <trkpt lat="46.53561" lon="5.38798">
        <ele>241.6</ele>
        <time>2022-05-02T14:41:15Z</time>
      </trkpt>
      <trkpt lat="46.53545" lon="5.38774">
        <ele>241.6</ele>
        <time>2022-05-02T14:41:18Z</time>
      </trkpt>
      <trkpt lat="46.53535" lon="5.38756">
        <ele>241.4</ele>
        <time>2022-05-02T14:41:20Z</time>
      </trkpt>
      <trkpt lat="46.53522" lon="5.38745">
        <ele>241</ele>
        <time>2022-05-02T14:41:22Z</time>
      </trkpt>
      <trkpt lat="46.53509" lon="5.38744">
        <ele>240.6</ele>
        <time>2022-05-02T14:41:24Z</time>
      </trkpt>
      <trkpt lat="46.53502" lon="5.38746">
        <ele>240.4</ele>
        <time>2022-05-02T14:41:25Z</time>
      </trkpt>
      <trkpt lat="46.53496" lon="5.38747">
        <ele>240</ele>
        <time>2022-05-02T14:41:26Z</time>
      </trkpt>
      <trkpt lat="46.5349" lon="5.38744">
        <ele>240</ele>
        <time>2022-05-02T14:41:27Z</time>
      </trkpt>
      <trkpt lat="46.5348" lon="5.38731">
        <ele>239.6</ele>
        <time>2022-05-02T14:41:29Z</time>
      </trkpt>
      <trkpt lat="46.53462" lon="5.38715">
        <ele>239.4</ele>
        <time>2022-05-02T14:41:32Z</time>
      </trkpt>
      <trkpt lat="46.53455" lon="5.38712">
        <ele>239.4</ele>
        <time>2022-05-02T14:41:33Z</time>
      </trkpt>
      <trkpt lat="46.53432" lon="5.38705">
        <ele>239.4</ele>
        <time>2022-05-02T14:41:36Z</time>
      </trkpt>
      <trkpt lat="46.53384" lon="5.38699">
        <ele>239.4</ele>
        <time>2022-05-02T14:41:42Z</time>
      </trkpt>
      <trkpt lat="46.53324" lon="5.38694">
        <ele>239.4</ele>
        <time>2022-05-02T14:41:49Z</time>
      </trkpt>
      <trkpt lat="46.53272" lon="5.38676">
        <ele>238.8</ele>
        <time>2022-05-02T14:41:55Z</time>
      </trkpt>
      <trkpt lat="46.53246" lon="5.38666">
        <ele>238.2</ele>
        <time>2022-05-02T14:41:58Z</time>
      </trkpt>
      <trkpt lat="46.53212" lon="5.38649">
        <ele>237.2</ele>
        <time>2022-05-02T14:42:02Z</time>
      </trkpt>
      <trkpt lat="46.53196" lon="5.38635">
        <ele>236.8</ele>
        <time>2022-05-02T14:42:04Z</time>
      </trkpt>
      <trkpt lat="46.53182" lon="5.38617">
        <ele>236.6</ele>
        <time>2022-05-02T14:42:06Z</time>
      </trkpt>
      <trkpt lat="46.53174" lon="5.38609">
        <ele>236.4</ele>
        <time>2022-05-02T14:42:07Z</time>
      </trkpt>
      <trkpt lat="46.53165" lon="5.38602">
        <ele>236</ele>
        <time>2022-05-02T14:42:08Z</time>
      </trkpt>
      <trkpt lat="46.53157" lon="5.38596">
        <ele>236</ele>
        <time>2022-05-02T14:42:09Z</time>
      </trkpt>
      <trkpt lat="46.53149" lon="5.38591">
        <ele>235.4</ele>
        <time>2022-05-02T14:42:10Z</time>
      </trkpt>
      <trkpt lat="46.53135" lon="5.38583">
        <ele>235</ele>
        <time>2022-05-02T14:42:12Z</time>
      </trkpt>
      <trkpt lat="46.53128" lon="5.3858">
        <ele>234.8</ele>
        <time>2022-05-02T14:42:13Z</time>
      </trkpt>
      <trkpt lat="46.53121" lon="5.38578">
        <ele>234.4</ele>
        <time>2022-05-02T14:42:14Z</time>
      </trkpt>
      <trkpt lat="46.53114" lon="5.38579">
        <ele>234.4</ele>
        <time>2022-05-02T14:42:15Z</time>
      </trkpt>
      <trkpt lat="46.53106" lon="5.38581">
        <ele>233.6</ele>
        <time>2022-05-02T14:42:16Z</time>
      </trkpt>
      <trkpt lat="46.53089" lon="5.38587">
        <ele>233</ele>
        <time>2022-05-02T14:42:18Z</time>
      </trkpt>
      <trkpt lat="46.53081" lon="5.3859">
        <ele>232.4</ele>
        <time>2022-05-02T14:42:19Z</time>
      </trkpt>
      <trkpt lat="46.53045" lon="5.38599">
        <ele>231.4</ele>
        <time>2022-05-02T14:42:23Z</time>
      </trkpt>
      <trkpt lat="46.53" lon="5.38607">
        <ele>230</ele>
        <time>2022-05-02T14:42:28Z</time>
      </trkpt>
      <trkpt lat="46.52992" lon="5.38607">
        <ele>230</ele>
        <time>2022-05-02T14:42:29Z</time>
      </trkpt>
      <trkpt lat="46.52954" lon="5.38601">
        <ele>229.2</ele>
        <time>2022-05-02T14:42:33Z</time>
      </trkpt>
      <trkpt lat="46.52945" lon="5.38602">
        <ele>229.2</ele>
        <time>2022-05-02T14:42:34Z</time>
      </trkpt>
      <trkpt lat="46.52937" lon="5.38603">
        <ele>228.8</ele>
        <time>2022-05-02T14:42:35Z</time>
      </trkpt>
      <trkpt lat="46.52929" lon="5.38603">
        <ele>228.6</ele>
        <time>2022-05-02T14:42:36Z</time>
      </trkpt>
      <trkpt lat="46.52921" lon="5.38603">
        <ele>227.6</ele>
        <time>2022-05-02T14:42:37Z</time>
      </trkpt>
      <trkpt lat="46.52914" lon="5.38603">
        <ele>227</ele>
        <time>2022-05-02T14:42:38Z</time>
      </trkpt>
      <trkpt lat="46.529" lon="5.38608">
        <ele>225.8</ele>
        <time>2022-05-02T14:42:40Z</time>
      </trkpt>
      <trkpt lat="46.52883" lon="5.38608">
        <ele>225.2</ele>
        <time>2022-05-02T14:42:42Z</time>
      </trkpt>
      <trkpt lat="46.52866" lon="5.38605">
        <ele>224.6</ele>
        <time>2022-05-02T14:42:44Z</time>
      </trkpt>
      <trkpt lat="46.52839" lon="5.38599">
        <ele>223.4</ele>
        <time>2022-05-02T14:42:47Z</time>
      </trkpt>
      <trkpt lat="46.52822" lon="5.38593">
        <ele>223</ele>
        <time>2022-05-02T14:42:49Z</time>
      </trkpt>
      <trkpt lat="46.52807" lon="5.38582">
        <ele>222.8</ele>
        <time>2022-05-02T14:42:51Z</time>
      </trkpt>
      <trkpt lat="46.52795" lon="5.38564">
        <ele>222.4</ele>
        <time>2022-05-02T14:42:53Z</time>
      </trkpt>
      <trkpt lat="46.5279" lon="5.38554">
        <ele>222.2</ele>
        <time>2022-05-02T14:42:54Z</time>
      </trkpt>
      <trkpt lat="46.52781" lon="5.38535">
        <ele>221.8</ele>
        <time>2022-05-02T14:42:56Z</time>
      </trkpt>
      <trkpt lat="46.52774" lon="5.3853">
        <ele>221.8</ele>
        <time>2022-05-02T14:42:57Z</time>
      </trkpt>
      <trkpt lat="46.52766" lon="5.38528">
        <ele>221.6</ele>
        <time>2022-05-02T14:42:58Z</time>
      </trkpt>
      <trkpt lat="46.52751" lon="5.3853">
        <ele>221.4</ele>
        <time>2022-05-02T14:43:00Z</time>
      </trkpt>
      <trkpt lat="46.52736" lon="5.38532">
        <ele>221.4</ele>
        <time>2022-05-02T14:43:02Z</time>
      </trkpt>
      <trkpt lat="46.52721" lon="5.38528">
        <ele>221.4</ele>
        <time>2022-05-02T14:43:04Z</time>
      </trkpt>
      <trkpt lat="46.52699" lon="5.38516">
        <ele>221.8</ele>
        <time>2022-05-02T14:43:07Z</time>
      </trkpt>
      <trkpt lat="46.52676" lon="5.3851">
        <ele>222</ele>
        <time>2022-05-02T14:43:10Z</time>
      </trkpt>
      <trkpt lat="46.52623" lon="5.38503">
        <ele>222.6</ele>
        <time>2022-05-02T14:43:17Z</time>
      </trkpt>
      <trkpt lat="46.52594" lon="5.38497">
        <ele>223.4</ele>
        <time>2022-05-02T14:43:21Z</time>
      </trkpt>
      <trkpt lat="46.5258" lon="5.38494">
        <ele>223.6</ele>
        <time>2022-05-02T14:43:23Z</time>
      </trkpt>
      <trkpt lat="46.52573" lon="5.38491">
        <ele>223.8</ele>
        <time>2022-05-02T14:43:24Z</time>
      </trkpt>
      <trkpt lat="46.52542" lon="5.38468">
        <ele>224.4</ele>
        <time>2022-05-02T14:43:29Z</time>
      </trkpt>
      <trkpt lat="46.52532" lon="5.38453">
        <ele>224.4</ele>
        <time>2022-05-02T14:43:31Z</time>
      </trkpt>
      <trkpt lat="46.52527" lon="5.38437">
        <ele>224.6</ele>
        <time>2022-05-02T14:43:33Z</time>
      </trkpt>
      <trkpt lat="46.52525" lon="5.38398">
        <ele>225.2</ele>
        <time>2022-05-02T14:43:37Z</time>
      </trkpt>
      <trkpt lat="46.52525" lon="5.38388">
        <ele>225.4</ele>
        <time>2022-05-02T14:43:38Z</time>
      </trkpt>
      <trkpt lat="46.52525" lon="5.38366">
        <ele>225.6</ele>
        <time>2022-05-02T14:43:40Z</time>
      </trkpt>
      <trkpt lat="46.52522" lon="5.38342">
        <ele>225.6</ele>
        <time>2022-05-02T14:43:42Z</time>
      </trkpt>
      <trkpt lat="46.52514" lon="5.38278">
        <ele>224.6</ele>
        <time>2022-05-02T14:43:47Z</time>
      </trkpt>
      <trkpt lat="46.52516" lon="5.38251">
        <ele>224</ele>
        <time>2022-05-02T14:43:49Z</time>
      </trkpt>
      <trkpt lat="46.5252" lon="5.38225">
        <ele>223.6</ele>
        <time>2022-05-02T14:43:51Z</time>
      </trkpt>
      <trkpt lat="46.52527" lon="5.38199">
        <ele>223</ele>
        <time>2022-05-02T14:43:53Z</time>
      </trkpt>
      <trkpt lat="46.5254" lon="5.38146">
        <ele>221.8</ele>
        <time>2022-05-02T14:43:57Z</time>
      </trkpt>
      <trkpt lat="46.52543" lon="5.38133">
        <ele>221.6</ele>
        <time>2022-05-02T14:43:58Z</time>
      </trkpt>
      <trkpt lat="46.52547" lon="5.38079">
        <ele>220.8</ele>
        <time>2022-05-02T14:44:02Z</time>
      </trkpt>
      <trkpt lat="46.52546" lon="5.38066">
        <ele>220.6</ele>
        <time>2022-05-02T14:44:03Z</time>
      </trkpt>
      <trkpt lat="46.52542" lon="5.38029">
        <ele>220.2</ele>
        <time>2022-05-02T14:44:06Z</time>
      </trkpt>
      <trkpt lat="46.5253" lon="5.37981">
        <ele>219.4</ele>
        <time>2022-05-02T14:44:10Z</time>
      </trkpt>
      <trkpt lat="46.52526" lon="5.3797">
        <ele>219.4</ele>
        <time>2022-05-02T14:44:11Z</time>
      </trkpt>
      <trkpt lat="46.52522" lon="5.37946">
        <ele>218.8</ele>
        <time>2022-05-02T14:44:13Z</time>
      </trkpt>
      <trkpt lat="46.52521" lon="5.37921">
        <ele>218.6</ele>
        <time>2022-05-02T14:44:15Z</time>
      </trkpt>
      <trkpt lat="46.52522" lon="5.37896">
        <ele>218.4</ele>
        <time>2022-05-02T14:44:17Z</time>
      </trkpt>
      <trkpt lat="46.52526" lon="5.37847">
        <ele>218</ele>
        <time>2022-05-02T14:44:21Z</time>
      </trkpt>
      <trkpt lat="46.52531" lon="5.37765">
        <ele>217.4</ele>
        <time>2022-05-02T14:44:28Z</time>
      </trkpt>
      <trkpt lat="46.52532" lon="5.37742">
        <ele>217.2</ele>
        <time>2022-05-02T14:44:30Z</time>
      </trkpt>
      <trkpt lat="46.52538" lon="5.37662">
        <ele>216.6</ele>
        <time>2022-05-02T14:44:37Z</time>
      </trkpt>
      <trkpt lat="46.52538" lon="5.37651">
        <ele>216.6</ele>
        <time>2022-05-02T14:44:38Z</time>
      </trkpt>
      <trkpt lat="46.52545" lon="5.3757">
        <ele>216.2</ele>
        <time>2022-05-02T14:44:45Z</time>
      </trkpt>
      <trkpt lat="46.52548" lon="5.37536">
        <ele>216.2</ele>
        <time>2022-05-02T14:44:48Z</time>
      </trkpt>
      <trkpt lat="46.52549" lon="5.37524">
        <ele>216.2</ele>
        <time>2022-05-02T14:44:49Z</time>
      </trkpt>
      <trkpt lat="46.52557" lon="5.37456">
        <ele>216.2</ele>
        <time>2022-05-02T14:44:55Z</time>
      </trkpt>
      <trkpt lat="46.52563" lon="5.37376">
        <ele>215.8</ele>
        <time>2022-05-02T14:45:02Z</time>
      </trkpt>
      <trkpt lat="46.52564" lon="5.37365">
        <ele>215.8</ele>
        <time>2022-05-02T14:45:03Z</time>
      </trkpt>
      <trkpt lat="46.52563" lon="5.37286">
        <ele>215.6</ele>
        <time>2022-05-02T14:45:10Z</time>
      </trkpt>
      <trkpt lat="46.52562" lon="5.37276">
        <ele>215.6</ele>
        <time>2022-05-02T14:45:11Z</time>
      </trkpt>
      <trkpt lat="46.52551" lon="5.37234">
        <ele>215.4</ele>
        <time>2022-05-02T14:45:15Z</time>
      </trkpt>
      <trkpt lat="46.52547" lon="5.37224">
        <ele>215.4</ele>
        <time>2022-05-02T14:45:16Z</time>
      </trkpt>
      <trkpt lat="46.52526" lon="5.3719">
        <ele>214.8</ele>
        <time>2022-05-02T14:45:20Z</time>
      </trkpt>
      <trkpt lat="46.52483" lon="5.37138">
        <ele>214.6</ele>
        <time>2022-05-02T14:45:27Z</time>
      </trkpt>
      <trkpt lat="46.52458" lon="5.37096">
        <ele>214.4</ele>
        <time>2022-05-02T14:45:32Z</time>
      </trkpt>
      <trkpt lat="46.52448" lon="5.37067">
        <ele>214.2</ele>
        <time>2022-05-02T14:45:35Z</time>
      </trkpt>
      <trkpt lat="46.52443" lon="5.37048">
        <ele>214.2</ele>
        <time>2022-05-02T14:45:37Z</time>
      </trkpt>
      <trkpt lat="46.52439" lon="5.37029">
        <ele>214</ele>
        <time>2022-05-02T14:45:39Z</time>
      </trkpt>
      <trkpt lat="46.5243" lon="5.37016">
        <ele>213.8</ele>
        <time>2022-05-02T14:45:41Z</time>
      </trkpt>
      <trkpt lat="46.5242" lon="5.37023">
        <ele>213.6</ele>
        <time>2022-05-02T14:45:43Z</time>
      </trkpt>
      <trkpt lat="46.52416" lon="5.37029">
        <ele>213.6</ele>
        <time>2022-05-02T14:45:44Z</time>
      </trkpt>
      <trkpt lat="46.52404" lon="5.37052">
        <ele>213.6</ele>
        <time>2022-05-02T14:45:47Z</time>
      </trkpt>
      <trkpt lat="46.52377" lon="5.37087">
        <ele>213.4</ele>
        <time>2022-05-02T14:45:52Z</time>
      </trkpt>
      <trkpt lat="46.5234" lon="5.37126">
        <ele>213.8</ele>
        <time>2022-05-02T14:45:59Z</time>
      </trkpt>
      <trkpt lat="46.52308" lon="5.3716">
        <ele>215.2</ele>
        <time>2022-05-02T14:46:06Z</time>
      </trkpt>
      <trkpt lat="46.52303" lon="5.37164">
        <ele>215.4</ele>
        <time>2022-05-02T14:46:07Z</time>
      </trkpt>
      <trkpt lat="46.52287" lon="5.37182">
        <ele>216.4</ele>
        <time>2022-05-02T14:46:11Z</time>
      </trkpt>
      <trkpt lat="46.52271" lon="5.372">
        <ele>217.6</ele>
        <time>2022-05-02T14:46:15Z</time>
      </trkpt>
      <trkpt lat="46.52267" lon="5.37204">
        <ele>217.8</ele>
        <time>2022-05-02T14:46:16Z</time>
      </trkpt>
      <trkpt lat="46.5224" lon="5.37232">
        <ele>218.8</ele>
        <time>2022-05-02T14:46:23Z</time>
      </trkpt>
      <trkpt lat="46.52236" lon="5.37235">
        <ele>219</ele>
        <time>2022-05-02T14:46:24Z</time>
      </trkpt>
      <trkpt lat="46.52223" lon="5.37247">
        <ele>220</ele>
        <time>2022-05-02T14:46:27Z</time>
      </trkpt>
      <trkpt lat="46.5221" lon="5.37257">
        <ele>221</ele>
        <time>2022-05-02T14:46:30Z</time>
      </trkpt>
      <trkpt lat="46.52197" lon="5.37267">
        <ele>221.6</ele>
        <time>2022-05-02T14:46:33Z</time>
      </trkpt>
      <trkpt lat="46.52184" lon="5.37277">
        <ele>222.2</ele>
        <time>2022-05-02T14:46:36Z</time>
      </trkpt>
      <trkpt lat="46.52158" lon="5.37297">
        <ele>223.4</ele>
        <time>2022-05-02T14:46:42Z</time>
      </trkpt>
      <trkpt lat="46.52149" lon="5.37302">
        <ele>224.2</ele>
        <time>2022-05-02T14:46:44Z</time>
      </trkpt>
      <trkpt lat="46.52137" lon="5.37311">
        <ele>224.6</ele>
        <time>2022-05-02T14:46:47Z</time>
      </trkpt>
      <trkpt lat="46.52121" lon="5.37322">
        <ele>225.6</ele>
        <time>2022-05-02T14:46:51Z</time>
      </trkpt>
      <trkpt lat="46.52108" lon="5.3733">
        <ele>226.2</ele>
        <time>2022-05-02T14:46:54Z</time>
      </trkpt>
      <trkpt lat="46.52095" lon="5.3734">
        <ele>226.8</ele>
        <time>2022-05-02T14:46:57Z</time>
      </trkpt>
      <trkpt lat="46.52091" lon="5.37343">
        <ele>227.4</ele>
        <time>2022-05-02T14:46:58Z</time>
      </trkpt>
      <trkpt lat="46.52085" lon="5.37353">
        <ele>228</ele>
        <time>2022-05-02T14:47:00Z</time>
      </trkpt>
      <trkpt lat="46.5208" lon="5.37365">
        <ele>228.6</ele>
        <time>2022-05-02T14:47:02Z</time>
      </trkpt>
      <trkpt lat="46.52076" lon="5.37379">
        <ele>229.2</ele>
        <time>2022-05-02T14:47:04Z</time>
      </trkpt>
      <trkpt lat="46.52075" lon="5.37386">
        <ele>229.4</ele>
        <time>2022-05-02T14:47:05Z</time>
      </trkpt>
      <trkpt lat="46.52068" lon="5.37417">
        <ele>230</ele>
        <time>2022-05-02T14:47:09Z</time>
      </trkpt>
      <trkpt lat="46.52061" lon="5.3745">
        <ele>230.8</ele>
        <time>2022-05-02T14:47:13Z</time>
      </trkpt>
      <trkpt lat="46.52045" lon="5.37522">
        <ele>230.8</ele>
        <time>2022-05-02T14:47:21Z</time>
      </trkpt>
      <trkpt lat="46.52029" lon="5.37595">
        <ele>230.8</ele>
        <time>2022-05-02T14:47:29Z</time>
      </trkpt>
      <trkpt lat="46.52024" lon="5.37613">
        <ele>230.8</ele>
        <time>2022-05-02T14:47:31Z</time>
      </trkpt>
      <trkpt lat="46.52015" lon="5.37626">
        <ele>231.2</ele>
        <time>2022-05-02T14:47:33Z</time>
      </trkpt>
      <trkpt lat="46.52003" lon="5.3763">
        <ele>231.4</ele>
        <time>2022-05-02T14:47:35Z</time>
      </trkpt>
      <trkpt lat="46.51996" lon="5.37631">
        <ele>231.4</ele>
        <time>2022-05-02T14:47:36Z</time>
      </trkpt>
      <trkpt lat="46.51952" lon="5.37638">
        <ele>231.6</ele>
        <time>2022-05-02T14:47:42Z</time>
      </trkpt>
      <trkpt lat="46.51892" lon="5.37647">
        <ele>231.6</ele>
        <time>2022-05-02T14:47:50Z</time>
      </trkpt>
      <trkpt lat="46.51834" lon="5.37648">
        <ele>232.2</ele>
        <time>2022-05-02T14:47:58Z</time>
      </trkpt>
      <trkpt lat="46.51818" lon="5.37649">
        <ele>232.4</ele>
        <time>2022-05-02T14:48:00Z</time>
      </trkpt>
      <trkpt lat="46.51786" lon="5.37649">
        <ele>232.4</ele>
        <time>2022-05-02T14:48:04Z</time>
      </trkpt>
      <trkpt lat="46.51733" lon="5.37634">
        <ele>231.6</ele>
        <time>2022-05-02T14:48:10Z</time>
      </trkpt>
      <trkpt lat="46.51714" lon="5.37629">
        <ele>231.2</ele>
        <time>2022-05-02T14:48:12Z</time>
      </trkpt>
      <trkpt lat="46.51696" lon="5.37631">
        <ele>230.8</ele>
        <time>2022-05-02T14:48:14Z</time>
      </trkpt>
      <trkpt lat="46.51678" lon="5.37641">
        <ele>230</ele>
        <time>2022-05-02T14:48:16Z</time>
      </trkpt>
      <trkpt lat="46.5167" lon="5.37647">
        <ele>230</ele>
        <time>2022-05-02T14:48:17Z</time>
      </trkpt>
      <trkpt lat="46.51662" lon="5.37653">
        <ele>229.8</ele>
        <time>2022-05-02T14:48:18Z</time>
      </trkpt>
      <trkpt lat="46.51637" lon="5.37666">
        <ele>229.2</ele>
        <time>2022-05-02T14:48:21Z</time>
      </trkpt>
      <trkpt lat="46.51612" lon="5.37676">
        <ele>228.8</ele>
        <time>2022-05-02T14:48:24Z</time>
      </trkpt>
      <trkpt lat="46.51595" lon="5.37679">
        <ele>229</ele>
        <time>2022-05-02T14:48:26Z</time>
      </trkpt>
      <trkpt lat="46.51549" lon="5.37685">
        <ele>229</ele>
        <time>2022-05-02T14:48:32Z</time>
      </trkpt>
      <trkpt lat="46.51515" lon="5.37693">
        <ele>230</ele>
        <time>2022-05-02T14:48:37Z</time>
      </trkpt>
      <trkpt lat="46.51461" lon="5.37705">
        <ele>231</ele>
        <time>2022-05-02T14:48:45Z</time>
      </trkpt>
      <trkpt lat="46.51455" lon="5.37707">
        <ele>231.2</ele>
        <time>2022-05-02T14:48:46Z</time>
      </trkpt>
      <trkpt lat="46.51396" lon="5.37725">
        <ele>232</ele>
        <time>2022-05-02T14:48:55Z</time>
      </trkpt>
      <trkpt lat="46.51383" lon="5.3773">
        <ele>232.2</ele>
        <time>2022-05-02T14:48:57Z</time>
      </trkpt>
      <trkpt lat="46.51339" lon="5.37752">
        <ele>233.2</ele>
        <time>2022-05-02T14:49:04Z</time>
      </trkpt>
      <trkpt lat="46.51321" lon="5.37762">
        <ele>233.8</ele>
        <time>2022-05-02T14:49:07Z</time>
      </trkpt>
      <trkpt lat="46.5131" lon="5.37768">
        <ele>234.4</ele>
        <time>2022-05-02T14:49:09Z</time>
      </trkpt>
      <trkpt lat="46.51286" lon="5.3778">
        <ele>235.4</ele>
        <time>2022-05-02T14:49:13Z</time>
      </trkpt>
      <trkpt lat="46.51269" lon="5.37789">
        <ele>235.8</ele>
        <time>2022-05-02T14:49:16Z</time>
      </trkpt>
      <trkpt lat="46.51232" lon="5.37802">
        <ele>236.6</ele>
        <time>2022-05-02T14:49:22Z</time>
      </trkpt>
      <trkpt lat="46.51225" lon="5.37803">
        <ele>236.6</ele>
        <time>2022-05-02T14:49:23Z</time>
      </trkpt>
      <trkpt lat="46.51181" lon="5.37811">
        <ele>237.2</ele>
        <time>2022-05-02T14:49:30Z</time>
      </trkpt>
      <trkpt lat="46.5117" lon="5.37815">
        <ele>237.6</ele>
        <time>2022-05-02T14:49:32Z</time>
      </trkpt>
      <trkpt lat="46.51164" lon="5.37818">
        <ele>238.2</ele>
        <time>2022-05-02T14:49:33Z</time>
      </trkpt>
      <trkpt lat="46.51153" lon="5.37826">
        <ele>238.6</ele>
        <time>2022-05-02T14:49:35Z</time>
      </trkpt>
      <trkpt lat="46.51142" lon="5.37836">
        <ele>239</ele>
        <time>2022-05-02T14:49:37Z</time>
      </trkpt>
      <trkpt lat="46.51114" lon="5.37855">
        <ele>239.8</ele>
        <time>2022-05-02T14:49:42Z</time>
      </trkpt>
      <trkpt lat="46.51096" lon="5.37864">
        <ele>240.4</ele>
        <time>2022-05-02T14:49:45Z</time>
      </trkpt>
      <trkpt lat="46.51072" lon="5.3787">
        <ele>241</ele>
        <time>2022-05-02T14:49:49Z</time>
      </trkpt>
      <trkpt lat="46.51059" lon="5.37871">
        <ele>241.4</ele>
        <time>2022-05-02T14:49:51Z</time>
      </trkpt>
      <trkpt lat="46.5103" lon="5.37874">
        <ele>242.4</ele>
        <time>2022-05-02T14:49:56Z</time>
      </trkpt>
      <trkpt lat="46.51018" lon="5.37875">
        <ele>243</ele>
        <time>2022-05-02T14:49:58Z</time>
      </trkpt>
      <trkpt lat="46.50999" lon="5.37879">
        <ele>243.4</ele>
        <time>2022-05-02T14:50:01Z</time>
      </trkpt>
      <trkpt lat="46.50961" lon="5.37887">
        <ele>244.2</ele>
        <time>2022-05-02T14:50:07Z</time>
      </trkpt>
      <trkpt lat="46.50942" lon="5.37893">
        <ele>244.6</ele>
        <time>2022-05-02T14:50:10Z</time>
      </trkpt>
      <trkpt lat="46.50915" lon="5.37901">
        <ele>245.2</ele>
        <time>2022-05-02T14:50:14Z</time>
      </trkpt>
      <trkpt lat="46.50871" lon="5.37902">
        <ele>245</ele>
        <time>2022-05-02T14:50:20Z</time>
      </trkpt>
      <trkpt lat="46.50821" lon="5.37894">
        <ele>244.8</ele>
        <time>2022-05-02T14:50:27Z</time>
      </trkpt>
      <trkpt lat="46.50808" lon="5.37885">
        <ele>244.8</ele>
        <time>2022-05-02T14:50:29Z</time>
      </trkpt>
      <trkpt lat="46.50797" lon="5.37872">
        <ele>245</ele>
        <time>2022-05-02T14:50:31Z</time>
      </trkpt>
      <trkpt lat="46.50762" lon="5.37817">
        <ele>244.8</ele>
        <time>2022-05-02T14:50:38Z</time>
      </trkpt>
      <trkpt lat="46.50758" lon="5.37808">
        <ele>244.8</ele>
        <time>2022-05-02T14:50:39Z</time>
      </trkpt>
      <trkpt lat="46.5075" lon="5.37777">
        <ele>244.6</ele>
        <time>2022-05-02T14:50:42Z</time>
      </trkpt>
      <trkpt lat="46.50748" lon="5.37765">
        <ele>244.6</ele>
        <time>2022-05-02T14:50:43Z</time>
      </trkpt>
      <trkpt lat="46.50741" lon="5.37688">
        <ele>243.8</ele>
        <time>2022-05-02T14:50:50Z</time>
      </trkpt>
      <trkpt lat="46.5074" lon="5.37676">
        <ele>243.8</ele>
        <time>2022-05-02T14:50:51Z</time>
      </trkpt>
      <trkpt lat="46.5074" lon="5.37664">
        <ele>243.4</ele>
        <time>2022-05-02T14:50:52Z</time>
      </trkpt>
      <trkpt lat="46.50737" lon="5.37626">
        <ele>242.8</ele>
        <time>2022-05-02T14:50:55Z</time>
      </trkpt>
      <trkpt lat="46.50729" lon="5.37603">
        <ele>242.2</ele>
        <time>2022-05-02T14:50:57Z</time>
      </trkpt>
      <trkpt lat="46.50723" lon="5.37592">
        <ele>242</ele>
        <time>2022-05-02T14:50:58Z</time>
      </trkpt>
      <trkpt lat="46.50711" lon="5.37575">
        <ele>241.2</ele>
        <time>2022-05-02T14:51:00Z</time>
      </trkpt>
      <trkpt lat="46.50701" lon="5.37563">
        <ele>240.6</ele>
        <time>2022-05-02T14:51:02Z</time>
      </trkpt>
      <trkpt lat="46.50697" lon="5.37559">
        <ele>239.6</ele>
        <time>2022-05-02T14:51:03Z</time>
      </trkpt>
      <trkpt lat="46.50692" lon="5.37559">
        <ele>239</ele>
        <time>2022-05-02T14:51:04Z</time>
      </trkpt>
      <trkpt lat="46.50684" lon="5.37567">
        <ele>238.2</ele>
        <time>2022-05-02T14:51:06Z</time>
      </trkpt>
      <trkpt lat="46.5068" lon="5.37574">
        <ele>238.2</ele>
        <time>2022-05-02T14:51:07Z</time>
      </trkpt>
      <trkpt lat="46.50657" lon="5.37609">
        <ele>238.2</ele>
        <time>2022-05-02T14:51:12Z</time>
      </trkpt>
      <trkpt lat="46.50622" lon="5.37663">
        <ele>239</ele>
        <time>2022-05-02T14:51:19Z</time>
      </trkpt>
      <trkpt lat="46.5059" lon="5.37712">
        <ele>239.6</ele>
        <time>2022-05-02T14:51:26Z</time>
      </trkpt>
      <trkpt lat="46.50585" lon="5.37719">
        <ele>239.6</ele>
        <time>2022-05-02T14:51:27Z</time>
      </trkpt>
      <trkpt lat="46.50564" lon="5.3775">
        <ele>240.8</ele>
        <time>2022-05-02T14:51:32Z</time>
      </trkpt>
      <trkpt lat="46.50557" lon="5.37762">
        <ele>241.2</ele>
        <time>2022-05-02T14:51:34Z</time>
      </trkpt>
      <trkpt lat="46.50542" lon="5.37785">
        <ele>242.2</ele>
        <time>2022-05-02T14:51:38Z</time>
      </trkpt>
      <trkpt lat="46.50531" lon="5.37801">
        <ele>242.8</ele>
        <time>2022-05-02T14:51:41Z</time>
      </trkpt>
      <trkpt lat="46.50524" lon="5.37812">
        <ele>243.2</ele>
        <time>2022-05-02T14:51:43Z</time>
      </trkpt>
      <trkpt lat="46.50508" lon="5.37838">
        <ele>244.2</ele>
        <time>2022-05-02T14:51:48Z</time>
      </trkpt>
      <trkpt lat="46.50501" lon="5.37848">
        <ele>245</ele>
        <time>2022-05-02T14:51:50Z</time>
      </trkpt>
      <trkpt lat="46.50495" lon="5.37857">
        <ele>245.4</ele>
        <time>2022-05-02T14:51:52Z</time>
      </trkpt>
      <trkpt lat="46.50476" lon="5.37886">
        <ele>246.4</ele>
        <time>2022-05-02T14:51:58Z</time>
      </trkpt>
      <trkpt lat="46.50469" lon="5.37896">
        <ele>247</ele>
        <time>2022-05-02T14:52:00Z</time>
      </trkpt>
      <trkpt lat="46.50459" lon="5.37912">
        <ele>247.4</ele>
        <time>2022-05-02T14:52:03Z</time>
      </trkpt>
      <trkpt lat="46.50449" lon="5.37927">
        <ele>247.8</ele>
        <time>2022-05-02T14:52:06Z</time>
      </trkpt>
      <trkpt lat="46.50444" lon="5.37933">
        <ele>248</ele>
        <time>2022-05-02T14:52:08Z</time>
      </trkpt>
      <trkpt lat="46.50438" lon="5.37941">
        <ele>248.4</ele>
        <time>2022-05-02T14:52:10Z</time>
      </trkpt>
      <trkpt lat="46.50432" lon="5.3795">
        <ele>249</ele>
        <time>2022-05-02T14:52:12Z</time>
      </trkpt>
      <trkpt lat="46.50422" lon="5.37965">
        <ele>249.6</ele>
        <time>2022-05-02T14:52:15Z</time>
      </trkpt>
      <trkpt lat="46.50412" lon="5.37981">
        <ele>250.8</ele>
        <time>2022-05-02T14:52:18Z</time>
      </trkpt>
      <trkpt lat="46.50405" lon="5.37991">
        <ele>251.4</ele>
        <time>2022-05-02T14:52:20Z</time>
      </trkpt>
      <trkpt lat="46.50395" lon="5.38007">
        <ele>251.8</ele>
        <time>2022-05-02T14:52:23Z</time>
      </trkpt>
      <trkpt lat="46.50385" lon="5.38023">
        <ele>252.6</ele>
        <time>2022-05-02T14:52:26Z</time>
      </trkpt>
      <trkpt lat="46.50381" lon="5.38027">
        <ele>252.6</ele>
        <time>2022-05-02T14:52:27Z</time>
      </trkpt>
      <trkpt lat="46.50377" lon="5.38028">
        <ele>253</ele>
        <time>2022-05-02T14:52:28Z</time>
      </trkpt>
      <trkpt lat="46.50368" lon="5.38023">
        <ele>253.4</ele>
        <time>2022-05-02T14:52:30Z</time>
      </trkpt>
      <trkpt lat="46.50364" lon="5.3801">
        <ele>253.4</ele>
        <time>2022-05-02T14:52:32Z</time>
      </trkpt>
      <trkpt lat="46.50363" lon="5.38003">
        <ele>253.6</ele>
        <time>2022-05-02T14:52:33Z</time>
      </trkpt>
      <trkpt lat="46.50363" lon="5.37996">
        <ele>254</ele>
        <time>2022-05-02T14:52:34Z</time>
      </trkpt>
      <trkpt lat="46.50363" lon="5.37989">
        <ele>254.2</ele>
        <time>2022-05-02T14:52:35Z</time>
      </trkpt>
      <trkpt lat="46.50363" lon="5.37959">
        <ele>255</ele>
        <time>2022-05-02T14:52:39Z</time>
      </trkpt>
      <trkpt lat="46.50363" lon="5.37951">
        <ele>255</ele>
        <time>2022-05-02T14:52:40Z</time>
      </trkpt>
      <trkpt lat="46.50361" lon="5.37935">
        <ele>255.2</ele>
        <time>2022-05-02T14:52:42Z</time>
      </trkpt>
      <trkpt lat="46.50358" lon="5.37917">
        <ele>255.4</ele>
        <time>2022-05-02T14:52:44Z</time>
      </trkpt>
      <trkpt lat="46.50347" lon="5.37893">
        <ele>255.6</ele>
        <time>2022-05-02T14:52:47Z</time>
      </trkpt>
      <trkpt lat="46.50343" lon="5.37886">
        <ele>255.6</ele>
        <time>2022-05-02T14:52:48Z</time>
      </trkpt>
      <trkpt lat="46.50307" lon="5.37847">
        <ele>255.4</ele>
        <time>2022-05-02T14:52:55Z</time>
      </trkpt>
      <trkpt lat="46.50261" lon="5.37803">
        <ele>255</ele>
        <time>2022-05-02T14:53:03Z</time>
      </trkpt>
      <trkpt lat="46.50216" lon="5.37766">
        <ele>254.8</ele>
        <time>2022-05-02T14:53:10Z</time>
      </trkpt>
      <trkpt lat="46.50179" lon="5.37748">
        <ele>254.4</ele>
        <time>2022-05-02T14:53:15Z</time>
      </trkpt>
      <trkpt lat="46.50172" lon="5.37745">
        <ele>254.2</ele>
        <time>2022-05-02T14:53:16Z</time>
      </trkpt>
      <trkpt lat="46.50165" lon="5.37741">
        <ele>254.2</ele>
        <time>2022-05-02T14:53:17Z</time>
      </trkpt>
      <trkpt lat="46.5016" lon="5.37733">
        <ele>254.2</ele>
        <time>2022-05-02T14:53:18Z</time>
      </trkpt>
      <trkpt lat="46.50153" lon="5.37711">
        <ele>254</ele>
        <time>2022-05-02T14:53:20Z</time>
      </trkpt>
      <trkpt lat="46.50148" lon="5.37684">
        <ele>254</ele>
        <time>2022-05-02T14:53:22Z</time>
      </trkpt>
      <trkpt lat="46.50143" lon="5.37631">
        <ele>253.2</ele>
        <time>2022-05-02T14:53:26Z</time>
      </trkpt>
      <trkpt lat="46.50143" lon="5.37616">
        <ele>252.8</ele>
        <time>2022-05-02T14:53:27Z</time>
      </trkpt>
      <trkpt lat="46.50142" lon="5.37575">
        <ele>251.8</ele>
        <time>2022-05-02T14:53:30Z</time>
      </trkpt>
      <trkpt lat="46.50138" lon="5.37548">
        <ele>251.4</ele>
        <time>2022-05-02T14:53:32Z</time>
      </trkpt>
      <trkpt lat="46.50135" lon="5.37535">
        <ele>251.2</ele>
        <time>2022-05-02T14:53:33Z</time>
      </trkpt>
      <trkpt lat="46.50122" lon="5.375">
        <ele>250.8</ele>
        <time>2022-05-02T14:53:36Z</time>
      </trkpt>
      <trkpt lat="46.50094" lon="5.37448">
        <ele>249.6</ele>
        <time>2022-05-02T14:53:41Z</time>
      </trkpt>
      <trkpt lat="46.50085" lon="5.37427">
        <ele>249.4</ele>
        <time>2022-05-02T14:53:43Z</time>
      </trkpt>
      <trkpt lat="46.50077" lon="5.37403">
        <ele>249.4</ele>
        <time>2022-05-02T14:53:45Z</time>
      </trkpt>
      <trkpt lat="46.50063" lon="5.37328">
        <ele>249.2</ele>
        <time>2022-05-02T14:53:51Z</time>
      </trkpt>
      <trkpt lat="46.50048" lon="5.37249">
        <ele>248.8</ele>
        <time>2022-05-02T14:53:57Z</time>
      </trkpt>
      <trkpt lat="46.50046" lon="5.37235">
        <ele>248.4</ele>
        <time>2022-05-02T14:53:58Z</time>
      </trkpt>
      <trkpt lat="46.50041" lon="5.37208">
        <ele>248</ele>
        <time>2022-05-02T14:54:00Z</time>
      </trkpt>
      <trkpt lat="46.50033" lon="5.37168">
        <ele>247.2</ele>
        <time>2022-05-02T14:54:03Z</time>
      </trkpt>
      <trkpt lat="46.50023" lon="5.37113">
        <ele>246</ele>
        <time>2022-05-02T14:54:07Z</time>
      </trkpt>
      <trkpt lat="46.50018" lon="5.37085">
        <ele>245.6</ele>
        <time>2022-05-02T14:54:09Z</time>
      </trkpt>
      <trkpt lat="46.50012" lon="5.37058">
        <ele>245.2</ele>
        <time>2022-05-02T14:54:11Z</time>
      </trkpt>
      <trkpt lat="46.5" lon="5.36988">
        <ele>244.2</ele>
        <time>2022-05-02T14:54:16Z</time>
      </trkpt>
      <trkpt lat="46.49989" lon="5.36933">
        <ele>243.6</ele>
        <time>2022-05-02T14:54:20Z</time>
      </trkpt>
      <trkpt lat="46.49984" lon="5.36905">
        <ele>243</ele>
        <time>2022-05-02T14:54:22Z</time>
      </trkpt>
      <trkpt lat="46.49973" lon="5.36849">
        <ele>241.8</ele>
        <time>2022-05-02T14:54:26Z</time>
      </trkpt>
      <trkpt lat="46.49963" lon="5.36795">
        <ele>240.6</ele>
        <time>2022-05-02T14:54:30Z</time>
      </trkpt>
      <trkpt lat="46.49961" lon="5.36782">
        <ele>240.2</ele>
        <time>2022-05-02T14:54:31Z</time>
      </trkpt>
      <trkpt lat="46.49951" lon="5.3673">
        <ele>239.2</ele>
        <time>2022-05-02T14:54:35Z</time>
      </trkpt>
      <trkpt lat="46.49941" lon="5.3668">
        <ele>238.4</ele>
        <time>2022-05-02T14:54:39Z</time>
      </trkpt>
      <trkpt lat="46.49939" lon="5.36669">
        <ele>238.2</ele>
        <time>2022-05-02T14:54:40Z</time>
      </trkpt>
      <trkpt lat="46.49935" lon="5.36648">
        <ele>237.6</ele>
        <time>2022-05-02T14:54:42Z</time>
      </trkpt>
      <trkpt lat="46.49933" lon="5.3664">
        <ele>237.4</ele>
        <time>2022-05-02T14:54:43Z</time>
      </trkpt>
      <trkpt lat="46.49931" lon="5.36634">
        <ele>237.2</ele>
        <time>2022-05-02T14:54:44Z</time>
      </trkpt>
      <trkpt lat="46.49929" lon="5.36629">
        <ele>237</ele>
        <time>2022-05-02T14:54:45Z</time>
      </trkpt>
      <trkpt lat="46.49926" lon="5.36624">
        <ele>236.8</ele>
        <time>2022-05-02T14:54:46Z</time>
      </trkpt>
      <trkpt lat="46.49924" lon="5.36618">
        <ele>236.6</ele>
        <time>2022-05-02T14:54:47Z</time>
      </trkpt>
      <trkpt lat="46.4992" lon="5.36601">
        <ele>236</ele>
        <time>2022-05-02T14:54:49Z</time>
      </trkpt>
      <trkpt lat="46.49903" lon="5.36566">
        <ele>235.4</ele>
        <time>2022-05-02T14:54:53Z</time>
      </trkpt>
      <trkpt lat="46.49891" lon="5.36548">
        <ele>235</ele>
        <time>2022-05-02T14:54:55Z</time>
      </trkpt>
      <trkpt lat="46.49873" lon="5.36521">
        <ele>234.4</ele>
        <time>2022-05-02T14:54:58Z</time>
      </trkpt>
      <trkpt lat="46.49847" lon="5.36483">
        <ele>234</ele>
        <time>2022-05-02T14:55:02Z</time>
      </trkpt>
      <trkpt lat="46.49829" lon="5.36452">
        <ele>233.6</ele>
        <time>2022-05-02T14:55:05Z</time>
      </trkpt>
      <trkpt lat="46.49808" lon="5.36407">
        <ele>232.8</ele>
        <time>2022-05-02T14:55:09Z</time>
      </trkpt>
      <trkpt lat="46.49794" lon="5.36372">
        <ele>232.6</ele>
        <time>2022-05-02T14:55:12Z</time>
      </trkpt>
      <trkpt lat="46.49763" lon="5.363">
        <ele>232</ele>
        <time>2022-05-02T14:55:18Z</time>
      </trkpt>
      <trkpt lat="46.49758" lon="5.36287">
        <ele>231.6</ele>
        <time>2022-05-02T14:55:19Z</time>
      </trkpt>
      <trkpt lat="46.49753" lon="5.36274">
        <ele>231.4</ele>
        <time>2022-05-02T14:55:20Z</time>
      </trkpt>
      <trkpt lat="46.49742" lon="5.36249">
        <ele>230.4</ele>
        <time>2022-05-02T14:55:22Z</time>
      </trkpt>
      <trkpt lat="46.49719" lon="5.362">
        <ele>229.2</ele>
        <time>2022-05-02T14:55:26Z</time>
      </trkpt>
      <trkpt lat="46.49712" lon="5.36189">
        <ele>229</ele>
        <time>2022-05-02T14:55:27Z</time>
      </trkpt>
      <trkpt lat="46.49693" lon="5.36157">
        <ele>228.2</ele>
        <time>2022-05-02T14:55:30Z</time>
      </trkpt>
      <trkpt lat="46.49664" lon="5.36105">
        <ele>227</ele>
        <time>2022-05-02T14:55:35Z</time>
      </trkpt>
      <trkpt lat="46.4965" lon="5.36056">
        <ele>226.8</ele>
        <time>2022-05-02T14:55:39Z</time>
      </trkpt>
      <trkpt lat="46.49649" lon="5.36044">
        <ele>226.6</ele>
        <time>2022-05-02T14:55:40Z</time>
      </trkpt>
      <trkpt lat="46.49646" lon="5.35994">
        <ele>226.2</ele>
        <time>2022-05-02T14:55:44Z</time>
      </trkpt>
      <trkpt lat="46.4964" lon="5.35911">
        <ele>226</ele>
        <time>2022-05-02T14:55:51Z</time>
      </trkpt>
      <trkpt lat="46.49639" lon="5.35889">
        <ele>226.6</ele>
        <time>2022-05-02T14:55:53Z</time>
      </trkpt>
      <trkpt lat="46.49641" lon="5.35836">
        <ele>226.8</ele>
        <time>2022-05-02T14:55:58Z</time>
      </trkpt>
      <trkpt lat="46.49645" lon="5.35818">
        <ele>227.2</ele>
        <time>2022-05-02T14:56:00Z</time>
      </trkpt>
      <trkpt lat="46.49652" lon="5.35795">
        <ele>227.8</ele>
        <time>2022-05-02T14:56:03Z</time>
      </trkpt>
      <trkpt lat="46.4966" lon="5.35773">
        <ele>228.2</ele>
        <time>2022-05-02T14:56:06Z</time>
      </trkpt>
      <trkpt lat="46.49666" lon="5.3576">
        <ele>228.2</ele>
        <time>2022-05-02T14:56:08Z</time>
      </trkpt>
      <trkpt lat="46.49684" lon="5.35718">
        <ele>229.4</ele>
        <time>2022-05-02T14:56:14Z</time>
      </trkpt>
      <trkpt lat="46.49688" lon="5.35703">
        <ele>229.6</ele>
        <time>2022-05-02T14:56:16Z</time>
      </trkpt>
      <trkpt lat="46.49696" lon="5.35673">
        <ele>230.4</ele>
        <time>2022-05-02T14:56:20Z</time>
      </trkpt>
      <trkpt lat="46.49698" lon="5.35656">
        <ele>230.8</ele>
        <time>2022-05-02T14:56:22Z</time>
      </trkpt>
      <trkpt lat="46.49692" lon="5.35643">
        <ele>231.4</ele>
        <time>2022-05-02T14:56:24Z</time>
      </trkpt>
      <trkpt lat="46.49687" lon="5.3564">
        <ele>231.8</ele>
        <time>2022-05-02T14:56:25Z</time>
      </trkpt>
      <trkpt lat="46.49676" lon="5.35637">
        <ele>232.2</ele>
        <time>2022-05-02T14:56:27Z</time>
      </trkpt>
      <trkpt lat="46.49652" lon="5.3563">
        <ele>232.8</ele>
        <time>2022-05-02T14:56:31Z</time>
      </trkpt>
      <trkpt lat="46.49623" lon="5.35621">
        <ele>233.6</ele>
        <time>2022-05-02T14:56:36Z</time>
      </trkpt>
      <trkpt lat="46.49611" lon="5.35617">
        <ele>233.8</ele>
        <time>2022-05-02T14:56:38Z</time>
      </trkpt>
      <trkpt lat="46.49581" lon="5.35609">
        <ele>234.6</ele>
        <time>2022-05-02T14:56:43Z</time>
      </trkpt>
      <trkpt lat="46.49569" lon="5.35604">
        <ele>235</ele>
        <time>2022-05-02T14:56:45Z</time>
      </trkpt>
      <trkpt lat="46.49528" lon="5.35589">
        <ele>235.8</ele>
        <time>2022-05-02T14:56:52Z</time>
      </trkpt>
      <trkpt lat="46.49516" lon="5.35584">
        <ele>236</ele>
        <time>2022-05-02T14:56:54Z</time>
      </trkpt>
      <trkpt lat="46.49481" lon="5.35569">
        <ele>237.2</ele>
        <time>2022-05-02T14:57:00Z</time>
      </trkpt>
      <trkpt lat="46.49463" lon="5.35562">
        <ele>237.6</ele>
        <time>2022-05-02T14:57:03Z</time>
      </trkpt>
      <trkpt lat="46.49432" lon="5.35549">
        <ele>238.2</ele>
        <time>2022-05-02T14:57:08Z</time>
      </trkpt>
      <trkpt lat="46.49408" lon="5.35539">
        <ele>238.2</ele>
        <time>2022-05-02T14:57:12Z</time>
      </trkpt>
      <trkpt lat="46.49364" lon="5.35529">
        <ele>238.4</ele>
        <time>2022-05-02T14:57:19Z</time>
      </trkpt>
      <trkpt lat="46.49326" lon="5.35532">
        <ele>239.2</ele>
        <time>2022-05-02T14:57:25Z</time>
      </trkpt>
      <trkpt lat="46.4932" lon="5.35532">
        <ele>239.4</ele>
        <time>2022-05-02T14:57:26Z</time>
      </trkpt>
      <trkpt lat="46.49301" lon="5.35535">
        <ele>239.6</ele>
        <time>2022-05-02T14:57:29Z</time>
      </trkpt>
      <trkpt lat="46.49287" lon="5.35535">
        <ele>239.8</ele>
        <time>2022-05-02T14:57:31Z</time>
      </trkpt>
      <trkpt lat="46.49252" lon="5.35537">
        <ele>240.4</ele>
        <time>2022-05-02T14:57:36Z</time>
      </trkpt>
      <trkpt lat="46.49231" lon="5.35539">
        <ele>240.6</ele>
        <time>2022-05-02T14:57:39Z</time>
      </trkpt>
      <trkpt lat="46.49187" lon="5.35544">
        <ele>241</ele>
        <time>2022-05-02T14:57:45Z</time>
      </trkpt>
      <trkpt lat="46.49147" lon="5.35546">
        <ele>241</ele>
        <time>2022-05-02T14:57:50Z</time>
      </trkpt>
      <trkpt lat="46.49131" lon="5.35546">
        <ele>240.8</ele>
        <time>2022-05-02T14:57:52Z</time>
      </trkpt>
      <trkpt lat="46.49106" lon="5.35549">
        <ele>240.4</ele>
        <time>2022-05-02T14:57:55Z</time>
      </trkpt>
      <trkpt lat="46.49053" lon="5.3555">
        <ele>239.4</ele>
        <time>2022-05-02T14:58:01Z</time>
      </trkpt>
      <trkpt lat="46.49044" lon="5.3555">
        <ele>239.2</ele>
        <time>2022-05-02T14:58:02Z</time>
      </trkpt>
      <trkpt lat="46.48991" lon="5.35553">
        <ele>238.2</ele>
        <time>2022-05-02T14:58:08Z</time>
      </trkpt>
      <trkpt lat="46.48982" lon="5.35553">
        <ele>238</ele>
        <time>2022-05-02T14:58:09Z</time>
      </trkpt>
      <trkpt lat="46.48927" lon="5.35556">
        <ele>237.4</ele>
        <time>2022-05-02T14:58:16Z</time>
      </trkpt>
      <trkpt lat="46.48879" lon="5.35558">
        <ele>237.8</ele>
        <time>2022-05-02T14:58:23Z</time>
      </trkpt>
      <trkpt lat="46.48849" lon="5.3556">
        <ele>238.4</ele>
        <time>2022-05-02T14:58:28Z</time>
      </trkpt>
      <trkpt lat="46.4884" lon="5.35565">
        <ele>238.6</ele>
        <time>2022-05-02T14:58:30Z</time>
      </trkpt>
      <trkpt lat="46.48831" lon="5.35576">
        <ele>238.6</ele>
        <time>2022-05-02T14:58:32Z</time>
      </trkpt>
      <trkpt lat="46.48812" lon="5.35615">
        <ele>239.2</ele>
        <time>2022-05-02T14:58:37Z</time>
      </trkpt>
      <trkpt lat="46.48783" lon="5.35682">
        <ele>240</ele>
        <time>2022-05-02T14:58:45Z</time>
      </trkpt>
      <trkpt lat="46.48754" lon="5.3575">
        <ele>239.6</ele>
        <time>2022-05-02T14:58:53Z</time>
      </trkpt>
      <trkpt lat="46.4875" lon="5.35759">
        <ele>239.6</ele>
        <time>2022-05-02T14:58:54Z</time>
      </trkpt>
      <trkpt lat="46.48725" lon="5.35817">
        <ele>239.6</ele>
        <time>2022-05-02T14:59:01Z</time>
      </trkpt>
      <trkpt lat="46.48715" lon="5.35841">
        <ele>239.8</ele>
        <time>2022-05-02T14:59:04Z</time>
      </trkpt>
      <trkpt lat="46.48695" lon="5.3589">
        <ele>240</ele>
        <time>2022-05-02T14:59:10Z</time>
      </trkpt>
      <trkpt lat="46.48688" lon="5.35915">
        <ele>240.2</ele>
        <time>2022-05-02T14:59:13Z</time>
      </trkpt>
      <trkpt lat="46.48685" lon="5.35932">
        <ele>240.6</ele>
        <time>2022-05-02T14:59:15Z</time>
      </trkpt>
      <trkpt lat="46.4868" lon="5.35959">
        <ele>241.4</ele>
        <time>2022-05-02T14:59:18Z</time>
      </trkpt>
      <trkpt lat="46.48672" lon="5.36017">
        <ele>242.2</ele>
        <time>2022-05-02T14:59:24Z</time>
      </trkpt>
      <trkpt lat="46.4867" lon="5.36028">
        <ele>242.4</ele>
        <time>2022-05-02T14:59:25Z</time>
      </trkpt>
      <trkpt lat="46.48657" lon="5.36083">
        <ele>242.4</ele>
        <time>2022-05-02T14:59:30Z</time>
      </trkpt>
      <trkpt lat="46.48644" lon="5.36153">
        <ele>241.4</ele>
        <time>2022-05-02T14:59:36Z</time>
      </trkpt>
      <trkpt lat="46.48643" lon="5.36164">
        <ele>241</ele>
        <time>2022-05-02T14:59:37Z</time>
      </trkpt>
      <trkpt lat="46.48637" lon="5.36238">
        <ele>240.8</ele>
        <time>2022-05-02T14:59:44Z</time>
      </trkpt>
      <trkpt lat="46.48628" lon="5.36295">
        <ele>241.4</ele>
        <time>2022-05-02T14:59:50Z</time>
      </trkpt>
      <trkpt lat="46.48625" lon="5.36303">
        <ele>241.6</ele>
        <time>2022-05-02T14:59:51Z</time>
      </trkpt>
      <trkpt lat="46.48621" lon="5.3631">
        <ele>241.8</ele>
        <time>2022-05-02T14:59:52Z</time>
      </trkpt>
      <trkpt lat="46.48611" lon="5.36319">
        <ele>242</ele>
        <time>2022-05-02T14:59:54Z</time>
      </trkpt>
      <trkpt lat="46.48594" lon="5.36325">
        <ele>242.4</ele>
        <time>2022-05-02T14:59:57Z</time>
      </trkpt>
      <trkpt lat="46.48583" lon="5.36327">
        <ele>243</ele>
        <time>2022-05-02T14:59:59Z</time>
      </trkpt>
      <trkpt lat="46.48571" lon="5.36329">
        <ele>243.6</ele>
        <time>2022-05-02T15:00:01Z</time>
      </trkpt>
      <trkpt lat="46.48543" lon="5.36333">
        <ele>244.8</ele>
        <time>2022-05-02T15:00:06Z</time>
      </trkpt>
      <trkpt lat="46.48531" lon="5.36334">
        <ele>245.4</ele>
        <time>2022-05-02T15:00:08Z</time>
      </trkpt>
      <trkpt lat="46.48505" lon="5.36338">
        <ele>246</ele>
        <time>2022-05-02T15:00:12Z</time>
      </trkpt>
      <trkpt lat="46.48474" lon="5.36343">
        <ele>246.8</ele>
        <time>2022-05-02T15:00:17Z</time>
      </trkpt>
      <trkpt lat="46.48429" lon="5.36351">
        <ele>247</ele>
        <time>2022-05-02T15:00:24Z</time>
      </trkpt>
      <trkpt lat="46.48422" lon="5.36353">
        <ele>247</ele>
        <time>2022-05-02T15:00:25Z</time>
      </trkpt>
      <trkpt lat="46.48398" lon="5.3637">
        <ele>247.2</ele>
        <time>2022-05-02T15:00:29Z</time>
      </trkpt>
      <trkpt lat="46.48361" lon="5.36408">
        <ele>247.8</ele>
        <time>2022-05-02T15:00:36Z</time>
      </trkpt>
      <trkpt lat="46.48331" lon="5.3644">
        <ele>248.4</ele>
        <time>2022-05-02T15:00:42Z</time>
      </trkpt>
      <trkpt lat="46.48327" lon="5.36445">
        <ele>248.4</ele>
        <time>2022-05-02T15:00:43Z</time>
      </trkpt>
      <trkpt lat="46.483" lon="5.36475">
        <ele>249.4</ele>
        <time>2022-05-02T15:00:49Z</time>
      </trkpt>
      <trkpt lat="46.48291" lon="5.36484">
        <ele>249.6</ele>
        <time>2022-05-02T15:00:51Z</time>
      </trkpt>
      <trkpt lat="46.48269" lon="5.36509">
        <ele>250.4</ele>
        <time>2022-05-02T15:00:56Z</time>
      </trkpt>
      <trkpt lat="46.48248" lon="5.36531">
        <ele>251.4</ele>
        <time>2022-05-02T15:01:01Z</time>
      </trkpt>
      <trkpt lat="46.48244" lon="5.36536">
        <ele>251.6</ele>
        <time>2022-05-02T15:01:02Z</time>
      </trkpt>
      <trkpt lat="46.48222" lon="5.36557">
        <ele>252</ele>
        <time>2022-05-02T15:01:07Z</time>
      </trkpt>
      <trkpt lat="46.48212" lon="5.36559">
        <ele>252.4</ele>
        <time>2022-05-02T15:01:09Z</time>
      </trkpt>
      <trkpt lat="46.48207" lon="5.36559">
        <ele>252.6</ele>
        <time>2022-05-02T15:01:10Z</time>
      </trkpt>
      <trkpt lat="46.48201" lon="5.3656">
        <ele>252.8</ele>
        <time>2022-05-02T15:01:11Z</time>
      </trkpt>
      <trkpt lat="46.48193" lon="5.36568">
        <ele>253.2</ele>
        <time>2022-05-02T15:01:13Z</time>
      </trkpt>
      <trkpt lat="46.48182" lon="5.36595">
        <ele>253.8</ele>
        <time>2022-05-02T15:01:17Z</time>
      </trkpt>
      <trkpt lat="46.48162" lon="5.36623">
        <ele>254.2</ele>
        <time>2022-05-02T15:01:22Z</time>
      </trkpt>
      <trkpt lat="46.48131" lon="5.36661">
        <ele>254.8</ele>
        <time>2022-05-02T15:01:29Z</time>
      </trkpt>
      <trkpt lat="46.48107" lon="5.36686">
        <ele>255.4</ele>
        <time>2022-05-02T15:01:35Z</time>
      </trkpt>
      <trkpt lat="46.48103" lon="5.36697">
        <ele>255.6</ele>
        <time>2022-05-02T15:01:37Z</time>
      </trkpt>
      <trkpt lat="46.48104" lon="5.36703">
        <ele>255.8</ele>
        <time>2022-05-02T15:01:38Z</time>
      </trkpt>
      <trkpt lat="46.48107" lon="5.36708">
        <ele>255.8</ele>
        <time>2022-05-02T15:01:39Z</time>
      </trkpt>
      <trkpt lat="46.48114" lon="5.36714">
        <ele>256.4</ele>
        <time>2022-05-02T15:01:41Z</time>
      </trkpt>
      <trkpt lat="46.48122" lon="5.3672">
        <ele>257</ele>
        <time>2022-05-02T15:01:43Z</time>
      </trkpt>
      <trkpt lat="46.48146" lon="5.36736">
        <ele>258</ele>
        <time>2022-05-02T15:01:49Z</time>
      </trkpt>
      <trkpt lat="46.48154" lon="5.36742">
        <ele>258.2</ele>
        <time>2022-05-02T15:01:51Z</time>
      </trkpt>
      <trkpt lat="46.4818" lon="5.36762">
        <ele>259.2</ele>
        <time>2022-05-02T15:01:58Z</time>
      </trkpt>
      <trkpt lat="46.48183" lon="5.36765">
        <ele>259.4</ele>
        <time>2022-05-02T15:01:59Z</time>
      </trkpt>
      <trkpt lat="46.48198" lon="5.36777">
        <ele>260.2</ele>
        <time>2022-05-02T15:02:03Z</time>
      </trkpt>
      <trkpt lat="46.48205" lon="5.36784">
        <ele>260.4</ele>
        <time>2022-05-02T15:02:05Z</time>
      </trkpt>
      <trkpt lat="46.48216" lon="5.36792">
        <ele>261.2</ele>
        <time>2022-05-02T15:02:08Z</time>
      </trkpt>
      <trkpt lat="46.48219" lon="5.36795">
        <ele>261.4</ele>
        <time>2022-05-02T15:02:09Z</time>
      </trkpt>
      <trkpt lat="46.48233" lon="5.36806">
        <ele>262.6</ele>
        <time>2022-05-02T15:02:13Z</time>
      </trkpt>
      <trkpt lat="46.48253" lon="5.36823">
        <ele>263.6</ele>
        <time>2022-05-02T15:02:19Z</time>
      </trkpt>
      <trkpt lat="46.48266" lon="5.36837">
        <ele>264.6</ele>
        <time>2022-05-02T15:02:23Z</time>
      </trkpt>
    </trkseg>
  </trk>
</gpx>